ECMWFFLT1_850_thetae_000.txt.gz
Theta_e
351 350 348 343 341 338 335 335 335 336 337 337 337 336 333 332 332 332 331 328 325 323 322 322 322 322 322 323 323 323 323 323 324 325 326 327 327 328 328 329 329 329 331 332 333 333 333 333 333 333 333 333 332 332 332 332 332 331 332 333 333 333 333
352 350 348 344 342 339 337 337 336 337 337 338 336 334 333 332 332 331 329 327 326 324 323 323 322 322 323 324 325 325 325 325 325 325 326 327 327 328 328 327 327 327 328 328 329 329 329 328 328 328 329 329 329 329 330 331 331 332 331 331 332 332 332
351 350 348 344 342 340 338 338 337 337 338 336 334 333 333 332 331 330 329 328 326 324 323 323 324 324 324 326 326 326 326 326 326 325 325 326 326 326 327 326 326 325 326 327 327 326 326 325 326 326 326 326 327 327 328 328 329 330 331 331 331 332 332
350 350 347 344 342 340 339 338 337 338 337 334 333 333 333 332 331 329 328 327 324 324 324 325 325 325 325 328 328 328 327 326 326 325 324 324 324 325 325 325 325 326 327 327 326 325 325 325 325 325 325 326 326 327 328 329 329 329 330 330 331 331 331
349 349 347 344 343 341 339 338 338 338 336 333 333 333 332 332 330 328 327 325 323 324 325 326 326 326 327 329 329 328 328 327 325 325 324 323 323 324 325 325 327 327 326 326 326 325 324 324 323 324 324 325 326 327 328 329 330 330 330 331 330 330 330
349 349 346 344 342 339 339 338 338 337 334 332 332 332 332 331 330 328 325 323 324 325 326 327 327 327 328 330 329 327 327 326 325 324 323 323 323 324 325 326 328 327 325 325 325 324 324 324 325 325 325 326 326 326 327 328 328 329 330 331 331 331 331
348 347 344 343 341 339 339 339 337 335 332 332 333 333 332 331 330 328 325 324 326 327 328 329 328 326 327 328 328 327 327 325 324 323 323 323 323 324 324 326 328 328 327 325 325 325 324 324 325 326 326 326 325 324 324 325 326 326 327 329 330 331 331
347 345 343 342 340 338 339 338 335 332 331 332 333 333 332 331 329 328 325 325 327 328 329 329 327 324 325 325 326 326 325 324 323 323 323 324 324 325 325 326 328 328 328 327 326 325 324 324 325 325 326 326 325 325 325 325 325 325 326 326 327 328 330
344 343 342 341 339 338 339 337 334 331 331 332 333 333 332 331 330 328 326 326 326 327 327 326 324 321 322 323 324 325 324 323 323 323 324 325 326 327 327 327 328 328 328 327 327 326 324 324 325 325 325 325 325 325 326 326 326 327 326 325 325 325 326
342 341 342 340 339 339 338 335 333 331 332 333 332 333 332 331 330 329 327 325 324 324 324 323 321 320 323 323 323 323 322 322 323 324 324 325 326 327 327 328 329 329 328 328 327 327 326 325 325 325 324 324 324 325 325 325 326 326 327 326 325 325 325
341 339 341 341 338 339 336 333 332 331 331 332 332 333 331 330 330 329 326 324 322 321 322 321 320 321 323 323 322 321 321 322 323 323 323 324 325 326 327 328 328 328 328 328 327 327 327 325 326 325 324 323 324 323 323 324 324 326 327 326 325 326 327
339 340 341 340 338 336 334 332 332 331 332 332 332 332 331 330 330 328 325 324 322 322 321 320 320 322 323 322 322 321 321 322 323 323 322 321 321 323 325 326 327 327 327 328 327 328 327 326 327 326 323 323 323 321 320 321 322 324 325 325 324 325 326
339 341 340 340 337 335 334 333 331 331 332 333 333 331 330 330 329 327 327 324 322 322 321 321 322 322 322 321 321 321 321 323 323 321 320 320 319 320 322 324 326 326 327 328 328 328 328 328 327 325 323 323 322 320 319 320 321 323 324 324 324 324 324
339 340 339 338 335 334 333 332 331 332 332 332 332 330 329 329 328 328 327 326 323 322 322 322 323 322 320 320 321 321 322 323 322 322 321 320 320 319 319 322 325 326 327 328 328 328 329 329 328 325 323 324 322 320 320 321 322 324 325 325 324 325 326
339 339 338 337 335 334 333 331 331 332 333 332 331 329 329 328 329 328 328 326 324 322 322 323 323 321 321 320 321 322 322 322 322 322 322 321 321 320 319 320 323 325 327 328 328 328 328 329 327 325 323 324 323 321 320 322 324 325 325 325 324 326 328
338 337 337 336 334 333 331 331 332 332 333 332 329 328 329 328 328 328 326 326 324 322 322 323 323 322 321 322 322 322 322 322 322 323 323 323 323 323 322 322 323 325 326 327 328 328 328 328 327 325 324 324 324 322 322 322 324 325 325 324 325 327 328
338 337 337 336 334 332 332 332 332 333 332 330 328 328 328 328 327 326 325 324 324 323 323 323 323 322 322 323 324 324 324 324 324 323 323 324 324 325 325 324 324 325 326 327 327 327 327 327 326 325 325 325 325 324 323 324 325 325 324 324 326 328 328
337 337 337 335 333 332 331 332 333 332 331 329 327 328 328 327 325 324 324 324 323 324 323 323 323 323 323 325 326 326 326 326 326 325 324 323 322 324 325 325 325 325 326 327 327 327 327 326 326 325 325 325 325 324 325 326 326 325 323 323 326 327 326
338 337 336 334 332 331 331 332 332 331 329 328 328 328 326 325 324 324 325 324 324 324 323 323 324 323 323 326 327 328 328 327 326 325 324 322 320 321 323 324 325 325 325 326 327 326 326 325 325 325 325 325 325 325 326 327 326 324 322 323 325 326 324
338 336 335 332 331 331 331 331 331 330 329 328 327 326 324 324 324 325 325 325 324 324 324 323 324 324 325 326 327 329 329 328 327 325 322 320 318 318 320 322 324 325 325 326 326 325 325 325 325 325 325 325 325 326 327 328 326 324 322 322 324 325 324
337 335 333 331 331 331 331 331 331 330 328 327 326 325 323 323 325 325 325 326 325 324 324 324 324 325 326 327 328 328 329 329 328 324 321 319 319 319 320 321 324 325 325 326 326 326 325 325 325 325 324 324 324 326 327 328 326 324 323 322 321 323 323
335 332 332 332 331 331 331 330 330 328 328 327 326 324 323 323 325 325 325 325 325 324 324 323 324 325 326 327 328 328 329 329 327 323 321 320 320 321 321 322 325 326 325 326 326 325 325 325 324 324 323 323 324 326 327 327 324 323 323 322 321 321 322
332 331 332 333 332 331 330 329 329 328 327 327 325 324 324 323 325 326 325 325 325 324 324 324 323 323 324 327 328 327 329 330 326 322 322 322 322 321 322 323 325 325 325 325 325 325 325 325 323 323 323 322 323 326 327 325 324 323 321 321 321 321 321
332 332 333 332 331 331 329 329 328 328 327 327 325 325 324 324 325 326 325 325 325 324 324 324 323 322 324 325 326 326 328 328 325 322 322 322 322 322 322 323 324 325 325 325 325 325 325 324 322 322 323 322 322 325 326 324 323 322 320 319 320 321 321
333 333 333 332 331 330 329 329 329 328 327 326 326 325 325 325 325 325 326 326 325 324 324 323 322 323 324 325 325 326 326 325 323 323 323 322 322 322 323 324 324 325 324 324 324 324 325 323 322 323 324 323 321 322 324 325 323 322 320 318 318 319 320
332 332 331 331 331 330 329 329 328 328 327 326 326 325 325 326 326 326 327 326 325 325 324 323 323 323 324 326 325 325 324 324 324 324 323 323 322 322 323 324 324 324 323 322 323 324 324 322 322 323 324 324 322 320 321 324 324 322 321 321 319 318 318
331 331 330 330 330 329 329 329 328 328 328 327 326 326 326 327 327 327 327 327 326 325 324 323 323 323 324 324 325 324 323 324 325 324 323 324 323 322 322 323 323 322 321 321 321 322 322 321 322 323 323 324 323 320 319 323 324 322 321 322 321 320 318
331 330 329 329 329 329 329 330 329 328 328 327 327 326 327 328 328 329 328 327 326 324 323 323 323 323 324 324 323 323 324 324 324 323 323 324 323 322 322 322 322 321 321 321 321 321 321 321 321 322 323 323 324 322 319 321 323 321 320 320 322 322 320
330 329 329 330 329 329 330 330 329 329 328 327 327 327 328 328 329 330 329 327 325 323 322 322 323 323 324 323 323 323 324 324 323 323 323 324 323 323 322 322 321 321 321 322 322 321 321 321 321 322 322 323 324 324 322 320 320 320 320 319 320 321 321
328 328 328 328 328 329 329 329 329 329 328 327 327 327 328 328 329 330 328 325 322 321 321 321 322 323 324 323 323 323 324 325 324 323 323 324 324 323 322 322 322 322 322 322 322 321 321 321 321 321 321 322 323 324 323 321 320 320 320 319 319 320 320
327 327 328 327 328 329 329 329 330 328 328 327 327 327 327 328 328 328 325 322 320 320 320 320 321 323 323 323 323 323 323 325 324 323 323 323 323 323 322 322 322 322 322 322 322 322 322 322 321 321 321 321 322 323 323 323 321 320 320 320 319 320 319
327 327 327 328 328 329 329 330 330 328 327 327 326 327 327 327 327 325 322 320 319 319 320 320 322 323 324 323 324 323 323 324 323 322 322 322 322 322 322 322 322 322 322 322 322 322 323 322 322 321 321 321 321 322 323 323 323 321 321 321 320 321 320
327 327 327 327 328 328 329 329 329 329 327 326 326 327 326 326 326 323 321 320 319 320 320 321 322 323 323 323 323 323 323 323 322 321 321 322 322 322 322 322 322 321 322 321 321 322 322 323 323 322 322 321 321 321 322 323 324 323 322 322 321 321 321
325 326 326 326 327 327 327 328 328 328 327 326 326 326 326 326 324 322 320 321 320 320 321 321 323 323 323 322 322 322 323 322 321 320 321 321 322 322 322 322 322 321 322 322 321 321 322 322 323 323 322 321 321 321 321 322 323 324 323 323 322 321 321
325 325 325 326 325 326 327 327 327 327 326 325 325 326 327 326 323 321 321 322 321 321 321 322 322 323 322 322 321 321 322 322 321 320 320 320 321 321 321 321 322 322 322 322 322 322 322 322 323 323 323 322 321 321 321 321 322 323 323 324 323 322 321
324 325 325 325 325 325 325 325 325 325 325 324 325 326 326 325 323 322 322 322 322 322 322 322 322 322 322 322 321 321 321 321 321 320 320 320 321 321 321 321 322 322 322 321 322 322 322 323 323 323 323 322 321 321 321 320 320 321 322 324 323 322 322
323 323 323 323 324 324 324 324 324 324 324 324 325 326 326 324 323 323 323 323 323 323 322 322 322 322 322 322 321 321 321 321 321 321 320 320 321 321 321 321 321 322 321 321 322 323 323 323 323 323 323 322 322 321 321 320 320 320 321 323 323 322 322
323 324 324 323 324 324 324 324 323 324 324 324 325 326 326 325 325 325 325 324 324 324 324 323 323 322 323 322 321 321 321 320 320 320 320 321 321 321 321 322 322 322 322 322 323 323 323 323 323 323 322 322 322 321 321 321 320 319 320 322 323 323 323

ECMWFFLT1_850_thetae_003.txt.gz
Theta_e
348 342 341 341 337 333 332 331 333 333 333 333 334 335 336 335 333 332 332 331 330 328 326 325 323 322 323 324 324 323 323 324 325 325 325 324 324 324 324 325 324 325 327 327 327 327 326 326 325 324 325 325 325 326 326 327 329 330 331 331 332 332 332
349 342 340 339 336 334 332 332 334 334 334 335 335 336 336 334 333 332 332 330 329 327 325 323 322 323 323 324 324 323 324 325 325 326 325 324 323 322 323 324 324 325 327 328 327 327 326 325 324 323 323 324 324 324 325 326 327 328 329 330 331 331 332
349 342 340 339 337 335 334 334 335 335 335 335 336 336 335 333 333 332 331 330 328 325 323 321 321 322 323 323 323 323 324 325 325 325 325 323 322 321 322 323 324 326 327 327 326 325 325 325 323 323 323 324 325 325 325 326 326 326 327 329 331 332 331
348 342 340 341 340 339 338 336 336 335 335 335 337 337 335 333 333 332 330 329 327 324 322 321 321 321 322 323 322 322 324 325 325 325 324 323 322 322 323 323 324 326 327 327 326 326 326 325 324 323 324 325 325 325 326 325 325 325 326 327 330 331 331
348 342 341 343 345 344 342 339 337 336 335 336 337 336 335 333 332 331 330 329 327 324 322 321 320 321 322 322 321 321 323 325 324 324 323 322 322 323 325 325 325 326 327 328 328 327 327 326 324 324 325 325 324 324 325 326 327 327 328 328 328 328 329
349 344 341 344 347 347 344 341 338 337 336 337 337 335 334 332 331 331 330 329 327 324 322 321 320 321 321 321 320 321 323 324 323 323 322 322 323 325 326 327 327 326 327 328 328 327 326 325 325 325 325 324 322 323 324 326 327 327 328 328 328 328 328
349 346 343 344 347 347 346 342 339 338 338 337 337 335 333 332 331 332 331 329 327 324 322 321 321 321 321 320 319 321 323 323 322 322 322 323 324 325 327 327 327 327 328 328 328 327 327 326 326 325 325 324 323 324 326 327 327 327 327 327 327 327 327
349 347 345 345 347 347 347 344 340 339 338 338 337 335 333 332 332 332 331 330 327 324 322 321 321 321 320 319 319 321 322 322 321 321 322 323 323 324 325 326 327 328 328 328 328 328 327 327 327 326 326 325 325 325 326 326 326 325 324 325 325 325 325
349 349 347 346 347 348 347 345 341 339 338 338 336 333 332 331 332 332 331 330 327 325 323 322 321 320 320 320 320 322 322 321 321 321 322 323 322 322 322 323 325 327 327 327 327 328 328 328 327 327 326 326 326 325 323 323 323 322 322 323 324 324 325
349 349 348 348 347 348 347 345 341 338 338 337 334 332 331 331 332 332 331 329 327 325 323 322 321 321 320 320 321 322 321 320 320 321 322 322 321 320 320 320 322 324 326 326 327 328 328 328 327 327 326 327 326 324 322 321 320 320 321 323 324 325 325
348 348 349 348 347 348 347 344 340 338 338 336 332 330 331 331 332 331 329 328 327 325 324 322 321 321 321 320 321 321 320 319 320 322 323 322 320 320 320 319 320 321 324 326 326 327 327 327 327 327 328 327 326 324 323 321 321 323 324 325 325 325 324
345 347 347 347 347 348 347 343 339 338 337 334 331 330 331 331 332 330 328 328 327 326 324 323 322 321 321 321 321 320 319 319 321 322 322 321 321 321 320 320 319 320 321 324 325 327 327 327 327 328 328 327 325 325 324 322 323 325 325 325 324 324 325
343 344 345 346 346 346 345 341 338 337 336 333 331 330 331 332 331 328 328 328 328 326 325 323 322 322 321 321 320 320 319 320 321 322 321 322 322 322 322 322 322 321 321 322 324 326 327 327 327 327 328 327 325 325 325 324 324 324 324 323 323 323 325
341 342 342 343 344 345 343 340 338 337 334 332 330 331 332 331 329 328 329 328 327 326 325 323 322 322 322 322 321 320 320 320 321 321 322 323 323 324 323 323 323 324 324 323 324 325 326 327 327 327 327 326 326 326 325 325 325 324 324 324 324 323 324
339 340 340 341 342 343 341 339 338 336 333 331 330 331 332 330 327 328 329 328 326 324 323 323 322 322 322 322 321 320 320 321 321 322 323 324 324 324 323 323 323 324 325 325 325 325 326 327 327 327 326 326 326 326 326 326 325 325 325 325 323 323 323
339 339 339 341 341 341 340 339 338 334 332 331 331 332 330 328 327 329 328 326 324 323 323 323 322 322 322 322 322 322 322 323 323 324 325 325 325 325 323 322 321 322 323 325 325 325 326 327 327 327 326 326 325 326 326 326 325 326 326 325 323 322 322
339 339 339 340 341 341 340 339 337 333 331 330 331 331 329 327 328 329 327 324 323 323 323 322 322 322 322 322 322 323 325 326 327 327 327 326 326 326 323 320 319 319 320 323 324 325 325 326 327 326 325 325 325 325 326 325 326 326 325 324 323 321 321
338 338 339 340 340 341 340 338 336 332 330 330 331 330 328 328 329 327 325 323 322 323 323 322 322 323 323 323 323 323 325 327 328 329 328 327 326 325 323 320 318 318 319 321 324 325 325 326 326 325 325 325 324 324 325 326 327 326 324 323 323 322 321
337 338 339 340 341 341 340 338 334 331 330 330 330 328 327 328 328 325 323 322 322 323 323 323 323 323 323 324 324 325 325 327 328 329 329 329 327 324 321 320 319 319 320 323 325 325 325 326 326 325 325 324 324 323 323 326 328 326 323 323 322 321 321
337 337 339 340 341 340 339 336 333 330 330 330 329 328 328 328 325 323 322 322 322 323 324 324 324 323 323 323 325 326 327 327 328 329 329 329 327 323 322 322 321 320 322 325 326 325 326 326 325 325 325 323 323 322 322 326 327 326 324 322 320 319 321
336 337 338 340 340 339 338 335 332 330 330 330 328 328 328 326 323 322 322 322 322 323 323 324 324 323 322 322 324 327 328 328 328 328 329 329 326 323 323 323 321 320 322 325 326 325 325 325 325 325 323 322 323 322 322 325 327 325 323 321 318 318 320
335 336 338 340 340 338 336 333 331 330 329 328 328 328 327 325 323 322 322 322 322 323 323 324 324 323 322 322 323 326 328 329 329 329 329 328 325 323 322 322 321 321 322 324 325 325 325 325 325 324 323 323 323 323 322 323 325 325 323 321 319 317 317
334 335 338 339 338 336 334 332 330 330 329 328 328 327 326 325 323 322 322 322 322 323 324 325 324 323 323 323 323 325 326 327 328 328 328 326 324 322 322 322 322 323 323 324 325 324 324 324 325 324 323 323 323 323 322 321 321 323 324 322 321 320 318
334 335 338 338 337 334 332 331 330 330 329 328 328 327 326 325 323 322 322 322 322 323 325 325 324 324 324 324 323 324 324 325 326 326 326 324 323 323 323 322 322 323 324 324 323 322 322 323 324 324 323 323 323 323 323 321 320 322 323 322 321 322 322
334 336 337 337 335 332 331 331 330 329 329 329 328 327 327 325 324 323 322 322 322 323 325 325 325 325 324 324 323 323 323 325 325 325 324 323 323 323 323 323 322 322 323 323 322 321 321 321 323 323 322 322 322 323 324 323 321 321 322 320 320 322 323
334 336 336 334 333 331 331 331 330 329 329 328 328 328 327 326 325 324 323 323 323 324 325 325 325 325 324 323 323 322 323 324 325 323 323 323 323 323 324 323 323 322 322 322 321 320 321 321 321 321 321 321 322 322 323 324 322 320 320 319 319 321 322
333 334 333 333 332 331 331 330 329 329 329 328 328 328 327 326 326 324 325 325 325 324 326 326 326 325 324 323 323 323 323 324 324 323 322 323 323 323 323 323 323 323 322 322 321 321 321 321 321 321 321 321 322 322 322 324 323 321 319 319 319 320 321
333 333 332 332 332 331 331 331 329 329 328 329 329 328 327 327 326 325 326 327 326 326 327 328 327 325 323 321 322 323 323 323 323 323 323 325 324 324 324 323 323 322 321 321 322 322 322 322 322 322 322 321 321 321 322 323 324 322 320 320 320 320 321
332 332 332 331 331 331 330 330 329 329 329 329 329 329 328 327 326 327 327 328 328 328 329 329 326 323 321 320 320 322 323 323 323 324 325 326 325 323 323 323 323 322 322 322 322 322 322 322 322 322 322 322 321 321 321 322 323 323 322 321 320 320 321
332 332 331 330 330 330 330 329 329 329 329 329 329 328 327 327 327 328 328 329 330 330 329 328 324 320 319 319 320 321 322 323 324 324 325 326 325 323 323 323 322 322 322 322 322 322 322 322 322 322 322 322 322 321 321 322 322 323 323 322 321 321 321
331 331 330 329 329 329 329 329 329 329 329 329 329 329 328 327 328 328 329 330 330 330 329 326 321 319 319 320 321 322 323 324 324 323 324 324 324 323 322 322 322 322 322 322 322 323 322 322 322 322 322 323 323 322 321 321 322 323 324 323 322 322 321
329 329 328 328 328 328 328 329 329 329 329 329 329 329 328 328 328 329 329 329 329 329 327 324 320 319 320 321 322 322 323 323 323 322 323 323 323 323 322 321 322 322 322 322 321 321 322 322 321 321 322 323 323 322 322 321 321 322 323 324 323 323 322
327 327 327 327 327 327 327 328 329 329 330 330 330 329 328 328 329 328 328 328 328 327 324 321 320 320 321 321 321 322 322 323 322 322 323 323 322 321 321 321 321 321 321 322 321 321 321 322 322 322 322 323 323 323 322 321 321 321 322 323 323 323 322
326 326 326 326 326 326 327 327 327 328 328 329 329 330 329 329 329 329 328 327 326 324 322 320 320 321 321 321 322 322 322 322 321 322 322 322 321 320 320 320 320 321 321 321 322 322 322 322 322 322 323 323 323 323 322 321 321 321 320 321 323 323 322
324 324 324 325 325 324 324 325 325 325 326 327 328 329 329 329 330 329 328 326 324 322 321 322 322 322 322 322 322 322 322 322 321 322 321 321 320 320 320 320 320 321 321 321 322 322 322 322 322 323 323 323 323 322 322 321 321 321 320 320 322 323 322
323 322 323 323 323 322 323 323 324 324 325 326 327 327 328 329 330 329 327 325 323 323 322 323 323 322 322 322 322 322 322 322 322 321 321 321 320 320 320 320 320 320 321 321 321 322 322 322 322 323 324 323 322 322 322 321 321 321 320 319 321 322 322
323 323 323 322 322 323 323 323 324 324 324 325 326 326 327 328 328 328 327 324 323 324 324 324 324 323 323 323 323 322 322 322 321 321 320 320 320 320 320 321 320 321 321 321 321 322 322 322 323 324 323 323 322 321 321 321 320 320 320 319 320 322 322
322 323 323 323 323 324 323 324 323 324 324 325 326 326 327 327 328 327 327 325 324 325 325 325 325 324 324 323 322 321 320 319 319 319 319 320 320 320 320 320 321 321 321 322 322 322 322 323 323 323 323 322 322 321 320 320 320 320 320 319 319 321 322

ECMWFFLT1_850_thetae_006.txt.gz
Theta_e
355 356 355 353 355 357 358 357 355 350 342 334 332 329 331 334 334 333 332 332 332 331 330 326 322 320 320 320 321 321 322 324 324 326 329 329 326 324 323 322 321 323 325 325 326 328 328 329 329 327 324 323 323 324 325 327 327 328 329 329 329 329 330
355 356 354 353 354 357 358 357 354 348 337 332 331 330 333 335 334 333 333 331 331 331 329 325 321 319 319 320 321 321 322 324 326 327 330 331 327 325 324 323 323 324 325 325 325 328 329 330 330 329 327 324 324 325 325 324 324 326 328 329 329 330 329
356 356 354 353 355 355 356 354 349 342 334 331 333 332 334 336 335 333 333 331 331 330 328 324 321 320 319 320 321 321 320 321 325 328 331 330 327 325 324 325 326 326 326 326 327 328 329 329 330 329 327 326 326 326 324 323 324 324 327 330 330 329 329
358 357 353 353 354 353 354 348 341 337 334 334 334 333 335 336 334 334 332 332 331 330 328 324 321 320 319 320 321 320 319 320 321 325 327 327 324 323 324 326 327 327 328 329 329 328 329 329 329 326 326 327 327 327 325 324 324 323 326 329 330 329 329
359 357 353 353 353 353 352 343 334 335 337 338 336 334 336 336 333 334 333 331 331 330 328 324 321 320 320 320 320 320 319 320 321 322 324 323 322 323 324 325 327 327 328 329 330 329 329 329 328 327 327 327 327 326 325 324 323 324 327 329 329 329 328
359 358 354 352 353 353 349 339 334 337 339 341 339 335 336 337 336 337 335 331 330 330 328 325 322 321 320 320 320 320 318 319 321 321 321 322 322 324 324 324 325 327 327 328 329 329 328 327 326 326 327 328 327 326 324 324 323 324 326 327 327 326 326
358 357 354 351 352 351 347 341 339 340 341 343 341 336 339 340 338 339 337 332 331 331 330 328 324 321 321 321 320 319 319 320 321 321 322 323 323 324 325 323 324 325 326 327 327 326 326 325 325 326 327 328 327 326 325 325 325 324 324 324 324 323 324
357 358 355 352 351 350 347 343 342 342 343 344 341 339 342 341 338 338 338 334 334 334 335 334 332 326 320 320 321 319 319 320 321 321 322 324 325 327 328 327 327 325 323 324 325 325 324 324 325 326 327 327 327 326 326 326 325 324 323 322 323 323 325
358 358 356 353 351 350 348 345 344 345 345 343 338 340 342 340 337 337 336 335 336 336 334 335 336 332 324 320 321 320 320 320 320 321 323 325 328 330 330 329 330 328 325 322 322 324 325 325 326 326 327 327 327 327 327 326 325 324 324 323 324 325 327
358 358 357 355 352 352 350 348 347 344 342 339 336 338 340 335 333 334 334 335 337 336 334 333 334 334 328 321 321 321 320 320 320 321 325 328 330 329 328 328 329 329 328 324 322 322 323 325 326 327 327 327 328 328 329 328 327 325 324 324 325 326 328
357 358 358 357 353 352 352 350 345 340 339 338 336 338 338 334 331 331 331 334 335 335 336 335 334 333 329 323 323 323 321 321 323 324 326 328 329 329 328 328 328 328 328 327 325 324 324 324 326 327 327 328 328 329 329 330 329 327 325 325 326 326 327
359 359 359 357 354 353 352 349 345 341 340 339 338 338 337 333 330 330 330 332 334 334 334 333 333 333 328 325 328 327 323 323 325 326 328 329 329 329 328 329 329 328 327 327 327 327 327 327 327 328 329 328 328 329 330 331 331 329 326 325 325 326 326
358 359 358 357 355 353 352 350 347 345 342 340 339 338 337 332 329 330 331 330 331 331 330 330 330 328 325 324 326 325 324 325 325 325 327 329 328 328 328 329 328 327 326 326 327 327 328 329 329 329 330 330 329 329 329 330 330 329 327 325 326 326 325
355 357 357 356 354 352 352 350 348 346 345 342 339 337 336 331 329 330 330 329 330 329 328 329 327 325 323 321 322 322 322 324 324 325 326 326 327 327 328 328 327 327 327 326 326 326 326 328 329 329 329 330 330 329 328 329 329 328 326 326 326 325 323
353 354 355 355 354 352 352 350 348 348 346 343 339 337 334 330 330 330 328 327 328 328 328 328 325 323 322 321 321 322 322 323 323 325 326 327 327 327 327 327 327 327 327 326 326 326 326 327 327 327 328 330 331 330 328 328 328 327 326 326 326 324 322
352 352 352 353 353 353 352 350 348 348 346 342 338 336 332 329 329 328 326 326 327 325 325 325 323 323 322 321 322 323 323 323 323 325 328 328 328 327 327 327 327 326 326 326 326 327 326 325 325 328 330 331 332 331 330 327 325 325 326 326 326 324 321
350 351 350 351 352 352 352 350 349 349 346 342 338 335 331 330 329 326 327 331 331 327 324 322 322 323 321 322 323 323 323 324 326 327 329 329 329 329 329 328 326 326 325 326 327 327 327 326 327 329 330 331 331 330 329 328 325 323 324 326 326 324 321
349 349 350 350 351 351 351 350 349 348 345 340 337 333 330 328 327 325 326 330 328 328 327 325 322 322 322 322 323 323 324 326 328 329 329 329 330 331 331 329 326 326 326 327 328 328 327 328 329 330 330 330 329 328 328 328 325 322 324 325 325 323 320
348 348 349 350 349 350 349 349 349 347 343 340 336 332 329 327 325 324 325 326 323 323 326 325 322 322 322 323 323 322 324 327 330 331 330 331 331 331 331 328 327 326 327 327 327 327 328 329 329 331 331 330 328 327 328 329 326 322 323 325 325 323 321
345 348 349 348 349 349 349 350 350 345 341 338 334 331 329 327 325 324 325 324 322 321 322 322 322 322 322 323 323 322 324 328 330 332 331 331 331 331 330 329 328 327 326 327 327 327 328 329 329 330 330 329 329 328 329 329 327 323 321 322 324 324 322
345 347 348 348 348 348 349 350 348 343 339 336 332 330 328 326 326 326 326 324 322 322 321 321 322 322 322 324 323 323 325 328 331 332 332 333 333 333 331 328 328 327 326 326 326 327 329 329 329 330 329 328 328 328 328 328 325 323 321 321 322 323 323
345 345 346 347 347 349 349 347 344 341 338 334 330 329 329 327 327 328 329 327 324 323 323 322 321 322 323 324 325 327 328 330 332 333 333 333 333 333 331 328 327 328 327 326 327 328 328 328 328 329 329 329 328 327 327 327 325 323 323 321 322 322 322
343 343 345 346 347 348 346 343 341 340 335 332 330 329 329 328 328 328 329 329 327 325 324 323 322 322 322 325 328 331 331 331 332 331 331 331 333 333 330 327 327 328 327 327 327 327 327 326 326 328 329 329 328 327 327 327 326 325 324 322 322 321 320
342 342 344 345 346 345 342 340 341 338 332 330 330 329 328 328 327 327 326 327 329 330 327 325 324 324 325 328 331 332 332 331 330 327 327 330 332 331 329 327 327 328 328 328 327 326 326 325 325 325 327 327 326 326 326 326 325 325 324 323 321 319 318
340 342 342 343 343 342 340 341 340 335 331 330 330 329 329 328 327 327 325 325 329 332 330 328 328 326 327 330 332 332 332 330 327 324 325 328 330 330 329 328 327 327 326 326 325 325 325 324 323 324 325 325 325 324 325 325 326 326 324 323 322 320 319
337 339 339 340 340 340 340 339 337 332 330 330 329 329 328 327 327 328 326 326 331 333 332 332 330 327 328 331 332 332 330 328 325 323 324 327 330 331 329 327 325 323 323 323 323 324 324 323 323 323 323 323 324 324 324 325 327 326 324 323 322 321 320
335 337 337 339 338 338 339 337 334 332 330 330 329 329 328 328 328 328 326 328 331 333 333 333 330 328 329 331 331 329 327 325 325 325 326 329 330 329 327 325 324 323 323 323 324 323 323 323 323 322 321 322 322 324 324 325 326 326 323 323 323 322 321
334 334 335 337 336 336 336 336 333 332 330 329 329 329 329 328 329 329 328 327 329 331 333 332 328 327 328 328 327 327 325 322 323 325 327 328 328 327 326 326 326 325 323 323 323 322 322 323 322 322 322 321 321 322 323 325 327 325 323 323 323 322 321
334 334 333 334 334 334 335 335 333 331 331 332 333 330 329 329 328 329 330 327 326 329 331 329 326 326 328 328 327 326 323 319 320 322 324 325 325 325 325 326 326 325 323 323 322 322 322 322 322 322 322 321 321 321 321 324 327 325 323 323 323 322 321
333 333 332 334 334 335 334 333 332 331 331 334 335 332 329 329 329 329 329 329 327 327 328 327 326 328 330 329 327 324 321 320 320 320 322 323 324 324 323 324 323 323 323 322 322 322 322 322 322 322 322 321 322 322 321 324 325 324 321 322 323 323 323
332 332 332 334 334 334 332 332 332 332 331 332 333 331 329 329 329 329 330 329 329 328 327 327 328 330 330 328 325 323 320 319 320 321 322 323 323 323 323 323 324 323 323 322 323 323 323 323 323 324 322 322 322 322 321 323 325 324 322 321 322 323 323
332 333 332 332 332 331 330 331 331 330 330 330 330 329 330 329 329 329 330 330 330 329 329 330 330 330 328 325 323 321 319 319 322 325 325 322 322 323 324 325 325 325 324 324 324 325 325 325 325 325 325 324 323 323 323 324 325 326 324 321 321 321 322
332 332 331 331 330 328 328 329 329 329 330 331 330 329 330 330 330 330 330 332 332 332 330 330 329 328 325 323 322 321 320 320 322 325 326 325 324 325 326 326 326 326 325 325 325 326 326 326 326 326 327 326 324 324 325 325 325 325 323 321 320 320 321
330 329 328 328 328 327 327 328 328 328 329 330 329 328 328 329 332 335 335 335 334 333 331 329 326 325 324 323 323 322 321 321 322 323 325 327 326 325 326 326 326 325 325 325 325 325 325 325 326 326 326 325 324 324 325 325 324 323 322 321 321 320 320
327 327 327 326 326 326 326 326 326 325 325 325 325 326 326 327 330 334 336 335 333 331 330 327 324 322 323 324 325 325 324 324 325 325 326 326 326 325 325 325 324 323 324 323 322 322 322 323 324 324 323 323 323 324 324 323 322 322 321 320 320 320 319
326 325 325 325 325 324 324 323 323 323 323 323 324 325 325 326 327 330 333 334 332 329 328 325 324 324 326 327 327 326 326 326 326 327 326 324 324 325 325 324 322 321 321 321 321 320 321 321 322 322 322 323 323 323 323 322 321 321 320 319 320 319 319
324 323 323 323 323 323 323 322 322 322 322 323 324 324 324 326 326 328 331 332 330 327 326 325 325 326 328 328 327 327 326 326 326 326 325 323 322 323 324 325 323 322 321 320 320 321 321 321 321 322 322 323 323 323 322 321 320 319 319 319 319 319 320
322 322 322 323 322 322 322 322 323 323 323 323 324 324 325 327 327 328 330 331 329 328 327 326 326 328 328 328 327 326 324 323 323 323 322 323 323 323 324 325 324 323 322 321 321 321 321 322 322 323 323 323 323 322 321 320 319 318 318 319 319 320 321

ECMWFFLT1_850_thetae_009.txt.gz
Theta_e
346 347 349 351 352 352 351 354 357 358 360 357 349 343 344 345 340 332 330 329 328 329 329 330 329 326 331 336 336 334 333 335 336 334 335 336 335 334 334 334 332 330 328 328 329 329 326 326 326 327 328 329 329 329 329 330 330 329 329 329 330 331 332
349 348 349 352 353 352 351 357 360 359 359 356 347 342 345 344 336 331 330 328 329 330 330 332 330 326 329 335 335 334 334 336 336 333 334 336 334 333 334 332 329 328 327 328 328 326 325 327 327 327 328 329 330 330 331 332 331 329 329 330 330 330 330
351 349 349 352 354 353 352 357 360 360 358 355 347 343 346 342 334 331 330 328 329 332 332 332 329 326 326 329 333 336 336 336 336 335 335 336 334 334 333 332 332 332 330 330 330 328 328 328 327 327 329 329 329 330 331 332 331 329 328 328 329 329 329
351 350 351 351 354 354 354 357 359 360 358 353 347 345 345 340 332 331 330 329 330 332 332 331 330 331 329 329 333 337 337 335 333 333 335 335 334 333 333 333 334 334 333 332 331 330 328 327 326 326 326 327 328 330 330 329 329 328 328 327 328 328 329
350 350 350 352 354 354 355 356 359 360 357 352 346 345 345 338 332 333 333 332 334 336 334 332 333 335 332 329 332 336 335 332 329 329 331 332 332 332 333 334 334 334 334 333 332 329 327 326 326 325 324 325 327 329 330 330 330 330 328 326 326 327 328
351 351 352 353 355 354 355 356 357 358 355 349 346 346 345 340 337 339 339 336 336 338 336 333 333 333 331 331 334 334 330 327 325 324 326 328 330 332 333 333 333 334 334 334 332 329 327 325 325 324 324 325 326 327 328 329 329 329 327 326 326 326 327
350 353 353 353 355 356 357 357 357 355 352 346 347 347 346 344 342 341 343 340 338 339 338 336 336 335 335 336 335 333 331 331 331 329 330 331 332 333 333 333 333 333 334 334 332 330 328 326 325 324 323 323 325 325 326 326 327 327 326 327 326 326 326
351 356 355 355 356 354 354 356 356 352 348 345 347 347 345 345 343 341 343 343 340 340 340 340 341 341 340 337 332 331 333 334 334 333 333 334 334 333 333 333 332 332 332 333 333 332 331 328 325 324 324 324 324 325 326 326 326 327 327 327 326 326 326
350 356 357 356 354 351 350 352 352 348 345 345 347 347 345 344 343 341 342 343 341 340 340 340 341 343 341 336 330 330 332 332 332 332 332 333 333 333 333 332 330 330 331 332 332 332 332 330 326 323 324 324 325 327 326 325 326 326 327 328 328 328 327
352 358 359 355 351 349 348 349 348 345 344 344 347 347 345 344 344 341 341 341 340 339 338 337 337 340 341 339 335 334 334 333 332 333 333 333 332 332 332 331 330 329 330 330 331 331 332 331 329 327 326 327 327 327 326 326 326 326 327 329 331 330 329
355 361 361 357 351 348 348 348 346 344 345 346 348 348 346 344 344 342 341 339 338 338 339 338 337 337 339 341 339 337 336 335 334 334 334 333 332 332 331 330 329 329 329 330 330 330 330 330 330 331 330 330 329 328 328 327 326 326 327 328 331 331 329
357 363 363 360 355 350 349 349 347 345 345 347 350 350 347 346 344 343 341 339 336 337 338 338 338 338 339 339 337 337 337 336 335 335 334 333 332 332 331 330 329 329 329 329 329 329 328 328 329 330 330 330 330 331 333 332 330 331 331 330 330 330 328
357 363 363 362 358 353 353 351 349 348 348 348 351 350 347 347 346 344 342 338 335 336 336 337 339 338 337 335 334 335 336 336 335 334 333 332 332 332 331 331 330 330 330 329 330 330 329 328 329 329 330 330 331 332 335 336 335 336 335 332 331 329 327
356 361 363 363 360 356 356 354 352 353 352 353 353 350 348 349 347 346 343 339 336 336 336 337 339 338 334 330 330 332 333 334 334 334 332 331 331 331 332 332 331 331 330 330 330 330 329 328 329 328 329 331 332 333 334 335 334 335 335 334 330 328 327
354 358 362 364 362 359 358 357 357 357 356 356 353 348 348 348 348 348 343 337 336 337 337 339 340 338 332 328 330 331 331 333 333 332 331 331 332 332 332 332 332 332 331 331 331 330 330 329 329 330 330 332 333 333 332 332 333 334 333 330 328 326 325
350 353 357 362 364 362 361 360 361 360 358 356 351 346 346 347 349 347 336 330 334 338 338 341 339 332 325 326 331 333 333 334 333 331 331 331 332 333 333 332 333 333 332 331 331 330 330 330 330 331 331 332 333 333 332 332 333 332 330 327 324 324 323
346 349 353 359 362 363 362 361 363 361 359 356 349 344 345 349 349 341 330 328 335 338 339 341 338 327 319 324 330 332 334 334 333 332 332 333 333 333 333 334 334 333 332 331 331 330 330 330 330 330 330 331 333 333 333 333 332 331 330 328 324 321 322
343 346 349 354 359 363 362 362 363 362 360 356 350 345 347 349 345 336 331 333 337 339 340 341 335 325 320 325 329 331 333 333 333 334 334 334 334 333 334 334 334 334 333 332 331 330 329 329 330 330 331 332 333 334 334 333 331 330 330 328 323 321 321
343 343 348 353 357 361 362 362 362 362 360 357 353 349 349 347 342 335 334 337 338 339 342 341 334 325 323 327 330 332 333 333 334 334 334 334 334 334 334 335 335 335 334 332 330 329 329 329 330 330 331 332 333 334 333 331 330 330 330 326 323 322 322
344 344 348 352 354 358 360 360 361 360 360 358 355 352 350 346 340 336 336 338 337 336 338 337 332 327 327 329 331 333 333 333 334 334 334 334 334 334 334 335 335 335 333 331 330 329 329 329 331 331 331 331 331 329 329 329 328 328 328 326 325 324 323
345 347 349 352 354 356 357 358 359 358 358 357 355 352 349 343 339 338 337 336 335 333 332 330 326 325 327 330 331 333 333 334 335 334 334 335 335 335 335 335 335 334 332 330 330 330 330 330 330 330 329 329 328 325 325 327 327 326 327 327 326 325 324
346 348 350 353 354 354 356 358 358 357 356 356 352 348 344 340 339 339 335 333 333 334 331 326 322 323 326 328 331 334 334 335 335 334 334 335 335 335 335 335 335 333 331 330 330 330 329 328 328 327 326 326 325 324 324 325 325 326 326 326 326 325 325
345 347 350 351 353 354 355 355 356 356 355 353 348 344 342 339 337 335 334 335 336 336 334 328 324 323 324 325 330 334 335 335 335 334 334 334 333 333 334 335 335 332 330 330 330 329 328 327 326 327 326 324 324 323 324 324 325 325 325 324 325 326 326
345 348 350 351 352 354 354 355 356 356 353 350 345 342 340 338 334 329 332 337 338 337 336 335 330 327 326 328 331 334 335 335 335 335 334 333 332 332 332 334 334 332 330 329 328 327 328 328 327 327 328 327 326 324 322 323 323 324 324 323 324 325 326
346 347 350 351 352 353 354 355 356 354 350 346 343 341 338 335 334 332 332 335 338 338 338 338 336 334 332 333 334 335 335 335 335 335 334 332 331 331 332 332 332 332 330 329 329 328 328 328 328 328 329 329 327 325 324 324 323 322 322 323 323 324 325
347 347 349 350 352 355 355 354 354 352 348 344 341 339 335 331 334 337 337 336 338 338 338 338 338 337 337 337 336 335 335 336 336 335 334 332 331 330 331 332 333 333 332 331 330 329 328 328 329 329 329 329 327 326 327 326 323 320 321 322 322 323 324
349 348 349 350 352 352 350 352 353 349 345 343 340 335 333 333 336 338 339 340 341 340 338 338 338 337 337 337 336 334 336 336 336 335 334 332 331 331 331 333 334 334 332 331 330 329 329 329 328 328 330 329 327 328 328 326 322 321 321 321 321 322 323
348 349 350 350 347 345 346 349 351 346 343 343 339 334 334 337 340 342 341 342 341 339 338 339 338 337 338 337 335 335 336 336 336 335 334 333 332 331 330 332 334 333 331 331 330 330 330 329 328 328 329 329 328 329 329 326 322 321 321 321 321 320 321
348 348 348 345 342 344 347 348 348 345 344 343 340 338 339 340 343 345 345 345 342 340 340 339 338 337 337 337 336 336 336 336 336 334 333 332 332 330 328 330 333 333 332 332 331 331 330 329 329 329 329 329 329 328 329 326 323 322 322 322 322 321 321
348 348 347 342 342 347 348 347 347 346 343 340 338 338 340 342 345 347 346 346 345 344 343 341 339 338 338 337 336 335 336 336 334 333 332 333 333 331 329 330 332 333 333 332 331 330 330 330 330 330 329 329 329 329 328 327 324 323 324 322 321 322 321
347 345 343 341 343 344 344 345 347 345 342 341 340 341 343 345 346 348 347 345 345 346 345 342 340 339 338 336 335 333 334 335 333 332 333 333 332 332 332 332 332 333 333 332 332 330 330 330 330 330 330 329 328 328 329 326 323 323 324 323 322 322 322
345 341 340 343 343 342 341 342 344 344 345 346 344 342 342 342 341 342 342 342 343 344 344 342 342 342 340 337 335 333 334 334 332 331 333 333 332 331 331 331 331 331 331 331 331 331 330 329 329 329 329 328 326 326 327 326 322 322 324 324 323 322 322
344 343 346 345 342 339 340 341 341 341 342 342 342 342 341 341 341 339 336 336 339 341 340 339 340 341 340 337 335 334 334 334 331 329 329 330 330 330 330 330 330 329 329 329 328 328 327 328 328 327 326 326 325 325 326 326 325 324 324 323 322 321 320
345 345 345 341 336 334 337 337 338 340 339 339 341 341 337 336 338 337 337 338 339 340 340 338 338 339 339 336 335 334 334 333 330 328 327 327 328 330 330 329 328 328 328 327 326 325 325 325 327 326 325 325 325 325 327 326 325 324 323 321 320 320 319
344 341 338 335 332 331 332 332 334 337 336 334 333 331 327 326 326 329 334 337 337 337 339 338 338 337 335 334 334 333 333 332 330 329 329 329 329 329 328 327 326 326 326 325 323 322 323 323 324 324 324 324 324 324 325 325 324 323 321 320 319 319 319
339 335 332 330 329 329 328 327 328 329 327 326 324 323 322 323 322 323 328 332 335 337 337 337 336 334 332 332 332 331 331 331 330 329 329 329 329 328 327 325 324 324 324 323 321 321 321 322 321 321 321 323 323 323 323 323 323 322 320 319 318 318 318
334 332 331 329 327 326 326 325 324 324 323 323 323 323 323 326 326 326 328 331 334 335 335 335 335 333 330 330 330 330 330 330 329 329 328 328 328 327 327 327 326 324 323 323 322 322 322 322 321 320 321 322 322 322 322 322 321 320 319 318 317 318 319
336 335 336 335 330 325 323 323 323 322 321 322 323 323 325 330 332 329 328 332 333 333 334 335 334 332 331 331 330 330 330 330 329 328 327 327 327 327 327 328 328 326 324 323 322 322 322 321 321 321 321 322 322 322 322 321 320 319 317 317 316 317 319

ECMWFFLT1_850_thetae_012.txt.gz
Theta_e
344 344 347 347 346 346 347 348 350 352 354 354 357 358 355 351 345 332 325 326 325 323 322 321 322 323 324 325 327 327 325 325 325 324 324 325 327 328 328 329 330 329 328 328 331 333 331 328 326 327 327 328 328 329 330 331 332 333 332 330 329 329 329
346 344 347 346 345 345 346 348 350 353 354 354 358 358 353 347 341 332 326 326 325 323 321 320 322 324 325 325 326 324 323 325 326 324 321 322 327 328 329 331 329 326 326 328 329 330 328 328 328 328 327 327 327 328 329 329 330 330 329 328 329 328 328
347 345 345 346 345 345 346 348 350 352 352 355 359 357 351 344 338 330 327 326 325 323 321 320 323 325 326 325 324 323 322 324 326 328 326 329 334 335 332 328 325 327 331 332 332 334 333 330 329 327 326 325 326 326 326 327 327 327 327 328 329 328 326
346 346 346 346 347 346 346 348 350 353 356 358 359 356 350 344 338 331 327 326 325 324 321 321 324 327 327 325 323 322 325 328 328 329 331 332 332 330 327 325 328 332 335 335 335 334 332 328 326 325 324 324 324 324 324 325 325 326 327 328 328 327 326
347 347 347 347 348 347 346 347 350 354 359 360 358 354 349 345 340 333 328 326 326 323 321 322 325 327 327 326 324 324 328 331 330 326 325 327 328 326 325 328 332 334 335 335 334 334 332 328 325 324 324 324 324 324 324 325 325 326 326 327 327 326 326
346 348 348 348 348 349 349 351 354 356 356 358 358 354 349 346 342 335 329 327 326 324 322 323 325 328 327 326 325 325 326 328 327 324 321 322 323 323 326 330 332 332 332 331 331 331 331 329 326 325 323 323 324 324 324 324 326 326 327 327 326 326 326
342 346 349 348 348 352 352 353 357 358 356 358 357 352 349 348 346 340 334 329 327 325 322 322 326 328 328 326 324 324 324 323 323 322 321 322 323 326 329 331 330 330 330 330 330 331 331 331 331 330 326 324 323 323 323 325 326 328 329 328 327 327 327
338 342 348 349 348 351 353 355 357 357 357 356 353 349 349 350 348 345 341 336 332 329 325 325 328 328 329 328 327 326 325 326 328 328 325 326 328 332 333 331 331 332 331 331 332 333 332 332 333 332 330 327 324 323 324 325 327 329 330 330 328 328 328
339 343 346 349 350 351 353 356 357 357 357 355 352 348 347 349 348 346 345 343 341 338 334 335 336 334 334 334 332 331 327 329 334 334 331 331 333 334 334 333 332 331 330 331 332 332 331 331 331 332 331 330 329 327 325 325 329 330 330 330 329 328 329
338 344 348 349 349 352 355 356 356 356 355 354 352 349 347 347 346 345 346 345 344 343 342 342 343 341 340 338 336 333 329 330 333 333 333 335 335 334 334 333 331 330 330 331 330 330 330 330 330 330 330 331 331 331 328 327 329 331 330 330 329 328 330
341 347 352 350 349 352 355 356 356 355 355 355 352 349 348 349 347 343 345 345 344 343 343 343 344 344 341 337 335 335 333 333 334 334 334 335 335 334 333 332 331 330 329 329 329 331 331 331 330 329 329 329 330 331 330 330 330 331 330 329 328 328 329
342 347 348 348 349 353 355 356 356 355 356 355 351 348 348 349 346 343 344 345 344 343 342 340 340 342 340 337 338 339 338 337 336 336 336 336 335 334 332 331 330 329 329 330 331 332 330 329 329 329 329 329 329 330 331 331 330 330 330 329 328 327 326
341 347 346 347 351 354 354 355 355 355 355 354 350 347 347 348 346 343 343 344 343 341 341 339 337 336 337 339 341 341 340 338 337 336 336 336 334 334 333 332 331 331 329 329 328 328 328 329 330 330 330 330 329 330 330 331 331 330 330 329 328 326 325
340 347 350 351 353 354 353 352 352 353 354 354 350 348 348 347 345 344 343 343 342 340 340 339 336 335 336 336 337 338 338 338 337 336 336 334 331 330 331 331 330 329 326 325 327 328 330 331 331 330 329 328 329 330 331 332 333 331 331 331 328 326 326
338 343 348 348 349 352 354 352 350 350 349 351 351 349 349 347 346 345 343 341 340 338 339 337 335 335 334 331 329 330 330 331 333 334 333 331 328 327 329 330 329 328 328 328 330 330 330 331 330 329 329 329 330 331 331 333 333 332 332 332 330 329 329
334 338 344 348 348 351 354 353 352 351 349 349 349 349 349 348 346 345 343 341 339 337 336 336 335 335 334 327 324 324 323 323 325 327 327 325 324 325 327 329 330 330 331 331 330 331 330 329 328 329 330 331 331 331 332 332 331 328 328 331 331 330 329
333 333 340 347 350 353 355 355 354 353 351 349 348 349 350 349 347 346 343 340 338 335 335 336 337 337 334 327 324 324 322 319 319 321 321 321 322 323 325 327 329 330 332 332 332 332 331 330 330 330 329 330 330 332 332 330 329 327 326 327 328 329 328
337 337 339 344 349 353 354 354 354 355 352 350 350 351 351 349 348 346 344 340 336 334 335 337 338 340 336 327 323 324 321 319 319 321 321 322 322 323 324 326 328 331 333 334 334 334 332 331 330 330 329 330 331 331 330 328 328 328 325 324 326 328 328
338 339 342 343 345 348 349 351 353 355 355 354 354 353 352 350 349 346 345 341 336 334 336 338 340 341 336 325 322 322 321 320 321 322 322 322 323 323 324 326 329 332 334 335 335 334 333 331 330 330 330 331 330 329 328 328 327 326 324 324 325 326 327
338 338 340 341 342 344 349 352 354 355 358 359 357 355 353 352 350 349 346 341 336 335 337 339 341 342 335 325 321 322 321 320 322 322 322 323 323 324 325 327 329 332 334 335 335 334 332 331 330 330 330 330 328 327 326 326 325 324 322 323 324 325 327
338 340 341 342 343 343 348 355 358 358 359 359 357 354 353 354 352 348 343 338 336 336 338 340 341 341 337 328 323 322 322 322 322 322 323 324 325 326 328 329 331 333 332 332 333 333 331 331 330 329 327 326 325 325 325 324 324 324 322 322 323 324 325
338 341 344 345 347 349 351 356 361 361 360 360 357 354 353 355 350 343 338 337 337 338 339 340 340 339 337 331 324 322 323 324 324 324 326 328 329 329 332 334 334 333 332 332 332 330 329 329 328 327 326 326 327 327 327 326 326 324 322 321 322 322 324
336 339 344 348 350 353 356 358 361 362 361 360 358 354 354 350 342 337 337 339 339 338 339 340 340 339 337 332 328 326 327 328 329 330 331 331 332 332 335 336 335 333 333 333 334 331 329 330 329 328 328 328 329 329 329 329 328 325 323 322 322 321 322
337 341 347 351 352 356 357 358 361 361 359 359 359 356 353 348 342 340 340 339 339 340 341 339 337 336 335 334 333 334 333 333 334 334 335 334 334 334 335 335 333 333 333 334 334 332 331 331 330 329 329 329 329 330 330 330 328 327 326 324 322 321 321
340 343 348 352 354 356 357 357 359 359 359 359 358 355 352 350 349 345 341 339 340 342 342 338 334 334 335 335 336 336 336 335 336 336 336 336 335 335 335 333 332 332 332 333 334 332 331 331 330 329 329 329 329 329 330 330 329 329 328 325 322 321 321
342 346 350 353 354 356 355 355 357 358 358 358 356 353 349 348 347 343 339 340 341 342 342 339 336 336 337 337 337 337 336 336 336 337 336 336 336 336 334 332 331 331 331 332 333 333 332 332 331 330 328 328 329 329 330 330 329 329 329 326 322 321 321
340 344 349 353 354 353 353 355 357 357 356 356 353 348 345 344 343 341 341 342 341 340 341 340 339 339 339 339 339 338 337 336 336 336 336 336 336 336 334 332 330 330 330 332 333 333 332 332 331 330 329 329 329 329 329 329 329 329 329 326 322 322 321
339 340 343 350 354 350 350 356 358 356 354 352 349 345 344 343 342 341 342 341 338 336 338 340 340 340 340 340 339 338 338 338 336 336 336 337 337 335 334 333 331 330 329 331 333 334 332 331 331 330 330 329 329 329 328 327 327 328 328 325 322 323 322
340 339 343 352 353 348 349 356 356 353 351 348 346 345 343 342 342 342 341 340 339 339 341 342 342 341 340 340 339 338 338 338 337 337 337 337 337 335 333 333 332 330 329 331 333 333 332 331 330 328 328 328 328 327 326 325 324 325 325 323 322 323 323
337 338 345 353 353 349 351 355 355 349 345 343 344 344 343 343 342 342 342 343 345 345 345 344 343 342 341 340 339 338 338 337 337 337 337 337 336 335 334 333 331 329 327 329 331 332 331 331 328 326 326 327 326 325 325 324 323 323 323 323 323 323 323
338 337 344 350 353 353 353 355 351 343 340 340 339 338 338 338 337 338 342 347 349 348 347 346 344 344 343 341 340 339 339 338 338 338 337 337 335 335 333 331 330 328 326 327 330 331 331 331 329 327 326 326 326 326 325 324 323 323 324 324 324 323 323
339 339 342 346 350 351 351 351 347 340 339 340 338 337 337 337 337 341 346 347 347 347 346 344 342 343 343 342 341 339 338 338 339 338 336 335 335 333 330 328 328 329 328 329 330 330 330 329 328 327 326 326 327 326 324 323 323 324 324 324 324 323 322
339 339 341 343 348 349 346 346 344 340 340 341 342 342 343 341 341 341 340 339 339 338 339 339 338 338 339 341 342 341 340 339 339 337 335 334 333 329 327 327 328 329 329 330 330 329 328 327 327 326 326 327 327 325 324 323 323 323 323 324 323 322 320
341 341 341 342 346 345 339 336 336 338 342 342 341 340 341 341 339 335 332 333 335 335 336 339 339 336 335 338 340 340 339 338 337 336 335 333 331 328 328 329 329 328 329 330 328 327 326 326 326 325 325 326 325 324 323 323 322 322 323 324 323 320 318
343 345 343 344 344 342 339 336 336 339 342 341 339 338 340 339 335 331 329 331 333 334 336 339 339 336 336 338 339 338 337 336 335 334 333 331 330 329 329 330 329 328 328 327 326 325 324 324 324 323 323 323 323 322 322 323 323 323 323 322 321 319 317
339 341 343 343 342 342 341 340 340 341 341 340 339 339 336 331 327 326 327 328 330 333 337 338 338 336 336 336 335 335 335 334 333 332 331 330 330 329 329 329 329 328 327 326 325 325 324 323 323 323 323 322 321 321 321 322 322 322 322 321 319 317 315
336 340 344 344 343 340 338 337 338 336 334 334 332 329 328 327 326 326 327 327 327 328 331 333 335 335 335 334 333 333 332 331 331 330 329 328 328 328 328 328 328 327 327 327 326 326 325 324 322 322 322 322 321 321 321 322 322 322 322 320 317 314 314
340 343 342 339 336 332 331 331 330 328 327 327 324 323 327 330 330 326 327 329 327 325 325 328 331 333 334 334 333 332 330 330 330 330 330 329 328 327 328 328 328 328 327 326 326 326 325 323 321 321 321 322 321 322 322 322 322 321 320 317 313 312 313

ECMWFFLT1_850_thetae_015.txt.gz
Theta_e
345 347 347 346 345 345 345 345 346 347 349 351 352 354 354 354 354 352 347 340 330 323 323 323 322 320 320 319 318 318 317 316 316 316 316 316 317 318 320 322 322 321 321 323 325 327 328 328 327 327 327 327 327 326 327 327 327 327 327 326 326 328 328
346 347 346 346 345 345 345 345 345 346 347 349 351 353 353 353 353 351 348 341 329 323 323 323 321 321 320 320 318 318 317 317 317 316 316 317 317 318 320 320 319 320 320 323 328 331 331 330 329 327 326 325 325 325 324 324 325 326 326 326 327 328 328
345 346 347 346 346 345 345 345 345 346 346 347 350 352 352 352 352 350 348 341 328 323 324 323 321 321 321 320 319 318 318 317 317 316 316 317 318 320 322 322 322 322 321 327 334 334 332 331 331 328 326 325 324 324 323 323 324 325 326 327 327 327 327
344 346 347 345 346 346 346 346 345 345 346 347 349 350 351 351 352 351 349 341 328 323 324 322 321 321 321 320 319 318 318 317 317 317 317 317 318 321 325 325 322 321 322 329 334 331 327 326 326 325 325 324 324 324 323 324 324 325 326 327 327 327 326
343 345 347 346 347 346 346 347 346 347 348 350 351 351 351 352 353 353 351 342 328 323 325 322 321 321 321 321 319 318 318 318 318 317 317 318 318 320 322 321 319 320 324 327 328 327 326 323 321 321 321 321 321 322 322 324 325 325 326 327 328 327 327
344 345 347 347 347 347 347 347 347 348 349 350 352 352 352 353 353 354 352 344 330 324 325 322 321 321 321 321 320 319 319 318 318 317 317 318 319 319 320 319 321 324 326 327 327 329 329 325 323 324 323 320 321 322 322 323 323 324 326 328 329 328 327
345 345 347 347 347 347 346 347 349 349 349 350 352 353 354 354 354 354 352 346 334 326 325 323 321 322 322 321 320 321 320 318 317 317 318 318 318 319 319 320 324 327 328 329 330 330 330 328 328 329 327 325 325 325 325 325 323 323 325 328 330 329 329
344 345 346 347 346 347 347 347 349 349 351 352 353 355 355 356 355 353 351 347 337 329 326 323 321 322 322 321 321 322 320 319 318 317 318 318 318 318 319 321 326 329 329 330 331 330 330 330 330 330 329 328 328 328 328 328 326 326 326 328 330 331 330
344 345 347 347 346 346 346 346 347 347 350 351 353 356 356 356 355 352 350 347 340 331 327 324 322 322 322 322 323 323 321 320 318 317 318 318 318 319 320 323 328 330 330 330 330 329 330 330 330 331 330 330 329 329 329 329 329 329 328 328 330 332 331
343 343 345 347 348 347 345 345 346 347 350 353 354 356 357 356 354 352 349 347 343 334 328 325 324 323 324 325 324 324 323 321 319 318 317 318 318 319 322 325 329 331 332 331 330 330 331 330 330 331 330 330 329 329 330 329 329 330 329 328 329 331 331
340 343 344 346 347 347 347 347 348 348 349 353 355 357 358 357 354 351 349 347 345 337 330 328 325 323 327 329 327 326 325 323 320 318 318 319 320 321 324 329 332 333 332 331 330 329 329 330 330 330 330 330 329 329 330 330 329 330 330 328 328 328 328
336 343 347 347 346 346 347 348 349 350 349 351 354 356 357 356 354 351 349 348 346 340 335 334 329 326 331 334 330 327 327 326 324 320 318 319 321 322 325 329 331 331 330 328 327 327 329 330 330 329 329 329 329 329 330 330 330 330 329 329 329 328 328
337 342 346 346 344 345 348 349 350 352 352 352 354 356 356 355 353 351 349 348 347 343 340 338 334 332 336 338 333 329 329 329 325 321 320 320 320 321 322 324 324 325 326 326 326 327 328 329 327 327 327 327 328 328 328 328 328 328 328 329 330 328 328
340 343 346 348 346 345 347 350 352 353 354 354 355 356 356 355 352 351 350 348 347 345 342 340 338 339 341 337 332 328 328 327 322 320 321 322 320 320 321 321 322 322 323 324 324 325 326 326 326 326 326 326 325 326 327 326 326 327 327 329 330 328 327
343 344 345 347 347 345 344 348 353 354 354 355 356 356 356 354 351 350 350 348 346 345 343 341 342 343 340 333 328 327 327 326 323 321 321 320 320 320 321 321 321 322 322 323 323 323 324 324 325 326 325 325 325 327 328 327 326 327 328 329 329 327 326
343 344 345 345 345 345 344 345 349 353 356 356 356 356 356 354 352 349 348 347 346 345 343 342 343 342 337 330 327 326 328 329 328 323 320 319 319 321 322 321 322 322 322 322 323 323 324 324 325 326 326 325 325 327 328 326 326 327 328 329 328 326 325
337 340 344 345 346 346 345 344 346 351 356 357 356 356 355 354 352 349 348 346 345 344 344 343 342 340 335 331 328 327 329 330 328 323 319 319 320 322 322 321 322 322 322 322 322 323 324 325 326 326 326 326 327 327 327 325 325 327 327 327 327 326 324
337 338 340 343 347 348 346 346 349 351 354 356 356 356 355 354 352 350 347 345 344 344 342 341 340 338 335 332 329 328 327 326 324 321 319 320 322 322 322 322 322 322 322 322 323 324 325 325 326 326 326 327 327 327 327 326 326 327 327 327 326 325 324
337 337 337 338 344 348 347 347 348 349 350 352 354 355 355 354 351 348 345 343 343 343 341 339 339 338 336 334 332 329 325 323 321 320 320 321 322 322 323 323 323 323 322 323 323 325 327 328 329 329 329 329 328 327 327 326 326 326 327 326 325 325 324
336 337 336 335 338 343 347 348 347 348 350 351 351 353 354 353 351 348 345 343 342 342 341 339 338 336 335 336 335 330 325 322 321 320 319 320 321 322 322 323 323 323 323 323 324 327 330 332 332 331 330 330 329 328 327 326 326 326 326 327 326 325 324
337 336 336 336 336 339 344 347 348 351 352 352 352 353 353 352 351 349 346 344 342 341 339 338 337 336 335 336 334 329 325 324 322 321 319 319 321 322 321 322 323 323 323 324 325 327 331 333 333 332 331 330 330 329 327 326 326 327 328 328 328 327 325
334 334 335 336 337 339 342 345 348 350 352 354 354 353 352 351 351 350 348 344 340 338 337 337 337 335 336 336 333 329 328 326 322 321 321 320 321 321 321 322 322 323 325 326 326 327 329 331 333 333 331 330 329 329 329 328 328 330 330 330 330 328 327
334 335 336 338 340 342 343 345 349 351 352 354 354 352 352 351 350 350 347 342 338 335 336 338 337 335 336 337 332 331 333 328 322 322 322 320 321 322 321 323 323 324 327 329 328 328 329 331 333 333 332 330 330 330 329 329 329 329 329 329 330 329 329
335 337 339 340 343 346 346 350 355 356 355 355 355 353 352 351 351 350 348 345 342 339 338 339 336 335 337 337 332 334 336 332 325 323 322 322 322 322 324 326 326 326 329 331 331 331 331 332 333 333 331 330 329 329 328 328 328 327 326 326 327 329 329
338 341 342 342 343 345 348 354 359 360 360 358 356 356 354 352 351 350 349 349 346 342 341 340 337 336 337 336 334 335 337 335 331 327 324 323 323 325 327 330 330 331 332 333 333 332 332 333 333 331 330 329 329 328 328 327 327 327 326 326 326 329 329
340 342 343 342 340 339 344 353 359 361 362 360 359 358 357 356 354 351 350 349 347 344 342 341 339 338 338 337 338 339 339 338 337 333 329 329 331 332 333 334 334 335 334 333 333 332 332 331 331 331 330 328 328 329 329 328 327 327 326 326 326 329 329
339 340 340 340 337 334 338 349 357 360 360 360 360 360 358 358 356 353 351 349 347 345 344 341 339 338 339 341 342 342 341 340 339 338 337 337 336 335 335 336 336 335 334 332 332 331 330 330 330 331 329 326 327 330 329 327 327 327 326 325 326 328 328
339 340 339 337 340 341 344 351 357 359 360 360 359 359 358 357 354 351 350 349 347 345 343 340 339 339 340 342 342 341 339 339 340 340 339 338 336 335 334 336 336 335 333 332 332 331 330 330 329 330 329 326 326 329 327 325 325 326 325 325 326 326 325
338 339 337 336 339 342 348 354 357 357 357 359 359 357 355 351 347 345 345 345 343 341 340 339 339 340 340 341 340 339 339 340 341 340 338 337 336 335 335 336 336 335 334 333 332 331 330 330 328 328 328 326 327 328 326 324 325 325 324 324 324 324 324
338 338 336 335 334 337 346 354 354 350 350 353 355 353 347 344 342 341 341 342 342 340 341 341 342 342 342 342 342 341 341 341 340 340 338 337 336 336 336 336 335 334 333 332 331 331 330 328 327 326 327 327 328 328 326 325 325 325 324 323 323 323 323
340 339 338 339 339 342 350 352 347 342 344 347 348 346 343 342 343 342 342 344 344 343 343 343 343 344 343 342 342 341 341 340 340 339 338 336 336 336 335 335 335 334 332 331 330 330 329 327 326 326 327 328 327 326 326 325 325 324 324 323 323 323 323
342 340 340 340 343 347 349 347 342 341 343 344 343 342 342 343 344 345 344 344 344 344 344 344 345 346 344 343 343 342 341 340 340 339 339 337 336 336 336 335 335 333 330 329 328 328 328 327 325 325 326 327 327 325 325 325 324 324 323 323 323 323 323
344 341 341 340 342 345 344 341 340 340 342 343 343 342 343 343 342 341 341 342 342 343 342 341 340 339 338 338 337 336 336 336 338 341 341 339 338 337 336 334 332 329 327 328 328 328 327 326 325 325 326 327 326 324 324 323 323 322 322 322 322 322 322
343 342 342 341 341 342 341 339 338 338 341 344 345 341 341 341 340 338 338 339 338 336 333 331 329 330 331 331 329 328 328 331 335 338 339 337 336 335 333 331 330 328 328 329 328 328 327 326 326 326 326 326 325 323 323 322 321 321 322 322 322 322 322
342 341 341 340 341 341 340 339 338 337 341 344 344 341 340 341 339 336 335 334 332 329 328 327 327 328 328 327 325 324 325 329 334 336 336 335 334 333 331 330 330 329 329 329 328 327 327 326 325 325 325 324 323 323 322 322 321 321 321 321 322 322 320
342 341 340 338 340 341 340 339 338 338 340 341 343 342 339 337 335 334 332 330 330 329 328 329 328 327 325 324 325 327 329 333 336 336 335 334 333 332 330 330 329 328 328 328 327 327 326 326 325 325 325 323 322 321 321 321 321 321 321 321 322 320 317
341 340 338 336 337 339 339 336 335 337 339 339 338 337 335 332 332 330 328 327 329 330 328 326 325 325 325 327 331 333 334 334 334 333 332 332 332 330 329 329 328 327 327 327 327 327 327 326 325 325 324 322 320 320 321 321 321 321 322 322 320 316 313
338 338 339 339 338 338 338 335 334 337 339 338 335 333 330 328 328 328 325 324 325 325 322 320 321 322 324 328 332 333 333 333 333 331 331 330 330 329 328 328 327 327 326 327 327 327 327 326 325 323 322 321 321 321 321 321 321 321 320 319 316 313 312

ECMWFFLT1_850_thetae_021.txt.gz
Theta_e
346 347 349 350 351 350 351 351 352 352 351 350 348 347 347 346 344 342 340 337 333 329 328 328 327 327 326 325 325 323 322 320 318 317 316 316 315 315 315 315 316 317 318 319 319 319 319 321 322 322 323 324 325 325 325 324 324 323 323 324 324 324 325
345 346 348 350 351 350 350 351 352 353 351 350 348 347 346 344 341 340 337 335 332 327 326 327 326 326 326 325 325 323 321 320 318 316 316 316 315 315 316 316 316 317 317 318 317 317 318 321 323 323 324 325 325 325 324 324 324 323 322 323 323 323 324
344 346 347 349 350 350 351 352 352 352 350 350 349 347 345 342 340 337 334 332 331 328 327 327 325 325 326 326 325 323 321 319 318 317 316 316 316 316 316 316 317 317 317 317 317 317 319 321 323 323 324 325 324 324 324 324 324 323 323 322 322 322 322
343 345 346 347 350 350 350 352 351 352 351 349 349 346 342 339 338 337 333 329 328 327 326 325 325 326 326 326 324 323 321 319 318 317 316 316 316 316 316 316 317 317 318 318 318 319 321 321 321 321 322 322 321 321 321 321 321 321 322 322 322 322 322
342 344 346 347 349 349 351 351 351 351 351 350 349 345 340 338 338 338 335 331 327 326 326 325 326 327 327 327 324 323 322 319 318 318 317 316 316 316 316 316 317 318 318 318 319 322 322 320 321 324 326 323 321 321 322 322 322 323 323 323 323 323 323
342 344 345 346 347 349 350 350 350 350 350 349 349 346 342 340 339 339 337 334 329 328 329 329 328 328 328 328 324 322 321 319 318 318 317 316 316 316 316 317 317 318 318 319 323 325 324 323 325 328 328 325 324 325 326 326 326 327 327 327 326 327 326
342 342 345 346 347 348 349 349 350 350 349 349 349 348 345 342 341 341 339 337 334 332 332 332 331 330 330 331 329 324 321 320 318 318 318 316 316 316 317 317 318 318 319 322 326 327 325 326 328 328 328 327 327 328 328 328 328 328 329 328 328 328 328
342 343 343 344 346 346 347 348 349 350 350 350 350 350 348 345 345 344 343 340 336 335 334 333 332 332 333 337 334 327 322 321 318 318 318 317 316 316 317 318 318 318 321 324 327 327 327 328 328 328 328 327 328 329 329 329 329 329 329 329 329 329 329
342 342 343 344 345 345 346 347 348 349 349 350 350 350 348 347 346 345 345 342 340 338 336 335 336 337 338 340 336 328 324 321 319 319 318 317 317 317 317 318 318 319 321 324 326 327 327 328 328 328 327 327 327 329 329 329 329 329 329 329 329 329 329
342 341 343 343 343 345 345 346 348 348 349 349 349 349 349 349 347 346 346 346 345 343 340 341 345 345 344 343 338 332 326 321 320 320 319 318 318 317 317 318 318 318 320 324 327 327 326 327 327 328 327 326 326 328 328 329 329 329 329 329 329 329 329
342 342 343 343 342 345 346 346 347 347 347 348 348 348 348 349 348 347 347 346 346 346 347 349 349 348 347 345 341 335 326 321 320 320 319 320 318 318 317 317 318 318 321 324 326 326 325 325 326 326 326 325 325 327 328 329 329 329 329 328 329 329 328
342 342 342 342 343 344 344 345 345 345 346 346 346 347 348 348 348 347 347 347 347 349 352 352 351 350 350 349 345 337 328 322 321 320 320 319 318 318 318 317 318 319 322 323 323 324 323 323 325 326 325 325 324 326 327 328 328 327 327 328 328 328 327
342 342 342 343 343 343 343 344 344 344 345 345 345 346 347 347 347 347 348 348 350 353 354 354 352 352 352 350 346 340 329 322 321 320 319 319 318 318 318 318 318 320 322 323 321 321 322 322 325 326 324 324 325 326 327 327 326 326 326 326 325 325 325
341 342 341 343 342 342 343 343 343 343 344 344 346 345 346 347 347 348 349 351 353 354 354 354 353 353 353 351 348 341 330 322 322 321 319 320 320 319 318 318 319 321 322 322 321 321 321 323 325 326 324 325 326 327 327 326 326 326 325 324 323 324 326
341 341 342 343 343 342 343 342 342 342 342 344 345 345 346 347 347 349 351 353 354 353 354 354 353 353 354 352 348 342 332 324 322 321 321 322 322 318 318 319 320 321 321 321 321 320 321 324 326 326 325 326 327 326 326 326 326 325 323 323 324 326 326
341 342 342 342 342 342 343 342 341 340 341 342 344 345 345 345 346 349 351 352 353 353 352 353 353 354 354 351 350 346 336 326 323 322 323 324 321 318 319 320 322 323 320 319 320 320 321 325 327 327 326 327 326 325 325 325 325 324 323 324 325 326 326
342 341 342 342 343 342 341 341 340 339 341 342 343 344 344 345 346 348 350 351 351 351 352 352 353 353 353 352 351 347 335 325 323 324 326 325 322 319 320 321 324 324 320 320 320 320 323 327 329 328 326 326 325 324 325 324 323 323 323 325 326 327 327
341 343 343 341 341 340 339 339 339 340 342 342 343 344 345 346 348 347 349 349 349 350 350 352 353 352 351 350 345 338 330 325 325 327 329 329 326 325 323 322 323 321 319 320 321 321 325 330 331 329 326 325 325 324 324 323 322 322 323 323 325 328 329
342 342 342 339 340 339 338 339 339 341 343 343 344 345 346 347 348 347 348 348 349 350 351 352 352 349 348 346 341 336 333 328 325 328 331 330 327 328 327 322 321 321 320 320 321 322 326 330 330 328 326 325 324 324 324 324 326 326 325 324 325 327 329
340 340 339 337 337 337 339 340 341 342 343 344 345 346 346 347 347 348 349 350 350 352 352 352 351 348 347 347 343 341 338 330 326 330 334 330 326 329 331 324 321 321 321 321 321 323 326 328 328 326 325 324 324 324 325 327 328 329 328 328 328 328 329
338 339 337 336 338 338 339 339 337 337 336 338 340 343 345 347 348 348 349 350 352 352 352 352 351 350 350 349 347 345 339 330 328 333 334 330 328 332 332 325 320 320 321 321 321 322 324 327 327 325 323 323 324 325 326 327 330 330 328 328 329 329 330
336 335 335 336 336 337 337 335 334 335 334 334 336 338 340 344 348 349 350 351 352 352 352 352 351 351 350 349 347 345 340 331 330 335 333 329 331 334 329 323 320 319 320 320 321 322 325 327 327 324 324 323 324 326 327 328 331 331 329 328 329 329 329
334 334 335 335 335 335 335 335 336 336 334 334 334 334 337 341 346 350 351 351 352 352 352 352 352 351 350 348 344 342 339 332 331 334 333 330 334 335 328 322 320 320 320 320 321 324 328 328 326 324 324 324 326 328 330 330 332 331 330 330 330 329 328
332 333 334 334 334 335 335 337 339 335 332 333 333 332 334 338 344 350 352 352 352 352 352 352 352 350 349 345 342 340 339 334 332 334 332 330 334 337 331 325 322 321 320 320 322 327 329 327 325 325 326 327 330 332 332 331 331 331 331 330 330 329 328
333 334 334 335 336 336 336 338 338 335 333 333 333 333 334 337 344 350 353 353 352 352 352 351 351 350 347 343 340 338 338 336 335 335 332 330 334 337 335 331 328 325 322 321 324 328 328 327 327 328 330 331 333 335 333 332 331 331 331 330 329 329 329
332 334 336 335 337 337 338 339 337 335 335 333 333 335 336 339 344 347 349 352 352 352 353 352 351 349 344 340 338 337 338 338 338 337 335 333 335 337 336 334 333 331 327 324 328 332 331 328 329 330 332 333 334 333 332 332 331 330 330 330 329 328 327
336 337 338 338 339 340 339 339 336 335 335 335 335 336 336 339 341 342 344 348 351 352 352 351 348 345 343 342 339 338 339 339 338 338 336 335 336 337 336 335 335 335 334 332 334 335 333 331 331 332 334 334 334 332 331 330 330 330 330 329 328 327 327
339 340 340 340 340 340 339 337 336 336 336 336 337 337 337 340 341 342 346 348 350 352 350 348 346 345 344 342 339 338 340 340 340 339 337 336 337 338 337 335 336 337 336 335 336 337 335 334 334 335 336 335 333 332 331 331 330 330 329 328 327 327 326
340 340 339 338 339 339 338 337 336 337 337 337 337 338 339 340 342 346 349 349 350 350 348 346 345 345 344 342 338 339 341 342 342 340 337 337 339 338 336 337 338 339 337 335 337 338 337 336 336 336 336 335 333 332 332 331 330 329 327 326 326 326 324
337 337 337 338 338 338 338 338 338 339 339 338 339 341 343 343 345 348 350 350 349 349 346 344 343 343 343 341 339 339 340 342 342 340 338 338 338 337 338 340 341 341 340 338 339 339 337 337 338 337 335 333 332 332 332 330 329 327 325 325 325 324 323
331 333 336 337 339 339 339 341 341 342 342 342 342 344 344 344 346 349 350 349 348 346 344 342 342 341 341 339 338 338 338 339 340 339 338 338 338 338 341 343 342 342 341 340 339 338 337 337 337 336 334 332 332 331 330 328 327 325 325 324 323 323 322
332 334 335 336 339 340 341 343 344 344 344 345 345 345 345 345 348 350 349 347 346 344 342 340 339 339 339 339 338 337 336 337 338 338 338 337 338 340 342 343 342 341 341 341 340 339 338 337 336 335 334 332 330 328 327 326 326 325 324 323 322 323 322
333 333 334 335 338 340 342 343 344 344 345 345 345 346 345 346 348 348 346 345 343 343 344 341 338 338 339 340 339 337 337 337 338 337 337 337 337 340 342 341 341 341 341 339 338 336 336 335 335 334 332 330 327 327 326 326 325 324 323 322 322 323 322
332 334 335 337 339 341 341 342 342 342 343 343 344 345 345 345 346 345 344 343 343 344 345 344 341 340 340 340 339 337 337 336 334 333 335 338 339 341 342 342 341 341 339 337 336 335 335 334 333 331 329 328 327 327 327 326 325 323 322 322 322 322 322
333 335 336 338 339 340 340 340 340 340 339 339 340 343 344 343 343 343 342 342 342 343 344 343 343 342 341 339 337 337 337 334 331 332 337 340 341 342 342 342 341 340 339 337 336 335 334 332 330 328 328 328 328 327 326 325 324 323 322 321 321 321 321
332 333 334 336 337 337 339 339 338 337 336 337 339 341 342 342 341 342 341 340 341 341 341 341 341 338 336 333 331 333 336 335 335 338 340 341 342 342 342 340 339 338 338 337 335 333 331 329 328 328 328 328 327 326 326 325 324 323 321 320 320 320 320
332 332 333 334 334 335 336 336 335 335 334 335 338 339 341 342 341 340 340 339 339 338 336 335 333 330 329 327 326 330 338 339 339 338 336 335 338 339 337 335 335 335 335 334 332 330 329 329 329 328 327 327 326 326 326 325 323 322 320 320 320 320 320
334 332 331 332 332 333 335 335 335 335 334 335 337 339 341 341 339 339 339 339 337 334 331 329 327 325 325 327 330 337 340 338 332 327 324 326 331 332 331 332 333 333 332 331 330 330 329 328 328 327 326 326 326 326 325 323 322 321 320 320 320 320 320

ECMWFFLT1_850_thetae_024.txt.gz
Theta_e
343 344 345 346 347 347 347 348 347 347 348 348 348 348 348 348 348 349 350 352 350 347 343 341 340 340 338 333 330 328 327 326 327 325 323 320 320 321 320 319 317 316 316 316 316 317 319 321 321 320 321 322 323 324 325 325 325 324 324 323 324 324 324
342 344 345 345 346 347 347 347 347 347 347 348 348 348 348 348 348 350 351 351 349 344 341 339 339 338 334 330 328 327 326 326 326 325 323 320 320 320 318 317 316 315 315 315 316 318 318 319 319 320 321 322 323 324 325 325 324 324 323 323 322 323 323
342 343 344 345 346 347 347 347 347 348 348 348 348 348 348 348 348 350 350 350 348 344 340 338 336 334 331 328 328 327 326 325 325 324 322 320 319 319 317 316 316 315 315 316 316 317 318 317 317 319 322 322 323 324 325 325 324 324 323 323 323 322 322
341 343 343 345 346 346 347 348 347 348 347 347 347 346 347 348 348 349 350 350 347 344 340 335 333 330 327 326 327 326 325 324 324 323 322 321 320 319 317 316 315 316 316 316 317 317 317 317 317 320 322 322 323 324 324 323 322 322 321 321 321 321 321
340 343 343 344 346 346 347 348 348 348 348 347 347 346 347 348 349 350 350 349 347 343 339 335 332 329 326 325 325 324 323 323 324 324 323 323 323 320 317 315 315 316 316 316 317 317 317 318 319 320 320 322 322 320 319 320 320 321 321 321 322 322 322
339 342 343 344 345 346 347 347 347 348 347 347 346 346 347 348 348 349 348 348 347 344 341 337 333 328 325 324 324 324 324 325 326 326 325 325 323 320 317 316 316 316 316 317 317 317 318 319 319 319 320 322 320 318 320 323 324 325 326 326 327 326 326
340 341 342 343 344 345 346 347 348 348 347 347 347 347 348 349 349 348 348 347 346 344 342 337 332 328 325 325 325 325 325 326 328 328 327 325 323 320 318 316 316 316 316 317 317 318 319 319 319 321 324 324 321 321 325 327 327 328 328 328 329 329 329
339 341 341 342 343 343 345 346 348 348 348 348 349 349 349 348 349 349 348 346 345 344 342 336 332 329 327 326 325 324 325 328 331 331 328 325 323 321 319 317 316 316 317 317 317 319 321 320 321 325 327 326 325 325 327 328 328 328 328 328 329 329 329
339 340 340 341 342 342 344 346 347 348 349 349 348 349 348 348 348 348 348 347 345 344 341 338 334 330 329 328 326 326 327 329 333 333 329 323 321 320 319 317 316 316 317 317 318 321 322 323 325 328 327 327 327 327 328 328 329 329 329 329 329 329 329
340 340 340 341 341 342 343 345 347 347 348 349 348 349 348 348 348 348 348 348 347 344 341 339 338 335 332 331 329 329 328 331 337 336 328 320 319 321 320 318 316 316 317 317 318 321 324 325 327 328 328 328 327 327 327 328 328 328 329 329 329 329 329
339 339 341 341 341 343 343 344 346 346 347 347 347 348 347 347 348 348 348 349 348 346 342 340 341 339 336 334 334 334 333 332 334 334 328 322 320 321 320 318 316 316 317 318 318 322 325 326 327 328 328 328 327 327 327 327 328 328 329 329 329 329 328
340 340 340 341 341 342 343 343 345 345 346 346 346 347 346 347 348 348 348 348 349 348 344 342 342 341 340 339 337 336 335 335 338 341 336 326 321 320 320 318 317 317 318 318 318 321 325 327 327 327 327 328 327 327 327 327 328 329 329 329 329 328 328
340 340 340 341 341 341 343 343 344 344 344 345 345 346 346 346 347 348 348 349 349 350 348 345 344 343 343 342 340 340 342 346 348 344 335 327 324 324 323 320 318 317 318 318 318 321 324 325 324 323 325 328 328 327 327 327 328 328 328 327 327 327 328
340 340 340 341 341 341 343 342 343 343 343 344 344 345 346 346 347 348 348 349 350 351 350 348 346 345 346 345 345 348 349 350 348 337 331 329 327 326 324 321 319 319 318 318 319 322 322 322 321 320 324 328 327 326 326 327 327 327 325 325 326 326 326
339 340 340 340 341 341 342 342 342 342 342 343 343 344 345 346 346 348 348 349 350 350 350 349 349 349 349 349 351 352 351 350 345 338 336 333 327 324 323 320 318 319 318 318 320 322 322 320 320 320 324 327 326 324 325 327 326 324 323 324 324 324 324
340 340 340 341 340 341 341 342 342 341 341 341 341 342 343 344 345 346 347 347 348 348 349 349 350 349 351 352 352 353 351 350 349 344 339 333 327 325 323 318 317 319 318 318 320 323 325 323 320 321 324 326 325 324 325 326 324 323 323 324 323 322 322
339 340 341 341 341 341 341 341 342 341 341 340 339 341 341 343 344 344 345 346 346 347 347 348 350 351 352 353 352 353 352 352 351 343 334 330 326 323 322 319 318 319 318 319 322 325 326 324 321 322 324 325 324 323 325 326 324 323 324 324 324 323 323
339 339 341 340 341 342 341 341 342 341 341 339 340 341 341 342 343 343 344 344 344 346 348 350 351 351 353 353 352 353 352 352 351 342 334 330 324 320 321 319 319 321 320 321 325 325 324 323 322 322 324 324 323 324 326 326 324 324 325 326 327 328 328
339 339 341 340 341 341 340 342 341 340 340 340 341 342 342 343 343 343 343 344 344 346 347 350 351 351 352 352 353 353 352 351 349 341 336 332 322 320 322 319 319 322 321 322 326 325 322 322 321 322 325 326 325 325 327 327 326 326 327 329 331 331 331
340 340 340 340 341 341 340 341 340 340 341 341 342 342 342 342 342 343 344 344 345 346 346 349 350 351 352 352 352 353 351 350 346 338 335 332 324 323 325 321 319 322 322 324 326 323 321 321 321 324 327 327 327 327 328 328 327 326 328 330 333 333 333
340 341 340 340 341 340 340 341 341 341 340 338 337 336 336 336 337 341 344 345 346 346 346 348 349 350 352 352 352 352 350 349 344 337 335 334 327 325 327 324 321 323 326 327 326 322 320 321 322 326 328 329 328 328 328 328 327 326 329 331 334 335 334
338 338 339 340 340 340 341 340 338 337 334 333 332 331 331 332 334 338 342 344 346 346 347 349 349 350 352 351 351 351 349 348 343 338 336 332 325 322 324 324 324 326 330 329 325 321 320 321 322 325 328 329 329 328 328 327 327 328 331 333 335 335 333
338 339 339 341 340 338 338 335 333 333 332 331 331 330 330 332 332 335 339 342 345 347 348 350 350 350 351 350 350 349 348 347 343 339 335 329 323 321 323 325 326 328 331 330 327 323 320 320 321 324 327 329 328 327 328 328 327 330 333 334 334 333 332
338 339 338 337 336 335 334 333 332 332 333 332 332 331 331 331 331 332 335 337 342 346 348 350 351 350 350 350 349 349 347 345 343 340 335 327 323 324 326 325 326 328 330 331 330 326 321 320 320 323 327 330 329 330 330 328 328 332 334 334 333 332 331
337 337 335 334 334 334 334 334 333 333 333 333 333 332 332 333 332 332 332 334 338 344 348 350 350 350 350 350 349 348 347 345 343 341 337 329 325 326 326 323 324 328 331 330 328 324 321 321 321 324 328 331 332 332 331 330 331 333 334 333 332 331 330
335 334 333 333 334 334 335 336 336 335 334 333 334 334 333 333 332 331 333 335 339 343 347 348 349 350 350 350 348 347 346 345 343 341 337 331 328 329 328 324 325 329 333 331 328 327 326 324 323 325 329 332 333 332 331 332 333 333 333 332 331 330 330
334 334 335 335 336 336 336 338 338 336 335 335 335 335 334 333 333 333 335 338 341 344 346 348 349 349 349 349 348 347 346 345 343 341 337 332 330 330 330 327 327 330 333 333 333 333 333 331 329 329 332 334 334 333 332 333 334 333 333 332 331 330 329
338 339 339 339 339 338 337 338 337 336 336 336 336 335 335 335 335 336 339 341 343 345 346 347 348 348 348 348 347 346 346 345 343 341 337 333 331 330 330 328 328 331 334 335 334 335 336 337 336 336 336 336 335 335 335 335 335 334 333 332 331 330 328
338 338 337 337 338 337 336 336 337 337 337 337 337 337 337 337 338 339 340 342 344 346 347 348 348 348 348 347 347 346 346 344 342 340 337 334 331 330 330 329 329 331 333 334 335 336 338 339 338 338 338 337 336 336 336 335 334 332 332 331 330 328 326
334 332 332 333 333 332 332 335 337 338 338 339 339 340 340 340 340 339 340 343 345 347 348 348 348 348 347 347 346 345 345 343 341 339 337 335 332 331 331 332 331 331 332 334 336 337 339 340 339 338 338 337 337 336 335 333 332 331 331 330 328 326 325
329 328 329 330 329 328 331 335 338 338 339 340 341 342 343 343 341 340 341 343 345 347 348 348 347 348 347 346 345 344 344 343 340 338 337 337 334 333 333 333 333 332 333 336 338 340 341 340 339 339 338 337 336 335 334 333 331 330 329 327 326 325 325
328 328 329 331 332 334 335 338 339 339 339 341 342 343 344 344 343 343 343 344 346 347 348 347 346 345 344 343 343 343 343 342 339 338 338 338 336 336 335 334 333 333 336 338 340 342 342 341 340 339 338 337 336 334 333 332 330 328 327 326 326 325 323
327 327 327 326 328 332 335 338 339 339 339 340 341 342 343 344 345 345 344 345 347 347 346 345 344 342 341 341 342 343 342 340 338 338 340 339 339 338 337 334 334 334 336 339 341 343 343 341 340 338 336 335 335 334 333 330 328 327 327 326 326 324 322
326 326 328 328 326 328 334 338 339 338 338 338 338 340 341 343 345 346 346 346 346 346 345 343 342 341 340 340 341 341 340 338 338 339 340 340 340 339 337 335 335 336 337 340 342 343 341 339 338 336 335 334 334 332 330 328 327 327 327 326 325 324 322
329 328 329 331 331 331 333 336 336 336 336 335 335 336 338 341 343 344 345 346 346 345 343 342 342 342 340 339 339 340 339 338 337 338 339 339 339 338 336 336 336 337 339 342 342 341 339 337 336 335 335 334 331 329 328 327 327 327 326 325 324 323 322
333 331 331 331 330 330 331 333 334 335 334 334 335 335 337 339 340 342 344 345 345 343 342 343 344 342 340 338 338 337 337 336 336 337 337 337 336 336 336 336 336 338 341 341 340 339 338 336 336 335 333 331 329 328 328 327 327 326 325 325 324 323 321
336 334 332 331 330 330 331 333 335 335 335 335 335 336 337 339 339 341 343 343 342 342 341 342 343 343 341 340 338 337 337 337 336 335 333 330 329 331 334 336 338 340 341 340 339 337 336 335 334 333 330 329 328 328 327 326 326 325 325 324 323 321 320
336 335 334 333 332 332 333 334 335 336 337 337 336 337 338 339 340 341 341 341 340 340 340 340 341 341 340 339 338 338 337 336 335 330 326 325 326 330 335 339 340 341 339 336 335 333 332 332 332 330 329 328 328 327 326 326 325 324 323 322 321 320 320

ECMWFFLT1_850_thetae_027.txt.gz
Theta_e
345 346 346 345 345 346 346 345 345 345 345 346 345 346 347 347 347 347 346 347 347 347 347 347 347 348 349 348 346 343 342 340 338 337 337 336 336 333 332 331 330 327 325 324 322 320 318 318 318 317 317 318 319 321 323 324 324 325 324 324 324 324 324
344 345 345 345 345 345 345 345 345 345 345 345 346 346 346 347 347 346 346 346 347 347 347 347 348 348 349 348 344 341 340 339 336 335 335 335 334 332 330 329 328 325 324 322 320 318 317 317 317 317 317 318 320 322 323 324 325 325 325 324 323 323 323
343 343 344 344 344 344 345 345 345 345 345 345 345 345 346 347 345 345 346 345 346 347 347 347 348 349 349 347 343 340 339 336 332 333 333 334 333 330 331 331 327 324 324 321 318 317 316 316 317 317 317 318 321 322 323 324 325 325 324 324 324 323 323
341 342 343 342 343 344 344 345 344 345 345 345 345 344 345 346 346 345 346 346 346 346 347 347 348 349 349 346 341 339 338 333 330 331 332 334 333 333 334 333 328 325 323 320 317 316 316 317 317 317 317 318 321 322 322 323 325 325 324 324 323 323 322
341 341 342 342 342 343 344 344 345 345 345 345 345 345 345 345 345 345 346 346 346 346 346 346 348 350 349 345 341 338 337 333 330 330 332 334 335 336 339 335 328 325 323 319 317 317 316 316 317 317 317 317 320 321 322 324 325 324 322 321 321 321 321
341 340 341 341 342 342 343 344 344 344 345 345 345 344 344 345 346 346 345 346 346 346 347 346 348 349 348 345 341 339 337 334 331 330 330 332 335 338 338 333 327 325 322 318 316 316 316 316 317 317 317 318 319 321 323 324 322 321 321 321 323 324 325
340 340 340 341 341 342 342 343 344 344 345 345 345 345 345 346 346 346 345 345 345 346 347 347 348 349 349 346 342 339 337 335 333 332 333 335 337 339 338 333 328 326 324 320 317 316 316 317 317 317 318 318 318 321 322 321 321 322 324 325 327 328 328
338 339 339 341 340 341 342 342 343 344 345 345 345 346 346 346 345 346 346 346 345 346 347 347 348 348 349 349 346 341 337 336 335 335 336 337 337 337 337 332 328 325 321 319 317 316 316 317 317 318 318 318 319 322 321 321 324 326 327 328 328 329 329
337 338 338 340 340 341 341 342 343 344 344 345 345 346 346 346 345 346 345 345 345 346 346 347 348 348 349 351 349 343 336 334 335 335 335 335 335 336 334 328 325 323 319 316 316 316 317 316 317 320 318 318 322 323 321 323 326 328 328 328 328 329 329
336 337 338 339 340 341 341 342 343 344 343 345 345 345 346 346 346 345 345 345 346 346 346 347 348 348 349 351 349 343 338 334 332 331 332 334 337 337 332 325 324 321 318 317 316 315 317 317 318 320 320 321 325 325 323 324 327 327 328 329 328 329 329
335 336 337 339 339 340 341 341 343 343 343 345 344 345 346 346 346 345 345 346 345 346 346 347 348 349 349 350 348 346 343 335 329 329 331 334 338 338 333 326 323 320 317 318 318 316 316 317 319 320 321 324 326 326 325 325 326 328 329 329 328 329 329
336 336 336 338 339 340 341 341 343 343 344 344 344 345 346 345 346 346 345 346 346 346 347 347 349 349 349 350 349 347 344 337 332 332 331 332 335 337 334 327 321 319 318 319 321 320 317 316 319 321 323 325 326 326 325 324 325 328 328 328 328 329 329
336 337 337 338 338 340 341 341 343 343 343 344 344 344 345 345 346 346 345 346 346 348 348 348 349 349 350 351 349 347 346 342 339 335 332 332 334 338 338 332 323 319 319 321 322 321 318 317 318 321 324 326 326 326 324 322 325 328 328 328 328 329 329
337 338 337 339 338 339 341 340 342 343 343 343 343 344 345 345 345 345 345 346 347 348 348 348 349 349 351 352 351 349 348 347 345 340 335 333 335 339 341 334 324 320 322 324 323 319 317 318 318 320 324 326 326 325 323 322 325 328 329 328 329 328 328
337 338 338 339 339 339 340 340 341 342 342 342 343 344 344 344 345 346 345 346 347 348 348 348 348 350 351 352 352 351 350 350 350 348 343 335 329 335 341 334 323 321 326 329 327 322 319 318 319 320 323 326 326 324 323 323 325 328 329 329 328 327 326
338 338 338 339 339 339 340 340 340 341 341 342 342 343 343 343 344 345 345 346 346 347 347 348 349 350 351 351 351 351 352 353 352 351 349 343 332 333 341 336 324 321 327 330 331 329 322 319 319 320 322 326 326 323 322 323 326 329 329 329 328 326 325
338 338 338 339 340 339 340 340 341 341 341 341 341 342 343 342 343 344 345 345 345 346 347 348 349 350 351 351 351 352 353 353 353 351 350 348 344 342 341 336 327 323 325 329 332 330 323 319 320 320 322 325 324 323 323 325 329 331 330 329 328 326 324
338 338 338 339 339 339 340 340 341 341 340 340 341 341 341 341 342 343 344 344 345 346 346 347 348 349 349 350 351 352 352 352 352 352 350 349 349 346 340 335 331 326 323 327 332 329 322 320 320 321 324 325 324 323 323 326 330 331 330 330 329 326 325
337 337 338 339 339 339 340 340 340 341 340 340 339 339 339 340 341 342 342 343 344 344 345 345 346 347 348 350 351 352 352 352 351 351 351 349 349 349 343 337 333 327 324 328 330 325 320 319 319 323 327 326 324 323 324 327 331 331 330 330 329 327 327
338 338 339 339 340 340 340 340 341 341 341 340 340 340 340 341 342 342 342 343 343 343 344 345 345 346 348 349 351 351 351 352 351 351 351 350 349 350 348 342 333 326 326 329 327 320 318 318 319 324 328 326 323 323 324 328 330 330 330 330 330 329 329
339 338 339 339 339 340 340 340 341 341 340 341 341 342 342 341 341 341 341 341 343 343 344 344 345 346 348 349 350 351 351 351 351 351 351 349 349 349 349 344 334 326 327 329 324 318 317 318 321 326 328 325 323 323 324 326 329 329 329 330 330 330 330
339 338 338 339 339 340 340 340 340 341 341 341 340 339 338 336 335 335 336 337 339 340 343 344 345 346 347 348 349 350 350 350 351 351 350 349 348 348 349 344 334 329 329 328 324 321 320 319 323 327 326 323 323 322 322 325 327 328 328 329 330 330 330
339 338 338 339 339 340 341 340 340 339 337 336 335 334 333 331 330 330 331 333 335 337 340 342 344 346 346 348 349 349 350 350 350 350 350 349 348 348 348 344 337 333 330 325 324 325 322 321 325 328 326 323 323 321 321 324 326 327 328 329 331 331 331
338 339 340 340 340 340 340 337 336 335 333 332 331 330 329 329 329 330 331 332 333 335 336 338 341 345 346 348 348 349 349 350 350 350 350 349 348 348 347 343 338 334 328 324 325 325 321 322 326 328 326 324 321 320 321 323 326 328 330 332 332 331 332
339 340 340 340 339 338 336 334 333 333 332 332 331 330 330 330 330 330 330 331 331 331 332 334 339 344 345 347 348 348 349 349 350 349 349 348 348 348 346 343 339 333 326 325 326 322 319 322 326 328 328 325 322 321 321 322 326 330 333 333 333 332 333
340 339 339 338 336 335 335 335 334 333 333 332 332 332 332 331 331 330 328 328 329 329 330 334 339 343 346 347 348 349 349 349 349 349 348 348 347 346 345 343 338 331 326 326 324 319 320 325 329 330 330 328 325 323 322 324 328 332 334 334 333 332 333
337 337 337 337 337 338 337 335 334 333 333 334 333 333 333 333 332 330 329 329 329 330 333 336 341 344 346 348 348 348 348 348 348 348 348 347 346 345 342 339 334 329 326 325 322 320 325 329 329 330 330 330 330 328 328 331 333 334 334 334 332 332 333
337 338 338 339 339 338 336 335 335 335 334 334 334 334 333 333 332 331 330 331 332 334 335 338 342 345 346 347 348 348 348 348 348 347 347 346 345 343 341 336 331 327 325 323 321 323 328 329 329 330 332 333 334 333 332 333 334 334 333 333 333 333 333
339 339 339 339 338 337 336 336 335 336 336 336 336 335 334 334 334 333 333 333 334 335 336 338 342 346 347 347 347 347 347 347 347 347 346 344 343 341 339 335 329 325 323 322 322 323 326 327 329 332 333 334 335 335 333 333 334 334 334 334 335 334 333
337 337 336 336 336 336 337 336 336 337 338 338 337 337 337 336 336 336 335 335 336 336 336 338 343 347 348 347 347 347 347 347 346 346 345 344 342 341 338 334 328 324 323 323 323 323 324 326 329 332 332 333 335 335 334 335 336 335 335 334 334 333 331
330 330 330 329 330 331 332 332 334 336 337 338 339 339 339 340 340 339 338 338 337 337 337 339 344 346 347 347 347 347 346 346 345 345 344 343 342 340 337 332 327 325 325 326 326 324 324 326 330 331 332 333 335 335 335 335 335 334 333 332 331 330 329
327 328 327 326 326 326 326 326 328 331 334 336 337 338 339 340 340 341 341 340 340 339 341 343 345 346 346 347 347 346 345 345 344 344 344 342 340 339 336 332 329 328 328 329 329 328 327 328 330 332 333 335 336 336 335 335 334 333 332 331 329 328 326
328 327 327 326 325 326 325 325 325 329 334 336 336 337 338 339 339 341 342 343 343 343 344 345 345 345 345 346 345 344 344 344 344 343 343 341 339 338 336 334 331 329 330 331 331 330 329 329 331 333 335 337 336 335 334 334 333 332 330 328 327 326 326
326 326 325 325 324 326 328 328 327 330 335 338 337 337 337 337 338 338 339 341 342 344 346 346 345 344 344 344 343 342 342 343 343 343 342 341 339 338 337 336 333 331 331 331 330 330 330 331 334 336 337 337 335 334 334 333 332 330 328 327 327 326 326
330 329 329 328 328 329 332 333 332 332 335 335 335 335 335 334 335 335 337 339 341 343 345 345 344 344 343 342 341 340 341 341 342 342 341 340 339 338 337 337 335 333 331 331 331 331 332 333 336 337 336 335 334 333 332 331 329 328 327 327 327 326 325
332 331 331 331 331 331 332 333 332 331 332 333 333 333 333 333 334 335 337 339 341 343 344 344 344 344 342 341 340 340 340 340 341 341 340 339 338 338 338 337 337 335 334 334 334 334 334 335 336 336 334 333 333 332 330 329 328 327 327 326 326 325 324
334 333 332 331 331 332 332 332 333 333 333 334 334 334 333 334 336 337 338 339 341 343 344 344 343 342 341 340 339 339 339 340 340 340 339 338 338 339 339 339 338 338 337 337 336 336 337 337 336 334 333 333 331 329 328 328 327 327 326 326 325 324 323
335 335 334 333 332 333 332 333 334 334 334 334 334 334 335 335 336 338 339 339 341 342 343 342 342 341 340 339 338 338 338 339 339 338 338 338 338 338 339 339 338 337 337 336 337 337 338 337 335 333 332 331 329 328 328 328 327 326 326 326 325 323 322

ECMWFFLT1_850_thetae_030.txt.gz
Theta_e
354 353 354 354 354 354 352 352 351 348 346 344 344 345 344 345 345 345 345 345 346 347 347 347 347 347 347 347 347 347 347 347 346 346 344 344 345 345 349 351 346 342 342 338 336 333 329 330 331 328 324 320 319 320 320 322 328 333 334 332 332 332 332
353 352 353 354 354 354 352 348 346 345 345 344 344 344 344 345 345 345 345 345 345 346 346 347 347 347 347 347 347 347 347 347 346 346 345 344 344 343 344 346 343 340 340 337 337 334 328 330 330 326 324 322 321 322 321 323 325 329 333 334 334 334 331
351 351 353 353 354 355 353 348 344 343 344 344 343 344 344 344 344 345 345 346 346 346 346 347 347 347 347 347 347 347 347 347 347 345 344 344 342 340 341 341 340 341 340 339 340 335 329 330 328 323 322 323 323 322 322 324 324 324 328 332 335 335 332
349 350 351 352 354 355 353 349 345 343 343 343 343 343 343 344 344 344 345 346 346 346 346 346 346 347 347 347 347 347 347 347 347 346 343 342 341 339 340 340 339 342 342 340 339 334 330 330 327 321 320 320 320 320 321 324 325 324 325 329 334 334 332
350 350 350 352 353 354 354 351 348 345 343 344 344 343 343 343 343 344 344 345 346 346 345 344 346 346 347 347 347 347 348 347 347 346 343 342 343 341 340 341 340 342 342 339 334 331 330 330 325 320 319 318 317 318 319 321 323 324 326 330 332 330 330
350 350 350 351 352 354 353 351 350 348 345 344 344 343 343 343 343 344 344 345 345 345 346 345 345 346 346 347 347 347 348 347 346 346 345 345 345 343 340 340 340 341 340 337 331 327 328 327 322 319 319 320 319 318 320 323 323 324 327 329 327 324 329
350 352 351 350 352 353 353 351 351 352 350 347 347 345 344 344 343 344 344 344 345 345 346 346 345 345 345 346 347 347 347 348 347 347 347 347 348 345 340 339 339 339 338 335 327 322 321 321 319 318 319 320 319 318 320 323 323 324 325 324 322 321 326
351 352 351 351 352 352 353 353 352 354 354 353 351 349 347 347 346 345 344 344 345 345 346 346 345 345 345 345 346 346 347 348 348 349 349 349 349 347 339 337 338 337 335 332 326 319 318 317 316 317 318 318 318 318 319 320 320 321 321 320 322 324 327
350 352 351 351 351 350 352 353 353 354 354 352 352 352 350 349 348 345 345 345 344 345 346 345 345 345 345 345 345 346 346 347 348 349 350 349 350 346 336 334 337 336 334 331 325 320 318 317 316 316 317 317 318 319 319 319 319 318 319 321 324 327 329
349 352 352 350 350 349 350 354 353 352 352 350 351 352 349 348 347 346 346 347 346 345 344 345 346 345 345 345 345 345 346 347 348 349 350 352 351 344 333 333 335 334 334 331 325 319 318 317 316 316 318 317 318 320 321 320 320 319 320 324 327 327 328
348 351 353 350 350 350 351 354 353 348 349 349 349 349 348 346 347 347 346 347 348 348 345 345 346 345 345 345 346 346 346 347 348 348 351 352 347 338 333 336 337 334 334 332 325 320 317 318 317 317 318 319 319 320 320 321 322 321 321 325 328 328 330
349 350 351 347 348 351 353 355 353 348 347 347 347 347 345 344 345 346 346 346 349 351 348 346 346 346 345 344 345 346 346 347 347 348 351 350 340 335 337 339 338 335 335 333 327 321 318 317 317 318 320 320 320 320 320 321 323 323 323 325 328 329 331
350 350 347 344 347 351 354 354 351 348 345 345 346 345 343 343 343 345 346 345 348 352 351 349 348 348 346 345 347 348 347 347 348 348 352 350 342 338 338 337 337 336 336 336 330 322 319 318 317 319 320 320 319 320 320 320 322 324 324 325 327 328 329
348 349 348 345 346 350 354 353 350 349 347 344 344 343 343 343 343 344 344 344 346 350 353 352 350 349 347 346 350 352 349 347 347 348 352 352 349 342 338 334 336 339 339 337 332 324 321 319 319 321 320 319 319 320 320 320 322 325 326 325 326 327 327
349 350 350 347 342 344 349 351 350 348 346 344 342 342 342 343 344 344 344 344 345 349 353 353 351 350 349 350 352 353 353 353 350 349 353 353 352 349 343 335 333 336 339 338 333 326 322 320 321 324 321 318 319 320 320 320 322 324 326 325 324 325 327
351 349 350 347 341 338 341 346 349 347 345 342 341 341 342 342 344 343 344 345 344 347 351 351 349 349 350 351 350 352 357 358 354 351 353 353 352 351 349 344 336 332 333 337 335 327 321 320 323 324 321 318 319 320 320 321 321 323 325 324 324 327 329
350 349 350 348 343 339 339 345 350 348 343 340 340 341 342 342 343 343 344 344 344 345 347 347 348 347 347 349 352 355 359 358 354 352 353 353 353 353 352 350 345 335 332 337 337 328 321 320 323 325 323 320 321 321 321 321 322 323 325 324 325 329 331
350 350 351 348 344 340 338 343 348 345 340 340 340 341 341 342 342 343 343 344 344 345 345 345 347 346 346 349 352 356 358 355 352 354 353 353 353 353 352 352 350 344 339 341 340 331 323 320 322 325 324 322 322 321 321 322 324 325 324 323 326 330 331
351 351 352 349 345 341 340 347 351 346 340 340 340 340 341 341 341 342 343 343 343 344 345 345 346 346 348 348 350 356 359 355 352 353 352 352 353 352 352 353 352 349 345 344 343 335 326 322 322 324 326 324 322 321 321 323 324 324 324 323 327 331 332
350 352 353 352 350 349 347 351 353 347 340 340 341 340 341 341 340 342 342 343 344 344 344 346 346 346 347 346 349 356 358 352 350 352 351 351 352 351 352 352 352 351 347 345 344 338 328 324 323 325 327 325 321 320 323 324 324 324 324 323 327 332 332
351 351 352 354 355 353 349 347 347 344 340 340 341 341 341 341 341 342 342 343 344 344 344 345 345 345 346 345 347 353 354 349 349 351 351 350 351 351 351 351 351 351 348 345 344 339 330 326 324 326 328 326 321 321 326 327 325 326 325 324 327 332 332
349 350 350 350 349 347 344 343 343 343 341 340 341 341 342 342 342 342 343 343 344 343 343 344 344 343 345 345 345 349 351 349 349 350 351 351 351 350 350 349 350 351 349 346 344 339 333 329 326 326 328 327 323 324 327 327 326 326 325 323 327 331 332
346 346 346 346 346 344 342 342 342 341 340 340 341 342 341 343 343 343 343 342 341 341 340 340 341 340 342 344 345 348 349 348 348 350 350 350 350 349 349 349 349 350 349 348 345 339 333 329 326 325 328 327 325 326 326 324 324 326 324 323 326 330 331
345 347 348 348 347 345 341 340 341 340 340 341 341 341 342 342 341 340 339 337 337 337 336 336 336 337 340 344 345 348 350 349 349 350 350 350 349 349 349 348 348 349 349 349 347 339 332 329 327 326 328 327 326 326 323 322 326 325 322 323 327 329 332
347 349 347 344 343 342 340 340 340 340 341 341 341 340 339 337 335 333 333 334 335 334 332 332 332 333 339 342 344 348 351 350 349 350 350 349 349 349 348 348 348 348 348 348 346 339 334 332 330 328 327 327 329 329 324 325 328 326 321 322 325 328 331
349 348 347 345 343 342 340 340 340 341 341 340 338 335 332 331 331 330 330 332 333 331 328 327 330 335 340 343 346 349 350 350 349 349 349 349 349 348 348 347 347 348 347 346 344 338 334 333 333 331 330 330 332 331 325 325 328 326 322 322 323 326 330
348 349 349 347 343 341 341 341 341 340 338 336 333 331 330 329 328 328 328 328 328 327 326 327 331 336 342 344 346 349 350 349 348 349 349 349 348 347 346 346 347 347 346 343 340 336 333 334 335 334 333 334 333 330 325 326 329 329 326 323 323 325 330
352 353 351 347 345 345 344 341 338 336 333 332 331 330 329 329 328 328 328 327 327 327 328 331 335 338 341 343 345 348 349 348 347 348 348 348 347 346 346 347 347 346 343 341 338 336 335 336 336 335 335 334 330 326 325 329 332 332 329 326 326 329 332
352 350 347 345 345 346 341 336 334 334 333 332 331 331 331 331 330 329 328 328 329 330 331 334 336 337 338 340 341 345 347 347 347 348 347 346 346 346 346 347 346 344 341 338 338 338 337 336 335 335 334 329 325 325 328 331 334 335 332 329 330 332 334
351 349 349 347 343 339 336 334 335 334 334 333 333 333 334 333 331 330 330 331 331 332 333 334 334 335 336 337 339 343 347 347 347 347 346 346 346 346 346 346 344 342 340 338 338 338 337 334 333 333 330 324 322 327 330 332 334 335 334 333 333 334 334
354 352 351 347 341 337 335 336 335 335 337 338 336 335 335 334 333 332 333 333 333 333 334 334 334 336 336 337 339 344 347 347 346 346 346 346 345 345 345 344 343 341 340 339 338 337 336 333 331 331 330 326 325 328 331 332 334 335 334 334 335 335 335
348 345 343 341 339 338 336 336 336 337 338 338 337 337 336 336 335 336 335 335 335 335 335 336 336 337 338 339 342 345 346 346 346 346 346 345 344 344 343 342 342 341 340 339 338 337 336 332 329 332 333 330 327 329 331 331 333 335 335 335 335 335 334
340 338 338 337 337 335 333 331 332 334 334 334 335 336 337 336 337 337 337 338 339 338 338 339 339 341 343 344 344 344 345 346 345 345 345 344 343 342 342 342 341 340 339 339 339 338 336 332 331 333 334 331 326 328 329 331 334 335 334 334 334 334 333
336 335 335 335 333 332 331 330 330 332 332 332 334 337 338 338 339 339 339 340 340 340 341 341 341 344 346 345 345 345 345 345 344 344 344 344 342 342 342 342 341 340 338 338 337 337 335 333 332 333 332 327 324 327 330 333 335 334 333 334 333 332 331
334 334 334 334 332 332 333 333 333 335 335 334 335 337 338 338 338 337 338 338 337 338 339 339 340 344 346 346 345 345 344 344 344 344 343 343 343 342 342 341 340 339 337 337 337 337 335 332 333 334 332 328 327 330 333 334 334 334 334 333 331 330 329
336 336 336 335 334 333 332 332 333 334 334 334 334 335 335 335 334 335 334 334 335 335 336 338 342 344 345 345 344 344 344 344 343 343 343 343 343 342 341 340 339 338 337 337 337 335 333 331 332 334 333 331 331 333 333 331 331 333 333 330 328 327 327
336 337 335 333 332 332 331 331 331 330 330 331 331 331 332 332 332 333 333 333 334 334 334 339 343 344 344 343 343 343 343 343 343 343 343 343 342 341 340 339 339 338 337 337 336 334 331 330 331 332 332 331 331 333 333 332 332 331 330 328 327 327 326
335 337 338 335 331 330 330 329 329 329 329 330 331 332 333 333 333 334 334 334 335 335 338 341 343 344 343 342 342 342 342 342 342 342 342 342 341 340 339 338 338 337 337 336 336 335 333 332 332 333 333 333 333 334 333 332 331 329 328 327 327 326 325

ECMWFFLT1_850_thetae_036.txt.gz
Theta_e
350 350 349 348 349 351 351 353 355 354 355 355 355 356 358 359 359 360 360 361 362 360 358 353 346 342 344 346 346 344 344 345 344 344 345 345 345 347 348 347 346 347 346 344 341 337 340 346 348 346 341 330 322 319 320 319 322 330 331 333 338 335 333
349 349 348 347 349 351 351 351 353 354 355 356 355 356 358 359 359 359 360 360 361 360 357 353 346 342 345 346 347 346 346 346 344 344 344 343 344 346 348 348 346 346 347 344 342 340 338 342 346 344 340 332 324 318 317 318 321 326 328 329 332 334 334
347 347 347 347 349 350 350 350 352 353 356 357 356 356 357 358 358 357 358 360 361 361 358 353 345 343 346 347 347 348 347 346 345 344 343 342 343 344 346 349 347 345 346 344 344 344 341 339 341 341 338 332 324 317 316 319 319 323 331 333 330 332 333
347 349 348 347 349 350 351 350 350 354 357 357 356 357 357 358 358 357 357 359 360 361 360 354 345 343 347 347 347 348 348 347 346 344 343 343 343 344 345 348 348 345 347 346 345 346 344 342 339 337 335 331 322 316 315 320 319 322 334 338 333 330 331
351 350 349 349 348 349 350 350 350 355 359 358 357 357 357 357 357 356 356 358 359 360 359 354 346 343 346 347 347 348 348 347 347 346 345 344 344 344 344 346 345 345 346 347 346 346 344 343 340 335 333 328 320 317 316 319 321 323 332 338 336 331 331
352 352 352 350 347 347 349 350 352 357 359 359 358 357 359 359 357 357 357 358 360 361 360 356 350 344 344 347 347 348 347 347 348 347 346 346 345 345 345 345 345 345 345 346 347 346 344 342 340 336 333 327 320 316 317 320 324 324 326 333 334 330 329
349 351 350 348 348 349 350 352 355 358 359 359 358 358 360 360 359 358 358 359 361 363 363 359 352 346 343 347 348 348 348 348 348 348 348 348 347 347 346 345 345 345 344 345 346 345 344 342 340 338 334 329 322 316 316 320 323 323 323 326 327 324 324
345 344 343 344 347 350 353 355 358 359 358 359 358 359 360 360 359 358 359 360 361 364 365 359 351 346 343 346 348 348 348 348 348 348 348 349 349 349 350 348 346 345 345 347 346 344 343 342 341 339 335 331 324 318 317 318 319 320 321 322 321 320 321
341 340 342 345 347 349 350 352 356 359 359 359 359 359 359 359 359 358 359 360 361 364 364 358 350 344 344 346 347 347 348 349 348 347 348 349 349 350 351 351 349 348 348 350 348 346 345 344 342 340 338 334 327 320 318 317 317 319 320 320 318 319 319
341 342 346 347 347 347 345 344 351 358 359 359 359 359 359 359 359 359 359 360 362 362 359 356 351 346 344 345 345 346 348 349 349 348 347 348 348 348 349 351 351 350 350 351 351 350 348 346 345 344 341 337 330 323 319 317 317 318 319 320 321 321 320
344 345 346 346 347 349 348 347 351 357 360 360 359 358 360 361 360 360 360 359 362 362 357 356 355 351 346 344 344 346 346 348 349 349 348 348 347 346 348 350 353 352 352 352 353 352 350 348 347 346 345 340 332 325 321 318 317 318 319 322 325 325 322
345 346 347 348 351 352 351 350 352 357 360 360 360 360 361 362 361 362 360 359 361 361 358 357 358 356 351 345 343 344 344 346 348 348 348 348 348 348 349 352 356 356 355 354 354 353 352 349 348 347 345 342 335 328 324 320 317 318 320 323 326 326 324
349 350 350 352 354 352 351 352 353 357 360 361 361 361 361 362 362 362 361 359 359 360 358 357 357 358 355 350 347 345 344 344 345 347 347 346 347 349 351 355 358 358 358 358 356 354 353 351 349 347 346 343 338 332 327 322 318 318 320 323 325 325 325
357 356 355 356 356 353 351 352 355 358 359 361 362 361 361 362 362 362 361 358 357 358 358 357 357 357 356 354 352 348 344 344 345 347 347 346 346 349 352 356 358 359 359 359 358 356 355 353 350 349 348 345 341 335 330 323 318 318 320 322 324 325 325
360 362 363 359 355 354 352 352 356 359 359 361 362 362 362 362 362 362 361 358 356 356 358 358 357 357 355 355 355 351 347 346 346 347 346 347 347 348 351 355 358 359 359 359 358 357 356 354 352 351 349 347 343 339 334 325 318 318 319 321 324 325 325
350 355 362 362 356 354 352 351 355 358 359 362 362 362 362 362 363 363 361 360 357 355 357 358 357 357 356 354 355 354 352 350 348 347 347 348 349 348 351 355 358 359 358 358 359 357 356 355 353 352 350 348 346 342 337 328 319 317 318 321 324 324 325
341 344 355 362 359 354 349 348 353 357 361 361 361 362 362 362 364 363 362 362 359 356 357 358 358 357 355 354 354 355 356 353 350 349 348 348 350 351 354 356 358 358 358 358 358 358 357 354 354 353 351 349 347 344 340 331 320 317 319 321 323 323 324
339 340 344 351 354 354 348 344 347 353 356 357 358 361 362 363 365 365 364 363 361 359 357 359 360 358 355 356 356 357 357 356 354 353 352 352 354 357 358 358 359 359 358 358 359 358 358 355 354 353 351 349 347 346 344 336 324 318 318 321 323 323 323
338 340 340 341 348 353 351 347 346 348 350 352 353 356 358 361 364 365 364 364 362 360 359 359 360 359 357 358 358 360 360 358 358 358 358 359 360 360 361 361 360 359 358 359 359 358 358 357 355 353 350 349 348 346 346 341 330 321 318 320 323 323 322
336 338 340 341 347 351 352 352 351 348 349 350 349 349 353 359 364 365 365 365 364 362 361 361 362 361 360 360 361 363 364 362 363 363 363 363 363 362 363 362 360 359 357 357 358 358 359 357 355 354 351 349 348 346 346 343 336 324 318 321 323 322 322
337 337 337 341 348 351 352 355 357 356 354 351 349 350 354 360 364 365 365 365 365 363 361 362 364 363 362 363 364 366 366 365 366 365 364 363 362 363 364 361 359 357 355 356 358 359 359 358 356 354 351 349 348 347 345 343 337 324 318 322 324 322 322
335 335 335 336 342 350 351 351 352 354 353 353 353 354 356 359 363 366 366 366 365 364 362 363 365 365 364 365 366 367 367 367 366 365 364 363 362 363 363 360 358 356 354 356 358 358 358 357 356 355 352 350 348 347 344 341 334 323 320 324 325 322 321
333 334 335 333 333 340 347 345 344 347 351 356 358 356 357 360 364 367 367 366 366 365 363 364 366 367 367 367 368 369 368 366 365 365 364 362 361 362 362 360 357 355 354 356 358 357 357 357 356 355 353 351 349 347 343 337 331 327 327 326 323 321 321
331 330 332 334 331 332 338 343 346 348 350 355 358 358 360 363 366 367 367 367 368 366 364 365 367 369 370 369 369 368 366 364 365 365 363 362 362 362 360 358 356 355 355 356 356 355 355 355 355 355 354 352 349 346 341 336 334 334 333 326 320 320 321
333 332 331 332 332 333 338 342 344 346 350 355 357 360 361 363 367 369 368 369 370 367 366 367 369 371 372 370 368 367 365 365 365 363 361 359 358 357 356 355 355 355 355 355 355 354 353 353 354 354 353 350 347 344 341 338 337 337 333 324 320 321 322
332 334 332 332 335 341 348 351 352 353 356 356 357 358 360 363 368 369 369 370 371 370 369 369 370 372 370 367 367 367 367 365 362 359 356 352 350 352 354 354 354 354 354 353 353 352 352 352 353 353 351 347 344 342 341 339 337 336 332 324 321 323 322
337 337 336 334 337 343 350 356 358 357 355 354 356 359 362 366 369 371 370 371 371 370 369 369 370 370 367 366 367 366 365 362 358 356 352 347 348 353 355 353 352 352 352 352 352 352 351 351 352 351 349 346 344 343 342 340 338 336 330 323 322 324 323
335 337 339 335 334 339 349 357 358 355 355 357 359 362 366 369 371 372 371 371 371 371 370 369 368 367 366 366 365 364 363 361 357 356 352 348 349 352 352 351 350 350 351 351 351 350 350 350 350 350 348 346 345 344 342 341 341 338 332 326 326 327 327
339 342 348 350 351 352 357 361 359 357 361 363 364 366 369 371 373 372 370 370 371 370 369 368 368 367 366 364 363 362 361 357 356 355 351 347 348 348 348 348 348 348 349 350 349 349 349 349 348 349 347 346 344 343 342 341 340 339 335 331 330 330 331
349 347 350 357 362 364 364 364 362 363 367 368 368 369 370 372 372 370 369 370 370 369 368 367 365 363 361 360 358 357 352 350 351 350 344 342 345 347 348 348 347 347 349 349 349 348 347 346 347 346 346 344 343 342 340 339 337 335 333 332 331 332 333
354 354 354 357 362 365 367 367 367 367 368 368 368 369 371 370 369 368 368 369 368 367 367 363 358 355 354 352 351 348 343 343 346 343 337 336 340 343 345 346 347 347 348 348 348 347 346 345 345 345 344 343 342 341 339 337 335 332 331 332 333 333 334
357 359 361 361 361 363 364 365 366 365 366 368 368 369 369 368 367 368 368 367 367 365 360 352 347 347 349 347 345 342 339 339 339 336 332 332 334 338 343 346 347 347 348 348 348 346 346 345 344 343 342 341 340 340 339 338 336 334 333 333 335 335 335
357 358 359 358 359 362 363 364 365 366 367 367 367 368 368 367 366 365 365 365 362 356 345 337 335 337 339 338 338 337 335 334 332 329 328 328 328 333 343 347 348 347 347 347 346 346 345 344 343 342 341 340 340 340 340 339 338 337 335 334 335 335 334
356 358 359 357 355 356 359 361 362 364 365 365 366 367 366 364 362 360 358 356 349 339 331 330 330 331 334 335 336 338 339 339 339 337 337 337 335 338 344 347 347 347 347 345 344 344 344 343 343 341 340 339 339 340 340 339 338 338 337 336 335 334 332
354 354 356 356 354 353 355 356 357 360 361 360 361 361 359 357 356 354 348 339 332 329 330 332 332 333 334 336 338 341 343 344 345 344 343 344 343 343 345 347 346 346 345 344 343 344 344 343 343 342 341 340 340 339 340 339 338 338 337 335 333 331 332
351 352 353 354 354 354 356 355 356 357 357 356 355 355 356 357 354 346 337 332 332 333 333 333 334 335 336 338 341 343 344 345 347 346 346 345 345 344 344 345 345 345 344 344 344 344 344 344 343 342 342 341 339 340 339 338 338 337 335 332 331 331 333
348 351 353 353 353 354 354 353 352 352 350 349 350 353 355 357 354 346 339 336 337 337 335 335 337 340 341 344 346 344 343 345 347 346 345 345 345 344 343 343 344 344 343 344 345 344 344 344 343 342 341 340 339 339 339 338 338 337 332 330 330 331 333
346 349 351 352 353 353 352 351 350 349 350 351 351 352 354 354 353 351 348 344 341 340 338 339 344 347 346 347 348 345 343 345 347 345 344 344 344 344 344 343 343 343 343 343 344 344 344 343 342 341 340 339 338 338 338 338 337 334 331 330 331 331 331

ECMWFFLT1_850_thetae_042.txt.gz
Theta_e
344 344 344 344 344 345 346 345 346 346 346 347 346 347 347 347 348 348 349 349 349 349 349 349 350 350 350 350 349 345 340 337 337 337 338 339 340 342 343 343 343 344 344 345 345 342 340 341 342 341 340 339 338 337 335 331 328 325 320 318 317 321 325
345 345 344 344 345 345 345 345 345 347 346 347 347 347 347 348 348 349 349 349 349 349 349 350 350 351 351 350 350 348 344 339 337 338 338 339 340 341 341 342 343 344 344 345 344 343 341 341 342 341 340 339 337 337 335 328 324 321 317 317 317 321 324
344 346 345 345 346 346 345 346 345 346 346 347 347 347 347 348 348 349 349 349 349 350 350 350 351 351 351 351 351 350 348 343 339 338 338 339 339 340 341 341 342 344 345 345 345 344 343 342 342 341 341 340 338 337 336 327 319 317 317 317 318 320 323
345 346 346 345 346 346 346 346 345 346 346 347 347 347 348 348 348 349 349 349 350 350 351 351 351 352 351 352 352 352 351 347 342 340 339 339 339 340 341 340 341 343 345 345 345 345 345 344 343 341 341 341 339 338 336 327 318 317 318 317 318 319 321
345 346 346 346 347 346 346 346 346 347 346 346 347 347 347 348 348 350 349 350 351 350 351 351 351 352 353 353 353 352 352 350 346 343 341 341 341 341 341 341 340 342 344 345 346 346 346 345 343 341 340 340 340 338 336 329 320 316 318 318 318 319 320
345 346 346 346 347 346 346 346 346 347 347 347 347 347 348 349 349 350 350 351 352 352 352 352 352 353 353 354 354 354 353 352 350 347 344 344 344 344 342 341 340 341 343 344 346 347 346 344 342 341 340 340 340 339 335 330 323 318 317 318 318 318 320
344 345 346 346 347 347 347 347 347 347 347 347 348 348 349 349 350 351 351 351 352 353 353 353 353 354 354 355 355 355 354 354 353 350 348 346 346 345 343 341 341 342 343 343 345 346 346 344 342 341 341 341 341 339 333 328 324 319 316 318 318 318 320
344 345 345 346 347 347 347 347 347 347 348 348 349 349 349 350 350 351 352 352 353 353 354 354 354 354 355 356 355 356 355 355 354 353 350 349 348 347 344 342 341 342 343 343 343 345 345 344 342 341 342 341 341 340 335 328 324 321 318 317 318 318 319
344 344 345 346 346 347 347 347 348 348 348 349 349 350 350 350 351 351 352 353 353 354 354 355 355 355 355 356 356 356 356 356 356 354 353 351 349 348 345 342 341 342 343 343 342 344 345 344 343 341 341 342 341 341 338 333 329 324 320 318 318 318 319
345 344 345 346 345 346 347 347 348 349 349 350 349 350 351 351 351 351 352 353 354 354 355 355 356 356 356 357 356 357 357 356 356 355 354 353 350 348 345 342 342 341 342 342 342 343 344 344 344 342 342 342 341 341 340 338 335 331 325 321 319 318 318
344 344 345 346 346 347 347 347 348 348 349 350 350 351 351 351 352 352 352 354 354 354 356 356 357 357 357 358 358 358 358 357 357 356 355 353 350 347 345 344 342 341 341 342 343 343 344 344 345 344 343 342 342 341 340 340 339 337 333 327 322 319 318
344 344 344 346 346 346 347 347 349 349 349 350 350 350 351 351 352 352 352 354 354 355 356 356 357 358 358 359 358 359 358 357 357 355 354 353 350 346 345 345 344 342 342 342 342 343 343 344 344 345 344 343 342 342 341 340 340 340 338 334 328 323 319
345 345 344 346 346 346 347 347 348 349 349 350 350 350 350 350 352 352 353 354 355 356 357 356 357 358 359 359 359 359 358 357 356 354 353 352 349 346 345 345 344 343 342 343 343 343 342 343 344 344 344 344 344 343 342 341 341 341 340 339 335 328 323
345 345 344 346 346 346 347 346 348 349 349 350 351 350 351 351 351 352 353 354 355 356 357 357 357 358 359 360 360 359 359 357 356 353 351 350 348 346 345 345 345 343 343 344 344 343 342 342 344 345 345 345 345 344 344 343 342 342 342 342 339 335 328
344 344 345 345 345 346 348 347 348 348 348 349 350 350 351 351 351 353 353 353 354 355 356 357 357 358 359 359 360 359 358 358 357 354 352 350 349 347 346 346 346 345 344 345 345 344 344 343 344 345 345 346 346 346 345 344 343 343 344 343 342 340 336
343 344 343 344 345 346 346 347 347 347 348 349 348 350 351 351 352 352 353 354 355 355 356 356 357 357 359 359 358 358 359 358 357 356 354 352 350 348 346 346 346 346 346 346 346 345 346 346 346 346 346 346 346 346 346 345 344 344 346 346 345 343 341
341 344 344 343 345 345 345 346 346 346 347 347 347 348 349 350 351 351 353 354 354 354 355 356 357 357 357 358 358 358 359 358 358 357 355 353 351 350 347 347 348 348 348 347 347 347 348 349 348 348 348 348 348 347 347 345 345 346 348 348 347 346 345
340 342 344 345 344 344 345 345 346 347 346 345 346 347 347 348 349 350 352 353 352 353 354 356 357 357 357 357 358 359 359 358 358 358 356 354 353 351 350 350 351 351 350 349 349 348 349 350 349 349 349 349 349 348 348 347 348 349 350 349 349 348 347
343 342 344 345 344 345 346 346 346 346 345 344 344 345 345 346 348 349 349 350 351 353 355 356 357 357 357 357 358 359 359 358 359 359 356 355 353 352 353 354 354 354 352 351 349 349 349 350 349 350 350 350 349 349 349 350 350 351 351 351 350 350 350
342 342 343 343 343 345 345 346 346 346 346 344 342 341 343 344 347 347 347 348 351 354 356 357 357 357 357 357 358 359 358 358 359 358 357 355 354 355 356 356 355 355 354 352 351 351 351 350 350 350 349 349 349 349 350 352 352 353 353 352 352 352 351
341 342 342 343 344 344 345 347 348 347 346 344 342 340 341 344 346 348 349 351 353 355 356 357 357 358 358 358 358 358 358 358 358 358 358 357 357 357 357 356 356 356 354 353 352 352 351 350 350 349 349 349 349 351 352 353 354 354 354 353 353 353 352
346 348 347 348 348 347 347 347 346 346 345 343 343 343 341 343 346 348 351 354 355 356 357 358 357 358 358 358 358 358 358 357 357 358 359 359 359 358 357 357 356 356 355 354 353 353 352 352 351 349 349 350 351 353 354 355 356 356 355 355 354 354 353
341 342 344 346 347 348 348 346 345 345 344 343 344 343 342 344 346 348 352 354 356 357 357 358 358 358 358 358 358 358 358 358 357 358 359 360 360 359 357 356 356 355 355 355 354 354 353 352 351 350 350 352 353 355 356 357 357 357 356 356 355 354 354
340 339 337 337 338 340 342 343 344 343 343 346 347 343 342 345 347 349 352 355 356 358 358 359 358 358 358 359 359 358 358 358 358 358 359 360 360 358 358 357 356 355 354 354 353 353 352 352 352 352 354 355 355 356 357 358 358 358 357 357 356 355 354
342 341 339 338 337 336 335 337 339 339 342 346 347 346 347 349 351 352 353 354 355 357 358 359 358 357 357 358 358 359 359 359 359 358 359 360 359 359 358 357 356 354 353 353 353 353 353 354 355 355 356 357 357 358 359 359 359 359 358 357 356 356 354
345 343 341 340 340 337 335 336 335 337 342 346 349 350 350 351 353 354 353 354 356 358 359 358 356 356 357 357 358 359 359 359 359 359 360 359 359 360 360 358 357 355 354 354 355 356 356 356 356 357 357 358 359 359 359 360 359 359 358 357 356 355 353
353 351 348 346 343 340 338 338 335 335 338 344 350 354 355 356 357 355 352 352 356 357 354 352 354 356 357 358 359 359 360 360 360 360 360 360 360 361 360 360 358 357 356 356 357 357 358 358 358 359 359 359 360 360 360 360 359 359 358 357 356 355 352
350 351 352 351 348 342 339 340 339 338 337 338 344 348 351 355 359 359 359 359 359 356 349 347 354 358 359 360 360 360 361 361 361 361 361 361 361 362 361 361 360 359 358 357 358 358 358 359 359 360 360 361 360 360 360 360 359 359 359 357 356 354 352
349 352 355 356 355 350 347 344 344 345 344 340 340 342 343 348 353 358 361 362 362 362 360 359 360 360 360 361 360 360 361 361 362 362 362 362 362 362 362 361 360 361 360 359 359 359 359 360 361 361 361 361 361 360 360 359 359 358 357 356 354 352 350
347 349 353 356 358 358 357 354 354 357 356 352 348 347 347 349 352 355 358 360 360 361 363 364 364 363 363 362 361 361 361 361 362 363 363 363 364 363 363 362 361 362 362 360 360 361 361 362 362 362 362 361 360 360 358 358 357 356 354 353 351 350 349
350 350 353 355 358 360 361 361 361 363 364 363 359 356 354 355 356 356 357 358 358 358 360 362 364 365 364 363 363 363 362 362 363 364 364 364 364 363 364 363 362 362 362 362 363 363 363 363 363 362 362 360 359 358 357 356 354 352 351 350 349 349 348
352 353 355 355 357 359 360 361 362 363 364 365 364 363 362 361 360 360 360 360 360 360 360 361 363 366 366 365 365 364 364 364 365 366 366 365 365 365 364 363 363 364 363 364 364 364 363 363 362 362 360 358 357 356 354 352 350 347 347 347 346 347 346
353 354 354 354 355 356 357 359 360 360 361 361 361 362 362 362 363 363 364 364 364 364 364 363 363 365 366 366 367 367 367 367 367 368 368 367 366 366 365 364 365 364 364 365 364 362 361 361 360 358 355 354 354 352 350 348 346 345 345 345 345 345 345
351 352 352 353 354 354 355 357 357 357 357 356 355 356 357 358 360 360 361 364 365 366 367 366 365 366 366 366 368 369 369 368 368 368 368 367 367 367 366 366 365 365 365 363 359 357 357 355 353 352 351 351 350 348 346 346 345 345 344 344 345 345 344
348 349 350 351 352 353 354 355 354 354 352 349 348 349 351 354 357 357 357 360 362 364 366 366 366 367 368 369 369 367 366 366 366 368 369 368 367 367 366 365 365 364 361 355 351 349 349 348 347 347 347 348 347 346 345 345 344 343 343 343 344 343 343
346 347 348 348 349 350 351 353 354 353 353 352 351 352 355 357 359 359 359 361 363 365 364 365 367 368 368 367 364 363 365 364 362 364 368 368 367 366 365 362 361 357 352 348 347 347 346 346 346 346 346 346 345 344 343 343 343 343 342 342 342 342 342
344 345 346 346 346 347 348 350 352 352 354 355 355 356 358 358 357 357 357 358 359 359 357 358 361 362 359 355 353 354 358 360 358 359 363 365 365 364 361 357 355 353 350 349 348 347 346 346 346 345 345 344 343 343 342 342 342 341 341 340 340 341 340
343 344 345 346 346 347 347 348 349 350 351 352 352 352 354 353 353 354 353 351 350 348 347 347 348 349 349 348 346 344 346 350 353 355 357 359 360 358 355 351 351 351 350 349 347 346 346 345 344 343 343 342 342 342 341 341 341 340 340 339 340 340 339

ECMWFFLT1_850_thetae_045.txt.gz
Theta_e
340 341 341 342 344 343 344 344 344 344 344 344 344 344 345 345 346 346 346 346 346 346 347 347 348 348 348 348 348 348 348 347 346 345 342 340 336 334 333 334 337 340 340 340 340 341 341 341 343 342 341 340 338 338 338 337 336 334 331 327 324 320 318
339 340 340 341 342 343 344 344 344 344 343 344 344 344 345 345 345 346 346 346 346 346 346 346 347 347 347 348 347 348 348 348 348 347 344 340 337 336 336 337 339 341 340 340 340 340 341 342 342 341 340 339 336 337 337 336 336 335 331 327 323 320 318
340 340 340 341 342 343 343 344 343 344 344 344 344 344 344 344 345 345 346 346 346 346 347 347 347 347 346 347 348 348 349 348 348 347 346 342 338 336 337 338 340 342 342 340 340 341 341 342 342 341 341 339 337 337 336 336 336 334 331 327 322 319 318
340 341 340 340 341 342 342 344 343 344 344 344 344 344 344 344 344 345 345 346 346 347 347 347 347 347 347 347 348 348 348 348 348 348 347 344 339 336 337 338 339 341 342 341 341 341 341 342 342 342 342 340 338 338 338 338 337 335 332 326 322 319 318
341 341 341 340 341 341 342 343 343 344 344 344 344 344 344 344 344 345 345 346 346 346 346 346 346 347 347 347 348 348 348 348 348 348 348 347 343 338 337 337 338 339 341 342 341 341 342 342 342 343 343 341 339 339 340 339 337 336 334 327 322 320 318
342 342 342 341 341 341 342 343 343 344 344 343 344 344 344 345 344 345 345 346 347 347 347 347 347 347 347 348 348 348 348 348 348 348 348 348 346 341 337 336 338 339 340 341 342 341 342 342 343 343 342 342 340 339 339 340 338 338 337 331 323 320 318
342 342 343 342 342 342 342 342 343 343 344 343 344 344 344 345 345 345 346 346 347 347 347 348 348 348 348 348 349 349 349 348 349 349 349 349 349 346 340 337 337 338 339 340 341 341 341 342 343 343 342 342 341 340 339 339 338 338 338 335 326 319 318
341 343 343 343 343 342 342 343 343 343 344 344 344 345 344 345 346 345 346 347 347 348 348 348 348 348 348 349 349 349 349 349 349 349 350 350 350 349 345 339 337 337 339 339 341 341 341 341 343 343 343 343 342 341 340 339 338 338 339 337 330 321 318
342 342 342 343 343 343 343 343 343 343 343 344 344 345 345 345 346 346 346 347 347 348 348 348 348 348 349 349 349 349 349 349 350 350 351 351 351 350 347 342 338 337 339 339 340 341 341 341 343 343 343 343 343 342 341 340 339 339 340 339 334 326 320
342 341 342 344 344 344 344 343 344 344 343 344 345 345 346 346 346 347 346 347 347 348 347 348 349 349 350 350 350 350 350 350 350 351 351 352 352 351 348 344 341 339 339 340 340 341 341 341 342 343 343 343 343 342 341 340 340 340 341 340 336 331 325
341 341 342 344 344 344 345 344 344 344 344 345 345 345 346 346 347 347 347 347 347 347 348 348 350 350 350 350 350 351 351 351 351 351 352 353 352 351 349 346 344 341 340 341 341 342 342 341 342 344 344 343 343 343 342 341 340 340 341 340 338 335 330
340 341 341 343 344 344 345 344 344 345 345 345 344 345 346 346 347 347 347 348 347 348 349 349 350 350 351 351 351 351 351 352 352 352 353 353 353 352 351 348 346 343 341 341 342 343 342 342 342 343 343 342 342 343 343 342 341 340 340 341 340 337 333
340 342 341 342 344 343 344 345 345 345 345 346 345 346 346 346 346 346 347 348 347 348 349 349 350 351 351 352 352 352 352 352 352 353 353 354 354 353 352 350 348 345 342 341 342 343 343 341 341 342 343 343 343 343 344 344 343 341 341 341 341 340 337
338 340 341 342 343 343 344 344 345 346 346 346 346 346 346 346 346 347 347 348 348 349 349 350 350 351 352 353 353 352 352 352 353 353 354 354 354 354 353 352 349 346 344 343 342 342 341 341 341 341 342 343 343 343 344 345 344 343 343 343 343 342 340
338 339 340 342 342 342 344 344 345 346 346 346 347 346 347 347 347 347 348 348 349 349 350 350 351 351 352 353 353 352 352 353 353 354 354 355 355 355 354 353 352 349 347 344 341 340 340 340 341 342 342 342 343 343 344 344 344 343 344 344 344 343 343
338 340 341 342 342 342 343 343 345 345 345 346 347 347 347 347 347 348 348 348 350 350 351 351 352 352 352 353 352 352 354 354 354 354 355 355 355 356 355 355 354 352 349 345 341 338 338 341 342 342 342 342 342 343 343 343 342 342 344 345 345 345 344
339 342 342 341 342 342 343 344 345 345 345 346 346 347 347 347 348 348 348 349 349 350 351 352 352 353 352 352 352 353 355 355 355 355 355 355 356 356 356 356 355 354 351 347 342 337 337 340 342 343 342 342 342 343 342 341 340 341 344 346 346 346 346
341 342 342 343 343 342 343 343 344 345 345 345 346 346 347 347 348 348 348 349 349 350 351 352 353 353 352 352 353 354 355 356 356 356 355 355 357 357 357 357 356 355 353 349 342 337 337 339 341 343 343 342 343 343 342 340 340 342 344 346 347 347 346
341 343 343 343 342 342 343 343 343 344 345 345 346 346 346 347 347 348 348 348 348 350 352 352 353 353 353 353 354 355 356 356 357 357 356 356 357 357 357 357 356 355 352 349 344 339 338 338 340 342 343 343 343 343 342 341 342 343 345 346 347 347 347
339 342 343 343 343 343 342 343 344 344 344 345 345 345 346 347 347 347 347 348 349 351 351 353 353 353 354 354 354 355 356 357 357 357 356 356 357 358 358 357 356 355 352 350 347 343 338 337 338 340 341 342 342 342 342 342 343 344 345 346 347 348 348
341 341 340 341 343 343 343 343 343 344 344 345 345 345 346 347 348 348 348 349 350 350 350 351 352 352 354 354 355 355 356 357 357 357 357 357 358 358 358 357 357 356 353 352 349 344 339 337 338 338 339 341 341 342 343 343 344 344 345 346 348 348 350
344 344 343 342 342 341 342 343 343 344 344 345 346 346 346 347 347 347 349 349 350 350 350 351 352 352 353 354 355 355 355 356 357 357 357 358 359 359 358 357 357 356 355 354 350 347 345 342 339 338 339 340 342 343 343 343 344 345 345 347 349 350 351
343 344 345 345 344 343 342 343 343 344 344 344 345 345 345 346 346 346 348 349 349 350 350 351 352 352 352 353 354 355 356 356 357 357 358 358 359 359 358 358 357 357 356 355 353 351 347 344 341 340 340 340 341 342 343 343 344 344 345 347 350 351 352
342 341 341 342 344 345 344 344 343 344 344 344 344 345 345 345 346 345 347 349 349 350 350 350 351 351 351 352 352 354 355 356 357 357 358 358 358 358 358 358 358 357 357 356 355 351 346 344 344 342 341 341 341 341 343 343 343 343 345 348 350 352 353
342 341 339 337 339 340 341 344 346 347 348 346 345 346 346 346 346 346 346 347 348 348 349 349 348 349 350 350 351 353 355 356 357 357 357 358 358 358 359 359 358 358 358 357 356 353 349 347 347 344 342 342 342 343 344 344 344 344 346 350 352 353 354
342 342 342 340 338 337 338 339 341 346 350 348 347 347 346 346 346 347 347 348 349 349 349 347 345 346 348 350 351 353 355 355 356 357 357 358 357 358 358 358 358 359 358 358 357 356 354 352 350 348 346 345 345 345 345 345 346 346 349 352 353 354 355
344 342 341 338 337 338 337 336 336 340 343 346 348 349 348 349 349 348 348 349 350 350 349 346 344 344 346 350 352 353 354 355 356 357 357 358 358 359 359 359 359 359 358 358 358 357 356 355 354 352 350 349 348 348 347 347 348 348 350 353 354 356 357
346 345 344 340 338 337 336 336 336 336 337 339 341 343 345 348 350 350 351 351 351 351 349 349 348 347 349 352 354 354 355 355 356 357 358 358 359 360 360 360 360 359 359 358 358 358 358 357 356 355 354 353 352 351 350 350 351 351 353 354 356 357 358
341 343 344 344 343 340 337 336 335 335 337 336 337 338 340 342 346 350 354 354 351 350 350 351 351 351 352 353 354 355 356 356 357 357 357 358 359 360 360 360 361 361 360 360 359 359 359 358 358 357 356 355 354 354 353 353 353 354 355 356 358 359 359
343 342 341 341 341 341 341 341 339 339 340 340 341 342 342 343 345 348 351 350 350 352 354 354 353 353 354 355 355 356 356 356 357 358 358 359 359 359 360 360 361 361 361 361 361 360 359 359 359 358 357 357 356 355 355 355 355 356 357 359 359 360 359
351 351 350 349 349 349 349 348 347 346 345 345 346 347 348 350 350 352 352 352 353 356 356 356 358 358 357 356 356 356 356 357 357 357 358 358 359 360 360 360 361 362 362 361 362 361 361 360 359 359 358 357 356 356 356 357 357 358 359 360 360 359 358
351 352 352 353 354 355 355 355 354 354 353 352 351 352 354 353 353 354 357 358 358 359 359 360 362 362 361 360 360 359 358 358 358 359 359 358 359 360 360 360 361 361 361 362 362 361 361 360 359 359 358 358 358 358 358 358 359 360 361 360 358 357 355
349 351 352 352 353 354 355 356 357 357 358 358 357 356 355 354 352 353 356 357 360 361 362 362 363 362 363 362 362 361 362 361 361 360 359 359 359 360 361 362 362 362 362 362 362 361 361 360 360 360 359 359 359 359 359 360 361 360 360 359 357 355 352
347 349 350 352 353 353 353 354 354 354 356 356 357 357 357 357 357 357 358 359 361 362 363 364 363 364 364 364 364 363 363 362 362 361 361 360 360 360 361 362 362 362 362 362 362 361 361 361 360 360 360 360 360 360 361 361 360 359 359 357 354 351 348
348 348 350 351 352 352 352 352 352 352 352 352 352 353 352 353 353 354 356 356 357 360 362 364 364 364 364 364 364 365 364 363 364 362 362 361 361 361 362 363 363 363 362 362 362 361 360 360 361 360 360 360 361 361 361 360 360 359 356 352 347 344 343
347 347 348 349 349 350 350 350 351 352 352 352 352 352 352 352 352 352 353 353 354 356 358 360 362 363 364 365 366 366 366 365 364 363 362 362 362 362 362 362 363 363 362 362 362 360 358 359 359 360 361 361 361 361 360 359 357 353 349 345 343 343 343
345 345 346 346 346 347 348 348 349 350 351 351 352 352 353 354 354 353 352 352 353 353 354 355 355 356 359 363 365 366 366 365 364 365 365 363 362 363 364 364 364 363 363 364 362 360 358 358 357 358 359 358 358 357 354 351 349 346 343 343 343 343 343
345 345 345 345 345 346 346 347 347 348 348 349 349 349 350 349 348 348 348 348 349 350 349 349 346 347 352 358 361 363 364 360 357 358 361 364 364 363 363 363 362 359 358 360 361 359 357 355 354 353 352 351 350 348 344 342 343 343 343 343 342 341 341

ECMWFFLT1_850_thetae_048.txt.gz
Theta_e
342 344 344 345 345 345 346 346 346 346 346 346 346 346 346 346 347 347 347 347 347 346 346 346 347 347 347 347 347 347 347 347 346 344 343 341 339 337 337 336 336 335 334 334 333 333 335 338 341 342 342 344 344 343 342 343 343 341 340 338 336 333 330
340 342 343 343 344 345 345 346 346 346 345 346 346 345 346 345 346 347 346 347 346 346 346 346 346 347 347 346 347 347 347 347 347 346 346 345 342 339 336 335 334 333 333 332 333 333 334 337 340 341 341 343 344 342 342 342 341 340 339 337 335 332 328
339 340 341 342 343 344 344 345 345 345 345 345 345 345 345 344 344 345 344 345 346 345 346 346 346 346 346 346 347 346 347 347 347 347 347 346 345 343 340 337 334 333 332 332 332 333 335 337 339 340 341 342 343 342 341 340 339 338 337 336 335 332 328
338 339 340 341 342 343 343 344 344 345 345 345 345 344 345 344 343 343 343 344 344 344 345 345 345 346 346 346 346 346 347 347 347 347 347 346 346 346 345 342 337 334 332 333 333 334 336 338 339 340 341 342 342 342 341 340 337 336 335 335 335 333 329
338 338 339 339 341 342 342 343 343 345 344 344 344 344 344 344 343 344 343 343 343 343 343 343 344 346 346 346 346 346 346 346 346 346 346 346 346 346 346 346 343 337 333 333 334 335 337 339 340 340 340 341 341 342 342 341 338 336 335 335 335 334 331
338 338 338 338 339 340 341 342 343 343 344 344 344 344 344 344 343 343 343 343 343 343 343 345 345 346 346 346 346 346 346 346 346 347 347 347 346 346 346 346 346 342 336 333 333 335 337 340 340 340 340 341 341 342 342 342 339 337 336 336 336 335 333
338 339 339 339 339 339 340 341 342 342 343 343 343 344 343 343 344 343 343 343 343 343 344 345 346 346 346 346 346 346 346 346 346 347 347 347 347 347 347 346 347 346 342 336 333 334 336 338 340 340 340 340 341 342 342 342 341 339 337 337 336 336 335
339 339 339 339 339 339 339 340 341 342 342 343 343 343 343 343 344 343 343 343 343 344 344 344 345 345 345 346 346 346 346 346 346 347 347 347 347 347 347 347 346 346 346 341 336 333 335 337 338 339 340 340 341 342 342 343 342 340 339 338 337 336 336
339 338 339 340 339 339 340 339 340 340 341 343 342 343 343 343 343 343 343 343 343 344 344 344 344 344 345 346 346 346 346 346 346 347 347 347 347 347 347 347 347 347 347 345 339 334 334 336 337 338 340 340 340 341 342 343 343 342 340 339 338 337 336
339 338 339 340 339 340 340 339 340 340 340 342 342 343 343 343 343 343 343 343 343 344 343 344 344 345 346 346 346 346 347 346 347 347 347 347 347 347 347 347 347 348 348 347 344 339 335 335 336 337 339 340 340 340 341 342 342 342 341 340 339 338 338
337 338 338 339 339 340 340 339 340 340 341 341 342 342 343 343 343 343 343 343 343 343 344 344 345 346 346 346 346 347 347 347 347 347 347 347 347 348 347 348 348 348 348 349 348 344 338 335 335 336 337 338 339 339 339 340 341 342 341 340 339 339 338
334 337 338 338 339 340 341 341 341 340 340 341 341 342 342 343 343 343 343 343 343 343 343 344 345 345 346 346 347 347 347 347 347 347 347 347 348 348 348 348 348 348 349 349 349 347 342 336 335 335 336 337 338 339 338 339 340 341 341 340 340 339 339
334 336 337 338 339 340 340 342 341 341 341 341 341 342 342 342 343 343 343 343 343 343 344 344 345 345 346 347 347 347 347 347 347 347 347 347 348 348 348 348 348 348 349 350 350 349 345 338 335 335 336 337 337 338 338 338 339 340 340 341 340 340 340
333 335 336 338 338 339 341 341 342 342 342 341 341 341 342 343 342 343 343 343 343 344 344 344 345 345 346 347 347 348 347 346 347 347 347 347 347 348 348 348 348 349 349 350 351 350 346 340 336 335 336 337 337 338 338 338 338 339 340 340 340 340 340
332 332 333 336 337 339 341 340 341 342 342 342 342 341 342 342 343 343 343 343 344 343 344 345 345 345 346 347 347 347 346 347 347 347 347 348 348 348 348 348 349 349 350 351 352 351 347 342 338 337 336 337 337 338 338 337 337 338 338 338 339 339 340
327 327 328 332 335 337 339 340 341 342 342 343 342 342 343 342 343 343 343 343 344 343 345 345 345 346 346 347 346 346 347 348 348 348 348 348 348 348 348 349 349 350 350 351 352 351 348 345 342 338 336 336 337 337 337 337 336 336 337 337 338 338 340
326 328 328 329 332 335 338 340 340 342 343 343 343 343 343 343 343 343 343 344 344 344 345 345 345 346 346 346 347 347 348 349 349 349 349 348 349 349 349 349 350 350 351 351 353 352 350 347 343 339 337 336 336 336 336 336 336 336 336 336 337 338 339
329 329 329 330 331 333 336 338 341 341 342 343 343 343 343 343 344 343 344 344 344 344 345 346 346 346 346 346 347 347 349 349 349 350 349 349 349 348 349 350 350 351 351 352 353 352 352 348 343 340 339 337 335 335 335 336 336 336 336 336 337 338 339
331 330 330 333 334 335 336 337 339 341 341 343 343 343 344 344 344 344 344 344 345 345 345 346 346 347 346 347 347 348 348 349 350 350 349 349 349 350 350 350 350 351 351 351 353 353 352 349 343 341 339 337 335 333 334 335 336 336 336 337 337 338 339
334 332 332 335 336 337 339 338 339 341 341 342 343 342 343 344 344 345 345 345 345 345 345 346 346 346 347 347 348 348 349 349 350 350 350 350 350 351 351 351 351 351 351 352 353 353 353 350 345 341 339 336 334 332 333 334 335 336 336 337 337 339 340
339 338 337 338 338 338 340 340 340 341 341 342 343 343 344 344 344 344 345 345 346 346 346 346 346 347 348 348 349 349 349 350 350 350 351 351 351 352 352 351 351 352 352 353 353 353 354 352 349 344 338 335 334 334 333 333 334 336 336 337 338 339 341
341 340 340 341 340 339 341 341 340 341 341 341 343 343 343 344 344 345 345 345 346 346 346 346 347 347 348 349 349 350 350 350 350 351 352 353 353 353 352 352 352 352 353 354 354 354 355 355 353 348 342 339 337 335 333 332 333 335 336 337 338 340 342
345 344 342 342 342 341 341 341 341 342 342 341 342 342 343 344 344 345 346 346 346 347 347 347 348 348 348 349 349 350 351 351 352 352 353 354 354 354 353 353 353 353 354 355 355 355 355 355 355 353 350 347 343 338 334 332 333 334 335 337 338 340 343
348 346 344 342 343 344 342 342 341 340 341 341 342 342 343 343 344 345 345 345 346 348 348 348 348 347 348 348 349 350 351 352 352 353 353 354 354 353 353 353 353 354 355 355 355 355 356 356 356 356 355 353 348 341 336 334 333 334 335 336 337 341 343
350 349 346 343 342 342 343 344 343 342 342 342 342 342 342 343 344 344 345 345 346 347 347 347 347 347 348 348 348 350 351 351 353 353 354 354 354 354 354 354 354 355 355 355 355 355 355 356 356 356 356 355 353 349 344 340 337 335 335 336 337 341 345
351 352 350 347 344 341 340 340 342 345 346 345 344 344 343 343 344 344 344 345 346 346 346 346 346 347 348 348 349 350 351 352 352 353 354 353 353 353 354 354 355 355 356 356 356 355 356 356 356 356 356 356 355 353 351 348 343 339 336 337 338 341 346
353 353 353 352 350 347 344 341 342 344 346 348 348 347 345 345 344 344 344 345 345 346 345 345 346 347 348 349 350 350 351 352 352 352 352 351 351 352 353 354 355 355 355 356 356 356 357 357 357 357 357 357 356 355 353 351 348 344 340 339 341 344 348
352 353 353 352 350 348 345 344 344 344 343 345 347 348 349 347 346 346 345 345 345 346 345 346 348 348 348 349 350 350 350 350 350 351 351 351 352 353 354 354 354 355 356 356 357 358 358 358 358 358 358 357 357 356 354 353 351 348 345 343 344 346 350
348 348 348 346 343 344 344 341 341 342 343 345 346 347 349 349 350 350 349 348 347 347 347 348 348 348 349 349 349 349 349 350 350 351 352 352 353 353 354 354 354 355 357 357 358 359 359 359 359 359 358 358 357 357 355 354 353 351 348 347 348 349 351
344 345 346 345 344 346 347 344 342 342 343 344 347 349 351 351 351 352 352 352 352 351 351 351 350 350 350 350 349 350 349 349 350 351 352 353 353 354 356 356 355 355 356 358 359 359 359 359 359 359 359 358 357 357 356 355 354 351 349 350 351 352 352
341 344 347 347 346 346 345 346 348 349 347 349 351 354 356 357 356 355 356 355 355 355 356 356 355 355 354 353 353 352 352 352 351 352 352 352 353 354 355 356 358 358 358 359 360 360 360 360 359 360 359 358 358 357 356 356 355 352 351 352 353 353 354
342 344 346 346 347 348 348 349 352 353 353 354 355 356 358 359 359 359 359 359 358 358 358 357 358 358 358 357 357 356 355 354 353 353 353 353 354 355 355 356 358 359 359 360 360 359 360 360 360 359 359 359 359 358 357 357 356 354 354 354 354 355 355
343 342 342 342 344 346 346 347 349 352 353 354 355 354 354 355 356 356 357 358 359 359 359 360 360 360 360 360 359 359 358 357 357 357 356 355 355 355 356 357 358 359 359 360 359 360 360 360 360 360 359 359 359 358 358 358 357 357 356 355 355 356 356
348 347 346 345 343 342 341 341 343 347 351 353 353 353 353 352 352 352 352 353 353 354 356 357 359 360 361 362 362 361 360 359 358 358 357 356 356 356 357 357 358 358 359 359 359 359 360 360 360 359 359 359 359 358 358 358 358 358 357 356 356 356 356
346 347 348 349 348 347 347 346 347 348 350 350 351 351 351 351 350 350 350 349 349 349 349 349 351 353 356 358 361 362 362 362 362 360 359 358 358 357 357 357 357 358 359 359 359 359 359 359 359 359 359 359 359 359 359 359 358 358 358 357 357 356 357
343 344 344 345 346 347 348 348 348 347 348 348 348 348 348 348 348 347 347 347 347 346 347 346 346 347 348 350 353 356 358 360 361 362 362 362 362 360 359 358 358 358 358 358 359 360 360 359 359 358 359 359 359 360 359 359 358 358 357 357 358 358 358
343 343 344 344 344 345 345 345 346 347 347 347 347 347 347 346 345 345 345 345 345 344 344 344 345 346 347 347 347 348 351 355 358 361 363 363 364 364 362 361 360 359 359 360 359 359 360 360 360 360 359 358 359 359 359 359 358 356 354 356 357 357 355
343 344 344 344 344 345 345 346 346 346 345 344 343 343 343 341 340 340 340 341 342 343 343 344 345 345 345 345 345 346 347 349 351 353 354 354 356 356 355 354 353 352 354 358 360 359 359 360 360 360 360 359 359 358 358 359 357 353 353 355 354 351 348

ECMWFFLT1_850_thetae_051.txt.gz
Theta_e
349 350 350 350 350 349 349 349 347 347 346 346 345 344 342 341 342 343 343 343 345 345 346 346 346 347 347 347 347 347 347 346 344 343 341 340 339 338 337 337 338 338 338 338 337 336 336 335 336 335 336 338 339 341 342 342 343 344 344 344 344 344 344
348 349 349 350 350 349 349 348 348 347 346 346 345 345 344 342 340 340 339 341 343 344 345 345 346 346 346 346 347 347 347 347 346 345 345 344 342 339 337 337 337 337 337 338 337 336 335 335 335 335 334 335 337 339 341 342 343 344 344 343 343 343 344
347 348 348 349 349 349 348 348 348 348 346 346 345 345 345 343 341 340 339 339 340 342 343 344 345 345 345 345 345 346 346 346 347 346 346 346 345 343 340 338 337 337 337 337 337 336 335 334 334 334 334 334 334 337 340 341 342 343 343 343 342 342 343
344 345 346 347 347 348 348 348 347 348 347 346 345 344 343 342 342 342 341 341 340 340 341 342 342 344 344 344 345 345 345 346 346 346 346 346 346 345 344 342 340 339 337 336 336 335 334 333 333 333 333 333 334 335 339 341 341 341 342 342 342 340 341
341 342 344 345 346 346 347 347 347 347 347 346 346 344 343 343 343 343 343 343 343 341 341 341 341 342 343 344 344 344 344 344 345 345 345 345 345 346 346 345 343 342 339 336 335 334 333 332 332 333 334 334 335 336 338 340 340 341 341 341 340 339 339
339 340 341 342 344 345 345 346 346 346 347 347 346 345 344 344 344 344 344 344 344 343 344 343 343 342 343 342 342 343 343 344 344 344 345 345 345 346 346 346 345 344 342 339 336 334 333 332 332 333 335 336 337 337 339 339 340 340 340 340 339 338 337
335 337 338 339 340 342 343 344 345 345 346 346 346 346 345 345 345 344 344 344 343 344 344 344 344 344 343 342 342 342 343 343 343 344 345 345 345 345 346 345 345 345 344 343 341 338 335 333 332 333 334 336 337 338 338 339 339 340 340 340 339 338 337
333 336 337 337 338 340 341 342 343 344 345 345 345 346 346 346 345 345 344 344 344 344 344 344 345 344 344 344 343 342 342 343 343 344 344 345 345 345 345 345 345 345 345 345 344 343 340 335 332 332 334 335 337 338 338 338 338 339 340 341 340 340 338
335 337 337 338 338 339 340 340 340 343 344 345 345 345 345 345 345 345 345 344 344 344 344 343 343 343 343 343 343 343 343 343 343 343 343 344 345 345 345 345 345 345 345 345 345 345 344 340 335 332 332 334 335 337 338 338 338 339 339 340 341 341 340
334 335 337 338 338 338 339 339 340 341 343 344 344 345 345 345 345 345 344 344 344 344 343 343 343 343 343 343 343 343 343 343 343 343 344 345 345 345 345 345 345 345 345 346 345 345 346 344 341 336 333 333 334 336 337 338 338 338 339 340 341 342 342
332 334 335 337 337 338 338 338 339 340 341 342 342 343 344 344 345 345 344 345 344 344 344 343 344 343 343 343 343 343 344 343 343 343 343 344 344 344 344 344 345 345 345 345 346 346 346 346 345 342 337 333 333 334 336 337 337 337 338 339 340 341 342
330 332 334 336 337 337 338 338 339 339 339 340 341 342 343 343 344 344 344 344 344 344 344 343 343 344 343 343 344 344 343 343 343 343 343 344 344 344 344 344 345 345 345 345 346 346 346 346 346 345 341 336 333 333 335 336 337 337 337 338 339 340 342
329 330 331 333 335 336 338 338 338 339 339 339 340 340 341 342 343 343 343 343 343 344 344 343 343 343 343 343 344 343 343 343 343 343 343 343 344 344 344 344 345 345 345 345 346 346 346 346 347 347 345 341 336 334 334 335 336 337 337 338 338 338 340
328 329 330 332 334 335 337 337 337 339 338 339 339 340 340 341 341 342 342 343 343 343 343 343 343 343 343 343 343 343 343 343 342 343 343 343 343 344 344 344 345 345 345 345 345 346 346 347 347 347 347 345 342 337 335 334 335 336 336 337 337 338 339
327 327 328 330 332 334 335 336 337 338 338 339 339 340 340 340 341 342 342 342 343 342 343 343 343 343 343 343 344 343 342 343 343 343 343 343 343 344 344 344 345 345 345 345 345 346 346 347 347 348 348 348 346 342 338 335 334 335 335 336 337 337 338
325 326 326 328 329 331 333 334 335 336 337 339 339 339 340 340 341 341 341 342 342 342 342 343 343 343 343 343 343 343 342 343 344 343 344 344 344 344 344 345 345 345 345 345 346 346 346 347 347 348 348 349 349 346 342 337 334 334 335 335 336 337 338
325 326 326 327 327 327 328 328 331 335 337 339 339 339 340 340 341 341 341 342 342 342 342 342 343 343 343 343 342 342 343 343 343 344 344 344 344 344 345 345 345 345 345 346 346 346 347 347 347 348 348 349 350 349 344 338 334 333 334 335 336 337 338
327 327 326 327 329 328 327 328 329 331 334 336 338 339 339 340 341 340 341 341 341 342 342 342 342 343 343 343 343 343 343 344 344 344 344 344 345 345 345 345 345 346 346 346 346 346 347 347 348 348 348 349 350 349 345 338 333 333 334 334 336 337 338
326 326 326 328 330 329 329 330 331 331 332 334 337 338 339 340 341 340 341 341 341 342 342 342 342 342 342 343 343 343 343 344 344 344 344 345 345 345 346 345 346 346 346 346 346 347 347 347 348 348 348 350 350 349 346 340 334 335 335 335 335 337 339
326 327 329 330 330 329 329 331 334 335 335 335 335 337 339 340 341 341 341 342 342 342 342 342 342 342 343 343 343 343 344 344 344 344 345 345 345 346 346 346 346 346 347 347 347 347 348 348 348 349 349 350 350 350 349 343 336 335 336 336 337 338 339
328 329 332 333 332 331 331 332 335 337 337 337 336 337 339 340 340 341 341 342 342 342 342 343 343 343 343 343 343 344 344 344 344 345 345 346 346 347 347 347 347 347 347 347 347 347 348 348 348 349 349 350 350 351 350 345 339 337 336 337 339 340 341
330 329 331 333 331 330 332 334 336 338 339 339 338 338 339 340 341 341 341 342 342 342 343 343 343 343 343 343 343 344 344 344 344 345 345 346 347 347 348 348 347 347 348 348 348 348 349 349 348 349 349 349 351 352 351 348 344 340 338 339 341 342 343
331 331 332 333 332 332 333 336 339 340 340 340 340 339 339 340 341 341 342 342 342 343 343 343 343 344 344 344 344 344 344 344 345 345 346 346 347 348 348 347 348 348 349 349 349 349 349 349 349 350 349 350 350 351 351 351 349 344 341 342 342 344 344
336 337 338 337 337 336 337 339 341 340 340 341 341 340 340 340 341 342 342 343 343 343 343 343 344 344 344 344 344 344 345 345 346 346 347 347 347 348 348 348 348 348 349 349 349 349 350 350 351 351 350 349 350 351 351 351 349 345 345 345 345 345 345
343 343 343 341 340 339 339 342 343 340 340 342 341 341 341 341 341 342 342 343 343 343 344 343 344 344 344 344 344 345 345 346 346 347 347 347 347 348 348 348 348 348 349 349 349 349 350 351 351 352 351 350 351 351 351 352 351 348 348 350 349 349 348
348 347 345 342 340 339 340 343 344 342 341 341 341 341 341 341 341 342 342 343 344 344 344 344 344 345 345 345 345 345 345 346 346 347 347 347 348 348 348 349 349 349 349 349 350 350 351 351 352 352 352 352 353 353 351 351 352 351 351 352 352 352 352
352 350 348 344 342 341 342 344 345 344 342 341 341 341 341 341 342 342 342 343 344 344 344 344 345 345 345 346 346 346 346 346 347 347 347 348 348 348 349 350 349 350 351 350 351 351 351 353 354 354 354 355 354 354 354 352 352 353 353 352 352 353 353
356 356 354 350 345 344 345 346 347 347 345 343 343 342 342 342 342 342 343 343 344 344 345 345 346 346 346 346 347 347 347 347 347 348 348 349 349 350 350 351 351 352 352 352 353 353 354 356 356 356 357 357 355 353 354 354 354 355 354 354 355 354 354
356 359 358 356 352 350 349 347 347 347 347 347 346 345 345 344 343 343 343 344 344 345 345 346 346 347 347 348 348 348 348 348 348 349 349 349 350 351 351 352 353 353 354 354 354 354 355 356 357 356 357 358 357 354 355 355 356 356 355 355 356 356 355
354 357 358 358 357 356 356 355 352 351 350 349 349 349 348 347 347 346 345 345 345 345 346 346 346 347 347 348 349 349 349 350 350 350 350 351 351 352 353 354 354 355 356 357 356 356 356 358 358 358 358 358 358 357 358 358 358 357 355 355 357 356 356
352 355 356 356 356 356 357 358 358 357 357 356 355 354 353 352 351 350 349 349 349 348 348 348 348 348 349 349 349 349 350 350 350 351 352 352 353 353 354 355 355 356 357 358 359 358 358 359 359 359 359 359 358 358 358 359 359 358 355 355 357 356 356
350 353 354 355 355 355 355 355 355 355 356 357 357 357 357 357 356 356 355 355 355 355 355 354 354 354 354 354 354 353 352 352 351 351 352 352 353 354 354 355 356 357 358 359 360 360 360 360 360 360 360 359 359 358 359 360 360 359 357 356 357 358 357
347 349 351 352 353 353 353 352 352 352 352 352 353 353 354 354 355 355 355 356 356 356 357 358 358 359 359 359 359 358 357 356 354 353 353 353 353 354 354 355 357 358 358 359 360 361 361 361 360 360 360 359 359 359 359 359 359 358 358 357 357 358 357
346 347 348 349 349 350 350 350 350 350 349 349 349 350 349 350 349 349 349 349 349 350 350 351 352 353 356 358 360 361 361 360 358 357 355 355 354 354 355 355 357 357 359 359 360 360 360 360 360 360 360 359 359 359 359 359 358 358 358 357 358 358 357
345 346 346 347 347 347 347 348 348 347 347 347 347 347 346 346 346 346 346 346 346 346 346 347 347 348 348 350 353 356 358 361 362 361 360 359 358 357 356 355 355 356 357 357 358 359 359 359 360 359 359 359 359 359 359 358 358 358 357 356 357 358 357
344 344 345 345 345 346 346 346 346 345 345 345 344 344 343 343 342 342 342 342 342 343 344 344 345 345 345 346 347 348 351 355 358 360 361 361 361 360 360 359 358 357 357 357 357 358 358 359 359 359 359 359 359 359 359 358 358 358 358 358 358 358 358
343 344 344 345 345 345 345 345 344 344 343 341 341 340 340 340 340 341 341 341 341 342 342 342 343 343 343 344 344 344 345 346 348 350 352 353 353 354 355 354 352 351 351 351 351 351 352 354 356 357 359 359 359 359 359 359 359 359 358 358 358 357 357
344 343 343 343 343 343 344 344 343 341 339 337 336 336 335 336 336 337 338 338 339 341 341 342 342 343 343 343 344 344 344 343 342 342 342 342 343 342 340 339 338 337 336 336 336 336 337 339 342 345 349 353 357 359 359 359 359 359 359 359 358 357 357

ECMWFFLT1_850_thetae_054.txt.gz
Theta_e
350 352 354 356 357 357 357 359 359 358 358 356 353 350 348 346 343 341 338 337 337 338 338 339 338 338 338 337 338 338 338 338 338 338 338 337 337 337 337 337 337 338 337 337 337 336 337 337 338 339 339 339 339 338 339 340 341 340 342 346 347 348 348
348 350 353 355 357 357 358 358 358 358 356 354 351 349 348 347 344 341 339 337 337 337 338 338 338 338 338 338 338 338 339 338 338 338 338 338 338 338 338 338 337 337 337 337 337 337 337 337 337 338 338 338 338 338 338 338 339 340 340 344 347 347 348
347 348 351 354 356 357 357 358 358 357 355 355 353 349 347 346 343 340 339 337 337 337 337 337 338 338 338 338 339 339 339 339 339 339 339 339 339 339 339 339 338 338 337 337 337 337 338 338 338 338 338 338 337 336 336 335 336 338 339 341 344 347 348
346 348 350 352 354 356 357 358 358 358 356 354 352 347 345 344 343 342 340 337 336 336 336 337 337 337 338 338 339 339 339 340 340 341 342 342 342 341 341 340 339 338 338 337 337 337 337 338 338 338 338 338 337 337 335 334 335 336 338 339 342 345 346
347 348 350 352 354 356 357 357 357 357 356 354 351 346 344 344 343 343 342 339 336 335 334 336 336 337 337 338 338 339 339 340 342 344 344 345 345 345 343 342 341 340 339 338 337 336 336 337 337 338 338 338 337 337 336 334 334 334 335 338 340 342 347
345 348 349 351 353 354 356 356 356 356 355 355 354 351 348 348 346 344 343 341 339 337 335 335 336 337 336 337 338 339 340 341 342 344 345 346 346 346 345 344 343 343 342 341 338 336 336 336 337 337 337 337 337 337 336 334 334 334 335 338 339 341 347
342 348 350 350 351 353 354 355 356 356 355 355 356 355 354 353 350 348 347 344 341 339 338 336 335 335 335 336 337 338 339 340 342 343 344 345 346 346 346 345 345 344 344 344 342 340 338 336 335 336 336 336 335 335 335 334 333 334 335 337 339 339 342
340 347 349 349 349 350 353 355 355 355 356 355 355 356 356 354 353 352 350 348 344 342 340 338 336 335 335 336 336 337 338 339 341 343 343 344 345 345 345 345 345 344 345 345 344 343 341 339 336 335 335 335 335 334 334 334 333 335 336 336 339 339 338
339 348 351 349 348 349 351 354 355 355 355 355 354 355 355 355 354 353 351 350 349 346 342 341 339 337 336 336 336 337 338 339 340 341 342 343 344 344 344 344 344 344 344 345 345 345 344 342 340 337 335 334 334 334 333 334 334 334 337 337 337 339 338
341 348 351 349 347 348 349 350 353 353 353 355 354 353 354 355 355 354 352 351 351 348 345 343 342 341 339 339 338 338 338 339 339 340 341 342 342 342 342 343 344 344 344 344 345 345 345 344 344 342 339 337 335 334 333 333 334 334 336 338 338 338 339
346 348 349 348 346 346 345 347 350 350 350 352 353 353 352 352 354 355 353 352 350 348 348 347 346 344 342 341 340 340 340 339 339 339 340 340 340 341 341 342 343 343 343 343 344 345 345 344 345 345 344 342 339 336 334 333 334 334 335 337 338 338 338
345 345 346 347 347 346 345 346 346 346 346 347 350 353 352 350 351 353 353 352 351 351 352 350 349 347 344 342 342 342 342 342 341 341 341 341 340 341 341 341 342 342 343 343 343 344 344 345 345 345 345 345 343 340 337 335 334 333 334 336 337 338 339
342 341 341 343 346 347 344 344 343 342 343 344 347 351 352 349 349 351 353 353 352 353 353 351 349 348 346 344 343 343 342 342 342 342 342 341 341 341 341 341 342 342 342 342 342 343 344 344 345 345 345 345 345 344 342 340 338 335 333 334 335 337 338
343 341 339 336 336 338 338 338 338 339 340 342 345 350 352 351 349 348 351 352 351 353 354 352 350 348 346 345 345 344 342 342 342 342 342 342 342 342 342 341 342 342 342 342 343 343 343 344 344 345 345 345 345 346 345 344 343 340 337 335 334 335 337
341 341 343 339 333 330 331 332 334 336 337 339 343 346 349 351 351 348 347 348 349 351 353 352 350 348 346 345 344 344 342 342 342 342 342 342 342 342 342 342 342 342 342 342 343 343 343 344 344 344 345 345 345 346 346 346 345 344 341 338 335 334 335
335 334 340 344 338 330 328 330 330 332 335 338 339 341 344 346 348 347 346 347 348 349 351 352 350 348 346 345 344 343 343 343 342 342 342 342 342 342 342 342 342 342 343 342 343 343 343 343 344 344 345 345 345 346 346 346 346 345 343 340 338 335 334
332 330 331 341 343 335 329 329 328 329 331 333 335 337 340 342 343 344 346 347 346 346 348 351 351 348 346 345 344 344 344 343 343 343 343 342 342 343 342 342 342 343 343 343 343 343 343 343 344 344 345 345 345 346 346 346 347 346 345 344 342 340 338
332 332 330 337 341 334 329 328 327 328 328 328 331 334 336 339 340 342 343 344 345 345 347 350 350 348 345 345 345 344 343 343 343 343 343 343 342 342 342 342 342 343 343 343 343 343 343 344 344 344 345 345 346 346 346 346 346 347 347 347 346 345 343
330 329 330 336 336 329 327 329 328 327 328 328 329 331 334 337 339 340 340 343 347 348 347 348 348 348 347 346 346 345 343 343 343 343 343 343 342 343 343 342 343 343 343 343 343 344 344 344 344 344 344 345 346 345 346 346 347 347 347 348 348 347 347
332 331 333 335 334 329 327 328 327 326 328 329 329 334 339 338 336 337 339 340 344 346 345 345 347 347 347 347 346 345 344 343 343 342 343 343 342 343 343 343 343 343 344 344 344 344 344 344 344 345 345 345 346 346 346 346 346 347 347 348 348 348 348
334 338 341 337 330 328 328 327 328 329 329 330 331 334 338 338 338 340 341 340 341 342 342 343 345 345 345 344 344 343 344 343 343 343 343 343 343 343 343 343 343 343 344 345 345 345 345 345 344 345 345 345 346 346 346 347 347 347 348 348 348 349 349
335 341 345 340 332 329 329 327 328 328 328 331 333 335 337 339 343 343 341 340 341 341 341 342 342 343 343 342 342 342 342 343 343 343 343 344 344 344 343 343 343 344 344 345 346 346 346 345 345 345 346 346 346 346 346 347 347 347 348 348 348 349 349
337 339 338 334 330 329 328 327 328 328 328 331 335 339 341 344 346 345 342 341 341 341 341 342 341 342 342 341 341 342 342 342 343 343 343 344 344 343 343 343 343 344 344 345 346 346 346 346 346 346 346 346 346 346 346 348 350 349 348 348 349 348 349
334 333 331 329 329 330 329 329 330 329 330 335 338 341 342 345 347 346 342 340 341 341 341 341 341 341 341 342 342 342 342 342 342 343 343 343 343 343 343 343 343 344 345 345 346 346 346 348 348 348 347 347 347 347 347 349 351 351 348 348 349 349 349
335 331 330 330 330 332 333 332 332 333 335 339 340 340 341 345 347 346 342 340 342 344 342 341 341 341 341 342 342 342 342 342 342 343 343 343 343 343 344 344 344 345 346 346 346 347 348 350 351 351 350 348 348 348 349 350 351 355 356 351 348 350 350
339 334 334 336 336 337 337 336 336 338 339 341 342 340 343 347 349 345 341 341 343 344 343 340 341 342 342 342 342 342 342 343 343 342 343 343 343 344 344 345 346 347 348 347 348 350 352 352 354 355 353 352 353 353 353 352 351 356 359 356 351 351 352
339 337 337 339 340 339 340 339 338 340 341 342 341 339 343 350 351 345 342 343 343 344 344 344 342 342 342 342 342 342 342 343 343 343 344 344 344 344 345 345 347 348 350 351 352 354 354 354 356 358 357 357 358 358 358 358 356 356 357 356 354 354 354
343 345 345 345 343 341 343 343 342 344 344 342 341 340 342 348 350 346 341 342 342 342 346 347 344 343 343 343 343 343 343 343 344 344 344 345 345 346 346 347 348 349 350 352 354 355 355 356 358 360 361 361 360 359 359 360 360 359 357 356 356 356 354
351 352 353 352 351 349 350 349 346 345 345 342 341 340 340 343 347 345 343 346 348 348 349 349 346 344 344 343 344 344 345 345 346 345 345 345 345 346 346 347 348 348 349 352 355 357 359 360 361 360 360 361 361 360 359 358 360 360 357 357 358 358 356
352 353 354 354 353 354 355 354 352 347 344 343 342 341 341 345 348 347 347 350 350 348 348 347 345 345 345 345 345 346 346 347 347 347 346 346 347 347 348 349 349 351 354 357 358 360 362 362 361 361 361 361 361 361 361 360 360 360 358 357 358 358 357
352 352 353 354 354 355 356 357 356 353 347 344 343 342 343 346 347 345 346 347 345 344 345 345 345 345 345 346 346 346 346 347 347 347 347 349 350 350 351 352 353 355 359 360 360 361 361 361 361 361 361 361 361 361 361 361 360 361 360 359 359 359 358
351 352 353 354 355 355 356 357 357 356 353 348 346 345 344 344 344 343 343 344 344 344 345 345 346 347 346 347 348 349 350 351 352 353 352 353 356 357 357 358 359 359 361 362 361 361 362 362 362 362 361 361 362 362 362 362 361 361 361 361 361 360 359
351 352 353 353 354 354 355 357 357 356 356 353 351 350 349 348 348 347 347 348 348 348 349 349 349 350 350 352 354 353 353 355 358 359 359 358 360 361 361 361 361 361 362 362 361 362 363 362 362 362 362 362 361 361 362 362 362 362 362 361 361 361 361
351 352 352 352 353 353 354 355 355 354 354 354 354 354 354 354 354 353 353 354 354 356 359 359 358 358 359 359 360 360 358 357 358 359 360 361 361 361 361 361 361 361 362 362 362 362 363 363 363 363 363 362 362 362 362 362 362 363 362 361 361 361 360
350 350 351 351 352 351 351 352 352 351 351 351 350 351 351 351 351 352 352 353 353 354 356 356 358 360 360 360 360 361 361 360 360 359 360 361 361 360 360 359 360 360 360 360 361 362 362 362 362 362 362 362 362 362 363 362 362 363 362 362 361 361 360
348 349 349 350 350 350 350 349 349 349 349 348 348 347 347 347 348 350 351 353 354 353 352 353 356 357 357 358 359 359 360 362 361 361 361 362 362 362 361 360 360 360 360 360 360 359 359 359 359 359 359 360 359 359 360 361 361 361 362 362 361 361 361
347 348 348 348 349 348 348 347 347 347 347 347 347 347 347 347 347 347 348 350 352 352 352 353 353 353 352 352 353 354 355 354 353 353 354 354 353 353 352 351 349 348 348 348 346 345 345 345 346 346 347 347 346 345 346 347 349 352 356 359 361 361 362
346 347 347 347 347 347 346 346 346 346 345 345 345 346 346 347 347 346 346 347 348 349 349 348 347 347 347 346 345 346 347 345 344 342 341 339 339 337 336 338 339 335 332 331 332 331 331 331 331 332 333 334 334 333 333 334 335 337 340 346 351 356 359

ECMWFFLT1_850_thetae_057.txt.gz
Theta_e
347 348 353 356 359 359 361 363 363 363 363 364 364 362 362 361 362 359 350 341 337 336 336 336 334 333 332 332 333 333 333 333 333 333 333 334 334 336 336 338 339 338 336 338 338 336 335 338 346 349 346 341 340 342 343 343 341 342 343 343 343 345 347
346 346 349 355 359 359 360 363 364 364 364 365 365 364 362 362 361 358 351 342 337 336 336 336 335 334 333 333 332 333 334 333 334 334 334 334 335 335 335 338 340 338 335 337 339 339 337 335 337 341 341 338 340 342 344 344 342 339 340 341 341 343 346
344 345 346 352 357 360 360 362 364 364 364 365 366 365 364 362 358 354 350 344 338 336 336 336 336 336 334 334 334 333 334 334 335 335 336 336 336 336 336 337 338 339 338 337 338 340 342 340 336 336 337 336 338 342 344 346 345 340 339 339 340 342 343
344 343 345 350 356 359 359 361 364 365 364 365 366 366 365 362 357 353 349 344 339 336 336 336 336 336 336 335 334 334 334 334 335 335 336 337 336 337 337 337 336 338 339 337 336 339 343 346 342 337 337 337 337 339 342 345 347 343 338 338 339 340 341
342 343 343 349 354 359 361 360 363 365 365 364 366 366 365 365 362 359 352 346 341 336 334 335 335 336 336 336 335 335 334 334 335 336 336 336 337 336 336 336 335 336 338 338 338 337 339 345 346 341 338 338 338 338 338 341 344 344 340 336 336 337 339
340 343 342 345 351 357 360 361 362 364 364 364 365 365 367 365 365 363 358 352 346 340 336 334 335 335 336 336 336 335 335 335 335 335 336 336 336 337 335 335 336 337 337 339 340 340 338 340 342 342 339 338 338 339 339 338 340 343 341 338 335 335 337
340 344 344 344 349 355 359 361 360 362 363 363 364 366 367 366 365 364 362 358 351 346 341 337 336 335 335 335 335 335 335 335 336 335 335 336 335 336 337 336 336 337 339 342 342 341 341 339 338 340 340 338 338 339 340 339 338 340 340 337 335 334 335
340 343 345 345 347 351 356 359 360 361 363 363 363 365 366 365 365 365 365 363 358 353 346 340 337 334 334 334 334 335 336 335 335 335 335 336 336 336 336 337 336 336 339 344 344 341 341 341 340 340 340 339 339 339 339 339 338 339 339 337 335 334 334
337 342 345 345 346 346 350 357 359 360 361 362 361 363 365 365 365 365 365 364 362 358 352 345 341 334 332 334 334 334 335 335 336 336 336 336 336 336 336 336 336 337 339 342 345 344 342 342 343 343 341 340 339 338 338 339 338 338 339 337 335 334 334
335 338 341 345 345 344 346 353 358 359 361 362 362 362 364 365 365 365 365 364 363 360 355 352 350 342 334 331 333 333 334 335 335 335 335 336 336 336 336 339 340 340 338 340 345 348 346 343 344 345 343 341 342 340 337 337 337 336 338 337 334 334 335
336 341 344 348 347 346 346 351 358 360 360 362 361 361 362 363 364 364 364 364 364 362 359 358 357 352 341 333 332 333 332 333 334 335 335 335 337 336 337 344 350 349 343 338 341 349 352 348 344 345 345 343 343 342 339 337 336 335 335 335 334 334 334
341 348 350 349 349 349 349 353 358 359 359 360 361 360 361 363 364 363 363 364 363 363 364 362 362 358 350 341 337 334 332 332 333 333 334 334 337 339 341 347 354 355 352 344 338 344 353 354 347 343 344 344 344 344 342 339 338 335 334 334 335 334 334
345 349 352 351 350 350 351 354 358 359 357 358 361 361 359 361 362 362 363 363 362 363 364 364 364 361 356 350 345 340 335 333 332 332 333 333 333 338 344 350 354 356 357 355 346 341 348 355 353 345 342 344 344 344 344 342 340 338 336 334 334 334 334
342 345 350 353 353 353 353 353 355 360 361 359 359 360 359 359 361 361 361 363 362 362 363 364 364 362 359 356 352 347 341 336 336 334 332 333 332 334 341 349 353 355 357 360 357 349 346 352 355 351 344 343 344 344 344 343 342 341 339 337 337 337 335
337 339 346 353 356 356 353 351 349 353 360 361 357 358 360 359 359 361 361 361 362 361 361 363 363 362 362 360 354 350 347 342 340 339 337 337 336 335 338 344 349 352 354 360 361 357 351 350 356 357 351 344 343 344 344 344 344 343 342 340 339 340 339
334 337 340 346 352 353 348 349 348 347 355 360 358 358 359 359 359 359 360 361 360 360 360 360 361 362 363 362 357 353 351 347 344 342 341 340 340 339 338 339 343 348 351 355 359 358 356 353 355 360 358 350 343 342 344 343 344 343 343 341 340 340 341
332 335 335 339 349 352 350 352 353 347 345 349 351 354 358 358 359 360 359 359 359 359 358 358 361 361 362 362 360 357 355 351 348 346 344 343 341 341 341 341 342 343 347 352 354 354 355 355 353 356 360 359 351 344 342 344 344 343 343 342 342 341 343
332 332 333 333 341 349 351 355 354 349 345 342 342 345 350 354 360 360 359 359 359 359 358 357 360 362 362 363 361 358 355 353 350 349 348 347 344 343 342 342 342 342 344 348 348 347 351 353 350 349 355 362 361 353 345 343 343 345 344 344 343 343 344
332 332 334 333 334 339 345 347 350 351 353 354 351 347 347 350 354 354 355 357 358 359 358 357 358 361 363 363 361 357 355 353 351 350 349 350 348 348 346 344 343 343 343 344 344 345 346 348 348 347 348 356 362 359 352 345 343 344 344 345 345 345 346
333 331 332 334 334 333 337 342 346 346 346 352 355 355 356 355 351 347 350 356 358 358 357 356 356 359 362 362 360 358 355 353 351 349 349 350 350 350 349 346 344 344 345 346 346 346 346 347 348 348 346 348 355 358 357 353 349 346 343 344 345 345 346
333 334 335 334 335 339 342 349 355 352 347 348 351 354 357 357 356 353 352 353 356 357 355 354 356 358 361 360 357 356 356 353 351 350 350 351 351 350 348 347 346 346 348 350 351 349 349 348 347 347 347 345 347 352 356 358 356 353 348 344 344 345 345
333 336 335 331 337 349 354 351 351 350 348 347 346 350 354 355 357 358 354 353 356 357 356 354 353 355 359 360 357 356 355 354 353 353 353 352 352 350 348 347 346 347 348 351 354 355 354 352 350 350 351 349 347 349 352 356 357 356 352 348 345 345 345
335 334 333 336 345 353 348 336 331 334 334 333 332 337 346 351 356 358 358 358 359 360 358 354 350 351 356 359 358 356 355 353 351 353 352 352 350 348 347 347 348 350 350 350 354 359 359 358 356 354 353 351 350 349 350 351 353 354 353 351 349 346 346
330 335 340 344 346 347 343 337 333 329 328 328 328 329 335 346 356 358 358 359 360 360 361 356 349 348 352 356 358 355 352 350 349 350 350 349 348 346 347 348 349 350 351 350 351 355 359 362 362 359 355 352 352 352 351 351 350 350 350 350 349 348 347
346 350 350 347 342 340 340 338 334 329 327 327 327 326 328 342 356 358 358 361 360 359 361 358 354 353 353 354 356 355 352 350 349 349 349 348 347 348 348 349 349 350 352 351 351 353 358 362 364 363 360 356 355 356 355 353 353 353 352 350 350 350 349
357 352 347 348 348 343 336 333 332 330 337 343 342 337 335 345 356 358 357 360 361 358 360 361 360 358 356 354 354 353 351 350 349 347 347 347 347 348 348 347 349 352 353 353 355 357 360 361 363 364 365 363 363 362 359 357 358 358 356 354 354 353 353
355 348 345 345 345 337 333 342 347 339 342 353 351 346 348 353 356 358 358 361 362 360 360 361 361 359 358 355 352 351 351 349 347 345 346 348 348 348 348 349 352 355 356 358 361 363 364 365 364 364 364 365 366 366 365 364 363 362 360 359 358 358 358
358 357 354 350 348 343 342 353 360 356 355 359 353 348 355 359 356 358 360 362 363 360 358 361 362 360 357 353 350 349 348 347 346 346 347 349 350 350 350 352 356 360 362 363 366 366 366 366 365 365 365 365 364 365 365 365 365 363 363 362 361 361 360
358 356 352 350 354 357 355 359 364 363 362 364 362 357 358 359 359 361 363 363 363 361 359 360 362 361 358 353 350 349 350 351 351 350 351 353 354 356 357 357 359 363 364 362 364 365 365 364 364 364 364 363 363 364 364 363 363 362 362 362 362 362 361
357 355 353 353 356 359 358 361 364 361 357 360 364 362 359 361 363 364 364 363 362 360 359 361 365 364 361 357 353 352 355 359 359 357 356 356 356 356 358 358 358 360 359 359 362 364 365 364 363 364 364 363 363 364 362 362 362 362 361 362 361 361 362
354 353 354 355 356 357 358 359 362 361 358 359 363 365 363 363 364 365 365 365 363 362 363 365 366 364 360 359 358 358 360 363 363 361 360 358 356 355 355 356 359 360 360 361 363 365 365 364 363 363 364 364 364 364 363 362 362 362 362 362 362 361 361
351 351 353 355 355 356 358 359 360 360 361 360 361 364 365 365 366 367 366 364 364 366 366 367 366 363 361 363 364 363 363 364 364 365 365 362 362 362 361 361 363 363 362 362 363 364 364 364 363 363 364 364 364 364 364 363 363 363 363 363 363 363 362
351 353 355 356 356 356 358 359 359 359 359 359 359 361 362 363 364 365 362 362 364 365 364 363 362 361 362 365 365 364 364 364 364 366 366 364 363 364 364 364 364 364 364 364 364 364 364 364 364 364 364 363 363 363 363 363 364 364 364 364 364 364 363
352 354 355 356 356 356 358 357 357 357 357 357 357 358 359 360 360 360 360 362 363 364 363 363 362 362 363 365 365 364 365 363 364 366 366 365 364 364 363 363 363 363 364 363 363 364 364 364 364 365 364 364 365 365 364 364 364 364 364 363 363 363 362
353 354 355 355 355 355 356 355 354 355 355 354 355 356 357 358 358 359 361 362 363 364 364 364 365 365 365 365 366 365 365 364 364 366 365 364 364 363 362 362 362 363 364 365 363 364 364 365 365 365 365 365 365 365 365 365 364 364 364 364 364 364 364
353 353 354 354 354 353 353 352 352 353 352 353 354 354 355 356 357 358 360 362 364 365 365 365 367 367 366 366 366 365 365 365 364 364 364 364 363 362 363 362 362 363 364 364 363 362 363 363 364 364 364 364 363 362 361 360 359 357 355 355 355 355 355
352 353 352 353 352 352 351 350 350 350 350 351 351 351 352 353 354 355 357 358 360 362 362 362 362 362 363 364 363 363 364 364 363 364 365 365 364 364 362 361 362 363 363 363 363 361 361 361 361 360 358 356 353 350 347 344 341 339 338 337 337 337 338
351 351 352 352 351 350 349 349 349 348 349 349 349 349 350 350 350 352 353 354 356 357 358 358 357 357 358 358 358 358 358 358 359 360 360 359 359 358 355 354 356 357 356 355 354 352 350 347 346 343 340 337 336 335 333 332 333 332 333 332 333 333 333

ECMWFFLT1_850_thetae_060.txt.gz
Theta_e
348 349 350 350 351 351 352 355 354 356 358 359 360 362 361 361 360 359 357 352 346 343 341 341 340 339 337 336 334 333 331 331 332 333 334 336 338 342 349 350 349 347 345 342 339 340 341 341 341 340 340 340 340 340 341 339 339 342 344 346 350 353 351
345 349 352 349 349 351 353 356 356 357 360 362 363 361 362 361 359 359 357 352 347 341 339 338 338 338 337 335 334 332 331 331 332 332 332 334 334 338 344 348 348 347 344 342 340 337 339 341 342 341 340 338 339 339 340 341 340 341 342 343 346 349 347
343 346 350 349 349 350 351 355 357 358 361 364 364 362 362 362 359 358 357 354 349 344 340 337 336 336 335 334 333 332 331 331 331 331 331 332 332 334 339 342 345 345 345 344 344 342 341 342 342 342 341 338 338 339 339 340 342 342 342 341 343 345 345
346 345 349 349 349 349 349 353 356 362 364 365 365 363 363 362 360 359 359 356 349 344 341 337 335 335 334 334 332 332 331 331 331 331 331 330 331 333 336 338 340 344 345 345 344 345 344 344 343 342 342 341 339 338 337 338 341 343 344 343 341 341 342
348 346 347 348 347 348 350 353 359 364 364 365 366 364 363 363 362 361 361 360 352 343 338 336 336 336 335 334 333 332 332 332 331 331 330 331 331 333 334 334 337 340 342 344 343 343 344 346 345 343 343 343 342 341 339 337 339 342 344 344 342 340 339
348 347 347 349 348 350 353 356 363 366 365 365 366 365 364 364 363 363 363 363 359 350 342 339 337 337 337 336 333 332 332 332 332 332 332 332 332 332 332 332 335 337 340 342 343 343 343 344 346 347 347 345 344 344 342 338 337 339 342 343 342 340 339
348 346 348 348 349 351 356 359 363 365 365 365 366 367 366 364 364 364 366 365 362 356 351 343 339 337 337 335 334 333 333 332 333 332 332 333 333 334 332 333 336 338 339 342 343 344 344 343 344 347 349 347 345 345 344 342 339 337 339 340 341 340 338
348 347 346 348 348 350 355 359 362 364 366 365 366 367 367 365 365 365 367 367 364 360 355 348 343 339 336 335 335 334 334 333 333 333 333 333 334 334 334 335 336 337 341 344 345 344 345 344 343 345 349 348 346 344 344 345 343 340 338 338 339 338 338
347 347 344 346 348 346 351 354 357 363 366 365 365 367 367 366 366 366 367 368 366 363 358 352 347 342 338 338 336 334 334 334 333 333 333 334 334 334 334 335 337 338 340 344 347 347 346 346 345 346 347 349 348 346 345 345 346 344 341 338 337 338 338
343 345 343 344 346 344 347 350 356 362 365 366 366 366 367 367 367 367 367 367 368 365 360 356 352 347 342 340 339 337 336 336 335 333 334 334 334 334 334 334 335 338 339 341 346 349 348 346 347 349 347 347 349 349 345 344 345 345 344 341 337 337 338
342 345 343 342 345 345 345 349 357 362 364 365 365 366 367 367 367 367 366 367 368 367 365 361 357 353 346 340 340 339 338 337 336 335 333 334 334 333 334 334 335 337 338 339 342 347 349 347 348 351 350 347 347 348 346 344 343 344 345 344 340 337 335
344 344 343 343 346 345 344 348 357 362 362 364 364 365 367 367 368 368 367 367 368 368 367 364 361 359 354 346 341 340 339 339 338 336 335 334 335 334 334 335 337 340 340 340 340 343 346 349 348 350 351 348 345 346 346 344 344 344 344 345 345 342 337
349 348 345 346 346 347 345 347 356 363 362 363 364 364 365 367 367 367 367 368 368 367 368 366 364 362 360 355 349 345 341 339 336 337 337 336 336 338 339 339 341 344 345 344 344 343 346 348 347 348 350 348 346 345 345 345 346 346 345 344 346 347 343
348 348 348 348 347 350 349 348 354 361 362 362 363 362 365 366 367 367 367 367 368 367 367 367 366 364 363 360 357 351 346 340 336 336 337 336 336 339 343 344 345 346 349 350 350 349 350 351 348 347 349 349 348 347 347 348 347 346 347 345 346 348 348
344 344 346 349 349 352 355 355 358 362 362 362 363 362 363 365 366 367 367 367 367 367 367 367 366 365 363 362 359 356 350 345 340 337 337 337 338 339 342 345 347 348 350 352 353 354 355 355 353 352 352 351 352 352 351 350 346 345 345 345 345 346 347
338 340 346 349 351 352 357 361 362 362 362 362 363 363 364 364 364 365 366 366 366 366 366 367 367 366 364 363 361 359 356 351 346 343 340 339 340 341 342 345 348 350 351 351 352 355 358 358 357 356 355 355 356 356 355 351 345 341 342 343 343 343 344
336 341 345 347 347 346 346 351 355 359 362 362 363 363 362 361 362 363 365 366 365 365 365 365 366 366 365 364 362 361 360 357 351 347 345 341 340 341 342 342 345 348 350 351 351 353 356 358 358 357 357 358 359 358 355 349 343 341 339 341 341 341 341
336 340 342 346 348 345 341 343 344 346 352 355 358 362 362 361 361 360 362 363 364 364 364 364 365 366 366 365 363 363 362 359 356 352 349 347 344 342 341 341 342 344 347 349 350 351 354 357 359 358 358 359 361 360 356 350 346 343 340 339 340 340 341
336 338 339 346 352 350 349 351 348 345 345 349 352 353 354 358 361 360 360 362 362 364 364 363 365 365 366 365 365 364 364 362 360 357 353 351 349 346 344 342 342 342 344 345 348 350 353 354 356 358 358 358 360 362 361 356 351 348 344 340 339 340 341
335 333 334 339 343 342 343 349 355 356 355 356 356 353 350 352 356 359 359 359 361 362 363 362 363 364 365 366 365 365 365 364 363 361 358 357 354 352 349 346 343 343 343 345 347 349 351 351 353 356 358 357 358 361 362 361 358 353 348 344 342 341 342
333 333 335 334 333 339 342 346 353 356 355 355 356 358 358 354 353 355 357 357 359 360 361 361 361 362 363 365 365 365 366 365 365 363 362 361 359 356 354 351 348 347 347 348 349 348 348 349 350 353 355 356 356 356 358 360 360 358 352 348 345 345 344
332 333 333 332 336 342 343 349 355 355 352 346 345 352 359 359 358 357 353 352 355 359 360 360 360 360 361 363 364 365 366 366 366 365 365 364 362 359 357 355 354 353 352 352 352 352 351 351 352 351 352 354 354 353 354 356 358 359 357 353 351 351 350
336 331 335 343 349 346 342 347 355 351 344 337 334 343 353 357 359 360 357 352 352 356 359 360 358 358 358 360 363 363 364 366 366 366 366 365 363 361 359 359 358 358 357 355 355 358 358 355 355 353 353 354 355 354 352 352 355 358 360 360 358 358 356
349 347 349 354 357 352 344 342 342 337 332 328 327 336 347 352 356 359 358 357 353 355 358 360 357 357 357 359 362 363 364 365 366 366 366 365 363 361 360 360 360 360 359 357 357 360 361 360 358 356 356 355 355 354 353 351 352 354 356 358 360 362 361
356 355 356 357 353 346 340 333 330 328 328 331 335 336 337 341 348 355 358 359 357 358 359 358 357 357 356 358 361 363 363 364 365 367 366 364 363 361 359 359 359 360 360 359 357 359 361 362 362 360 360 357 356 355 355 354 354 352 352 354 356 359 361
360 358 360 360 351 342 337 331 331 336 337 343 355 357 351 343 341 345 355 359 359 360 359 357 359 358 356 357 360 362 364 365 365 367 366 364 363 361 360 360 360 361 361 361 360 359 359 361 363 363 363 362 361 360 358 357 357 355 354 356 357 359 361
360 360 360 358 350 349 347 340 343 351 352 354 361 362 361 358 351 345 352 359 360 360 360 359 361 362 358 358 359 360 364 365 366 367 367 365 363 362 361 362 361 361 362 363 363 361 359 360 361 362 364 365 365 364 363 361 361 360 360 361 362 363 363
359 359 358 354 353 357 357 352 355 362 364 364 366 363 360 361 358 355 355 359 360 359 360 361 362 362 361 360 359 360 365 367 367 366 366 365 364 364 364 364 363 363 363 364 365 363 362 361 361 361 363 365 365 366 366 366 365 365 364 365 364 365 365
359 358 356 354 355 357 356 356 360 363 361 360 363 364 363 361 362 361 358 359 360 359 361 362 362 362 362 361 360 362 365 368 367 365 364 364 365 365 365 365 365 365 364 364 366 366 365 364 363 363 364 365 364 365 366 366 367 367 366 367 366 365 366
357 356 354 352 351 349 350 356 362 365 363 358 355 357 359 360 363 362 359 360 361 360 361 362 362 362 363 362 361 363 365 367 366 364 363 364 365 366 365 365 365 366 366 365 366 367 366 366 365 364 364 365 365 365 365 365 366 366 365 365 365 364 364
354 354 354 352 350 349 353 357 360 363 364 362 359 362 363 361 363 364 364 364 363 362 362 362 361 363 363 363 362 362 364 367 367 366 366 366 366 366 365 365 365 365 366 365 365 365 365 366 366 365 365 366 366 365 365 365 364 364 364 363 364 363 363
353 353 354 354 356 356 358 359 360 361 362 361 361 366 367 365 366 367 367 367 367 363 362 361 362 363 364 364 364 364 365 367 367 368 368 367 366 366 366 366 365 364 365 365 364 364 365 366 367 367 366 366 365 364 365 364 363 363 363 363 362 363 363
352 353 354 357 357 356 357 360 360 360 361 361 361 364 366 367 369 370 368 368 368 365 363 363 365 366 366 366 366 366 366 367 366 368 368 368 367 367 366 366 367 365 365 365 365 365 366 366 366 365 365 365 365 364 363 363 364 365 364 363 364 364 364
352 354 356 357 356 355 357 360 360 359 359 360 359 361 362 365 367 368 366 366 365 366 367 367 367 367 366 367 368 367 367 366 367 367 367 366 366 366 366 366 366 367 366 365 365 365 365 364 364 364 364 364 364 364 364 364 365 365 364 363 363 363 363
352 355 356 357 356 356 357 358 357 357 357 357 358 360 361 361 362 363 363 363 365 366 367 367 368 367 366 367 368 368 366 366 366 367 366 365 365 365 364 365 365 365 365 365 364 364 364 364 364 363 363 364 364 365 365 366 366 365 365 364 362 362 361
352 354 355 355 355 355 355 355 355 356 356 356 357 359 360 360 361 362 363 365 366 367 366 365 365 366 366 366 367 367 367 367 366 366 366 365 365 364 364 365 365 365 364 364 364 364 364 365 365 365 365 365 365 365 366 366 366 364 361 357 353 350 348
351 354 354 354 354 355 354 353 354 354 354 354 355 356 358 359 360 361 363 365 367 368 367 366 366 366 367 367 366 365 365 366 366 367 367 366 366 366 365 365 365 365 364 364 364 363 363 364 365 365 365 365 365 365 363 362 358 352 345 340 337 335 334
351 353 354 353 354 353 352 352 352 353 352 352 353 353 355 356 357 359 361 363 365 366 367 367 368 367 367 367 366 365 366 366 367 368 367 365 365 365 366 365 365 364 364 364 364 364 364 363 363 362 362 360 358 354 349 345 341 337 333 332 332 331 331

ECMWFFLT1_850_thetae_063.txt.gz
Theta_e
352 352 352 353 353 353 354 354 354 353 354 355 356 356 357 358 358 357 357 357 356 355 353 351 349 347 343 339 336 335 334 332 331 330 330 331 330 328 330 332 338 343 342 337 333 332 333 335 338 339 340 341 341 340 340 340 341 341 343 344 344 343 344
352 352 352 353 353 353 353 353 353 353 353 354 356 357 358 359 358 359 358 358 357 355 353 350 348 346 341 338 336 335 334 332 331 330 330 331 331 329 329 330 332 337 339 337 334 333 334 335 336 336 337 338 340 342 341 341 341 340 341 343 345 343 342
352 351 352 352 354 352 352 352 352 352 352 352 355 356 357 359 359 359 359 358 358 356 354 351 348 345 341 338 337 334 333 333 331 330 329 329 330 330 330 330 329 332 337 339 338 336 335 335 335 336 336 337 337 339 339 340 341 340 339 341 344 345 343
351 350 350 351 352 351 351 351 349 350 352 352 354 355 357 359 359 359 360 359 359 357 355 352 349 346 343 340 339 336 334 333 331 330 329 329 329 330 330 330 330 331 334 337 340 338 338 336 336 335 336 336 336 336 337 338 339 340 339 339 341 343 343
349 350 350 349 352 352 353 352 351 350 351 351 352 353 355 358 359 360 360 360 359 358 355 353 350 348 346 344 341 337 333 331 331 330 329 329 329 330 330 331 331 331 332 335 338 339 339 339 337 336 336 336 336 336 335 336 337 339 340 340 341 341 341
349 349 350 351 351 352 353 353 353 352 352 352 352 353 355 358 358 359 360 360 360 359 357 355 353 351 349 346 342 338 335 332 331 331 331 330 331 330 330 330 330 330 331 333 336 338 339 339 339 338 336 336 336 336 335 335 335 336 337 339 341 341 341
349 349 350 351 350 352 352 352 353 352 353 353 354 355 356 357 359 359 360 360 359 360 359 356 354 352 349 346 341 338 336 334 332 331 331 331 331 330 329 329 330 331 331 332 334 336 338 339 339 338 338 337 337 336 335 335 334 334 335 337 339 341 342
350 348 349 350 350 351 351 351 352 352 353 355 356 357 357 357 359 359 359 360 360 360 359 357 355 352 349 346 343 339 337 335 332 332 332 332 331 330 329 329 330 330 332 332 333 334 336 338 338 339 340 341 339 337 336 335 335 335 335 335 336 338 340
350 348 347 348 348 349 349 350 352 354 354 356 357 359 358 358 359 359 360 360 360 360 359 358 356 353 351 349 346 342 339 338 335 334 334 334 332 330 329 329 329 329 331 332 332 333 334 336 338 339 341 342 342 340 338 336 336 336 336 336 336 336 338
349 348 347 347 347 348 349 348 352 355 356 357 359 360 361 361 361 361 361 361 361 360 359 359 358 355 353 350 347 345 343 341 339 337 337 336 334 332 331 330 330 331 331 331 332 333 333 334 337 340 341 341 342 342 340 338 336 336 337 336 337 338 337
347 348 348 348 347 348 348 348 351 353 355 358 361 362 362 363 363 362 362 362 362 362 361 360 359 358 355 351 348 346 346 344 342 340 339 337 334 333 332 333 332 333 332 333 333 334 334 334 336 340 342 341 340 340 340 339 337 336 336 336 337 338 338
348 348 348 348 347 347 346 348 350 350 352 356 360 364 364 364 364 363 362 363 362 363 362 362 361 360 358 355 351 349 346 344 343 342 340 337 336 334 333 334 334 334 334 335 335 334 335 336 337 338 340 341 340 339 339 339 339 337 337 336 336 336 338
347 348 348 348 347 348 349 351 353 354 356 359 361 364 364 365 364 364 364 363 363 363 364 364 364 363 362 359 356 352 348 344 342 340 338 336 335 334 335 335 336 336 336 337 337 337 337 338 338 338 338 339 340 341 340 339 340 339 338 338 338 337 336
348 347 348 348 347 349 352 355 356 359 361 363 364 364 365 365 365 364 364 363 364 363 364 365 365 365 364 362 359 356 351 346 342 339 338 337 336 335 335 335 336 337 338 338 338 339 338 338 338 338 338 339 340 342 342 342 341 341 340 339 339 339 338
348 346 347 349 347 350 354 355 358 361 363 364 364 364 365 365 366 366 365 364 364 364 365 366 367 366 365 364 362 360 355 350 345 343 340 339 338 337 336 335 336 337 338 339 339 338 339 339 339 339 339 340 342 343 344 344 343 341 340 339 339 339 339
348 348 349 348 346 349 351 350 352 355 360 364 365 365 365 365 366 366 365 365 365 364 365 366 367 367 366 366 364 362 360 355 351 347 344 342 340 338 338 338 337 338 339 339 338 338 339 340 341 341 341 341 342 344 345 345 344 342 340 339 338 338 339
350 354 356 350 347 349 349 350 351 353 358 362 364 364 365 365 367 366 366 366 365 366 365 366 367 367 367 366 365 364 363 360 356 352 348 346 342 341 339 339 339 340 340 340 340 339 340 342 343 343 343 344 344 344 345 345 344 342 341 340 339 339 338
348 351 357 356 352 350 349 349 352 355 360 363 364 365 364 364 366 367 366 367 366 367 367 366 367 368 367 367 366 365 364 363 360 357 353 349 346 343 341 340 341 341 342 342 342 343 343 344 344 344 346 347 348 347 346 345 343 343 343 343 342 341 341
343 339 345 354 355 355 354 353 352 356 361 364 364 364 364 364 365 366 366 366 366 367 367 367 367 367 367 368 367 366 365 364 362 360 357 354 350 346 344 344 344 343 343 344 343 345 346 346 347 348 348 349 350 351 349 346 344 345 346 345 345 344 343
345 340 337 342 347 348 350 352 352 356 362 366 366 364 363 363 363 365 366 365 366 366 367 367 367 366 367 368 367 367 366 365 363 362 361 359 355 351 349 347 346 345 344 345 345 346 347 348 349 350 350 350 350 352 351 348 345 346 346 346 347 347 346
340 339 335 337 340 340 339 338 338 344 349 355 359 363 364 365 364 364 364 364 365 367 366 366 366 367 367 367 367 367 366 365 365 363 362 362 358 356 354 350 348 347 346 346 345 345 346 346 347 348 349 351 350 351 352 349 345 345 346 346 346 348 350
345 344 345 348 347 347 347 341 337 341 345 347 351 354 356 360 361 363 363 363 363 364 365 366 366 365 366 367 367 367 366 365 366 364 363 362 361 359 357 354 352 350 348 347 346 346 346 346 346 347 347 348 349 350 352 350 347 345 345 345 346 349 353
358 358 361 362 359 359 360 355 352 354 354 351 354 356 354 353 354 356 358 359 362 362 363 363 364 365 364 365 365 366 367 366 365 365 364 364 363 361 359 358 356 353 351 350 349 348 347 346 346 346 345 347 348 349 349 348 348 347 347 346 348 351 355
359 360 359 356 355 354 353 353 352 353 352 347 347 352 356 358 355 354 354 354 356 360 361 361 362 363 363 364 364 365 366 367 366 366 365 364 364 362 362 360 359 357 355 353 351 350 347 346 345 346 347 347 346 346 346 346 346 348 350 351 353 355 357
358 356 353 350 348 344 341 341 339 339 339 334 329 336 347 356 359 360 359 356 352 355 358 359 359 361 362 362 362 363 364 366 366 366 366 365 364 364 363 362 361 361 359 357 355 352 350 348 348 348 347 348 347 346 347 347 347 349 352 354 356 359 360
356 355 352 352 351 347 344 344 341 337 332 331 328 330 337 348 356 359 360 360 357 354 352 351 351 355 359 361 362 362 363 364 366 367 366 366 365 364 364 364 363 363 362 360 358 356 355 353 352 351 350 349 349 349 350 350 351 353 355 357 358 359 361
356 353 352 353 352 348 343 342 340 337 337 340 339 335 334 339 347 353 356 358 360 360 355 351 349 350 354 359 360 361 361 362 363 365 366 367 366 364 365 365 365 364 364 363 361 359 358 356 355 355 355 354 353 353 353 353 355 356 358 359 359 360 361
354 352 351 349 348 345 339 337 336 333 338 344 344 342 344 343 341 343 347 351 356 360 361 359 356 353 352 356 358 360 360 360 362 364 366 367 366 365 365 365 366 366 365 365 364 363 362 360 359 359 359 359 359 358 358 358 358 359 360 360 361 361 361
353 352 350 346 345 344 342 339 338 341 346 345 340 343 355 356 349 345 345 346 349 355 360 361 361 357 356 356 358 359 360 360 361 363 364 366 365 364 364 365 366 366 367 366 365 365 364 363 363 361 361 362 363 362 363 362 362 362 362 362 363 364 364
351 351 349 349 353 354 351 349 350 354 357 353 344 346 356 358 355 354 353 350 350 354 360 363 362 361 359 359 360 360 359 360 361 363 363 365 364 364 364 365 366 366 367 366 366 366 365 365 364 363 362 363 363 364 365 365 365 365 365 365 366 366 367
349 349 349 353 358 357 354 356 358 360 361 360 356 359 363 361 358 358 360 359 357 357 360 362 363 362 362 362 362 361 361 360 361 363 364 364 364 364 365 365 366 367 367 367 367 366 366 365 365 364 363 362 363 363 364 365 366 366 366 366 367 367 366
348 348 348 353 358 356 353 357 361 361 361 361 359 363 367 366 362 362 364 363 362 360 360 361 362 362 361 362 362 362 361 361 361 363 365 364 364 366 366 366 367 367 367 367 367 367 366 367 366 366 365 364 363 363 364 365 366 365 366 365 366 365 365
348 347 347 350 354 354 355 357 360 360 360 360 360 361 364 366 367 367 367 367 366 363 362 361 361 361 362 363 363 362 361 361 361 364 365 366 367 367 367 367 367 367 367 367 367 367 368 367 367 367 367 366 365 365 365 366 366 365 365 365 364 364 364
347 348 348 350 353 355 356 357 358 359 357 358 358 358 360 364 368 368 368 369 367 365 364 362 361 362 362 363 364 363 362 362 363 366 367 368 369 368 368 368 368 367 367 368 367 368 368 368 369 369 368 368 367 366 366 366 366 365 365 364 364 364 364
346 348 350 352 354 355 356 356 356 356 355 355 355 356 358 361 363 366 367 368 366 366 366 365 364 364 364 365 365 363 363 363 365 368 368 368 369 369 368 369 368 368 367 367 368 368 368 368 369 368 368 368 367 367 367 366 366 365 364 364 364 364 364
345 348 351 352 353 354 355 355 354 354 354 353 353 356 359 360 360 363 364 364 365 366 367 367 367 367 365 365 364 363 364 365 366 367 368 368 368 368 368 369 369 368 368 367 368 368 368 368 368 367 367 367 366 365 365 365 365 364 364 364 363 363 362
344 347 350 351 353 354 354 353 353 352 352 352 351 353 357 360 360 361 361 362 363 364 366 368 369 367 367 366 366 366 365 366 366 367 367 368 368 367 367 369 369 369 368 368 368 367 367 367 366 365 365 364 364 364 364 364 364 364 362 361 359 357 355
343 346 348 350 352 354 353 352 351 350 350 350 350 351 355 358 359 359 360 362 364 365 365 365 367 367 367 367 367 368 367 367 366 367 367 367 367 367 366 368 368 367 366 366 366 367 366 366 365 365 364 363 363 364 363 363 361 359 355 351 347 344 342

ECMWFFLT1_850_thetae_069.txt.gz
Theta_e
346 347 348 348 349 349 349 349 348 348 348 349 349 350 350 351 351 351 352 352 351 351 351 350 350 350 349 349 348 347 346 345 345 344 342 340 338 337 337 337 337 337 337 336 334 332 331 331 334 336 336 336 337 338 337 338 339 341 342 344 345 345 346
345 347 348 348 349 349 349 349 349 348 348 349 349 349 350 350 351 351 351 352 351 350 351 350 350 350 349 349 348 349 348 347 347 346 345 342 339 338 338 337 338 337 337 336 333 331 331 329 331 336 337 337 338 338 337 337 337 339 340 342 343 343 344
345 346 347 348 349 349 349 349 349 349 348 349 349 349 350 350 350 351 351 351 351 350 350 350 350 349 348 348 348 349 349 348 347 347 345 341 338 337 338 337 338 339 338 337 334 331 330 329 329 334 337 337 338 339 338 337 337 337 339 341 342 341 341
345 347 347 348 348 349 349 349 349 349 348 349 349 349 350 350 350 350 350 351 350 350 350 350 349 349 348 348 349 349 349 349 348 346 344 341 338 337 337 337 338 339 339 337 334 331 330 330 329 332 335 335 337 338 337 337 337 336 337 339 339 339 340
345 347 347 348 349 348 349 349 349 349 349 348 349 349 349 350 350 350 350 350 350 350 350 350 349 349 349 348 349 349 349 349 348 345 343 341 340 337 336 336 337 338 338 337 336 332 330 331 331 331 333 334 335 337 337 337 337 337 337 337 338 338 338
345 346 348 348 349 349 349 349 349 349 349 349 349 349 349 349 350 350 350 350 350 350 350 350 349 349 349 349 349 349 349 349 348 346 343 341 340 338 335 334 334 335 336 336 336 333 330 330 332 333 333 333 334 336 337 338 338 338 338 338 338 338 338
345 346 347 348 349 350 350 350 350 350 350 349 349 349 349 350 350 350 350 350 351 350 351 350 349 349 349 349 349 349 349 349 348 346 344 342 341 339 336 334 333 333 334 335 335 333 330 329 331 333 334 332 332 334 336 337 338 338 339 339 339 338 338
345 345 347 348 349 350 350 350 350 350 350 350 349 349 349 350 350 350 350 351 351 351 350 350 350 349 349 349 349 349 349 349 349 347 346 345 343 341 338 336 334 332 333 335 333 332 330 328 329 332 332 332 331 332 333 334 335 336 337 338 338 338 338
346 345 346 348 348 350 351 350 351 351 350 350 350 349 350 350 350 350 350 351 350 351 350 350 350 350 349 350 350 350 350 350 350 348 348 347 345 342 340 338 336 334 333 332 331 330 329 328 329 330 331 331 332 332 332 333 334 334 335 335 336 336 336
345 345 346 348 348 349 350 350 351 351 350 351 350 350 350 350 350 351 351 351 350 351 350 350 350 350 350 351 350 350 351 350 350 350 349 348 346 344 341 339 338 336 334 333 332 330 329 328 328 328 329 330 330 331 332 333 334 334 334 334 334 334 334
345 346 347 347 348 349 350 351 352 351 351 351 350 351 350 350 351 351 350 351 351 351 351 351 351 351 351 351 351 351 351 351 351 351 350 349 347 344 342 339 338 337 336 334 333 331 329 329 328 328 328 328 328 329 331 332 333 333 333 333 333 333 333
345 347 347 348 348 349 350 351 351 351 352 351 351 351 351 350 351 351 351 351 351 351 352 352 352 352 351 352 352 352 352 352 352 352 351 350 348 345 342 340 339 338 336 335 334 332 330 329 329 328 328 327 327 328 329 331 331 332 332 332 332 333 333
345 347 347 348 349 349 350 351 351 351 351 352 351 351 351 351 351 351 352 352 352 352 352 352 352 353 353 353 352 352 353 353 353 352 352 350 348 346 343 341 339 338 336 335 334 332 331 330 329 328 328 327 327 327 328 329 330 331 331 331 332 332 332
345 346 347 349 349 349 350 350 351 352 351 352 352 351 351 352 352 352 352 352 353 353 353 353 354 353 353 353 353 353 353 353 353 353 353 352 350 348 345 342 339 337 336 335 334 332 331 330 329 328 328 328 328 328 328 329 330 330 330 331 331 332 332
345 346 347 348 349 349 350 350 350 351 351 351 352 351 351 351 352 352 353 353 354 354 354 354 354 354 354 354 354 354 354 354 354 354 354 354 353 351 348 344 341 339 337 336 335 333 332 331 330 329 328 328 328 328 328 329 329 329 330 330 330 331 331
345 346 347 348 349 349 349 350 350 350 351 352 352 352 351 351 352 352 353 354 354 354 355 355 355 355 355 354 355 354 354 354 355 355 355 355 354 353 351 348 345 342 339 338 337 335 333 333 332 331 330 329 328 328 328 328 328 328 329 329 330 330 331
344 346 347 347 348 349 349 350 350 350 351 351 351 351 351 350 351 352 353 354 354 355 355 355 355 355 355 355 355 355 355 355 356 356 356 356 355 355 353 351 349 346 343 340 339 337 336 335 334 333 332 330 329 329 329 328 328 328 328 328 329 330 331
344 345 346 347 347 348 349 349 349 350 351 350 351 351 350 350 350 351 352 353 354 355 356 356 356 356 356 355 355 355 356 356 356 357 357 357 356 356 355 353 351 349 347 344 342 340 338 337 335 334 333 332 331 330 330 329 329 329 329 329 329 330 331
344 345 346 347 347 348 349 349 349 350 350 350 351 350 349 349 349 349 349 351 352 354 355 356 356 356 356 355 355 355 355 356 356 357 357 357 357 357 356 355 354 352 351 348 346 343 340 338 337 336 335 334 334 332 331 331 331 330 331 330 331 331 332
343 345 346 346 347 348 348 348 349 349 349 350 350 349 348 349 348 348 348 350 351 353 354 355 355 355 354 353 354 355 355 356 357 357 357 358 358 358 358 357 356 355 354 352 350 348 344 340 339 337 336 336 335 334 333 333 332 332 332 332 332 333 334
342 345 345 346 347 347 347 348 348 348 349 349 349 349 349 349 349 349 350 350 351 352 353 354 354 353 353 353 354 355 356 357 358 358 359 359 359 359 359 358 358 357 356 355 354 352 350 346 343 341 339 338 337 337 336 334 334 334 334 334 334 335 336
344 344 344 346 346 347 347 348 348 348 348 349 349 349 350 350 351 351 351 351 351 352 353 353 354 354 354 354 356 357 357 358 359 359 360 360 360 360 359 359 359 359 359 358 357 356 355 352 350 347 344 342 341 340 339 336 336 336 336 336 336 337 339
347 345 344 345 346 346 347 347 347 348 349 349 350 350 351 352 352 353 353 353 353 353 354 354 355 355 355 356 357 358 359 360 360 361 361 361 361 361 361 361 361 361 361 360 360 359 358 357 355 353 351 348 346 344 342 339 338 338 338 338 339 341 341
353 350 347 346 345 345 345 346 346 347 348 349 350 351 352 353 353 354 355 355 355 355 356 356 357 357 357 358 359 360 361 361 361 361 361 361 361 362 362 362 362 363 363 362 362 362 361 360 358 357 355 353 350 348 345 342 341 340 340 340 342 343 343
360 357 354 352 350 348 347 348 348 350 350 351 351 351 351 351 352 354 355 357 357 358 358 358 358 359 360 361 361 361 362 362 362 362 362 362 362 362 363 363 363 364 364 364 364 363 362 361 360 359 358 356 354 352 350 347 345 343 342 342 344 345 345
359 360 359 358 357 356 356 355 354 355 357 357 357 356 355 355 355 355 356 358 359 359 360 361 360 362 362 362 363 363 363 363 363 363 363 363 363 363 364 364 364 365 365 365 365 364 364 363 362 360 359 358 357 355 354 351 349 347 346 345 346 347 347
356 356 356 358 359 360 361 361 361 361 361 361 361 361 361 362 363 362 361 362 362 362 363 363 363 364 364 364 364 364 364 364 364 364 364 364 364 364 364 364 365 365 365 365 365 365 364 364 362 362 361 359 359 357 356 355 353 351 350 348 348 348 348
354 353 352 352 352 355 358 359 360 361 361 360 361 362 362 363 364 364 364 364 364 365 365 365 365 365 365 365 365 365 365 364 365 365 365 365 365 365 365 366 366 365 365 365 365 365 365 364 363 362 362 361 360 359 358 357 356 355 354 352 351 350 350
355 355 355 351 348 346 345 345 347 348 349 351 353 355 358 360 360 361 362 362 362 363 363 364 365 365 365 366 366 366 366 366 366 366 365 365 366 366 366 366 365 366 366 365 366 365 365 365 364 363 362 362 361 361 359 359 358 357 356 355 354 353 352
355 357 357 356 355 350 340 335 335 336 335 336 338 340 344 348 351 354 356 357 358 359 360 360 361 361 362 362 362 363 364 364 366 366 366 366 366 365 366 366 365 366 366 366 365 366 365 365 365 363 363 362 362 361 361 360 360 359 358 357 357 356 355
354 356 356 357 358 356 351 346 343 340 339 338 336 334 333 335 337 340 344 346 349 351 353 356 357 358 358 359 359 359 359 360 361 363 364 365 365 365 366 365 365 366 366 366 366 365 365 365 365 364 364 363 363 363 362 362 361 361 360 359 358 358 357
351 353 353 353 354 354 354 354 351 348 348 346 344 341 338 336 336 337 340 342 342 342 343 345 348 350 353 354 356 356 357 358 359 359 360 361 362 363 363 364 364 365 365 366 365 366 365 365 365 364 364 364 364 364 363 363 363 362 361 361 360 359 358
349 350 351 351 350 350 349 349 349 348 347 345 345 344 342 341 341 342 345 348 348 346 345 345 345 346 348 349 351 352 354 355 356 357 358 359 360 361 361 362 364 364 365 365 365 365 365 365 365 365 365 365 365 365 364 364 364 363 363 362 362 361 360
346 349 351 351 351 350 349 348 347 347 345 344 343 342 341 340 342 343 347 350 352 353 353 354 354 354 354 354 354 354 354 355 355 358 359 358 358 359 360 362 363 364 365 365 365 365 365 365 365 365 365 365 366 365 366 366 365 365 365 364 364 363 362
341 344 348 351 352 351 350 350 349 347 346 344 343 342 340 339 338 339 342 346 350 352 355 357 359 360 361 361 360 360 360 360 360 360 360 359 358 358 359 361 363 364 365 366 366 366 366 366 366 365 365 366 366 366 367 367 366 366 366 366 365 365 364
336 337 341 347 351 351 350 349 348 346 345 343 342 342 341 339 338 338 339 343 347 352 356 359 361 361 362 361 361 362 362 362 363 362 360 360 359 359 359 360 361 363 365 366 367 367 367 367 367 367 367 367 367 367 367 366 366 366 366 366 366 365 364
332 335 337 341 347 350 349 348 346 344 344 343 343 342 342 342 342 342 342 344 347 350 354 359 361 362 362 361 360 361 362 362 363 363 362 361 361 360 360 360 361 362 364 366 367 368 368 369 369 369 368 368 368 368 367 367 366 366 366 366 365 365 364
323 327 331 337 345 349 348 346 346 345 345 345 343 342 342 344 345 346 346 347 348 349 353 357 360 362 362 362 361 361 361 362 362 362 362 362 362 362 361 361 362 362 364 365 366 368 369 369 369 368 368 367 367 366 366 366 366 366 366 365 364 364 363

ECMWFFLT1_850_thetae_072.txt.gz
Theta_e
347 347 347 348 348 348 348 348 348 348 348 349 349 349 350 350 350 350 350 350 350 349 350 350 350 350 350 350 350 349 348 346 345 344 343 342 342 341 341 341 341 341 339 338 337 337 336 336 336 336 336 336 335 337 338 338 339 338 339 341 344 345 344
345 347 347 347 348 347 348 348 347 348 348 349 349 349 350 350 350 350 350 349 349 349 350 350 350 350 350 350 350 350 349 347 346 345 344 343 342 341 341 340 340 339 339 338 337 337 337 337 336 336 336 335 334 335 337 338 338 338 338 340 342 344 344
344 346 347 347 348 348 348 348 347 348 348 348 349 349 349 350 350 350 349 349 349 349 350 349 350 350 349 350 350 350 350 349 347 346 344 342 341 340 340 340 340 339 338 338 337 336 337 337 337 336 336 335 334 334 335 337 338 338 338 338 340 342 343
344 345 346 347 347 348 348 348 348 348 348 348 348 348 349 349 350 350 349 349 348 349 349 349 349 350 349 350 349 349 350 350 349 347 344 342 340 339 340 339 339 339 338 337 337 336 336 337 337 336 336 335 334 334 335 336 337 338 337 338 338 339 340
343 344 345 346 347 347 348 348 348 348 348 348 348 348 349 349 349 350 350 349 348 348 348 349 349 349 350 350 349 349 349 349 349 348 346 343 342 341 340 339 339 339 338 337 337 336 336 337 337 336 336 334 333 334 335 336 337 337 337 337 337 337 337
343 343 344 345 346 347 347 348 348 348 348 348 348 348 348 349 349 349 349 349 349 348 348 348 349 349 349 349 349 349 349 349 348 348 347 345 343 342 340 339 338 338 338 338 337 336 336 336 336 335 335 333 331 332 335 336 337 337 337 337 336 336 336
342 343 344 344 345 346 346 347 348 348 348 348 348 348 348 348 349 349 349 349 349 349 349 349 349 349 349 350 349 349 349 349 348 348 347 346 345 343 340 339 338 338 338 338 337 336 336 335 335 334 333 333 332 331 333 335 336 336 337 336 336 336 336
342 343 343 344 344 345 346 347 347 348 348 348 348 348 348 348 348 349 349 349 349 349 349 349 349 349 349 349 349 349 348 348 348 348 348 347 347 346 343 341 339 338 338 338 336 336 335 334 334 334 332 332 331 331 332 332 334 336 336 336 336 336 336
342 343 343 344 344 345 346 346 347 347 348 348 348 348 348 348 348 348 348 349 349 349 349 349 349 349 349 349 349 349 349 348 348 348 348 348 347 347 345 342 340 339 338 336 335 334 334 333 333 333 331 330 331 332 333 333 333 335 336 337 337 337 337
341 342 343 344 344 345 345 346 347 347 347 348 348 348 348 348 348 348 348 349 349 349 349 349 349 349 349 350 349 349 349 349 348 348 348 348 347 347 346 344 342 340 337 335 335 333 332 332 332 332 331 330 330 331 333 333 333 333 335 336 337 337 337
340 342 342 343 344 345 346 346 347 347 348 348 348 348 348 348 348 348 349 349 349 349 350 349 349 349 349 350 349 349 349 349 348 348 348 348 348 347 347 346 344 341 338 336 335 334 333 332 331 331 331 329 328 329 331 332 332 332 332 333 334 335 335
338 341 342 343 343 345 345 346 347 347 348 348 348 348 348 348 348 348 348 349 349 349 350 350 350 350 350 350 350 349 349 349 349 348 348 348 348 348 348 347 345 343 340 337 336 335 334 333 332 331 329 328 327 328 329 330 330 331 331 332 332 333 334
337 339 340 342 343 344 345 347 347 348 348 348 348 348 348 348 348 349 349 349 349 349 349 350 350 350 350 350 350 350 349 349 348 348 348 348 348 348 348 348 346 344 341 339 337 337 336 335 333 331 329 328 327 327 328 328 329 329 330 331 332 332 333
336 338 340 342 343 343 345 346 347 348 348 348 349 348 348 348 348 349 349 349 349 349 349 350 350 350 350 350 350 349 349 349 348 348 348 348 349 349 349 349 347 345 342 340 339 337 336 336 335 333 331 329 328 327 327 327 327 327 328 328 329 331 332
333 338 340 341 343 344 345 346 347 349 349 348 349 348 348 349 348 348 349 349 349 349 349 350 349 350 350 350 350 349 349 348 348 348 348 348 349 349 350 350 349 347 344 342 339 337 336 336 336 335 333 331 329 328 327 327 327 327 327 327 327 329 330
330 338 340 341 343 344 344 346 346 348 349 349 349 349 349 349 349 349 349 349 349 349 349 349 350 349 350 350 349 349 349 349 348 348 349 349 349 350 350 350 350 349 347 343 340 338 338 338 337 336 335 333 331 329 328 328 327 327 327 327 327 327 328
331 338 341 342 344 344 344 346 346 348 350 349 349 349 349 349 349 349 349 349 350 350 350 350 350 350 350 350 350 350 349 349 349 349 349 350 350 350 350 351 351 351 349 346 343 341 340 339 338 337 336 334 333 331 330 328 327 327 327 327 327 327 327
334 339 342 342 344 344 344 346 347 348 349 349 350 350 349 350 350 349 350 350 350 350 350 350 350 350 350 350 350 350 350 350 349 350 350 350 350 350 351 351 352 352 351 350 346 344 341 340 339 337 336 336 334 333 331 329 328 328 327 327 328 327 327
338 339 342 343 343 345 345 346 347 348 348 349 350 350 350 350 350 350 350 350 350 350 350 350 350 350 350 350 350 350 350 351 351 350 350 350 350 351 351 352 352 352 353 352 350 347 345 342 340 338 337 336 335 334 332 330 329 328 328 328 328 328 328
340 341 342 343 344 345 345 346 346 347 348 348 348 349 350 350 350 350 350 351 351 351 351 351 350 350 350 350 350 351 351 351 351 351 351 351 351 351 352 352 353 353 353 353 353 351 349 345 342 340 337 336 335 334 333 331 330 329 329 329 329 329 330
339 342 342 344 345 345 346 347 347 348 348 348 349 350 350 350 351 351 351 351 351 351 351 351 351 350 351 351 351 351 352 352 352 352 351 351 352 353 353 353 354 354 355 355 355 354 352 349 347 344 340 338 337 336 334 333 332 331 331 331 331 331 332
338 341 343 344 345 346 346 347 347 348 348 348 350 350 350 351 351 350 351 351 351 351 352 352 352 351 351 351 352 352 352 352 352 352 352 353 353 354 354 354 354 355 356 356 356 356 355 354 353 351 347 345 344 342 338 335 334 334 333 333 333 334 335
339 341 343 343 345 345 346 347 348 348 348 349 350 350 350 351 351 351 351 351 352 352 352 352 352 351 351 351 352 352 352 352 352 352 353 353 354 355 355 355 356 356 357 357 357 357 357 357 356 355 353 352 351 349 345 340 339 337 336 335 337 338 338
343 341 343 343 345 346 346 347 348 348 349 349 349 350 351 351 351 351 351 351 351 352 352 352 351 351 351 351 350 350 351 351 352 352 353 354 355 355 356 356 357 357 358 358 358 358 358 358 358 358 357 356 355 354 351 349 346 344 343 342 343 343 342
348 343 343 344 345 346 346 346 347 348 348 349 349 350 350 350 350 351 351 351 351 351 351 351 350 350 350 349 349 350 350 351 352 352 353 355 355 356 357 358 359 359 359 359 359 359 359 360 360 360 360 360 359 358 357 356 353 351 351 350 349 348 346
355 348 344 344 345 346 346 346 347 347 348 348 349 349 349 350 350 350 350 350 350 350 351 349 349 349 349 349 349 350 351 352 353 354 355 356 357 358 359 359 359 360 360 360 360 360 361 361 361 361 362 361 361 361 360 359 358 356 355 354 353 352 350
358 355 350 347 345 345 346 346 347 347 347 348 348 348 349 349 350 350 350 351 350 350 350 349 349 349 349 350 351 351 352 353 354 355 356 357 359 359 360 361 361 361 361 361 361 361 362 362 362 362 363 363 362 362 361 361 360 359 358 357 356 354 353
358 358 357 355 352 349 347 346 347 347 347 347 347 348 349 349 350 351 351 351 351 351 351 351 352 352 352 353 353 353 355 355 356 357 358 359 360 360 361 362 362 362 362 362 362 362 362 363 363 363 364 363 363 363 363 362 361 360 360 358 357 356 355
356 358 360 359 358 357 355 354 353 352 350 349 349 349 349 349 350 352 352 353 353 354 354 354 355 355 356 357 357 358 358 358 359 360 360 361 361 362 362 362 362 363 363 363 363 363 363 364 364 364 364 364 364 364 363 363 362 361 361 360 359 358 357
354 355 357 358 360 360 359 360 360 359 359 358 356 354 353 353 353 353 354 355 355 356 357 357 358 359 360 360 361 361 361 361 362 362 363 363 363 363 363 363 363 363 363 363 364 364 363 364 364 364 364 364 364 364 364 364 363 362 362 361 360 359 358
352 353 353 354 356 357 357 358 359 360 361 361 362 362 360 359 359 359 359 360 360 360 361 361 362 362 363 363 363 364 364 364 364 364 364 364 364 364 364 364 364 364 364 364 364 364 364 365 365 365 365 365 364 365 364 364 364 363 363 362 361 361 360
351 351 351 351 352 352 353 354 354 356 357 358 359 361 361 362 363 363 362 362 363 363 363 363 362 363 363 362 361 360 361 362 362 363 363 363 364 364 364 364 364 364 364 365 365 365 365 365 365 365 365 365 365 365 364 364 363 363 363 363 362 361 361
350 350 350 351 350 349 349 349 349 350 351 352 354 356 357 358 358 360 360 360 359 359 359 359 359 359 359 359 358 358 358 358 359 360 360 361 362 363 363 363 363 363 364 364 365 365 365 365 365 365 365 365 365 364 364 364 364 364 364 363 363 363 362
347 350 351 350 349 348 347 346 347 346 346 346 347 349 351 351 352 354 354 351 349 350 350 350 351 352 352 353 353 354 355 356 356 357 358 359 360 361 362 362 363 363 363 363 364 364 364 365 365 365 364 365 364 364 364 364 364 364 364 364 364 364 364
340 347 350 350 349 348 347 346 345 345 345 344 344 344 345 345 347 349 349 345 345 349 349 348 350 352 352 353 352 352 351 352 352 354 356 358 360 360 361 362 362 362 362 362 363 364 364 364 365 365 365 365 365 364 365 365 364 365 365 365 365 365 364
329 338 346 350 349 347 347 346 345 345 345 345 345 344 343 342 342 343 344 345 348 351 352 353 355 356 358 358 359 358 357 355 354 353 354 357 359 360 360 361 361 361 361 361 362 362 363 364 364 364 365 366 366 366 366 366 366 366 365 365 365 365 365
321 325 334 344 348 348 347 346 346 345 345 345 346 346 346 345 344 343 342 342 343 343 346 351 355 357 359 359 360 360 361 360 360 359 358 359 360 361 361 362 361 361 360 360 360 361 362 364 364 365 366 366 366 367 367 366 366 366 365 365 365 365 365
317 318 324 334 342 346 347 346 345 345 345 345 344 344 344 344 345 346 345 345 343 341 341 344 348 354 358 358 357 359 359 360 360 361 361 361 362 361 361 362 362 362 361 360 360 360 361 362 364 365 366 366 366 367 366 365 364 364 363 363 364 364 364

ECMWFFLT1_850_thetae_075.txt.gz
Theta_e
351 350 351 350 350 350 350 350 349 349 349 348 348 348 349 349 349 349 349 349 349 349 350 349 349 349 349 350 349 348 346 344 341 339 339 339 339 340 341 341 341 341 340 341 341 341 340 338 338 338 338 339 340 340 339 338 338 338 339 338 339 341 343
350 350 350 350 350 349 350 349 349 349 349 348 348 348 349 349 349 348 348 349 349 349 349 349 349 350 349 349 350 350 349 347 345 344 343 342 341 340 341 341 341 340 340 340 341 340 340 339 338 338 338 339 339 339 339 338 338 338 338 338 339 339 341
349 349 349 350 350 349 349 349 349 349 348 348 348 348 348 348 347 347 348 348 348 349 349 349 348 349 349 349 350 350 350 349 349 348 346 344 342 341 341 341 341 341 340 340 340 340 339 339 338 338 338 338 338 338 338 337 337 337 338 338 339 338 339
347 348 349 349 349 349 349 348 349 348 348 348 348 347 347 347 346 347 347 347 347 348 348 348 348 349 348 349 349 349 350 350 350 350 348 346 344 343 343 342 342 342 341 339 340 340 339 339 339 338 338 338 338 338 338 337 337 336 337 338 338 338 338
345 346 348 349 349 349 348 348 348 348 348 348 347 348 347 346 347 347 348 348 348 347 347 347 348 348 348 348 349 349 349 349 349 350 349 348 346 345 343 343 342 342 340 339 339 339 339 339 339 338 337 338 338 337 336 336 336 336 336 337 337 338 337
346 346 347 348 348 349 348 348 348 348 348 348 348 348 347 347 347 347 348 348 348 348 348 348 347 347 347 347 348 348 348 349 349 349 349 349 348 347 345 343 342 341 340 339 339 338 338 338 338 338 337 337 337 337 336 335 335 335 336 336 337 337 337
344 344 344 345 347 348 348 348 348 348 348 348 348 348 347 347 348 348 348 348 347 348 348 348 348 347 347 346 347 347 348 348 349 349 349 349 349 349 347 344 342 340 340 339 338 338 338 337 337 337 337 336 337 337 336 335 334 334 335 336 337 337 337
340 340 342 343 345 347 348 348 348 349 348 348 349 348 348 347 348 348 348 348 348 347 347 348 348 347 346 347 347 347 347 348 348 348 348 349 349 348 348 346 343 342 341 340 338 337 337 337 337 336 336 336 337 337 336 334 334 334 335 336 337 337 337
339 339 339 341 344 346 348 347 348 348 348 348 348 348 347 348 348 347 347 347 348 348 348 347 347 347 346 346 346 346 346 347 348 348 348 348 348 348 348 347 345 343 342 340 339 338 336 336 336 336 336 335 335 336 336 334 333 333 333 334 336 337 337
340 339 339 342 345 346 348 348 348 348 347 348 348 348 348 347 348 348 348 348 347 348 348 347 348 347 346 346 346 346 347 347 348 348 348 348 348 347 347 347 346 344 342 341 340 338 336 335 335 334 335 335 334 335 334 334 333 332 332 332 333 335 336
339 339 341 342 344 346 347 347 348 347 348 348 347 347 348 348 348 348 348 347 347 347 348 348 348 347 347 347 347 347 347 347 348 348 348 348 347 347 347 347 346 345 344 343 341 338 336 335 334 334 333 333 333 332 332 332 332 332 331 331 331 332 334
333 336 340 342 342 343 345 345 346 346 347 347 347 347 348 347 347 348 348 348 348 348 348 348 348 347 347 347 347 347 347 347 348 348 348 348 347 346 347 347 347 345 345 345 343 340 338 335 333 332 331 331 330 330 330 330 331 331 332 332 332 332 333
328 332 336 339 342 343 343 344 345 346 346 347 347 347 348 347 348 347 348 348 347 348 348 348 348 348 347 347 347 347 347 347 347 347 347 348 347 347 347 347 346 346 345 345 344 342 339 335 333 331 330 329 329 329 329 328 329 330 331 332 332 332 332
326 328 331 336 340 342 343 343 344 345 346 347 347 347 347 347 347 347 347 348 348 348 348 348 348 348 347 347 347 347 347 347 347 347 348 348 347 347 347 346 346 346 346 346 344 343 339 336 334 332 330 330 328 328 328 327 328 328 329 330 330 331 331
326 327 329 334 337 340 342 342 344 345 345 346 347 347 347 347 348 347 348 348 348 348 348 348 348 347 348 348 348 348 347 347 347 347 348 347 347 348 347 346 346 346 346 346 345 343 341 338 336 334 332 331 329 329 328 327 327 327 328 329 329 330 330
324 324 327 329 332 335 338 341 342 343 344 346 346 346 348 347 347 348 348 347 347 347 347 347 348 348 348 348 348 348 347 347 347 347 347 348 347 347 348 347 347 347 348 347 346 345 343 340 338 335 333 332 332 331 330 328 327 326 327 328 327 328 328
333 329 327 326 326 328 331 336 340 343 344 345 346 346 347 347 347 348 347 348 347 348 348 348 347 348 348 348 347 348 348 347 347 347 348 348 348 348 347 348 347 348 347 347 348 347 345 342 339 336 335 334 333 333 331 329 327 325 326 326 326 327 327
346 339 335 331 329 327 328 333 338 343 344 345 345 346 347 347 347 348 347 347 348 348 348 347 348 348 348 348 348 348 348 348 347 347 347 348 348 348 347 347 347 347 348 348 348 348 347 344 340 337 335 334 333 333 332 329 327 326 326 326 326 327 327
354 347 340 336 332 329 330 334 337 340 341 343 345 346 346 347 347 347 347 347 347 348 348 348 347 348 348 348 349 348 348 348 348 347 347 347 348 348 347 348 348 348 348 348 349 349 349 347 344 340 337 335 333 332 332 330 328 326 327 327 326 327 327
356 351 342 336 335 332 331 333 336 339 340 341 344 346 346 347 347 347 347 347 348 348 348 348 348 348 348 349 348 349 349 348 348 347 347 347 348 348 348 348 347 348 348 348 349 349 350 349 349 346 341 337 334 333 332 331 329 328 328 327 327 327 328
356 353 345 337 338 337 335 334 336 339 342 343 345 347 347 347 347 348 348 347 348 348 348 348 348 349 349 349 349 349 348 349 348 347 348 348 348 348 348 348 348 348 348 349 349 350 350 351 351 350 346 342 339 336 334 332 330 329 328 328 328 329 330
357 355 348 342 341 339 338 338 338 340 343 345 347 347 347 347 347 347 348 348 348 348 348 348 348 348 348 349 349 349 348 348 348 348 348 347 348 348 348 348 348 348 348 350 349 350 351 352 352 353 351 348 346 344 338 333 331 330 330 329 330 331 331
357 354 348 342 341 340 340 341 341 342 344 347 347 347 348 348 348 347 348 348 349 348 349 349 349 349 348 349 349 349 349 348 349 348 348 348 348 348 349 349 349 349 349 350 351 351 351 352 352 353 353 352 352 350 344 337 334 332 332 331 332 333 334
356 353 345 339 341 341 341 342 342 343 345 346 348 348 348 349 348 348 349 348 349 349 349 349 349 349 349 349 349 349 349 349 348 348 348 349 349 349 350 349 349 350 350 350 351 352 352 352 353 354 354 355 355 354 351 346 342 339 337 337 337 338 340
356 352 344 340 342 342 342 343 344 344 345 346 347 348 348 349 349 349 349 349 349 349 349 350 349 349 349 349 349 349 349 349 349 349 349 349 349 349 350 350 350 350 351 352 352 353 353 354 354 355 356 356 357 356 356 354 352 349 346 345 346 347 348
356 353 348 342 342 343 343 344 345 345 346 346 347 348 348 349 349 349 350 350 350 350 349 349 349 349 349 349 349 349 350 349 349 349 349 350 350 350 350 351 352 352 352 353 353 354 355 355 355 357 357 358 358 358 358 358 357 355 353 352 353 353 353
355 355 353 347 344 344 344 345 345 346 346 347 347 348 348 349 349 349 350 350 350 350 350 349 350 349 349 350 350 349 349 350 349 350 350 350 350 351 351 352 352 353 354 354 355 356 356 357 357 358 358 358 359 359 359 360 359 359 358 357 357 357 357
354 354 354 351 347 345 345 346 346 347 347 347 347 348 348 349 350 350 350 350 350 350 349 349 349 350 350 349 350 350 350 350 350 350 351 351 352 352 353 353 354 354 355 356 356 356 358 358 358 359 359 359 360 360 361 361 362 361 361 361 360 359 359
353 354 354 353 351 349 347 347 347 347 348 348 348 348 349 349 350 350 350 350 350 349 349 349 349 350 350 350 349 350 350 350 351 351 351 352 352 353 354 354 355 355 356 357 357 358 358 359 359 359 360 360 360 361 362 362 363 362 363 362 362 361 360
352 354 354 354 354 354 352 350 348 348 348 348 348 349 349 349 349 350 349 349 349 349 349 350 350 349 349 350 350 350 350 351 351 351 352 353 353 353 354 355 356 356 357 358 358 359 359 360 360 360 361 360 361 362 363 363 364 363 363 363 362 362 361
350 351 352 353 355 356 355 354 351 349 349 349 349 348 349 350 349 349 350 349 349 349 350 350 350 350 350 350 350 351 351 352 353 353 354 355 356 356 357 358 358 358 359 359 360 360 360 361 362 361 362 362 362 363 364 364 364 364 364 364 363 363 362
349 349 349 351 353 355 357 357 355 353 351 349 350 350 349 350 349 349 350 350 349 350 350 350 351 351 351 352 354 354 355 356 356 357 358 359 359 360 361 361 361 361 361 361 362 361 361 362 362 362 363 363 363 364 364 364 364 364 364 364 363 363 363
346 349 349 348 350 351 355 358 357 357 355 352 352 352 351 350 351 350 350 351 351 351 352 352 353 353 354 356 357 358 360 361 360 361 362 361 361 362 362 363 362 362 362 363 362 362 362 363 363 363 363 363 363 364 364 364 365 365 364 364 364 363 363
340 349 349 348 348 348 350 353 355 357 359 358 357 357 355 354 354 353 353 353 352 354 354 354 356 356 358 359 360 361 362 363 363 363 363 362 362 363 362 363 362 363 363 363 363 363 363 363 364 364 363 363 364 364 364 364 364 364 364 364 364 364 364
333 346 349 347 348 348 347 348 350 352 356 358 359 360 360 359 359 359 358 358 357 357 358 359 359 360 360 361 363 362 362 362 362 361 361 361 362 362 362 363 362 362 363 363 362 363 363 363 364 363 363 364 364 363 364 364 363 364 364 363 363 363 364
325 340 347 347 348 349 348 347 349 349 350 352 355 358 360 361 361 361 361 361 361 361 361 362 361 360 361 361 361 360 360 359 359 359 359 359 359 361 362 362 362 362 362 362 362 362 362 363 363 363 363 364 364 364 364 364 364 364 364 364 364 364 364
319 331 342 346 346 347 348 348 348 349 350 350 350 352 355 357 360 360 360 361 360 359 359 359 358 357 357 358 357 357 358 358 357 358 358 358 358 359 360 361 362 362 362 362 362 363 362 363 362 362 363 363 364 364 364 365 364 365 365 364 365 365 365
319 323 334 342 345 346 347 348 348 348 348 348 348 349 350 350 352 354 356 357 357 358 358 357 357 356 355 355 356 356 357 356 356 356 356 356 357 358 359 360 361 361 362 362 362 362 363 363 362 362 363 363 364 364 364 365 365 365 365 365 365 365 365

ECMWFFLT1_850_thetae_078.txt.gz
Theta_e
353 353 355 356 357 357 357 358 358 358 358 359 359 358 357 357 356 354 348 343 344 346 347 347 347 347 349 348 348 348 347 345 344 342 341 340 339 338 337 335 335 335 336 337 339 340 340 341 342 341 342 343 343 343 344 344 344 344 343 344 344 343 343
349 351 354 355 356 356 357 358 358 359 358 359 358 357 357 357 356 354 349 345 344 346 347 347 348 348 348 348 347 348 348 348 346 347 346 342 338 338 336 335 336 337 338 339 340 340 340 341 341 341 342 342 342 343 344 344 346 345 343 342 344 344 343
347 350 352 353 356 356 357 357 358 358 358 358 359 357 356 356 354 351 348 345 344 345 347 347 347 348 348 348 348 347 348 348 347 348 348 343 338 337 337 336 337 338 339 340 341 341 340 341 341 341 341 341 341 341 343 344 345 345 344 342 344 345 344
344 347 350 352 354 356 356 357 358 358 358 357 357 356 355 353 351 349 348 345 343 344 346 347 347 348 349 348 348 348 348 348 347 349 347 343 339 338 338 338 338 339 340 341 341 341 341 340 341 341 340 340 341 341 341 343 343 344 344 343 343 345 345
343 345 349 351 353 355 356 356 357 357 357 357 357 356 355 353 351 349 347 344 343 343 344 346 347 348 348 348 348 349 349 348 349 349 348 344 342 341 339 340 340 340 341 340 341 341 340 340 340 340 339 338 338 339 341 341 342 343 342 343 344 343 344
343 344 347 349 352 355 355 356 356 357 357 356 357 357 357 355 353 350 348 345 343 344 343 344 346 347 348 349 348 348 349 349 349 350 350 347 345 343 341 340 341 340 340 341 341 341 340 339 339 339 338 337 337 338 339 340 341 342 342 343 343 342 343
341 344 347 349 352 353 355 355 355 355 356 356 357 358 358 357 355 354 353 349 345 344 344 343 345 346 346 347 348 348 349 349 349 349 350 350 348 347 344 342 342 342 341 341 342 341 340 339 338 338 337 337 337 336 338 339 339 341 342 343 342 340 339
339 344 347 349 351 351 353 355 355 355 356 355 356 358 357 357 357 356 355 353 348 345 345 343 343 343 345 346 347 348 348 348 349 349 349 349 349 348 346 345 344 343 342 342 341 341 340 338 338 337 336 337 337 336 336 337 338 340 341 342 341 338 337
339 345 348 348 349 351 352 354 354 355 355 356 355 356 356 357 357 356 356 355 352 347 346 346 346 343 343 345 345 346 347 348 348 349 349 349 349 348 348 347 346 345 343 342 341 340 339 338 337 336 336 336 336 336 336 336 337 339 340 339 337 336 336
338 344 348 348 347 350 352 353 355 355 355 355 354 355 356 357 357 357 357 356 354 351 348 350 351 348 343 344 345 345 346 347 347 348 349 349 349 349 348 348 347 346 344 342 341 339 338 337 336 336 335 335 335 336 335 336 336 337 337 335 334 333 334
342 347 352 352 350 350 351 353 354 354 355 356 354 355 356 356 357 357 357 355 355 354 353 353 353 351 345 343 344 346 346 347 347 347 348 348 348 348 348 350 349 347 345 343 341 340 337 336 336 335 335 335 335 335 335 335 335 335 335 333 331 331 332
340 345 348 351 351 352 351 353 355 355 356 355 355 355 356 356 356 356 356 356 355 356 356 355 356 355 348 343 344 345 345 345 346 347 347 348 348 348 349 350 351 348 344 343 341 340 338 336 335 335 335 334 334 335 334 334 334 334 334 333 331 330 330
338 339 342 345 349 352 352 353 355 356 355 354 354 354 356 356 356 355 356 356 356 357 357 356 356 355 350 345 344 345 345 345 346 346 347 347 347 349 350 350 352 349 346 342 341 341 339 337 335 335 335 333 333 333 333 333 333 333 332 332 332 330 329
337 337 341 346 347 350 352 354 356 357 356 354 353 354 355 356 355 355 356 356 357 357 357 357 355 353 350 346 345 345 344 344 345 345 346 346 346 348 349 350 350 349 346 343 343 341 340 339 337 335 334 334 332 331 332 331 332 332 331 330 330 330 330
336 334 338 345 350 351 350 352 356 355 354 353 354 354 355 356 356 356 356 357 357 357 357 357 355 352 350 347 346 345 345 344 345 345 346 346 346 347 348 349 348 347 345 344 344 343 343 342 342 339 335 333 332 331 331 330 329 329 329 329 329 329 330
341 339 338 340 346 349 349 349 352 351 351 353 353 353 355 355 355 356 356 357 357 357 357 357 354 352 350 348 346 346 345 345 345 345 345 346 346 346 347 348 347 347 346 345 344 345 345 344 345 344 340 334 332 332 331 330 328 327 327 327 327 328 329
348 352 351 347 346 347 348 350 352 351 350 350 350 352 354 355 355 355 356 357 357 357 357 355 353 350 348 347 347 347 346 346 345 345 346 346 346 347 347 347 348 347 346 346 345 345 346 345 345 347 345 339 334 332 331 330 328 326 325 326 326 326 328
355 356 358 359 357 353 349 349 352 354 349 345 348 351 353 355 355 354 355 357 357 357 356 355 352 349 348 348 348 347 347 346 346 346 346 346 346 347 347 347 348 347 347 346 346 345 346 346 346 346 346 344 339 334 332 331 329 326 325 325 325 325 326
357 357 358 361 362 361 356 350 348 352 349 345 347 350 351 352 354 352 350 354 355 356 356 355 353 351 349 348 348 347 347 347 346 346 346 346 346 346 347 347 347 348 347 347 347 346 346 347 347 346 346 346 343 338 334 332 330 328 326 325 325 326 326
357 358 360 360 360 363 362 356 347 347 352 350 345 345 349 353 354 352 350 352 355 356 356 356 355 353 350 348 347 347 347 347 347 347 346 346 346 347 347 347 347 348 348 348 347 347 347 347 347 347 347 346 345 341 337 334 332 329 327 327 326 326 327
357 358 359 360 361 362 363 360 349 343 348 353 350 349 352 355 356 355 352 351 352 355 355 355 355 354 351 348 347 347 347 347 347 347 347 347 347 347 347 347 347 347 348 349 348 348 347 347 347 348 348 347 346 344 339 336 333 330 328 328 328 328 329
355 357 358 359 361 362 363 362 354 343 343 352 354 352 353 355 356 356 353 350 351 354 355 354 353 352 350 348 347 347 346 347 347 347 347 347 347 348 347 347 348 347 347 348 349 348 348 347 347 348 349 348 347 347 344 339 334 332 330 329 329 330 331
353 355 358 359 360 363 363 359 354 347 345 350 354 353 353 355 356 357 354 352 352 353 354 353 351 350 348 347 347 347 347 347 347 347 347 348 348 348 348 347 347 348 348 348 349 349 348 347 348 348 348 349 348 348 346 342 338 335 332 331 330 331 332
352 355 357 358 360 362 358 353 351 349 348 352 355 352 352 354 357 357 353 351 352 353 353 352 350 348 348 347 347 347 347 347 347 348 347 348 348 347 348 348 347 348 348 347 348 348 348 348 348 348 348 349 349 349 347 346 344 340 336 334 333 333 334
351 355 356 358 361 361 356 352 352 350 351 354 355 353 354 355 356 356 351 348 352 355 353 351 349 348 346 348 346 347 347 347 347 348 348 348 348 348 348 348 347 348 347 347 348 349 350 349 348 348 348 349 349 349 350 349 349 347 342 340 338 337 337
349 354 355 357 359 359 356 354 353 353 353 355 353 353 354 356 357 354 349 348 353 355 352 349 348 348 347 347 347 347 347 348 347 347 348 348 348 348 348 348 348 348 348 348 348 348 349 351 351 350 349 349 350 350 351 352 353 351 349 346 344 342 341
348 353 354 356 358 358 357 355 355 354 354 354 354 354 355 357 357 353 349 348 350 351 349 348 347 347 348 347 348 347 347 348 348 347 349 349 348 348 348 348 349 348 348 349 349 349 349 351 354 355 354 352 353 352 353 353 354 354 354 352 350 349 347
345 350 353 355 356 358 358 356 355 354 354 356 356 355 356 357 354 350 347 346 347 347 349 350 348 347 348 347 348 348 348 348 348 348 348 349 348 349 348 349 348 350 351 352 351 351 351 352 354 357 358 357 357 357 357 357 357 356 357 356 355 353 352
343 347 351 354 355 357 359 359 357 354 354 358 357 356 358 356 352 348 346 345 346 349 349 350 348 347 348 348 348 349 349 348 348 349 348 349 349 349 349 349 349 350 352 353 353 354 356 356 356 358 360 361 361 361 361 361 360 359 358 357 357 357 356
341 345 349 352 354 357 358 360 361 358 356 357 357 357 358 356 350 346 347 346 348 349 350 348 348 347 348 348 348 349 348 348 349 349 349 349 349 350 350 350 350 351 352 353 356 358 359 360 361 361 362 362 362 362 362 362 363 362 360 359 359 360 359
339 343 347 350 354 356 358 359 360 361 360 359 358 359 359 356 350 347 348 349 348 349 349 349 348 349 348 348 349 349 349 349 350 350 350 350 350 350 351 351 351 352 353 355 358 361 362 362 362 363 362 362 363 363 363 363 363 363 363 362 361 361 361
338 344 347 349 352 355 357 358 358 360 362 361 361 363 361 358 354 350 349 350 350 349 350 350 349 349 350 349 349 350 350 350 350 350 350 350 351 351 351 352 353 353 354 355 358 361 363 363 363 363 363 364 364 364 364 364 364 364 364 363 363 363 362
336 343 346 347 350 352 355 358 358 358 360 361 361 362 362 361 360 355 352 351 351 350 350 350 349 349 350 350 351 350 350 351 352 352 351 350 351 353 352 352 353 354 354 354 356 360 363 364 364 364 364 364 365 365 365 365 365 365 365 364 364 364 363
331 340 345 346 349 351 352 355 357 358 359 359 360 361 363 362 362 360 356 352 351 351 351 350 350 351 350 350 351 351 352 352 354 356 356 353 353 356 357 356 356 357 357 356 357 360 363 365 365 365 364 365 365 365 365 365 365 365 365 365 365 365 364
326 335 343 344 346 349 350 351 354 356 358 359 358 359 361 362 362 362 361 357 353 352 352 350 350 352 351 351 353 353 354 354 354 356 360 360 358 358 361 362 361 361 362 362 361 361 363 365 366 365 365 365 365 365 366 366 366 366 366 365 365 365 364
325 330 339 343 345 347 349 349 351 354 356 358 359 359 359 359 360 360 360 358 355 355 355 352 350 351 352 353 354 353 353 353 353 354 360 364 364 362 361 361 362 364 365 365 365 364 363 364 365 365 365 365 365 366 366 366 366 367 366 365 365 364 364
325 326 332 339 343 345 347 348 349 351 353 355 357 359 359 359 360 360 359 359 359 359 358 353 349 353 357 358 356 354 352 353 354 355 358 364 368 367 364 361 362 362 363 365 366 365 364 363 364 364 364 365 365 366 365 365 366 366 365 365 364 363 363
326 322 325 333 340 343 344 346 347 348 350 352 353 356 358 358 360 361 362 362 363 363 361 356 352 355 360 362 359 357 354 353 355 356 357 363 368 370 367 364 363 362 362 363 364 365 364 364 363 362 363 363 364 364 364 364 365 364 364 364 364 364 364

ECMWFFLT1_850_thetae_081.txt.gz
Theta_e
351 352 354 354 353 352 356 361 362 361 360 362 361 359 359 360 360 361 360 355 346 342 340 339 337 336 336 335 335 335 335 334 334 333 334 334 334 335 333 332 331 331 336 343 341 339 342 344 349 354 351 345 344 343 342 343 344 345 345 343 345 345 342
350 350 351 354 352 350 357 362 362 361 361 362 362 361 360 361 360 361 361 358 350 344 342 341 340 339 338 339 339 339 339 338 338 337 337 337 336 337 336 336 336 333 333 343 348 348 348 347 345 347 347 344 343 343 342 343 343 344 344 343 346 346 342
349 348 349 351 351 352 358 363 362 362 363 362 363 362 361 361 361 362 362 359 352 347 344 342 341 341 340 341 341 342 342 342 343 341 340 339 338 337 338 337 337 337 335 339 348 352 352 350 345 342 342 341 341 343 341 342 343 344 344 342 343 346 344
349 348 348 350 352 354 359 363 363 363 362 363 363 363 362 362 362 363 362 360 354 348 344 342 342 342 342 342 343 343 344 344 344 343 341 342 341 338 341 340 337 341 344 341 345 350 353 353 347 342 341 340 340 342 341 342 343 343 345 344 343 345 345
349 348 348 349 352 354 358 361 362 362 363 362 363 363 363 363 363 363 363 362 356 349 344 342 343 343 343 343 343 343 344 344 345 345 342 344 347 344 344 345 340 341 348 346 344 348 351 352 348 341 341 341 340 341 340 339 342 342 343 345 343 343 345
346 348 348 350 352 352 356 359 361 362 362 362 363 364 364 363 363 363 363 363 361 356 350 345 343 343 344 343 343 344 345 346 346 346 345 345 348 348 345 345 341 340 346 347 347 349 348 348 349 344 341 341 341 345 344 339 339 341 341 342 343 341 345
341 344 348 349 350 349 352 358 360 360 362 361 362 364 364 363 364 363 363 364 363 361 355 349 345 344 344 344 345 345 346 347 346 346 347 347 348 347 343 341 340 341 346 347 347 350 348 344 345 346 341 340 343 347 349 345 338 339 339 340 342 341 342
338 342 345 348 348 346 349 355 359 359 360 360 361 363 364 363 363 364 364 364 364 362 359 355 351 346 344 345 346 346 346 346 346 345 346 348 348 345 344 342 340 340 346 348 346 348 349 344 342 344 342 342 346 346 350 350 342 338 339 339 340 341 340
338 340 343 346 346 346 348 353 358 360 360 360 360 362 363 363 364 363 363 364 363 363 361 359 356 350 345 345 345 346 346 347 347 346 346 348 349 346 346 345 341 339 342 347 347 346 347 346 343 343 340 342 347 346 345 347 341 337 340 338 338 340 340
337 339 342 344 344 345 347 349 355 359 360 360 359 361 363 363 363 364 363 364 363 363 362 360 361 358 350 344 344 346 348 348 348 348 348 351 353 351 352 351 348 343 339 343 350 349 345 343 344 342 338 338 344 343 339 340 338 336 338 338 336 338 339
337 340 341 345 344 344 345 348 353 358 360 361 360 360 362 363 363 363 363 364 363 363 363 361 362 362 355 348 347 348 348 348 351 353 352 353 356 356 356 357 354 351 343 340 349 354 348 341 341 342 339 336 338 339 335 335 335 335 337 337 337 337 337
340 344 343 344 344 344 344 345 352 356 359 362 360 360 362 362 363 364 363 364 364 362 363 361 361 363 360 354 353 351 350 349 351 355 353 353 357 359 357 357 356 356 351 344 348 355 354 346 340 339 339 336 336 336 334 334 334 334 336 338 341 339 336
340 345 346 348 349 348 347 349 353 358 361 362 361 359 361 362 362 363 362 363 364 363 363 362 362 363 360 358 358 354 350 349 349 352 355 353 356 359 359 356 354 356 355 351 349 353 356 352 345 338 337 335 335 334 334 334 333 334 334 336 341 343 339
336 340 344 346 349 350 352 355 358 361 360 361 361 358 360 362 361 362 362 363 364 364 363 362 362 363 361 358 358 354 348 346 348 350 354 357 356 358 358 357 354 355 357 356 353 353 355 355 351 343 337 335 334 334 333 333 333 333 334 333 336 342 340
336 337 338 341 344 347 352 355 358 362 362 362 361 359 358 361 361 361 361 363 363 363 363 363 362 363 363 358 355 353 346 345 348 350 353 358 359 357 358 358 356 355 357 358 355 354 353 355 355 352 343 336 334 334 333 333 333 333 333 332 332 336 338
342 341 341 341 344 347 350 353 357 362 363 362 360 359 358 359 361 362 361 363 363 362 362 363 363 364 365 360 354 353 350 347 349 351 352 357 358 356 357 359 357 355 358 359 356 353 353 353 355 357 352 342 334 333 333 334 332 331 331 332 331 331 334
344 344 343 343 345 348 350 352 355 360 364 363 361 360 358 358 360 361 361 362 362 362 362 363 364 364 365 362 357 355 354 350 349 349 349 354 355 352 353 358 359 357 357 360 358 353 351 353 354 357 357 353 343 335 332 332 332 331 329 329 330 329 330
344 343 344 345 348 352 355 354 352 357 362 362 361 359 358 359 360 360 361 361 361 361 362 363 364 365 366 365 361 358 356 351 348 346 346 349 350 348 347 353 359 359 358 361 358 352 350 352 353 355 357 358 355 347 338 334 331 330 330 328 328 328 328
346 345 345 345 347 353 357 356 354 357 360 361 361 359 356 357 360 360 360 360 361 361 361 363 364 365 366 366 363 360 358 352 348 346 345 345 345 345 343 347 354 359 360 360 358 350 347 348 350 352 354 356 360 358 351 344 336 329 330 330 327 327 328
350 350 350 349 350 355 359 360 363 363 360 358 361 361 358 355 358 361 361 360 361 362 360 363 364 365 366 366 364 362 360 355 350 346 344 344 343 343 343 344 347 353 358 360 358 351 346 347 349 349 348 350 356 360 359 355 348 336 329 330 329 328 328
350 351 352 354 356 359 361 363 365 367 363 359 357 359 360 357 356 360 361 360 362 362 361 361 364 365 366 366 365 363 360 356 352 348 345 343 343 342 343 344 345 349 354 359 359 352 345 346 349 348 345 345 351 357 358 357 356 347 334 329 331 330 329
347 348 351 354 356 358 361 363 364 366 367 365 360 356 358 359 357 358 361 362 361 362 361 362 363 366 367 366 365 363 361 357 354 351 347 344 344 343 343 344 345 345 350 357 360 357 349 345 346 348 348 345 346 352 355 356 356 352 341 331 329 330 330
343 346 349 352 354 357 360 361 363 365 366 366 362 356 355 359 358 357 361 362 362 363 362 361 364 366 367 366 365 363 361 357 354 352 349 346 346 344 344 344 345 345 347 352 358 361 357 350 347 348 349 347 345 346 351 353 353 350 344 337 332 331 332
340 343 346 348 352 357 359 360 363 364 363 363 360 354 352 357 359 358 360 361 362 363 362 362 364 366 366 365 364 361 359 355 353 352 350 348 347 345 344 344 345 345 346 347 353 360 362 358 355 352 348 348 347 345 346 349 351 348 345 342 338 334 334
338 342 346 347 351 355 358 359 360 360 360 360 357 353 351 354 359 359 360 362 362 362 363 363 364 366 365 362 361 360 358 354 353 350 349 348 347 346 346 345 345 346 346 346 349 355 360 362 361 358 353 348 348 348 347 347 349 349 347 345 342 339 338
337 342 345 347 349 353 356 358 359 361 361 359 356 353 351 354 359 360 360 362 362 362 363 363 363 365 365 362 360 360 357 354 351 349 348 349 348 347 348 347 347 347 347 347 348 353 357 360 361 362 360 356 354 354 352 349 348 350 349 346 343 342 341
337 341 343 345 349 352 355 358 360 361 361 358 356 353 353 355 358 359 361 363 362 361 362 362 364 367 366 363 360 359 356 353 351 348 349 348 348 349 349 349 349 348 347 348 350 352 356 358 360 362 362 361 361 360 358 355 351 349 348 347 344 344 345
337 340 343 347 351 353 355 357 360 361 360 357 356 355 355 357 358 358 362 363 362 361 362 363 365 367 365 362 359 358 356 355 352 349 350 350 349 350 350 350 350 350 349 351 353 354 356 357 359 361 363 363 363 363 362 361 357 353 350 349 348 348 348
333 336 341 347 350 352 354 356 360 362 359 356 356 356 356 357 357 359 361 362 362 362 362 364 365 366 363 360 357 357 356 356 353 351 351 353 351 350 350 350 351 352 352 353 355 357 358 358 359 361 363 364 364 364 364 364 362 358 355 353 353 351 351
332 334 340 345 349 352 355 357 361 363 361 356 357 357 357 357 357 361 363 363 362 360 363 365 366 365 362 358 357 358 358 358 354 351 352 354 351 351 351 350 350 353 353 353 356 359 360 359 358 359 361 363 364 364 365 364 364 361 359 358 358 356 355
330 333 338 342 346 351 356 358 361 363 362 361 357 356 357 358 360 364 365 363 362 360 362 366 367 365 363 360 358 358 359 359 356 352 353 355 354 352 352 352 351 353 354 355 358 360 362 361 360 359 360 362 364 364 364 364 363 363 362 362 361 360 358
328 331 336 340 344 350 355 358 360 362 363 363 361 359 359 359 361 366 366 365 363 362 364 367 367 365 363 362 360 360 359 361 361 356 356 359 359 356 353 354 355 356 357 359 361 362 363 363 362 361 362 363 364 363 363 364 364 364 363 363 362 362 361
327 329 333 338 341 344 350 355 359 361 363 364 363 362 361 361 363 366 366 365 364 363 365 367 366 364 364 365 364 362 362 364 365 362 362 363 364 362 359 359 359 359 360 362 363 364 363 363 362 363 363 364 364 364 364 364 365 364 364 364 363 363 363
327 328 330 336 339 341 347 352 357 360 362 363 364 364 363 363 364 364 365 366 364 364 366 368 366 364 366 368 366 365 365 366 365 365 365 365 365 365 365 364 363 362 363 361 361 362 363 362 362 363 364 364 365 365 365 365 366 366 365 365 365 365 364
326 326 328 332 336 340 344 348 353 357 361 362 363 364 364 364 365 364 365 365 364 364 367 368 367 367 368 368 367 366 366 365 364 364 366 366 365 365 366 366 365 366 366 361 359 361 363 364 364 364 365 365 365 366 366 366 366 366 366 366 366 366 365
325 326 327 330 335 339 342 346 351 355 358 360 361 363 365 365 365 365 365 365 364 365 366 368 367 367 367 368 368 367 366 366 365 365 366 368 366 365 366 366 365 366 368 365 360 359 362 364 365 365 366 366 366 366 366 366 366 366 366 366 366 366 366
325 327 326 328 332 336 338 343 349 353 354 357 359 361 362 363 364 365 364 365 365 365 367 367 367 367 368 368 368 367 366 366 366 366 366 368 367 365 365 366 366 366 366 366 362 360 361 363 365 366 365 365 366 366 366 366 366 366 365 366 366 366 366
325 327 327 326 328 333 335 339 344 349 351 352 353 356 358 360 362 363 364 365 365 365 365 367 367 366 367 368 367 367 366 367 367 367 366 368 369 367 364 364 366 366 366 366 366 365 364 364 364 365 366 366 365 365 366 366 366 366 366 366 366 366 366

ECMWFFLT1_850_thetae_084.txt.gz
Theta_e
351 350 352 353 354 355 355 355 353 354 355 357 358 357 356 356 356 358 359 360 356 351 346 342 337 332 329 327 325 323 323 324 324 325 325 326 327 328 329 329 329 329 328 327 326 327 331 336 343 347 345 342 342 342 341 341 341 342 343 344 346 346 345
350 348 350 352 354 356 357 355 352 353 353 354 357 358 357 357 357 356 358 359 358 353 347 342 339 335 332 329 328 326 325 323 323 323 324 324 325 326 328 328 330 330 329 329 329 329 331 334 340 346 347 342 341 342 342 340 341 341 342 342 343 343 342
349 350 351 353 355 356 357 356 353 354 353 353 356 359 359 358 357 356 357 358 359 355 350 344 339 337 335 333 331 329 328 325 324 324 324 323 323 325 326 328 331 333 331 332 333 335 338 338 339 345 346 342 340 341 342 341 340 340 341 340 341 342 342
350 350 351 353 354 355 357 358 355 355 354 354 358 360 359 358 358 357 357 359 359 357 352 345 340 338 336 335 334 332 331 329 327 326 325 324 324 324 327 329 333 336 335 334 334 338 344 345 342 344 344 341 338 339 341 341 340 340 341 340 340 341 341
352 351 351 352 354 355 355 355 356 356 355 355 358 360 360 359 359 358 358 359 359 357 351 346 342 339 338 336 335 334 333 332 330 329 328 328 328 327 329 333 335 337 339 336 335 338 345 348 347 346 343 340 338 338 340 341 341 340 340 340 340 340 340
352 352 353 353 354 355 354 353 354 355 355 355 357 358 358 358 359 360 360 361 361 358 354 350 345 342 339 338 337 336 335 334 333 333 332 331 333 332 332 336 337 338 339 339 338 339 343 348 351 350 344 340 339 338 339 340 340 340 340 340 340 340 340
350 351 351 351 352 354 353 352 353 353 355 355 355 355 356 356 358 361 362 363 364 361 358 353 348 344 342 340 338 338 337 337 336 336 335 335 336 336 336 337 340 339 340 342 341 341 343 345 349 350 346 341 339 339 338 338 338 340 339 339 340 340 340
350 350 350 350 351 353 352 352 352 352 354 354 354 355 354 354 357 360 363 364 365 364 361 355 350 347 344 342 341 340 339 339 338 338 338 339 339 340 340 339 339 340 343 346 346 344 344 343 345 348 346 342 341 340 340 340 337 338 339 337 339 339 339
350 351 351 350 351 352 351 353 353 353 355 356 355 354 355 356 357 359 363 366 366 366 363 360 355 349 346 344 343 342 341 340 340 340 340 341 341 340 341 341 340 339 343 348 350 348 346 344 343 345 345 343 342 342 343 343 339 338 338 336 336 338 337
348 349 351 352 350 351 351 352 355 355 355 357 356 356 356 358 359 360 363 366 367 367 366 364 362 357 351 347 344 344 344 342 341 341 340 341 341 341 343 343 341 339 342 347 351 350 347 345 344 344 343 343 342 341 342 343 342 339 339 337 335 336 337
347 349 349 349 350 351 351 352 355 355 355 356 355 356 357 359 362 363 364 366 367 368 367 366 365 362 356 351 348 345 344 344 343 341 341 341 341 341 345 348 347 344 343 345 350 352 350 347 346 345 344 343 343 341 340 342 341 340 338 337 336 334 334
343 349 349 349 349 350 350 353 354 355 354 353 355 356 357 361 364 365 365 366 367 367 368 367 366 365 361 355 351 348 345 344 344 342 341 342 343 344 346 351 353 351 347 345 348 352 353 350 348 347 345 343 343 341 340 340 341 339 338 338 337 335 333
345 348 349 349 349 347 349 351 352 353 351 351 355 357 359 363 365 365 365 366 366 367 368 368 366 366 364 359 354 350 347 343 343 344 344 344 347 349 350 353 357 355 352 347 346 352 356 353 350 349 346 342 341 341 340 339 340 339 337 338 338 337 334
343 346 347 348 348 348 350 350 348 349 352 353 356 358 361 364 365 365 366 365 366 366 367 367 366 365 364 362 358 354 350 346 344 346 347 347 350 352 353 355 356 357 356 353 350 351 356 356 353 350 349 346 340 338 339 338 339 339 336 336 339 340 336
340 342 345 349 349 348 349 350 350 349 349 354 359 361 362 364 365 365 365 365 365 366 366 367 366 365 364 363 359 356 352 349 348 348 350 351 351 351 354 356 356 357 358 356 354 353 354 356 355 352 352 351 345 340 340 339 338 338 336 334 336 339 338
342 343 347 350 351 349 347 350 355 356 356 357 361 361 361 362 364 365 364 366 365 365 366 366 366 365 364 363 360 358 355 353 352 351 351 351 352 351 353 356 356 357 357 358 356 354 352 354 356 356 354 354 351 346 343 341 337 335 334 333 332 334 336
344 345 348 348 350 351 349 348 353 358 362 365 362 362 362 362 363 364 364 365 365 365 366 365 365 365 364 363 362 360 358 356 354 354 352 352 352 351 352 355 357 357 357 357 356 356 354 352 355 357 356 356 355 352 346 342 338 334 332 332 332 332 333
347 347 349 350 351 353 351 351 354 356 359 362 362 361 361 362 363 363 363 364 365 365 365 365 365 364 363 364 363 362 360 358 356 356 354 353 352 351 350 353 357 357 357 356 356 356 355 353 352 355 357 357 358 356 350 341 335 333 332 332 331 331 332
350 349 351 352 354 354 354 356 361 361 360 359 357 357 357 359 360 362 363 363 364 365 365 365 365 364 363 365 365 363 361 359 358 356 356 355 353 353 352 352 356 358 356 356 356 356 356 356 353 353 355 357 358 359 356 347 338 333 332 332 330 330 331
347 348 349 351 354 356 357 358 361 363 363 362 360 355 352 353 357 360 362 363 364 364 364 364 366 365 365 365 365 364 363 360 359 357 356 356 354 355 354 352 353 356 356 355 356 357 357 357 356 354 354 355 357 358 357 354 348 339 333 331 331 330 330
343 345 347 349 352 354 355 357 360 362 362 363 363 360 356 354 354 358 361 362 362 363 364 363 365 365 365 365 365 365 363 361 360 359 357 356 356 356 356 354 353 354 356 357 356 357 358 358 357 356 353 353 356 357 357 357 356 351 342 334 331 331 330
340 342 344 347 349 351 352 354 357 359 361 361 363 365 364 359 353 354 360 362 362 362 364 362 364 365 365 365 365 365 365 363 361 359 359 357 356 356 356 355 354 354 355 356 357 358 359 358 358 358 355 353 353 355 357 358 358 357 352 343 336 335 335
339 340 342 345 347 349 350 351 354 359 361 363 364 364 366 365 359 355 357 361 361 362 363 362 363 364 365 365 365 365 365 364 362 361 360 359 356 355 355 355 354 353 354 356 358 360 361 360 359 358 357 355 352 352 354 357 357 358 357 352 347 344 342
336 338 341 343 345 347 348 349 351 354 356 358 359 358 357 360 362 361 358 359 362 363 363 362 362 364 364 365 365 365 365 365 364 363 361 359 357 355 354 354 354 353 353 353 357 361 362 362 360 359 358 356 354 352 351 352 354 355 356 355 354 352 349
335 337 340 342 343 345 346 348 348 349 352 356 360 359 357 355 358 359 359 360 361 362 363 363 362 363 364 364 365 366 367 367 366 365 362 359 359 357 354 353 353 353 351 351 354 359 362 363 362 361 359 358 357 356 352 349 350 351 351 352 352 352 351
333 336 337 339 342 344 346 348 349 350 352 356 361 364 363 360 358 357 358 360 361 362 362 363 362 363 364 364 365 367 368 367 367 366 363 361 362 361 357 354 353 352 351 350 351 354 358 361 362 362 362 361 359 358 355 351 349 348 348 347 347 347 348
334 337 338 338 341 345 347 349 351 351 351 353 359 363 364 363 360 355 356 358 361 361 362 363 362 362 364 365 366 367 368 368 367 366 363 363 365 364 359 358 356 355 353 352 351 352 354 357 360 362 363 363 361 360 358 355 351 349 348 348 346 345 347
335 337 340 341 342 344 346 348 351 351 351 353 358 364 365 362 359 355 353 357 360 360 361 363 363 363 364 365 366 367 368 369 368 366 364 366 369 366 360 359 360 358 355 353 352 351 352 354 357 360 362 363 363 362 361 359 357 355 353 351 350 348 348
332 334 337 339 341 343 345 347 350 352 352 354 359 364 365 361 357 354 352 355 360 360 361 364 364 362 364 365 366 368 368 369 369 367 364 367 370 366 361 361 362 361 359 356 354 353 352 352 355 356 360 362 362 361 362 362 361 360 358 357 356 353 352
331 332 334 336 338 342 345 346 349 353 355 356 361 363 364 362 358 354 353 357 360 360 361 364 364 363 364 365 366 367 369 369 370 367 366 369 370 366 362 361 362 363 361 358 356 355 354 354 354 355 357 359 360 361 361 361 362 361 360 361 360 358 356
329 330 331 333 336 340 343 346 350 354 355 359 362 363 363 362 359 355 356 359 361 361 361 363 364 364 364 366 366 367 369 370 369 368 369 370 369 365 362 361 362 363 362 360 357 357 357 356 355 355 355 356 357 358 360 361 361 361 361 360 360 359 357
328 330 330 331 334 338 343 347 350 354 356 359 363 364 363 362 359 357 360 362 361 362 362 362 364 364 364 366 367 367 368 370 369 369 370 369 369 366 364 362 361 361 362 360 358 358 357 357 356 356 355 355 355 358 359 361 362 362 361 360 359 357 358
327 329 329 329 330 334 340 343 346 351 356 359 363 364 363 362 359 358 361 364 364 362 362 362 363 364 365 367 368 368 368 369 368 369 369 368 369 368 365 364 362 361 361 360 359 359 359 358 358 358 357 356 355 357 359 360 361 362 362 360 359 358 359
325 328 327 327 329 332 336 338 342 348 354 357 361 364 363 362 361 361 363 365 365 364 363 362 363 365 366 366 368 368 368 368 368 369 368 368 369 369 368 366 363 361 359 357 355 357 358 358 359 359 359 358 357 356 357 358 359 361 361 360 360 360 360
323 326 326 326 328 330 332 335 338 345 350 353 358 363 364 363 362 363 364 366 366 365 363 362 363 365 366 367 367 367 368 369 369 368 368 369 369 369 369 368 365 361 359 356 353 355 357 358 359 359 359 360 359 357 357 357 357 357 358 360 361 361 360
322 323 324 325 327 329 331 333 335 340 345 349 354 360 363 363 363 364 365 365 366 365 363 363 365 366 367 367 367 367 368 368 369 368 368 368 369 369 369 369 367 363 361 358 358 359 359 358 359 359 360 360 359 358 357 355 354 354 355 358 361 361 361
321 322 322 324 326 328 330 332 333 337 342 345 349 354 359 361 363 365 365 364 364 365 364 364 366 367 367 368 367 366 368 368 368 368 368 368 368 369 368 367 367 365 363 362 361 360 360 360 360 359 359 359 359 359 358 357 356 356 357 360 363 365 365
321 320 321 323 325 327 328 330 332 334 338 341 344 348 352 356 359 361 364 365 365 365 365 366 366 368 368 366 366 367 367 368 368 368 368 368 368 368 367 367 366 366 365 365 365 362 360 360 360 359 360 359 358 359 361 361 361 362 363 365 366 366 367

ECMWFFLT1_850_thetae_087.txt.gz
Theta_e
350 348 349 351 352 353 353 352 351 351 351 351 352 351 351 351 351 352 352 352 351 349 347 344 338 331 327 324 323 325 326 326 326 326 326 326 326 326 326 326 326 326 326 326 325 326 326 327 329 333 337 340 340 340 340 341 341 344 348 351 351 350 347
350 349 350 352 353 353 354 352 352 352 351 352 353 352 353 352 352 353 353 353 353 351 348 346 341 334 328 326 323 323 324 326 327 326 326 326 326 326 326 326 327 326 326 326 325 326 326 326 328 330 332 337 341 341 339 339 341 341 343 346 347 346 344
350 350 351 352 353 353 353 353 353 353 352 352 353 353 354 354 353 353 353 354 354 353 351 347 344 338 331 328 326 322 322 323 325 326 326 326 326 326 327 326 326 326 326 326 326 326 326 325 328 330 331 333 338 341 340 339 339 340 340 342 343 342 342
350 350 350 351 353 353 354 354 353 353 353 353 354 354 355 354 354 354 354 355 355 354 353 351 347 343 337 332 329 326 323 322 323 325 326 327 327 326 326 327 326 326 326 326 326 326 326 326 328 330 332 332 335 339 341 340 339 338 338 339 341 341 341
350 350 351 353 354 354 354 355 354 354 353 353 353 354 355 355 354 355 355 356 356 355 355 353 350 346 342 336 332 329 326 324 322 323 324 326 326 327 326 327 327 326 326 326 325 325 326 326 327 331 333 333 333 335 338 339 339 338 338 338 338 339 341
351 351 352 354 355 355 354 354 354 355 354 353 353 353 355 355 355 355 355 356 357 357 357 355 353 350 347 342 336 333 330 327 325 323 323 323 324 325 325 326 326 326 325 325 325 325 326 326 327 329 332 334 334 335 336 338 339 339 338 337 337 338 338
351 351 351 353 353 354 354 354 354 355 355 354 354 355 355 355 356 355 356 356 357 358 358 357 356 353 350 346 341 337 333 331 329 325 324 323 322 322 323 324 324 324 324 324 324 325 327 328 328 329 331 333 335 335 335 336 338 338 339 339 337 337 337
351 349 350 351 352 354 354 355 354 354 355 355 354 356 356 356 356 356 356 357 357 358 358 358 357 356 353 350 346 341 337 334 332 329 327 325 324 323 323 323 323 323 323 323 324 325 327 330 329 330 332 333 335 336 335 336 337 337 338 338 337 337 337
351 349 350 351 351 353 354 355 355 355 355 354 354 356 356 355 356 356 357 357 357 358 358 357 358 357 355 353 349 346 340 337 335 333 330 329 327 326 324 324 323 323 324 323 324 325 327 330 332 332 332 333 334 336 335 336 337 337 336 336 337 337 337
351 349 350 351 352 354 355 356 358 357 354 353 354 355 356 356 357 358 358 358 358 358 358 358 358 357 357 355 352 350 346 341 337 336 334 332 330 329 327 327 326 326 326 326 326 327 327 331 334 334 335 335 335 336 336 335 337 338 337 335 336 336 336
351 350 350 351 351 353 355 356 357 356 355 353 354 355 356 358 358 358 359 359 358 359 359 359 359 359 359 358 356 353 349 345 341 339 337 334 333 331 331 330 329 329 329 330 331 330 331 333 336 338 338 336 335 335 335 336 336 337 337 336 336 336 336
352 351 351 351 351 353 354 355 356 355 354 353 354 354 355 357 359 359 359 359 359 360 361 361 361 361 361 360 358 356 353 349 345 342 339 337 336 335 334 334 334 333 333 333 335 335 335 336 338 340 340 338 337 335 335 336 335 335 336 336 336 337 336
350 351 352 352 352 352 354 354 354 353 352 352 353 355 355 356 358 359 359 359 358 359 360 361 363 363 363 362 360 358 355 351 347 343 341 339 338 337 336 336 338 337 335 335 337 338 338 338 340 342 341 339 338 337 336 336 336 335 335 335 336 335 335
350 351 351 351 350 352 352 353 353 351 349 350 351 353 354 355 356 356 357 357 356 357 359 360 362 363 364 364 362 360 357 353 349 346 343 341 340 339 338 339 340 340 340 339 339 340 339 338 339 341 341 339 339 337 337 337 337 336 335 335 335 335 335
352 351 352 353 354 354 353 353 354 353 350 348 349 351 352 353 355 355 355 354 354 354 357 359 362 364 365 364 363 361 359 355 352 349 346 343 342 341 340 341 342 343 343 343 343 342 341 340 340 341 341 340 340 339 338 339 338 337 335 335 335 334 333
351 352 354 354 356 359 358 356 356 356 355 353 352 354 354 355 355 355 355 354 353 354 356 358 362 365 366 365 364 363 360 357 354 352 349 346 344 343 343 342 344 345 345 344 344 344 345 346 345 344 343 342 341 341 341 340 339 337 335 335 334 333 333
349 351 352 352 353 355 358 360 360 359 358 357 357 357 356 356 357 357 358 357 356 357 358 360 363 366 366 366 365 364 363 360 357 355 353 350 347 345 344 344 345 346 346 346 346 347 348 350 351 349 347 345 343 342 342 341 338 336 335 334 333 334 333
346 347 348 348 348 347 350 356 360 360 361 360 359 358 357 356 356 357 359 360 360 360 362 363 365 366 367 367 366 365 364 362 359 357 354 352 350 348 346 346 347 348 349 349 349 350 351 352 353 353 350 349 348 345 343 340 337 334 334 334 333 333 333
342 343 344 346 346 346 346 349 353 357 360 361 360 358 357 357 357 357 357 358 360 362 364 364 366 367 367 367 367 366 365 363 361 358 356 354 353 351 350 349 349 350 351 352 351 352 353 353 353 354 354 353 352 350 347 343 339 336 335 334 333 333 333
339 340 342 343 344 346 347 346 348 353 358 361 362 360 358 357 355 356 355 357 360 362 364 365 365 366 366 367 367 367 366 365 363 360 358 357 355 354 353 351 350 351 352 354 353 354 355 354 354 354 355 355 355 353 351 346 343 339 337 336 335 334 334
336 338 341 342 343 345 346 347 348 350 352 357 362 363 363 360 358 356 357 358 359 362 364 365 365 366 366 367 367 366 365 365 363 361 359 358 356 355 355 353 352 352 354 355 356 355 355 356 355 354 354 355 356 355 354 351 347 343 341 340 338 336 336
334 335 338 340 341 342 344 345 347 347 347 348 355 360 363 364 363 361 361 359 358 361 364 365 364 365 366 366 367 366 365 365 364 362 360 359 357 357 356 354 354 353 354 356 357 357 357 357 356 356 354 355 356 356 355 355 352 349 346 343 341 341 341
333 334 336 338 339 340 342 343 345 346 345 344 346 351 357 360 362 363 363 361 359 360 362 364 365 364 366 367 366 366 365 365 364 363 361 360 359 357 357 356 354 353 354 356 358 358 358 358 357 356 355 354 355 356 356 356 355 353 350 347 345 345 346
333 335 336 337 337 340 342 343 344 345 345 344 344 345 348 351 356 360 362 361 361 362 362 363 364 364 364 366 366 366 365 365 364 364 362 361 359 358 357 356 355 354 354 356 358 358 358 357 357 356 355 354 353 354 355 357 356 355 353 351 350 350 349
332 334 335 336 337 339 341 343 344 344 345 345 345 344 344 347 352 358 360 360 360 362 363 363 363 364 364 364 365 366 365 365 364 363 362 361 360 358 357 356 356 355 354 355 357 358 358 357 357 356 356 355 353 353 354 355 356 355 355 354 353 353 352
330 333 334 335 336 338 340 341 342 344 345 346 346 346 345 347 353 358 361 362 361 361 361 362 364 363 363 364 365 366 366 365 364 364 363 363 362 360 358 357 357 356 356 355 355 357 358 357 357 357 356 356 356 354 353 354 355 356 356 355 355 354 354
328 331 333 334 336 337 339 340 342 343 345 346 347 348 346 348 354 360 362 362 362 361 360 361 363 363 362 363 364 365 366 366 364 364 364 364 362 361 360 359 358 357 357 355 355 356 357 358 357 357 357 356 357 357 355 354 353 353 353 353 354 353 354
326 330 331 333 336 337 338 340 341 342 345 346 348 349 348 350 354 359 362 363 362 360 359 359 362 362 362 362 362 364 366 365 365 365 365 364 364 363 361 361 360 359 358 357 356 356 356 357 358 358 358 358 358 357 357 354 352 351 350 349 348 348 349
324 328 330 331 333 336 338 340 340 341 344 346 348 350 351 352 355 359 363 364 362 359 358 358 359 362 362 361 362 363 365 366 365 366 365 365 365 364 363 362 362 360 360 359 358 357 356 357 358 359 359 359 359 358 357 355 354 351 347 346 345 345 345
321 325 328 329 331 334 336 339 340 341 342 344 348 350 352 354 357 359 362 363 362 360 359 357 357 359 362 361 361 362 364 365 366 366 366 367 366 365 365 364 363 362 361 360 359 358 356 356 357 359 360 361 360 359 358 356 355 353 348 345 345 346 347
320 323 325 326 329 332 335 338 339 340 342 344 347 350 352 355 358 361 362 362 362 362 361 357 354 357 361 362 361 361 363 364 366 366 367 367 367 366 366 365 364 364 363 361 361 359 357 356 356 357 359 360 360 359 357 356 356 355 352 348 348 351 352
319 321 323 325 327 331 334 336 338 340 342 345 348 350 352 355 358 361 362 362 362 361 361 357 354 356 361 362 361 361 363 364 366 367 367 368 367 367 367 367 366 365 364 363 362 360 358 356 355 355 357 359 359 358 356 356 356 355 354 352 353 354 354
319 319 321 324 326 329 332 335 337 338 340 343 347 350 352 355 358 360 362 364 364 362 362 360 357 357 361 362 361 362 362 364 365 367 368 369 369 369 369 368 366 366 366 365 364 362 360 358 356 354 354 355 357 357 356 356 356 356 354 355 355 355 354
320 319 320 323 326 329 331 333 334 335 337 340 344 346 349 352 356 359 362 365 367 367 367 365 361 360 362 363 361 363 363 364 365 366 368 369 369 369 369 368 367 366 366 366 365 364 362 360 357 355 353 352 353 355 356 357 356 355 353 352 353 354 354
321 320 320 322 325 328 329 331 332 333 335 337 340 343 346 350 354 358 361 364 368 370 370 369 366 363 363 363 362 362 363 363 365 366 367 368 369 369 369 369 368 368 368 367 367 365 362 361 358 354 352 351 351 351 354 354 353 351 349 349 350 352 353
322 321 321 321 323 326 328 329 330 331 332 334 337 340 343 347 350 356 359 363 366 368 369 370 370 367 364 364 364 364 364 364 365 367 367 368 369 369 369 369 369 369 369 368 367 366 364 362 358 353 351 350 349 348 348 348 346 346 348 350 352 353 354
322 323 322 321 322 324 326 328 329 329 329 333 335 337 340 344 347 351 357 361 363 366 367 367 369 369 368 366 364 364 365 365 365 367 368 367 368 369 369 369 370 369 370 370 368 367 366 364 361 357 354 352 350 348 348 347 346 347 349 350 353 355 356
322 323 323 321 320 322 324 326 327 326 326 330 334 335 337 342 344 347 353 358 361 364 366 366 366 367 369 369 368 367 367 367 366 367 368 368 369 369 369 369 370 370 369 369 368 367 366 365 364 360 358 355 353 351 351 350 351 351 351 352 354 355 356

ECMWFFLT1_850_thetae_093.txt.gz
Theta_e
351 351 351 350 350 349 347 347 346 345 345 344 344 345 345 345 344 344 343 343 343 342 342 339 337 337 336 335 334 334 333 334 337 338 339 338 336 334 335 335 333 334 335 335 334 335 337 339 340 339 338 339 338 340 341 341 343 345 346 346 348 349 347
351 352 351 350 351 350 348 347 346 345 345 344 344 344 345 344 344 344 344 344 343 342 342 342 339 337 335 335 334 333 333 332 334 337 338 338 338 337 335 334 333 332 335 335 334 334 335 337 340 340 339 339 338 339 340 340 341 343 345 345 348 350 348
351 351 352 351 351 350 349 348 347 346 345 345 345 344 344 344 344 344 344 343 343 343 342 342 341 337 334 335 334 333 332 332 333 335 336 337 338 339 337 335 333 332 334 335 335 335 335 336 338 339 340 340 339 339 340 340 339 341 343 343 345 348 347
351 352 351 351 351 350 350 349 347 347 346 345 345 345 344 344 344 345 344 344 344 343 343 344 343 339 335 333 333 332 332 331 331 332 334 335 336 338 339 337 334 332 333 334 335 335 335 334 333 333 335 338 340 341 340 340 339 340 341 341 342 346 347
352 351 351 352 352 350 350 350 348 348 346 345 346 345 345 344 344 344 344 344 344 344 345 344 344 342 339 335 333 332 331 331 331 331 331 332 334 335 337 337 333 331 331 330 330 333 332 331 329 327 328 331 335 339 340 340 340 339 340 339 340 343 345
352 351 351 351 351 351 351 350 350 348 347 346 345 345 345 344 344 344 344 344 344 344 345 344 345 343 342 339 336 333 331 330 330 330 329 330 331 333 334 334 332 329 328 327 327 328 328 327 327 326 326 326 327 331 335 338 339 340 339 339 339 340 342
350 351 352 351 350 351 351 350 350 349 348 347 346 346 345 344 344 344 344 344 344 344 345 344 344 344 343 343 341 338 333 330 330 330 329 329 331 332 332 333 332 330 328 326 325 326 326 326 326 325 325 325 325 326 328 332 337 339 339 339 339 339 340
350 350 351 350 350 351 351 351 350 350 349 348 347 347 346 345 344 344 344 344 345 345 344 345 345 344 344 344 343 342 338 333 330 329 329 329 330 333 333 332 331 331 329 327 325 326 325 326 325 325 326 326 325 325 325 327 331 336 339 339 339 339 339
351 349 350 351 350 350 351 351 350 350 350 349 348 347 346 347 345 345 345 345 345 345 345 345 345 344 345 344 345 345 343 339 333 329 329 329 329 331 333 331 331 331 331 328 326 325 325 326 326 325 325 326 326 325 325 326 327 331 336 338 339 339 339
350 349 350 350 349 350 350 350 351 350 350 349 348 348 347 347 346 346 346 346 345 345 346 345 345 345 345 345 346 345 346 344 341 335 331 329 329 330 331 331 330 330 330 329 328 326 325 325 325 325 325 325 326 325 326 325 326 328 331 335 338 339 339
348 348 349 349 349 350 350 350 351 350 350 350 349 348 348 347 347 347 346 346 346 346 345 345 346 346 346 346 346 346 346 346 346 343 338 332 328 327 328 329 329 329 329 328 327 326 325 326 325 325 325 326 326 326 326 325 325 326 328 331 334 336 338
349 350 349 348 348 348 348 349 350 350 350 350 349 349 349 348 347 347 347 346 346 346 346 346 346 346 347 347 347 347 347 348 347 347 345 339 332 327 326 327 327 327 327 326 326 326 325 326 326 325 325 326 326 326 325 325 324 325 326 327 331 333 335
343 346 348 350 349 348 348 348 349 350 350 349 350 350 349 349 348 348 348 347 348 347 347 347 346 347 347 347 348 348 348 349 349 349 349 347 342 335 328 326 325 325 325 325 325 325 325 326 325 326 326 326 326 326 326 325 324 324 324 326 328 332 333
336 339 342 345 349 350 351 350 348 350 350 350 350 350 350 350 349 349 349 348 348 348 348 348 348 348 348 348 349 349 349 350 350 350 351 350 349 346 341 334 328 326 325 324 323 324 324 324 324 324 324 325 325 324 324 324 323 323 323 325 328 330 333
333 335 336 338 342 345 349 352 351 351 350 350 350 350 351 350 350 350 350 349 349 349 349 350 349 349 349 349 349 350 350 351 351 351 352 352 351 351 349 345 339 334 330 327 325 324 323 323 323 323 323 323 322 323 322 323 323 322 323 324 326 329 331
331 332 333 334 336 339 343 348 351 352 352 352 352 351 351 351 351 351 350 350 351 351 350 351 350 350 350 350 351 351 351 352 351 352 353 353 353 353 352 351 349 345 340 335 332 329 327 325 325 324 323 323 322 322 321 321 322 323 323 324 326 329 331
330 331 333 334 335 336 338 342 346 350 352 353 353 352 352 352 352 352 352 352 351 351 352 351 352 352 351 351 351 351 351 352 352 353 353 353 353 354 354 354 352 350 348 345 341 338 334 331 329 327 326 325 324 324 323 322 323 323 324 325 326 329 332
330 330 332 334 335 336 337 339 342 345 348 351 353 353 353 354 354 353 353 353 353 352 352 352 353 353 352 352 352 353 353 353 353 354 354 354 354 354 354 355 354 353 352 350 348 345 342 338 335 332 330 329 328 327 326 325 324 325 326 326 328 330 332
329 329 331 332 335 336 337 338 340 341 343 347 350 352 354 353 355 355 354 354 354 354 353 354 354 354 354 354 354 353 354 354 354 354 355 355 355 355 355 355 355 355 354 353 352 349 347 344 340 337 335 333 331 331 330 329 329 329 329 329 330 332 333
327 328 329 330 333 335 337 338 339 339 341 343 345 349 352 354 354 355 356 355 355 355 355 355 355 356 356 355 355 355 355 355 355 355 355 355 356 356 356 356 356 356 355 355 354 352 351 349 345 342 339 337 335 334 334 333 332 332 332 332 333 334 335
324 326 328 329 330 333 335 336 338 338 340 342 342 344 348 352 354 354 355 356 356 356 356 356 356 357 358 358 357 356 356 356 356 356 356 356 356 357 357 357 357 357 357 357 357 355 354 352 349 346 343 340 338 338 337 336 336 335 335 334 334 334 335
322 323 325 327 329 331 333 335 337 337 338 340 341 342 345 349 353 354 355 355 356 357 357 356 357 357 358 359 359 359 358 358 357 357 357 358 357 357 357 358 358 358 359 359 359 358 356 354 352 349 346 343 341 340 339 338 337 337 336 335 335 335 336
323 323 322 324 326 329 330 332 335 336 336 338 340 342 344 347 350 353 354 355 355 356 357 357 357 357 357 358 359 359 359 359 359 359 358 359 359 358 359 359 359 359 360 361 361 359 358 356 354 351 348 346 344 341 341 339 338 338 337 337 336 337 338
324 323 322 322 324 326 328 330 333 335 337 338 339 341 344 346 347 350 353 355 355 355 355 355 356 356 357 357 357 358 358 359 360 360 360 360 360 360 360 360 359 359 361 362 363 361 360 358 356 353 350 346 343 342 341 340 339 339 339 338 339 340 341
323 323 323 321 322 324 326 328 330 333 335 337 337 338 341 344 346 348 349 353 355 356 356 357 357 356 356 355 355 356 356 357 359 360 361 361 360 360 360 359 359 360 361 363 364 363 361 360 357 355 352 348 346 343 342 341 340 340 340 340 340 341 342
322 323 323 322 321 322 325 327 328 331 334 335 336 338 339 340 344 346 347 349 352 354 355 356 357 358 358 357 357 355 354 355 358 359 359 360 360 359 359 358 359 361 362 363 364 363 362 361 359 358 355 352 349 346 344 342 341 341 342 341 342 343 344
322 322 323 322 321 321 323 326 328 331 333 334 335 337 338 338 340 343 345 347 349 351 352 354 356 357 359 360 359 355 350 351 357 360 360 359 360 360 360 360 361 362 363 364 364 364 363 362 360 359 358 355 352 349 346 344 343 342 342 342 343 344 346
322 322 322 323 321 320 322 324 327 330 332 333 335 336 337 338 339 340 342 344 346 348 350 351 354 355 358 360 360 357 353 353 359 362 361 360 361 361 362 363 363 364 364 364 364 364 363 363 362 361 359 358 356 353 349 347 346 345 344 344 344 345 347
322 322 322 322 322 321 321 323 326 329 330 332 334 336 336 338 338 339 340 340 342 345 347 349 350 352 355 358 359 359 358 360 363 364 363 362 362 362 363 364 364 364 365 364 365 364 364 364 363 361 361 359 358 356 353 350 349 347 346 345 345 346 347
321 322 323 322 322 322 321 322 325 327 329 332 334 335 336 337 338 338 338 337 338 340 344 346 347 349 352 355 358 360 360 361 362 363 363 363 363 362 363 364 364 365 365 365 365 364 364 364 363 362 361 360 359 358 356 354 352 350 348 347 347 347 347
320 321 323 322 322 322 321 321 323 326 329 331 333 335 336 337 337 338 338 337 336 336 339 342 344 347 349 351 354 358 360 360 361 362 361 362 363 363 364 364 365 365 365 365 365 364 364 364 363 363 362 361 361 359 358 357 355 353 351 349 349 348 348
320 321 322 322 322 322 321 321 323 325 328 331 333 334 335 336 337 338 338 338 337 334 336 340 342 344 345 348 351 356 359 361 361 361 361 360 361 363 364 364 364 364 364 365 365 364 365 364 363 364 363 362 362 361 359 358 357 356 353 352 350 349 349
319 320 321 322 322 322 321 321 322 324 327 330 332 333 334 336 336 337 338 340 339 337 337 340 342 343 343 345 349 354 360 362 363 362 362 360 361 362 363 364 364 364 364 365 364 364 364 364 364 363 362 362 362 361 360 359 358 357 356 354 352 350 350
319 319 321 322 322 322 322 322 322 323 325 327 328 330 333 335 336 336 338 339 340 341 341 342 342 342 343 344 347 354 360 363 364 365 364 362 361 361 362 363 364 364 364 363 363 364 364 365 364 363 363 363 362 362 361 360 360 359 358 356 355 352 351
318 319 320 322 322 322 322 322 322 322 323 325 325 327 330 334 335 336 337 338 340 341 341 342 343 343 343 344 345 351 358 362 364 365 365 365 363 363 362 362 361 362 362 361 361 362 363 363 364 363 362 362 363 362 362 361 361 360 360 358 356 355 351
318 318 319 321 322 322 322 321 322 322 322 323 324 325 327 329 332 335 335 336 338 340 341 342 343 343 344 344 344 347 355 361 363 364 364 365 365 364 363 363 362 361 360 360 360 361 362 363 363 361 361 361 362 362 362 362 361 361 360 359 358 356 354
317 318 318 320 321 322 322 322 322 322 322 322 323 324 324 325 329 333 334 335 336 338 339 341 342 343 343 343 343 345 351 358 362 363 363 365 365 365 365 363 363 363 362 361 361 362 362 363 363 362 362 362 362 362 362 362 362 362 361 360 359 359 357
317 318 318 320 320 321 322 322 322 322 321 321 322 323 324 324 327 330 332 333 334 335 337 339 341 342 343 343 343 344 347 354 360 362 364 364 364 365 365 364 364 364 363 362 362 362 363 364 364 364 363 362 362 363 363 363 363 363 362 362 361 360 359

ECMWFFLT1_850_thetae_096.txt.gz
Theta_e
350 349 350 350 349 348 347 347 348 347 347 347 347 347 347 347 347 346 346 345 345 344 342 340 339 336 333 333 335 336 338 338 337 334 333 334 334 335 339 344 345 344 341 338 335 335 337 338 339 339 339 340 341 341 342 343 343 345 347 347 345 345 345
349 349 350 349 349 349 347 347 347 347 347 347 347 347 347 347 346 346 346 345 345 345 344 342 341 338 334 332 333 334 336 337 336 335 334 334 335 335 337 341 343 343 342 339 336 335 335 337 338 339 339 339 339 340 340 341 343 344 346 346 345 344 344
349 349 350 349 350 349 348 347 346 346 347 346 347 346 346 347 346 346 346 345 345 345 344 343 342 341 337 333 332 332 334 335 335 335 334 333 334 334 335 337 339 340 341 339 336 335 335 335 336 338 339 339 339 339 338 339 340 340 343 345 344 344 344
349 350 349 349 350 349 348 348 347 346 346 346 346 346 346 346 346 346 346 345 345 345 345 344 343 342 341 338 334 332 332 333 333 334 333 333 333 334 335 335 335 336 338 338 336 335 335 335 335 337 339 339 339 339 338 338 338 338 339 341 342 343 343
348 349 350 350 350 350 349 349 348 347 346 346 346 346 346 346 346 346 345 345 344 345 345 345 344 343 342 341 338 333 331 332 333 333 333 333 332 333 334 335 334 334 334 335 335 335 335 335 334 335 338 339 339 339 339 339 339 338 339 339 340 341 341
346 347 350 351 349 350 350 349 349 348 346 346 345 345 345 345 345 345 345 345 345 345 345 345 344 344 343 343 342 338 332 331 332 332 333 333 332 332 333 334 334 333 333 332 332 332 334 335 334 335 336 336 336 337 338 339 339 339 339 339 339 339 340
344 345 348 351 350 350 350 349 349 348 347 347 345 345 345 344 345 344 344 345 345 345 345 345 345 344 343 343 343 342 337 332 330 331 332 332 331 331 331 332 333 332 332 332 330 330 332 333 334 334 333 331 330 330 332 334 336 337 338 339 339 338 338
342 345 347 350 350 350 350 350 350 349 348 347 346 345 345 344 345 344 344 345 344 345 345 345 345 344 344 343 343 344 341 335 331 330 331 332 331 330 330 331 331 331 331 332 330 329 330 331 331 331 330 328 326 326 326 327 328 330 333 335 338 338 338
340 343 347 349 350 351 351 350 350 349 348 347 346 346 345 345 345 344 345 345 345 345 345 345 345 344 344 344 344 344 344 341 336 332 330 330 331 331 330 329 329 329 330 331 331 329 328 328 328 328 327 326 326 325 325 325 326 326 327 329 333 336 338
338 339 344 347 349 350 350 350 350 350 349 348 347 346 345 345 345 344 345 344 345 345 345 345 345 345 345 344 344 344 344 344 342 338 334 331 329 329 329 329 328 328 328 329 330 330 329 328 327 327 325 325 325 325 325 325 325 326 326 326 327 330 334
336 337 340 343 346 348 349 350 350 350 350 348 347 346 346 345 345 345 344 345 345 345 344 345 344 344 345 344 344 344 344 344 344 343 341 337 334 330 328 329 329 328 327 327 328 330 330 329 329 328 327 325 325 325 325 326 325 325 326 326 325 326 329
333 335 338 339 342 345 347 349 349 349 350 349 348 347 346 346 345 345 344 345 345 345 344 345 344 345 345 344 345 344 344 345 344 344 344 343 341 336 332 329 328 328 328 327 327 328 329 330 330 330 329 327 326 325 325 325 326 325 325 325 326 325 326
331 332 334 337 340 342 344 346 348 349 349 349 349 348 346 346 345 345 345 344 344 344 344 345 345 345 345 344 345 345 345 345 345 345 344 344 344 343 339 335 330 328 328 327 327 327 328 329 330 330 330 328 327 326 325 325 325 325 325 325 326 326 325
330 329 330 334 338 340 341 343 345 348 348 348 349 348 347 347 346 346 345 345 345 344 344 345 345 345 345 344 345 345 345 346 345 345 345 345 345 345 344 342 338 334 330 328 327 327 327 328 327 328 328 328 327 325 325 325 325 325 326 325 326 326 325
328 328 328 330 334 337 339 341 342 345 347 348 348 348 347 347 347 347 346 345 345 345 344 345 345 344 345 345 345 346 346 346 346 345 345 346 346 346 346 346 345 342 339 334 330 327 326 327 326 327 327 327 326 326 325 325 325 326 326 326 326 325 325
326 326 327 327 330 333 337 339 341 343 345 347 348 348 348 347 347 347 347 346 346 346 345 345 345 345 345 345 346 346 346 346 346 346 346 346 347 347 347 347 347 347 346 343 339 332 328 326 325 325 325 325 325 325 325 324 325 325 325 325 324 324 324
325 325 325 326 327 329 333 336 339 342 344 346 347 348 349 349 348 347 347 347 347 347 346 346 346 346 346 346 347 346 347 346 346 346 347 347 348 348 348 348 348 349 349 349 348 344 339 334 330 327 325 324 324 324 323 323 322 322 322 322 322 322 322
324 324 324 324 325 326 329 332 336 338 341 343 345 347 348 349 350 349 348 348 347 347 347 346 346 346 346 347 347 346 347 347 347 347 347 347 348 348 349 349 349 350 350 350 350 350 348 346 341 337 333 330 328 327 326 324 323 322 322 321 321 321 321
323 323 323 323 324 325 327 330 334 336 337 339 342 345 347 348 350 351 350 349 348 348 348 347 347 347 347 347 347 347 348 347 347 348 348 348 349 349 349 350 350 351 351 351 352 352 352 351 349 347 344 341 337 334 331 329 327 326 325 324 323 323 323
322 322 322 323 323 324 325 328 331 333 335 337 338 341 345 347 349 352 352 351 350 349 349 348 348 348 348 348 348 348 348 348 348 349 349 349 349 350 350 350 351 352 351 352 352 353 353 353 353 352 351 349 346 342 338 335 332 331 330 328 327 326 326
322 322 322 322 322 323 324 326 328 330 333 335 336 338 342 346 348 351 353 353 352 351 350 349 349 349 349 349 349 349 349 349 349 350 350 350 350 350 351 351 352 352 352 353 353 353 354 354 354 354 354 352 351 349 344 339 335 334 333 332 332 331 330
322 322 322 322 322 322 323 324 326 327 330 334 335 336 339 344 347 349 352 353 354 353 352 351 351 350 350 350 350 350 350 350 351 351 351 351 351 351 352 352 352 352 353 354 354 354 355 355 355 355 355 354 354 353 349 343 337 337 336 335 335 335 334
322 322 322 322 323 323 322 323 324 325 327 331 334 335 337 340 344 347 350 352 354 354 354 354 352 352 351 351 351 352 352 351 352 352 352 352 353 353 353 354 354 354 354 354 354 355 355 356 356 356 356 356 356 355 353 346 340 339 338 336 337 337 336
322 322 322 322 322 323 322 322 323 324 325 328 332 335 336 337 341 344 348 350 352 353 354 354 354 354 354 353 353 353 353 353 353 354 354 354 354 355 355 354 353 354 355 355 355 355 356 357 357 357 357 358 359 358 356 349 342 340 340 338 339 340 338
322 322 322 322 322 322 322 323 323 323 323 326 330 333 335 336 337 340 344 347 348 349 352 354 355 355 356 356 356 355 355 355 355 355 355 355 355 356 356 355 352 352 354 355 354 354 355 356 357 357 358 358 360 360 359 354 347 343 342 341 341 341 341
320 321 322 322 322 322 322 323 323 323 323 325 328 332 334 335 336 338 340 342 344 346 349 351 353 355 356 356 357 357 357 357 358 357 357 357 356 357 357 356 354 353 354 355 354 354 355 356 356 357 358 358 360 361 361 358 352 345 343 342 343 343 343
319 320 320 321 322 322 322 322 322 322 323 324 327 330 332 334 336 337 338 339 340 342 345 347 351 353 355 356 356 356 357 358 358 359 358 358 358 357 357 356 355 354 355 355 356 356 357 357 356 356 358 359 360 361 361 361 358 352 346 344 344 344 344
319 319 319 320 321 322 322 322 321 322 322 324 326 330 332 333 335 336 337 338 339 340 342 344 347 350 354 357 357 356 356 356 356 357 357 357 357 357 356 356 355 356 356 356 357 358 358 358 358 357 359 361 361 361 362 362 361 358 354 350 346 345 345
318 319 319 319 320 321 322 322 321 322 322 324 326 330 332 333 334 335 337 338 338 339 339 339 341 344 349 352 354 357 357 357 356 356 356 356 356 355 356 356 356 357 357 357 358 359 359 360 359 360 361 362 362 362 362 362 362 361 359 356 351 348 346
318 318 319 319 319 320 321 322 322 321 322 323 326 329 331 333 334 335 336 337 338 338 338 337 336 339 342 345 349 354 357 358 359 359 358 358 358 357 357 357 358 358 359 359 359 360 360 360 361 361 362 363 363 363 363 363 363 362 362 360 357 353 349
317 318 319 319 319 319 319 321 322 322 321 322 325 328 329 331 333 335 336 337 338 338 338 337 335 335 336 340 345 349 353 356 358 360 361 361 362 362 361 360 360 360 359 359 359 360 361 360 361 362 362 363 363 363 364 364 363 363 362 361 360 358 354
317 318 318 318 319 319 319 320 321 322 321 322 323 326 327 328 331 333 335 336 337 338 339 339 337 334 333 337 343 345 348 351 355 358 361 362 362 363 363 363 362 361 361 360 360 360 361 361 361 362 362 363 363 364 364 364 363 363 362 362 361 361 359
315 317 317 317 318 319 319 319 321 322 322 321 322 323 324 325 327 330 333 335 336 337 338 340 339 337 335 337 341 343 346 350 353 356 358 359 360 361 362 363 363 362 362 361 361 361 361 362 362 363 362 363 363 363 364 364 364 363 363 362 362 361 360
312 315 317 317 318 319 319 319 320 321 321 321 322 322 323 324 324 327 330 333 334 336 337 338 339 339 339 339 340 341 344 349 353 356 358 359 360 362 363 363 363 361 360 359 359 360 361 361 362 363 362 363 363 363 363 364 364 364 363 362 362 362 361
311 313 316 317 317 318 319 318 318 319 320 321 322 321 322 323 324 325 327 329 332 334 335 337 338 339 339 340 340 341 342 345 350 356 359 361 362 363 365 364 362 359 357 357 357 357 358 359 361 361 361 361 361 361 362 362 362 363 362 362 361 361 361
311 312 314 317 317 318 318 317 318 319 320 321 321 321 321 322 323 324 325 326 329 332 334 336 337 338 339 340 340 341 342 342 345 352 358 361 361 361 362 362 360 358 357 356 357 358 358 359 360 360 360 362 362 362 361 361 361 361 362 361 361 361 361
311 311 313 316 317 317 317 318 318 319 320 320 321 321 321 321 322 323 324 324 326 330 334 336 336 338 339 340 340 341 342 342 343 347 354 359 359 358 356 356 357 358 357 357 358 359 359 360 360 361 362 362 363 363 362 362 362 362 362 362 361 361 361
312 311 312 314 317 317 317 317 318 319 320 320 320 321 321 321 321 322 324 324 325 328 332 334 335 337 339 339 340 341 342 342 342 344 349 356 359 359 357 355 355 356 357 358 360 360 361 362 362 362 362 362 363 363 363 363 363 363 363 363 362 362 362

ECMWFFLT1_850_thetae_102.txt.gz
Theta_e
353 355 356 355 354 353 353 352 352 352 352 352 353 353 353 352 351 351 349 346 345 345 345 345 343 342 341 338 337 336 335 335 335 336 336 337 338 339 337 340 345 348 351 353 350 346 343 343 343 343 343 343 344 345 344 345 346 346 346 345 345 346 346
350 352 354 354 355 354 354 353 353 353 352 352 353 353 353 353 351 349 347 346 346 346 345 344 344 345 344 341 338 336 335 335 335 335 337 337 338 337 335 336 340 344 348 352 351 347 343 342 342 343 343 343 343 345 345 346 346 346 346 346 346 345 344
348 349 350 351 353 355 355 354 352 353 353 352 353 353 353 353 352 348 347 347 347 347 346 345 345 344 345 344 341 337 335 334 334 335 336 337 337 337 336 334 335 339 344 347 349 347 345 343 341 342 343 343 344 344 345 346 346 346 346 346 346 345 344
346 348 349 349 350 352 354 354 353 353 354 353 353 353 354 352 350 348 348 348 347 347 347 346 345 345 345 345 344 342 337 334 333 333 334 336 337 337 337 335 333 336 340 343 345 348 346 344 341 342 342 342 343 343 344 344 345 345 345 346 346 346 345
346 347 347 348 349 350 352 353 353 354 354 354 353 353 353 352 350 349 349 348 349 348 348 347 346 345 345 345 345 344 341 335 333 332 332 334 337 338 337 336 334 334 337 338 341 344 345 342 342 342 341 340 340 342 343 343 343 344 344 345 345 345 347
345 346 346 347 348 350 352 353 354 355 354 355 354 353 354 353 352 352 351 349 349 349 349 348 348 347 346 345 345 345 343 339 334 332 332 332 335 337 336 335 334 334 334 335 337 340 342 342 343 343 342 342 341 342 343 342 342 343 342 343 343 344 350
344 346 346 347 348 350 352 352 353 354 354 354 354 353 353 353 353 354 353 352 350 350 349 349 349 348 347 347 346 345 344 342 339 335 333 332 332 334 335 335 334 333 334 334 334 337 339 340 342 342 341 344 346 345 345 342 342 342 342 343 343 341 346
342 343 345 346 346 347 350 353 353 353 354 353 352 353 353 353 353 353 353 353 353 352 351 351 350 349 348 348 346 345 345 344 343 340 336 333 331 331 333 334 334 333 333 333 333 334 336 337 341 341 339 343 346 345 344 343 341 342 342 342 343 343 345
340 341 343 343 344 345 347 350 352 353 354 354 352 353 353 353 352 352 352 352 353 353 352 352 352 351 348 348 348 346 346 345 344 344 341 337 334 332 333 334 333 332 332 333 333 334 333 335 339 340 337 340 342 340 340 341 340 341 341 341 341 341 344
338 340 340 340 342 345 346 347 349 351 351 352 352 352 352 353 352 352 352 352 352 352 353 353 354 353 350 348 348 347 346 345 345 344 344 341 338 335 336 338 337 334 331 332 334 335 334 333 335 337 335 336 338 337 338 339 339 339 338 337 335 332 332
335 337 337 337 339 343 345 346 347 348 349 350 350 351 351 352 352 352 352 352 351 351 352 353 354 354 352 349 348 348 346 346 346 345 344 344 343 341 340 342 343 339 332 330 333 334 333 332 333 334 333 334 335 335 335 336 337 336 334 332 331 328 328
333 334 334 334 334 338 342 344 344 345 346 347 349 349 350 350 351 351 351 352 351 351 351 352 352 355 354 352 350 349 348 346 346 345 345 345 345 345 344 344 344 343 337 331 330 332 331 331 331 332 332 331 331 332 332 334 335 333 329 330 333 330 329
330 331 332 333 332 332 335 339 342 343 344 346 347 347 348 349 349 350 351 350 351 351 351 351 351 352 352 352 352 351 348 347 347 345 345 345 345 345 347 346 345 344 341 334 330 331 332 332 330 329 330 331 331 330 330 332 334 332 327 326 329 329 327
329 329 330 331 332 330 331 333 336 339 341 343 345 345 346 348 348 349 350 350 350 350 350 351 351 350 349 349 351 350 348 347 347 346 345 345 345 344 345 346 346 345 342 337 331 329 332 334 333 329 328 329 330 330 330 330 332 332 329 325 326 326 325
329 329 329 329 330 330 330 329 331 334 337 340 342 345 346 346 346 347 348 349 350 350 350 350 351 350 349 347 347 347 347 346 346 346 345 345 345 345 345 345 345 345 344 340 336 332 331 333 335 334 329 327 328 328 328 328 329 329 328 326 325 326 326
329 329 328 328 328 328 329 328 328 330 333 335 338 341 344 345 346 346 346 347 349 350 350 350 351 352 351 349 346 346 347 347 346 345 346 345 345 345 345 344 344 344 344 343 342 340 337 334 335 336 334 329 327 327 327 327 326 326 325 325 325 325 325
329 329 328 328 328 328 328 328 328 329 330 332 335 337 339 343 346 347 347 346 347 348 349 350 350 351 352 352 348 346 345 346 346 345 345 345 345 345 345 345 345 344 344 344 344 344 343 341 338 337 338 337 332 328 327 326 326 326 325 325 325 326 325
328 329 329 329 328 328 328 328 329 329 328 330 333 335 336 339 343 346 347 347 347 348 348 350 351 351 351 352 352 348 345 344 344 345 345 344 345 345 345 345 345 345 344 344 345 345 344 345 344 342 342 342 340 336 332 328 326 326 326 326 325 325 326
327 328 328 328 328 328 328 328 328 328 328 329 330 332 334 336 339 342 346 347 348 349 348 349 350 351 351 352 352 351 349 346 343 344 345 345 345 344 344 344 344 345 345 345 344 345 345 345 345 345 345 344 344 343 341 336 330 325 324 325 325 325 325
327 327 327 327 328 328 328 328 327 327 327 328 329 330 332 334 336 338 341 343 346 349 349 349 349 350 350 351 351 353 352 350 347 344 343 344 345 344 344 344 344 344 344 345 344 344 345 346 345 345 346 346 346 346 345 345 341 333 326 323 323 323 323
325 325 326 326 327 327 328 328 328 326 325 325 326 329 331 333 333 335 338 339 341 344 347 350 350 350 349 349 350 352 353 353 352 349 345 344 344 345 344 344 345 345 344 345 346 346 345 346 346 346 345 346 347 347 348 348 348 344 337 331 327 326 324
323 323 324 325 325 326 327 328 327 326 324 324 325 326 329 332 332 333 336 338 339 339 342 345 349 350 350 349 348 350 352 354 354 353 350 346 343 345 345 345 345 346 345 345 346 348 348 346 346 346 347 347 348 348 349 350 350 350 347 341 337 335 333
321 321 322 323 323 324 325 326 327 326 326 326 326 324 325 329 331 331 334 336 337 337 339 341 343 347 350 350 350 349 350 352 354 354 354 351 346 344 346 346 346 346 346 346 346 348 349 348 347 347 347 347 348 348 348 350 351 351 351 349 348 347 345
320 320 320 321 322 323 323 324 325 326 327 328 326 323 323 326 327 329 332 335 335 335 337 339 339 341 345 349 350 350 349 350 352 354 355 354 351 348 346 346 347 347 347 347 348 348 349 350 350 350 349 348 348 349 349 350 351 352 352 352 352 352 352
319 319 319 319 320 321 321 323 324 325 327 328 326 325 324 323 324 326 330 332 334 335 335 336 338 339 341 344 348 351 350 350 351 354 356 356 355 353 351 348 347 348 348 348 349 349 349 351 352 352 352 351 350 350 350 351 351 352 352 353 353 353 353
317 317 318 318 318 319 319 321 323 324 326 326 325 326 326 324 322 324 326 328 332 334 334 333 335 337 338 340 342 346 350 350 350 352 355 357 357 356 354 352 351 350 351 351 351 352 352 352 353 353 354 353 353 353 352 352 352 352 353 353 354 354 354
316 316 317 318 317 316 317 319 321 322 324 325 325 325 327 326 323 322 324 325 327 331 332 332 333 335 336 338 338 339 344 349 351 351 353 356 358 357 355 354 354 354 355 354 354 355 354 354 354 354 355 355 355 355 355 355 354 353 354 354 354 355 355
315 315 316 316 316 315 316 318 319 320 322 323 324 325 326 327 325 322 322 324 325 327 330 331 331 331 333 336 337 336 338 342 347 351 352 353 356 358 356 355 354 355 356 356 356 356 356 356 355 355 355 356 356 356 356 356 356 354 354 354 355 355 356
316 315 315 315 316 317 317 317 316 318 320 322 323 324 324 326 325 323 321 322 324 325 327 329 330 329 330 333 337 337 336 336 339 345 349 351 353 355 355 355 355 354 354 355 355 356 358 357 357 357 357 358 358 358 357 357 357 357 356 355 354 355 356
316 316 315 315 316 317 318 317 315 316 318 319 321 323 323 324 325 323 321 321 322 324 325 327 329 330 329 331 335 336 336 336 335 336 342 348 352 353 353 354 354 355 354 354 354 357 359 359 358 359 359 359 359 359 359 358 358 358 358 356 355 354 355
315 316 316 316 315 316 317 317 316 313 313 315 318 321 323 323 324 324 322 320 321 322 324 326 328 330 329 330 332 334 336 337 336 334 336 342 348 352 353 353 354 354 354 354 355 357 359 358 359 360 360 360 360 360 360 360 359 359 359 358 356 354 354
315 315 316 316 316 316 315 316 315 313 312 312 316 320 323 323 324 324 322 320 320 321 323 324 327 328 328 329 331 332 335 337 337 336 335 337 343 348 351 352 353 354 355 355 356 357 358 358 359 360 360 359 360 360 359 360 360 360 360 360 358 357 355
314 314 315 315 316 316 315 315 315 315 315 314 313 317 322 324 324 323 320 318 318 320 321 323 325 326 328 328 330 333 334 336 336 336 336 336 338 344 349 352 353 354 355 356 356 357 358 358 359 360 359 359 359 359 359 360 360 360 360 361 360 360 358
313 314 314 315 315 315 315 316 316 316 317 316 315 314 317 321 324 323 320 317 317 319 320 321 323 324 326 327 330 332 333 334 335 337 337 337 337 338 343 348 351 352 354 354 355 356 357 357 358 358 359 359 359 359 359 360 360 361 361 361 362 361 360
312 312 313 314 314 315 315 315 316 316 317 317 316 315 314 317 321 323 322 319 318 318 319 320 321 323 325 326 328 331 332 333 335 337 337 337 338 337 337 339 344 349 351 353 354 355 356 357 358 358 359 360 360 360 360 358 358 360 361 361 362 362 362
312 312 313 313 314 314 314 315 315 316 316 316 317 317 315 315 319 322 323 322 321 319 317 319 321 321 323 325 326 328 330 331 333 334 335 334 334 337 338 337 338 342 347 349 352 354 355 356 357 358 359 360 360 360 359 357 355 356 357 359 360 361 361
312 312 313 313 313 314 314 315 315 316 316 316 317 318 317 316 318 321 323 323 323 320 316 318 320 321 322 323 324 326 328 330 330 332 332 332 331 332 335 338 338 339 341 343 345 349 352 355 357 358 359 360 360 361 360 358 357 355 354 357 359 359 360
312 312 313 313 314 314 314 314 314 315 316 316 317 318 318 318 319 321 322 322 323 321 318 318 321 321 321 322 323 324 326 328 329 330 331 333 333 329 328 331 336 338 339 339 340 342 346 350 353 356 358 359 360 361 359 358 357 356 354 357 359 358 359

ECMWFFLT1_850_thetae_105.txt.gz
Theta_e
353 355 356 355 355 355 353 354 354 354 353 354 353 352 351 350 352 351 355 357 350 345 346 343 340 338 336 336 334 333 334 335 336 336 338 343 347 351 350 351 353 355 355 355 354 354 353 354 355 354 349 343 344 345 344 345 345 345 346 345 348 347 348
352 353 355 354 354 354 354 354 354 354 354 355 354 354 353 352 352 353 356 358 350 346 347 345 343 340 336 335 335 334 334 335 336 337 340 343 344 348 351 351 352 353 355 356 356 354 349 348 348 350 349 345 345 346 345 347 346 347 349 346 347 347 345
350 352 353 353 354 352 352 353 354 354 354 354 355 356 354 354 353 354 357 358 351 346 347 347 344 342 339 336 336 335 334 335 337 336 340 344 344 346 349 350 351 351 353 355 356 355 351 347 344 343 345 346 347 347 344 346 347 347 348 345 347 348 344
349 350 351 352 353 353 353 353 353 354 354 354 354 355 355 355 356 355 358 359 353 347 346 346 344 342 341 339 339 338 335 335 336 336 341 347 348 349 348 349 350 350 351 353 355 355 353 351 346 341 341 343 346 347 345 345 346 346 346 346 347 348 344
348 349 349 351 352 354 355 354 353 354 354 353 353 354 355 355 357 356 358 360 356 350 346 346 345 343 342 342 343 342 337 334 334 335 342 348 349 349 349 349 349 349 350 351 352 353 353 353 350 344 341 341 342 345 345 344 345 346 346 346 348 348 347
347 349 349 350 351 353 355 354 354 355 354 354 353 354 355 355 357 357 357 359 358 355 351 350 349 347 342 342 345 345 342 338 335 334 337 345 349 349 350 349 349 348 349 349 349 351 351 352 352 349 346 345 346 348 348 346 346 347 346 344 346 346 349
346 347 348 349 350 352 354 354 354 354 356 356 354 354 355 354 355 356 356 356 356 357 356 354 354 351 345 342 345 347 344 342 340 336 334 340 344 347 350 351 349 348 348 348 349 349 350 349 349 350 350 351 350 350 350 350 350 351 349 345 343 345 348
343 345 346 348 348 350 353 354 354 354 355 356 354 353 354 354 354 355 355 355 355 356 357 356 356 355 350 346 347 347 345 343 343 340 337 340 342 343 349 351 351 349 347 347 348 349 349 349 347 348 349 350 351 351 351 351 349 351 352 349 343 343 348
341 342 343 345 346 348 350 351 353 354 354 354 353 353 353 353 353 354 353 354 355 355 356 356 356 358 356 352 349 347 345 345 347 344 342 345 345 344 346 349 350 350 348 347 347 347 348 348 349 350 348 346 348 349 351 350 346 346 351 353 348 345 348
339 339 340 341 342 344 346 348 350 351 352 353 353 353 353 353 352 352 353 353 354 354 355 356 356 358 359 357 354 351 348 347 349 350 349 349 346 345 345 346 348 350 349 347 346 346 346 346 348 350 348 343 342 343 346 347 344 342 345 350 351 347 347
336 337 337 337 339 341 342 345 347 348 349 350 351 352 353 353 352 352 352 352 352 352 353 354 354 356 360 360 359 358 355 352 352 353 353 350 347 345 345 345 345 347 348 348 345 344 346 346 345 349 347 340 336 337 339 340 341 339 341 348 350 347 347
334 335 334 334 335 337 339 342 344 345 345 347 349 350 351 352 352 353 352 351 350 350 352 353 354 354 358 360 361 361 359 357 355 354 353 352 349 346 345 344 343 344 346 348 347 344 345 346 346 347 345 337 332 334 335 335 338 337 339 347 350 348 348
332 333 331 332 333 334 336 338 340 342 343 345 346 348 350 351 351 353 354 354 352 350 350 351 353 354 356 358 360 360 360 359 357 355 353 352 351 348 346 344 343 343 344 346 347 346 343 344 347 347 345 337 332 334 335 332 333 334 335 341 348 349 349
332 332 331 331 332 332 334 335 336 339 341 342 344 346 347 349 349 350 352 354 354 353 352 351 351 353 356 358 359 360 360 360 359 357 355 353 353 351 348 346 343 343 342 343 346 347 344 342 344 347 348 343 336 335 338 335 330 331 332 334 340 346 349
333 332 331 331 331 332 332 332 334 336 337 339 342 344 346 347 347 348 349 351 353 352 352 353 353 353 354 357 358 359 359 359 359 359 358 356 354 353 350 348 346 344 344 344 344 345 344 342 342 343 347 349 344 338 340 341 335 329 330 332 334 337 343
333 332 332 332 331 332 332 331 332 333 334 336 338 340 343 344 346 347 347 348 350 350 351 353 353 352 353 355 356 357 358 359 359 359 359 358 358 355 351 348 349 347 345 346 346 345 345 344 343 342 343 349 349 344 340 342 340 333 328 330 331 332 335
332 332 332 332 332 332 331 331 331 331 333 334 336 338 339 340 342 345 346 347 347 348 350 351 352 351 352 354 355 356 356 357 358 359 359 359 360 358 354 350 350 351 348 348 348 347 347 347 345 343 342 344 349 348 344 342 341 337 330 327 330 330 330
331 331 331 332 332 332 331 331 332 332 332 333 334 336 337 337 339 342 345 347 347 347 348 348 349 350 351 353 354 355 356 355 357 359 359 359 360 360 357 353 353 354 352 351 351 351 351 350 349 345 342 341 343 347 348 346 343 338 332 326 327 329 329
329 330 330 331 331 331 332 332 332 332 332 333 333 333 335 336 337 339 342 344 345 346 347 348 348 349 350 352 353 353 354 354 355 357 357 358 358 359 358 355 354 354 354 353 353 354 354 353 352 349 346 344 342 343 345 345 345 343 336 329 325 326 328
328 329 330 330 330 330 331 332 332 331 331 332 332 331 333 335 335 337 340 341 343 344 345 348 349 350 352 353 353 354 353 352 353 356 357 356 357 358 357 355 353 351 353 354 354 354 355 353 352 350 347 345 345 344 344 344 345 346 342 336 329 326 326
327 328 328 328 329 329 329 330 331 329 329 331 331 329 331 333 333 335 338 339 341 342 342 344 347 349 352 352 352 353 353 353 353 354 356 356 358 358 356 356 355 353 353 355 355 355 355 351 350 349 346 345 346 346 347 346 345 345 345 343 338 331 327
325 325 326 326 326 327 328 328 329 329 329 332 332 328 329 331 330 332 336 337 338 340 340 341 343 344 348 349 349 350 351 352 353 354 355 356 357 358 357 357 358 357 355 354 354 355 355 353 351 350 348 346 345 345 348 349 348 347 346 346 344 339 336
323 323 324 324 323 325 326 326 327 328 328 331 332 329 329 329 327 328 333 335 336 338 339 339 340 340 342 345 347 348 349 350 351 353 354 355 356 357 358 358 359 358 357 357 355 354 355 355 355 354 352 350 348 347 347 347 348 348 347 347 347 346 345
322 322 322 323 322 323 324 324 324 326 328 329 330 329 329 330 326 324 329 332 333 335 337 336 336 336 338 341 342 345 348 349 350 350 352 354 356 356 357 357 358 358 357 358 356 355 354 354 355 356 356 355 354 351 349 347 347 347 347 347 348 348 348
320 320 320 321 321 322 323 322 322 325 326 327 328 327 328 330 329 325 326 327 329 334 336 333 330 331 335 337 339 341 343 346 348 349 350 351 354 356 356 356 355 356 356 356 356 356 355 354 354 354 356 356 356 356 354 351 349 348 348 348 348 348 349
319 319 319 319 320 321 321 321 321 323 323 324 326 326 326 329 330 329 327 324 327 333 333 328 327 328 330 333 336 338 339 342 344 347 349 350 352 354 355 355 354 354 354 354 355 355 355 355 355 354 354 355 356 356 356 355 354 352 350 349 349 349 349
318 319 319 319 319 320 319 320 322 322 322 323 324 325 326 328 329 329 329 326 328 332 330 324 324 327 327 328 332 335 339 341 342 342 344 346 349 352 353 353 354 354 353 353 352 353 353 353 354 354 354 355 355 356 356 356 356 355 353 351 350 350 350
318 319 319 319 319 319 319 320 321 322 322 322 322 323 325 326 327 328 329 328 330 331 328 323 322 324 326 327 328 332 337 339 340 340 341 343 343 346 350 351 351 353 353 353 352 352 352 353 353 354 356 357 356 356 356 356 356 357 356 355 353 353 352
319 319 319 319 319 320 320 320 321 322 322 322 322 322 323 323 325 328 328 329 329 329 326 323 321 321 325 327 327 328 331 336 339 340 342 342 340 341 347 351 350 352 354 354 353 352 352 353 353 353 355 357 358 358 357 357 357 358 358 357 357 356 356
319 319 319 319 319 320 320 320 321 321 321 322 322 322 322 322 324 326 328 328 329 328 325 323 321 320 322 325 327 327 326 332 337 339 341 342 341 340 344 348 350 351 352 353 353 352 352 352 352 352 354 355 357 359 359 359 359 359 359 359 359 358 358
318 318 318 318 319 319 320 320 320 320 320 320 321 322 323 323 322 324 326 328 329 328 327 325 324 322 320 321 326 328 326 327 334 338 340 341 341 340 341 343 347 351 352 352 352 353 353 353 353 353 355 357 358 359 359 359 359 360 360 359 359 359 359
317 317 317 318 318 318 319 319 319 319 320 320 321 322 323 323 323 323 325 327 329 328 328 328 327 324 321 321 323 326 328 328 330 334 338 339 340 341 341 340 343 347 351 352 352 352 354 354 354 355 355 356 357 358 358 358 358 359 360 359 359 359 359
316 316 316 316 317 317 318 318 318 319 319 320 320 321 322 322 323 323 322 324 327 328 327 328 327 325 323 323 322 323 328 330 328 329 333 338 340 341 341 342 341 342 345 349 351 353 354 354 354 355 354 354 355 355 356 356 354 356 359 360 359 359 359
315 315 315 315 316 316 317 317 317 318 318 319 319 320 320 320 321 322 322 321 323 326 327 327 327 326 325 324 323 324 327 330 329 328 329 334 338 339 340 341 342 341 341 343 345 348 351 353 354 354 354 355 356 356 356 355 353 354 357 358 358 358 359
314 314 314 315 315 316 316 316 317 317 317 318 319 320 320 320 320 322 323 322 322 325 327 327 326 326 325 326 326 327 328 330 330 330 329 330 334 336 338 338 339 339 340 339 339 340 342 345 350 353 354 354 354 355 355 355 356 357 357 357 357 358 360
313 313 314 314 314 315 316 316 316 316 317 317 318 319 319 320 320 321 322 322 322 324 326 326 326 325 325 327 328 328 329 329 329 329 329 329 332 333 333 334 335 335 335 335 335 336 337 337 340 346 351 353 353 354 355 355 356 357 357 357 358 359 359
313 313 313 314 314 314 315 315 315 316 316 317 317 318 318 319 320 320 322 322 322 324 325 325 325 325 325 326 327 327 327 326 325 327 327 329 331 332 331 330 331 331 331 331 330 331 334 336 336 339 343 346 347 349 350 353 355 357 357 357 358 359 359
313 313 313 313 314 314 314 314 314 315 315 316 316 317 318 318 319 320 321 322 322 323 324 324 324 324 324 325 325 326 326 325 325 327 327 328 331 331 331 331 330 328 329 331 329 327 329 332 336 338 339 338 339 340 342 345 349 352 354 356 357 358 359

ECMWFFLT1_850_thetae_108.txt.gz
Theta_e
357 354 354 352 351 351 351 352 350 348 349 347 346 348 348 349 349 350 355 353 346 341 340 339 337 334 333 332 332 333 334 335 338 341 341 341 342 344 342 346 353 353 351 349 349 353 354 354 352 346 344 346 347 346 345 345 346 346 347 347 348 347 345
357 355 354 354 353 352 352 354 353 350 350 349 347 347 347 348 349 350 353 354 348 343 341 340 338 336 335 333 332 333 333 334 335 336 339 341 342 344 343 343 349 355 355 353 352 354 352 351 352 348 344 344 346 346 344 344 344 344 345 345 345 345 344
354 354 354 355 355 355 355 356 355 353 352 352 350 348 348 347 348 350 353 354 351 346 343 341 338 336 336 335 334 332 332 333 334 334 336 339 341 344 345 343 345 350 355 357 355 354 351 350 351 350 347 344 344 347 345 345 345 344 346 344 344 346 345
351 351 352 354 355 355 356 356 355 356 355 354 353 350 350 349 349 350 353 355 355 350 345 343 340 337 336 336 334 334 333 332 333 333 335 339 340 343 348 347 346 348 352 356 356 354 353 350 347 346 345 343 344 346 346 347 346 344 347 346 345 347 345
350 351 351 353 355 355 356 354 354 356 356 356 354 353 352 351 350 351 353 357 359 355 348 346 346 343 340 337 337 337 334 333 334 332 336 345 344 343 347 348 346 347 349 352 354 355 355 351 346 342 341 343 343 344 344 346 347 346 346 347 347 347 344
349 350 351 352 354 355 356 355 353 353 355 356 354 354 354 353 352 352 353 356 359 359 356 354 354 352 347 341 339 342 338 332 335 334 336 348 350 346 347 348 347 347 347 348 350 354 356 353 348 341 339 340 341 344 345 343 346 347 346 347 348 347 345
346 348 350 351 352 353 355 357 355 354 354 355 354 354 353 353 354 353 353 356 358 359 359 359 359 356 353 348 342 346 344 333 333 336 337 346 351 350 349 349 349 348 347 346 348 351 353 352 351 345 339 339 342 348 349 343 343 345 345 346 347 348 347
344 346 348 350 350 351 353 355 357 355 353 354 354 353 352 353 355 354 353 357 359 360 359 358 359 356 356 354 347 349 352 342 333 334 337 345 351 351 350 350 350 349 348 348 349 350 348 346 350 348 341 342 346 349 350 347 343 343 344 345 344 345 346
341 343 345 347 348 349 350 352 355 356 354 355 354 353 354 355 354 354 355 356 358 359 358 357 356 354 354 357 353 352 355 352 343 336 336 345 350 351 350 351 350 349 349 349 348 349 349 345 346 345 339 344 347 346 349 349 343 341 344 346 345 342 343
339 340 342 344 346 347 348 349 352 354 354 356 356 355 355 355 354 354 356 357 357 357 356 355 355 354 353 356 357 355 355 355 353 348 343 345 348 350 350 350 351 350 349 349 348 348 350 348 347 343 337 340 343 339 342 345 341 338 341 347 348 343 341
336 338 340 342 344 345 346 347 349 350 351 353 354 354 354 353 353 353 354 355 355 355 356 356 356 356 353 353 355 354 354 355 355 354 352 350 348 348 348 348 350 351 350 349 348 348 349 349 349 348 341 338 338 336 336 338 337 335 337 342 346 344 341
335 337 337 339 340 342 343 344 345 347 348 349 350 351 353 352 352 353 353 353 353 353 354 355 356 356 354 353 353 352 352 353 354 354 354 352 349 345 346 347 348 351 351 348 347 347 349 348 348 350 347 342 337 335 334 334 335 336 337 338 340 343 343
335 336 336 336 337 338 340 341 343 345 345 347 348 349 351 351 352 354 355 354 352 352 352 352 353 354 353 353 353 352 351 351 353 353 352 352 351 346 345 345 345 348 350 349 348 347 347 348 347 347 348 346 340 335 332 333 334 334 335 336 338 342 344
334 335 335 335 335 336 337 339 341 343 343 344 345 345 348 349 350 351 353 354 354 353 353 351 350 351 352 352 352 354 354 351 351 352 351 351 350 348 345 344 344 345 348 348 348 347 346 346 348 348 347 347 343 338 333 332 332 333 334 334 336 342 345
335 334 334 333 334 335 335 337 338 339 340 341 342 342 343 345 346 348 349 352 353 354 354 353 351 351 351 351 352 354 356 355 352 352 352 351 351 349 347 345 344 343 344 345 347 347 346 344 346 348 349 348 344 342 339 335 331 330 331 333 332 335 341
334 334 334 333 333 334 335 335 336 337 337 338 339 340 340 342 343 345 346 348 350 352 353 353 353 352 351 351 352 354 355 355 353 352 352 353 353 352 349 345 344 344 343 343 344 346 346 345 344 345 348 349 348 345 343 341 336 331 328 331 331 330 333
333 333 333 333 334 334 334 334 334 336 336 336 337 338 338 340 342 343 345 346 347 348 350 350 352 352 351 351 351 352 353 354 353 352 352 353 353 353 353 350 347 345 344 343 343 344 345 345 344 343 345 347 349 348 347 345 343 337 330 328 329 329 329
332 333 332 333 333 333 333 333 333 335 335 334 334 336 336 338 341 342 343 344 345 346 347 348 349 349 350 350 350 350 352 353 354 354 353 353 352 353 353 354 353 350 348 345 344 343 344 344 344 343 343 344 346 348 349 348 348 345 338 331 328 328 329
331 331 331 331 332 332 332 332 332 333 334 334 333 334 334 335 338 341 342 342 343 345 345 346 348 348 349 350 350 350 352 353 353 354 353 354 354 353 353 354 356 355 353 350 347 345 344 344 345 344 343 342 342 345 348 349 350 349 346 340 334 330 329
329 330 330 330 330 331 331 331 331 332 334 334 333 334 334 334 335 338 340 340 341 342 343 344 346 347 347 349 349 350 351 351 352 352 352 353 353 355 356 356 356 358 358 355 352 349 347 346 346 347 345 342 341 341 344 347 349 349 349 346 342 336 333
328 328 328 327 328 330 330 329 329 330 332 333 333 333 334 334 333 334 337 339 339 340 340 341 343 345 347 348 349 350 351 351 352 352 352 352 353 354 356 357 357 357 357 356 354 352 351 350 349 350 350 348 344 341 341 342 345 346 346 347 346 344 341
327 326 326 326 326 327 328 326 326 328 329 331 331 331 332 334 333 331 333 336 337 338 339 338 337 339 342 345 348 350 351 351 352 352 352 352 354 354 355 356 356 356 355 355 353 351 351 352 353 353 352 352 351 349 345 343 342 343 343 344 344 345 345
325 324 324 324 324 326 327 324 323 326 327 329 330 328 329 333 334 333 332 332 333 337 338 334 331 331 333 336 340 343 347 348 349 350 351 351 353 354 354 354 355 354 354 354 353 350 349 351 353 354 355 355 355 354 353 350 347 345 343 343 343 343 344
322 322 322 322 322 324 324 322 322 325 325 326 328 326 326 330 333 333 332 330 330 335 335 329 325 325 327 329 331 334 339 344 346 347 347 348 350 351 352 353 354 355 354 354 354 352 350 349 351 353 356 357 357 356 356 355 354 352 349 347 345 345 344
321 321 320 320 322 322 320 319 321 324 324 324 326 324 325 329 330 331 331 329 329 333 335 329 323 321 322 324 326 328 331 337 342 344 345 346 348 349 350 351 352 354 355 354 354 353 352 351 351 351 353 356 357 357 357 357 357 356 355 352 350 348 347
321 321 320 320 321 320 318 319 321 323 323 324 324 323 324 327 328 329 329 328 328 332 334 331 326 321 319 320 322 324 326 329 334 338 341 344 345 347 349 350 350 351 352 354 354 353 353 352 353 352 351 353 355 355 356 357 357 357 357 356 355 353 352
320 321 321 320 320 320 320 321 322 322 323 324 324 324 325 325 324 323 323 326 329 332 332 330 328 324 321 319 319 322 324 325 327 331 337 342 343 346 348 349 349 350 350 351 351 353 353 353 352 352 352 352 353 355 355 355 356 356 357 357 358 357 355
320 321 320 320 320 321 322 322 322 322 323 323 323 323 322 320 320 320 320 323 328 330 330 330 329 327 324 322 319 320 322 323 324 327 334 339 341 342 345 347 349 351 351 350 350 351 352 352 352 352 352 352 354 357 357 355 354 354 354 355 356 357 357
321 320 320 320 320 321 321 321 322 322 321 321 321 320 317 316 317 319 321 323 324 326 329 331 328 326 326 326 324 321 321 323 324 325 328 332 335 339 342 345 348 350 351 351 351 351 351 352 353 353 352 352 354 356 356 354 353 351 351 351 351 351 353
319 319 319 319 320 321 320 320 321 321 321 321 321 320 318 317 317 319 322 324 324 325 329 331 329 327 329 330 327 323 322 323 326 330 329 328 328 334 338 341 344 348 350 350 351 352 351 352 353 353 352 353 353 353 354 354 353 353 353 354 352 351 351
318 318 319 319 319 319 319 319 320 320 320 321 321 321 321 321 321 321 323 323 323 323 324 326 327 328 330 330 329 326 322 319 324 333 334 327 323 328 334 338 341 344 346 346 348 350 351 351 353 353 353 353 353 352 353 353 354 355 355 354 354 354 353
318 318 318 318 318 318 318 318 319 319 320 320 320 321 321 321 322 323 323 321 321 321 321 322 325 328 329 329 328 326 322 319 324 333 332 326 323 326 331 337 341 342 343 344 344 346 348 349 352 354 353 353 353 353 353 352 353 353 354 354 355 355 354
317 317 317 317 317 317 317 318 318 319 319 319 319 320 320 321 321 322 322 322 323 324 324 322 322 324 327 329 328 326 325 323 325 329 331 331 330 327 328 335 341 342 342 343 343 344 346 346 348 350 351 353 353 353 353 353 353 353 353 354 355 355 355
316 316 316 316 317 317 317 317 318 318 318 318 319 319 319 320 320 321 321 322 322 324 324 323 322 323 326 328 328 327 327 326 326 329 332 333 333 331 329 331 335 338 339 340 342 343 343 341 341 341 344 347 349 349 351 351 352 353 353 353 354 355 355
316 316 315 315 316 316 316 317 317 318 318 318 318 318 318 319 320 320 321 321 321 323 324 324 324 325 326 328 328 328 327 327 328 331 331 330 331 333 332 329 327 329 333 337 339 340 339 337 337 337 339 341 343 345 347 348 350 352 354 353 354 355 355
315 315 315 315 315 315 316 316 316 317 317 317 317 317 318 318 319 319 320 321 321 322 323 323 324 324 325 327 327 327 327 328 329 329 328 327 328 331 331 329 327 327 328 331 334 334 333 333 334 334 336 337 338 340 342 343 345 349 352 353 353 354 354
314 314 314 314 314 315 315 315 315 316 316 316 316 316 316 316 316 317 318 319 320 321 321 322 324 324 325 326 326 326 326 327 327 327 327 326 327 329 330 330 329 327 326 327 329 330 330 330 330 331 331 333 335 338 340 340 341 343 346 348 348 350 352
313 314 313 313 314 314 314 314 314 315 315 315 315 315 314 314 315 316 317 318 319 320 320 321 322 323 324 325 325 325 325 325 325 327 327 326 326 327 329 329 329 328 326 325 326 328 328 328 328 328 328 330 332 334 337 339 340 341 341 342 342 342 346

ECMWFFLT1_850_thetae_111.txt.gz
Theta_e
357 356 356 354 352 350 347 347 348 347 347 346 346 347 346 347 349 348 349 348 340 334 334 333 333 335 335 333 333 334 333 335 341 345 344 344 345 345 346 348 349 348 349 351 350 349 347 344 343 344 348 349 349 348 346 346 348 349 351 351 347 345 342
356 355 354 353 352 351 348 349 348 348 348 347 346 347 347 347 349 349 349 350 344 336 334 333 332 334 335 334 333 333 333 335 337 340 342 342 342 342 343 345 347 347 349 349 350 352 352 350 348 346 347 348 347 345 344 345 347 350 351 351 350 347 342
353 352 353 352 352 351 350 350 349 348 348 348 347 347 347 347 348 350 349 350 348 340 335 334 332 332 334 334 334 334 333 335 337 338 340 339 340 341 342 343 345 347 349 350 350 353 355 354 353 350 346 345 346 345 344 344 345 347 348 348 348 346 343
352 351 353 353 353 352 351 351 351 350 349 349 348 347 347 347 347 349 348 349 349 343 338 335 334 332 333 333 332 333 334 334 335 336 337 338 338 339 341 343 345 347 351 353 353 353 355 356 355 352 347 345 345 346 345 344 344 344 345 345 345 345 345
351 351 353 354 354 354 354 354 354 353 350 349 349 350 349 348 349 350 350 350 350 347 342 338 336 335 334 334 333 332 332 333 333 334 335 337 338 338 339 338 341 345 349 353 355 355 355 355 353 353 350 347 345 345 345 344 344 344 344 345 344 344 345
350 351 351 353 353 355 356 356 355 354 352 351 352 353 352 350 351 352 353 352 352 352 348 343 340 338 336 335 335 333 332 332 333 333 333 334 336 337 339 338 338 341 344 349 351 353 355 355 352 350 348 346 345 345 346 345 345 344 344 346 345 344 345
348 349 350 350 352 354 356 355 354 355 355 355 355 353 352 352 352 353 354 355 356 357 356 353 349 347 345 341 337 335 334 332 332 332 333 334 334 334 337 339 339 339 341 344 347 350 354 355 355 350 345 342 342 343 344 344 346 345 344 345 345 345 345
345 347 348 349 350 351 354 354 355 356 356 356 355 353 352 351 352 352 353 353 356 359 359 357 356 355 353 351 346 340 336 335 334 333 333 335 339 339 338 340 341 340 341 343 343 345 350 352 353 351 345 341 340 341 341 342 343 345 344 345 345 345 345
344 346 346 347 347 348 350 352 354 356 355 354 353 353 352 352 352 352 351 350 352 354 356 358 358 355 354 356 355 349 343 341 338 336 336 336 342 347 345 343 343 342 342 344 343 343 346 348 348 348 344 340 339 339 339 340 340 341 343 344 344 344 344
341 342 343 344 345 346 347 349 352 355 355 354 354 354 354 354 353 353 352 351 351 352 355 356 356 356 354 355 357 354 352 350 347 342 339 336 340 347 349 348 347 345 344 346 346 343 343 345 346 345 343 340 339 339 339 341 341 340 339 340 342 343 343
338 339 341 342 344 344 345 345 348 351 353 353 353 353 354 354 353 353 353 353 352 352 355 356 355 356 355 352 354 355 356 356 354 352 348 341 337 340 346 349 349 349 347 347 349 347 345 344 344 344 343 340 339 339 340 342 343 341 338 337 339 341 342
336 337 339 340 341 342 343 343 344 345 348 351 352 352 353 353 353 353 353 354 354 353 354 355 355 355 354 353 353 354 356 356 357 357 356 352 345 341 344 347 348 350 349 347 347 347 348 348 345 344 343 341 339 340 340 341 341 341 339 337 337 338 339
335 336 337 338 339 339 340 341 341 342 343 346 348 349 352 353 354 354 353 354 354 353 353 353 353 353 353 354 353 352 354 356 356 356 357 358 355 350 349 348 349 349 350 349 348 347 347 348 348 346 345 343 341 341 341 339 338 338 338 337 337 337 337
335 335 336 336 337 337 337 338 339 339 340 341 344 345 347 349 351 353 354 354 353 353 353 352 352 352 351 351 351 351 353 355 355 354 355 355 355 354 351 349 348 349 348 348 348 348 347 347 348 348 347 346 344 342 342 340 338 337 336 335 335 336 337
334 335 335 335 335 336 335 335 336 337 337 339 341 342 344 345 347 349 350 351 351 352 353 353 351 351 350 350 349 350 351 353 354 354 354 353 352 352 352 349 347 347 347 348 347 347 346 346 346 348 348 347 346 345 344 342 341 337 335 334 335 335 336
333 334 334 334 334 335 335 334 334 334 335 336 339 341 342 343 343 344 345 346 347 349 352 353 352 351 351 351 350 350 351 352 353 352 353 353 351 351 351 349 347 345 345 348 349 348 347 345 345 346 348 348 347 347 345 343 342 340 336 333 333 333 334
333 333 333 333 333 333 334 334 334 333 334 334 335 337 340 341 341 342 343 343 343 346 349 350 351 351 352 351 351 351 352 352 353 353 354 354 353 352 350 349 348 346 345 347 350 350 349 347 345 344 346 347 348 347 347 346 344 343 339 335 332 331 331
332 332 332 332 332 332 333 334 334 334 334 333 334 335 337 339 340 340 341 342 342 344 346 347 348 350 351 351 350 351 351 352 353 354 354 354 353 352 351 350 349 348 346 345 346 348 349 348 347 346 344 344 346 347 347 347 346 345 344 342 337 334 332
330 330 331 331 331 330 331 333 333 333 333 333 334 334 334 336 338 339 340 340 339 341 342 344 346 348 348 349 350 350 351 351 352 352 353 353 354 353 352 352 351 348 346 345 344 345 347 346 347 348 346 344 344 346 346 347 346 345 345 344 343 340 337
329 328 329 330 328 326 327 330 332 332 331 331 333 334 333 332 334 336 338 339 339 338 337 339 344 346 346 347 348 349 349 350 350 351 352 352 353 353 353 353 353 350 348 346 345 345 347 346 345 346 347 346 344 344 344 346 346 347 347 344 343 343 343
327 327 327 328 327 324 324 327 329 329 330 329 329 332 333 331 329 330 333 337 338 336 330 329 334 338 340 341 344 346 348 349 349 350 351 352 352 353 353 354 354 353 351 349 347 347 347 347 345 344 345 346 346 344 343 344 345 347 349 348 347 346 346
325 326 326 326 326 324 322 324 326 327 327 327 327 329 332 332 329 327 326 328 333 333 327 322 324 326 329 333 336 340 344 346 348 349 350 351 352 352 352 352 353 353 353 352 351 349 348 348 347 345 344 345 346 345 345 344 343 344 346 347 348 348 348
323 324 324 324 324 322 319 322 325 325 325 326 325 327 330 330 329 327 323 322 327 329 323 320 321 321 322 325 328 332 337 340 343 346 348 349 349 351 352 352 352 353 353 353 353 352 351 350 349 348 347 345 345 346 347 347 346 345 345 344 345 346 347
322 321 322 323 322 319 319 321 324 324 324 324 323 325 328 328 327 327 323 319 324 327 322 319 321 320 318 320 322 324 328 330 333 338 342 345 347 348 350 351 352 353 353 352 353 352 353 352 350 350 349 349 348 349 351 353 353 351 349 348 346 346 345
321 320 321 322 321 320 321 322 322 323 324 323 323 324 326 325 325 325 320 316 322 327 322 320 321 320 319 318 318 320 322 323 325 329 334 341 345 345 347 349 350 351 352 352 352 353 353 354 353 352 352 352 352 351 352 354 354 351 349 350 349 349 348
321 321 321 320 320 320 321 321 320 322 323 322 323 323 323 321 319 318 314 314 319 322 321 323 325 321 319 319 317 318 319 320 322 324 328 336 341 343 345 347 347 348 349 350 350 351 352 353 354 354 354 353 353 352 352 352 352 352 352 352 353 353 352
321 321 320 320 319 319 319 318 318 319 320 320 321 321 319 317 315 314 311 313 317 319 320 326 328 324 320 321 320 319 319 319 320 321 323 327 332 337 340 343 345 347 348 348 349 349 350 351 352 353 353 353 354 353 352 352 352 353 354 354 354 353 354
321 320 319 320 321 320 318 317 315 315 315 316 317 317 317 316 317 316 315 317 320 319 319 325 329 326 322 325 327 324 320 319 318 319 320 322 325 327 329 334 340 344 346 347 349 349 350 350 351 351 351 352 353 353 353 353 352 353 353 353 352 353 354
320 319 319 320 321 320 319 317 316 314 312 312 314 316 317 317 317 317 318 321 321 319 316 319 322 321 322 327 330 328 325 321 318 317 318 320 322 322 322 325 332 338 342 345 347 348 349 350 351 351 351 351 351 352 352 353 353 353 353 354 354 354 353
319 319 319 320 320 319 318 316 315 314 313 313 315 315 316 316 316 317 319 320 319 316 316 317 317 316 320 327 330 329 327 322 316 315 317 318 318 318 319 321 326 333 339 343 344 345 346 348 349 350 351 352 351 351 353 354 353 352 353 354 355 355 355
318 318 318 318 318 317 316 315 315 316 316 316 315 315 315 316 316 316 317 318 317 316 318 320 320 317 319 324 327 328 326 322 316 315 316 317 318 319 319 320 323 330 337 340 341 343 344 345 347 348 349 351 352 352 353 354 354 353 353 353 354 355 355
318 317 317 317 317 316 316 316 317 317 317 316 316 315 315 316 316 316 317 317 316 316 318 320 320 318 316 317 320 323 326 326 323 318 316 320 327 328 326 323 322 325 332 336 337 339 339 339 342 344 347 348 350 352 353 353 354 354 353 353 353 353 353
316 317 317 316 316 316 316 316 316 316 316 316 317 317 317 316 317 317 318 317 318 318 319 319 320 320 320 316 315 319 326 328 326 322 321 327 332 331 329 328 327 323 323 326 328 329 330 332 337 341 343 344 345 348 351 352 353 353 353 352 353 353 353
316 316 316 316 316 316 315 315 315 315 316 316 317 317 316 316 316 316 316 316 316 318 319 320 320 321 321 318 315 318 325 328 327 325 326 330 331 328 325 326 327 322 318 317 321 323 325 330 334 337 337 337 339 341 344 345 346 349 351 352 352 352 353
316 316 315 315 315 315 314 314 314 315 315 316 316 315 315 315 314 313 312 311 312 313 315 317 318 320 320 319 317 319 324 327 326 326 328 330 329 325 321 320 320 320 318 317 319 321 324 327 331 332 332 331 333 335 337 338 339 341 344 348 350 351 351
315 315 314 315 314 314 314 314 314 314 314 314 314 314 313 311 310 309 309 310 312 312 313 315 316 317 319 320 320 321 325 327 326 326 327 326 325 324 321 319 318 320 321 319 318 319 322 324 327 329 329 328 329 329 331 333 336 337 338 341 345 350 352
314 314 314 314 313 313 313 314 314 313 313 313 313 312 311 310 310 309 310 313 315 317 317 318 318 318 318 319 320 321 323 325 325 325 325 324 324 324 324 322 319 319 320 322 321 321 321 322 324 327 328 328 328 328 327 328 331 335 337 338 340 344 346
314 313 313 313 313 313 313 313 313 313 312 312 312 310 310 312 312 311 312 314 316 317 318 319 320 320 319 319 320 320 321 322 324 325 325 324 324 325 324 322 319 318 318 320 321 321 320 321 323 323 324 325 327 327 327 327 328 329 332 334 337 340 340

ECMWFFLT1_850_thetae_114.txt.gz
Theta_e
350 351 355 357 352 348 344 342 344 345 344 345 346 346 346 346 347 347 347 347 346 342 338 338 337 336 334 336 340 343 344 344 345 348 348 348 349 348 347 347 345 343 343 343 342 342 342 342 343 344 344 345 346 345 345 346 348 348 348 346 344 342 343
350 351 355 356 352 350 349 345 343 344 346 345 346 346 346 347 346 347 347 347 347 343 338 335 336 335 334 335 337 339 342 342 346 349 349 348 348 348 347 346 345 344 343 344 345 343 342 341 341 342 344 346 345 346 347 347 348 349 347 346 345 344 343
352 352 353 354 353 350 351 349 345 345 345 345 346 346 347 347 346 346 346 347 347 345 340 335 334 335 335 334 334 336 339 341 345 349 350 348 347 347 347 346 345 346 345 345 347 346 345 342 342 341 343 347 347 345 346 346 346 348 348 348 348 347 346
351 352 351 352 352 350 350 352 349 347 346 346 346 347 347 347 346 345 345 345 346 347 342 335 333 334 335 334 333 333 336 337 341 347 349 347 346 346 346 345 345 346 346 345 346 347 347 346 345 344 344 346 347 345 344 344 345 346 348 349 348 348 348
350 351 351 351 352 350 350 352 353 350 347 347 347 347 347 347 346 345 346 346 346 347 344 336 333 333 334 335 334 333 333 334 336 341 345 344 344 345 346 343 343 345 345 345 346 346 346 346 347 348 348 347 346 345 345 344 344 344 346 347 346 347 347
349 351 352 352 351 350 350 352 353 352 350 349 348 347 346 347 348 347 346 346 347 348 346 340 334 333 333 334 334 334 333 333 333 335 338 340 340 342 342 343 343 343 344 346 346 345 346 346 345 347 349 349 346 344 344 345 344 343 344 344 344 344 344
349 350 352 352 353 352 351 351 353 353 352 351 349 348 347 347 348 349 349 348 348 349 349 344 338 334 334 334 334 334 333 333 334 333 335 336 338 338 339 340 342 343 345 347 347 346 346 346 345 344 346 348 346 344 343 344 344 343 343 343 343 344 343
347 347 349 351 352 353 353 353 353 354 353 352 351 351 350 349 349 350 350 350 349 348 349 348 343 337 336 335 335 334 332 332 333 334 334 335 336 336 336 338 339 341 344 347 348 349 348 347 345 343 343 343 342 342 342 342 343 344 344 343 343 343 343
345 346 346 349 351 352 354 354 354 354 353 352 351 351 352 352 352 353 353 354 352 350 349 350 348 344 340 338 337 336 335 333 333 334 334 334 335 335 335 335 337 339 342 344 348 350 351 350 348 345 343 342 339 339 339 340 342 342 343 344 343 343 343
344 344 345 347 349 350 351 353 353 353 353 353 352 352 352 352 353 354 357 357 356 354 352 351 351 350 347 344 342 341 341 337 335 337 338 336 333 333 334 334 337 341 342 341 344 348 350 351 350 348 347 345 341 338 337 337 338 340 341 343 343 343 343
342 343 344 344 345 346 347 349 351 352 353 353 354 353 353 352 351 352 354 355 355 356 356 355 353 353 351 351 349 348 348 345 339 338 344 346 341 336 334 334 339 345 346 344 342 344 347 349 350 350 349 347 345 343 339 337 336 337 337 338 340 342 342
339 341 342 342 342 342 343 345 348 350 352 353 353 353 353 352 352 351 352 352 351 352 354 355 356 355 354 355 355 354 353 352 347 341 343 350 350 346 341 339 344 349 350 348 345 344 345 347 348 348 347 346 345 345 342 340 337 336 335 336 337 339 340
337 338 339 339 339 340 342 343 344 346 350 352 353 352 353 353 353 352 352 352 352 351 351 353 355 356 357 357 357 357 355 354 353 347 342 344 349 351 349 346 348 352 352 351 350 348 347 348 348 348 346 345 344 343 342 341 339 338 336 336 337 338 338
336 336 336 336 336 338 340 342 342 343 345 347 348 348 350 351 352 353 353 353 353 353 352 353 354 353 354 356 356 356 355 354 353 352 349 345 345 348 351 350 350 352 353 352 351 349 349 348 348 347 347 346 346 344 343 342 341 339 337 336 336 336 336
335 335 334 334 334 335 336 338 339 341 342 343 343 343 344 345 348 351 353 354 354 353 353 353 353 352 351 352 353 353 354 353 352 352 351 350 347 346 351 353 352 352 353 352 350 350 350 349 349 347 346 345 346 346 346 345 343 340 337 336 335 334 334
334 334 334 334 334 334 334 334 335 337 339 341 342 342 342 342 345 347 350 352 352 352 352 352 351 352 351 350 350 351 351 352 352 352 351 351 349 346 348 352 353 352 352 351 350 350 349 350 350 349 347 345 344 346 346 347 346 343 340 338 336 334 333
333 333 334 334 333 333 334 334 334 335 337 339 340 341 342 341 341 342 345 348 348 349 351 352 352 352 351 350 350 350 350 350 351 351 351 350 349 346 345 347 352 353 352 349 349 348 349 348 349 350 349 348 346 345 345 345 345 345 344 343 341 339 337
331 332 333 334 333 332 333 333 334 334 335 336 338 340 341 340 340 338 338 341 344 345 346 349 351 351 351 351 351 351 351 351 351 351 351 351 350 349 349 350 351 353 352 350 348 347 347 347 347 348 349 349 348 346 345 345 344 344 344 345 344 343 342
328 329 331 333 332 332 331 331 332 333 333 334 336 338 339 340 339 337 334 334 338 343 344 345 346 348 348 349 350 351 351 351 352 352 352 352 352 352 352 352 352 352 352 350 349 347 346 346 347 347 347 348 349 348 347 346 345 344 344 344 344 345 344
326 325 329 331 330 330 330 328 330 332 332 332 332 334 337 338 339 338 334 329 329 335 338 339 341 342 342 345 347 348 350 350 351 352 352 353 353 353 353 353 353 352 352 351 349 348 347 346 347 347 348 348 349 348 348 347 346 345 345 344 344 344 345
326 324 326 328 327 327 328 327 327 328 331 331 330 329 331 332 332 333 331 325 322 323 326 328 331 334 336 340 343 344 346 348 349 350 351 351 351 352 353 353 353 353 352 352 351 349 348 347 346 347 349 349 348 348 348 347 346 345 346 346 345 344 344
326 324 324 324 325 325 326 326 325 326 329 330 330 328 327 326 324 322 323 323 322 320 320 320 322 324 328 332 337 340 342 344 345 347 348 349 349 350 351 352 352 352 352 353 353 352 350 349 348 347 348 349 348 347 348 348 347 346 346 346 346 347 347
324 323 322 322 323 324 324 324 324 324 326 327 328 328 327 326 324 320 318 320 321 319 319 319 319 319 320 323 327 331 334 337 340 343 344 346 347 347 348 350 351 351 352 352 353 353 353 352 350 350 350 350 349 347 346 346 346 347 347 346 345 346 347
322 321 320 320 321 323 323 323 323 323 323 323 324 325 326 326 324 319 315 317 321 321 320 320 319 318 318 319 320 322 324 328 333 339 342 343 344 345 346 347 348 349 350 351 352 353 353 353 353 353 351 351 350 349 348 346 346 348 349 348 347 346 345
321 321 320 319 319 320 321 322 322 322 322 320 321 322 323 322 319 315 313 314 318 319 320 321 321 319 317 319 319 319 319 321 326 332 337 339 341 342 343 344 346 347 348 349 350 351 352 352 353 353 353 352 351 350 350 349 348 348 347 348 349 349 348
320 320 320 319 318 318 318 320 319 319 318 318 318 318 318 315 313 312 312 312 313 314 317 321 323 320 317 317 319 320 319 318 319 322 326 329 331 333 333 335 339 342 345 346 347 348 349 350 350 351 352 353 352 352 352 352 350 349 349 349 350 352 352
321 320 320 319 318 317 318 318 318 317 316 315 315 315 314 312 311 311 311 312 313 313 315 319 321 319 315 314 317 319 320 319 317 317 318 320 322 323 322 324 331 337 340 343 346 347 348 348 349 350 350 351 352 352 353 354 353 352 351 351 351 351 352
321 320 320 319 319 318 318 317 316 315 314 314 315 316 316 314 312 312 312 311 312 312 314 316 317 315 314 314 315 317 319 319 317 315 316 317 318 319 319 323 330 335 338 341 343 345 346 347 348 348 349 350 350 351 351 352 353 353 353 352 351 351 351
321 320 319 319 318 318 317 316 314 312 311 311 313 315 317 316 314 313 313 312 312 312 312 313 313 311 313 316 317 316 316 316 315 314 314 315 316 317 318 321 327 332 336 339 341 343 344 345 346 347 348 349 350 350 351 351 352 352 352 352 352 352 351
320 319 319 318 317 316 315 313 311 310 309 309 310 312 314 314 313 313 313 313 313 313 311 311 311 310 312 316 317 316 314 313 312 312 312 314 316 317 318 320 323 326 330 333 335 336 338 339 341 341 343 344 347 349 350 351 351 351 351 351 351 352 352
319 319 318 317 315 314 312 311 309 309 309 309 310 310 311 311 311 312 313 313 313 313 312 312 311 311 311 312 314 316 315 312 310 310 311 314 317 319 321 322 322 320 321 323 324 324 325 326 328 330 333 336 339 343 346 349 350 351 351 351 352 353 353
318 318 316 315 314 313 312 311 311 311 311 311 311 310 310 310 310 310 311 312 313 313 313 313 313 313 312 311 311 312 313 313 313 312 313 317 320 321 324 326 325 320 317 317 316 316 317 319 321 324 329 333 335 337 340 343 345 348 350 351 352 353 353
317 317 316 315 314 313 313 313 313 312 312 313 312 312 312 311 311 311 310 311 311 311 311 312 313 313 312 311 311 310 310 315 319 319 319 321 321 321 323 326 325 321 317 315 314 314 315 317 319 322 326 331 332 332 333 334 335 338 341 345 348 350 351
316 315 315 315 314 314 315 314 313 313 313 314 314 314 313 312 311 311 310 309 309 309 309 309 309 310 310 310 310 310 313 319 323 323 324 325 324 322 323 324 323 320 317 315 315 316 316 317 318 321 324 327 329 329 329 329 329 330 331 334 338 342 345
315 315 315 315 315 315 314 314 313 313 314 314 314 313 313 312 310 309 307 307 307 307 307 307 307 308 308 309 309 310 314 321 325 325 325 325 326 325 325 324 321 318 316 316 317 319 320 319 318 319 321 324 326 328 328 328 328 327 328 328 330 333 335
315 315 315 315 315 314 314 313 313 313 314 313 313 312 311 310 308 306 306 306 306 306 307 308 308 309 309 310 309 309 312 318 322 324 324 325 325 324 324 323 321 318 318 317 317 318 319 319 318 318 319 320 322 325 327 328 328 327 327 327 328 328 329
315 315 315 314 314 314 313 313 313 313 313 313 312 312 310 308 306 306 307 307 307 306 307 308 309 310 311 312 312 312 311 313 316 320 322 324 324 323 323 324 323 321 321 320 318 316 316 317 319 319 320 321 321 322 324 326 328 330 329 329 328 328 327
315 315 314 314 313 313 313 313 313 313 312 312 312 311 309 308 307 308 309 309 309 310 309 310 310 311 313 314 315 315 314 314 315 317 320 322 322 322 324 325 324 323 323 321 319 317 316 317 319 319 318 318 319 321 323 325 328 330 330 329 328 328 327

ECMWFFLT1_850_thetae_117.txt.gz
Theta_e
352 351 353 352 344 340 343 344 344 344 344 344 344 344 343 344 344 344 344 344 340 336 336 335 334 334 334 335 338 340 341 345 347 346 345 347 349 349 348 346 344 343 343 344 344 342 343 343 344 344 343 344 344 344 344 344 344 345 346 348 349 347 344
352 351 353 354 347 340 342 343 344 345 344 343 343 344 344 343 344 345 344 344 340 336 334 335 333 333 333 334 337 339 340 343 345 344 342 344 347 349 348 347 346 344 343 343 343 342 342 342 343 343 343 344 344 345 345 345 344 346 348 348 348 346 343
351 351 353 354 349 343 342 343 344 345 344 344 344 343 344 344 344 344 345 345 342 338 337 335 333 333 333 333 335 338 339 341 343 343 341 341 344 346 348 347 346 344 343 343 344 343 342 342 341 342 342 343 343 344 344 344 344 347 348 348 346 345 343
351 350 351 353 349 345 344 343 344 345 344 345 345 343 343 343 344 344 344 345 343 342 339 335 333 333 332 333 334 336 337 339 341 341 340 341 342 344 346 346 346 345 344 344 344 344 344 343 342 341 342 342 343 345 345 345 345 345 347 347 345 345 346
350 350 350 353 350 348 347 344 343 345 345 345 344 343 343 344 344 344 345 345 344 343 341 337 334 332 332 332 333 335 336 337 338 339 338 338 341 343 344 345 344 343 344 344 344 346 346 346 344 342 341 341 343 346 346 346 344 343 343 344 344 345 346
351 350 350 352 351 350 349 347 345 344 345 345 345 345 345 344 345 345 345 346 345 345 345 344 341 335 332 332 333 334 335 336 337 338 337 336 337 341 342 343 343 343 342 344 344 345 346 346 346 344 342 342 342 344 344 344 344 343 342 342 342 343 344
351 351 350 352 351 350 350 350 348 346 345 345 345 346 346 345 346 346 346 347 346 346 347 346 346 341 334 332 333 334 333 334 335 336 336 336 336 338 339 340 342 342 342 343 344 345 344 344 345 345 346 346 344 343 342 343 343 343 343 342 341 341 342
350 350 351 351 351 351 350 350 351 349 347 347 346 346 346 346 347 346 346 347 346 347 347 347 347 345 337 332 333 334 333 333 333 334 335 336 336 338 338 338 340 342 341 342 343 344 345 344 344 344 347 347 347 345 344 343 343 343 343 343 342 341 342
348 348 350 351 352 351 350 350 351 352 350 349 348 347 347 347 347 347 347 346 346 346 347 347 348 347 341 334 332 332 333 334 334 334 333 334 335 336 337 337 338 340 341 341 342 343 345 346 346 346 346 347 346 346 347 346 344 343 343 343 342 341 341
346 346 348 350 352 352 351 350 351 352 351 351 351 350 348 347 346 346 347 347 346 347 347 348 348 348 346 341 336 333 333 334 334 334 333 334 334 334 335 336 336 337 339 340 340 341 343 345 347 348 348 348 347 346 347 347 346 344 342 343 342 342 341
344 344 345 348 351 352 352 352 351 352 352 351 352 352 351 349 348 347 346 347 347 346 347 348 348 350 349 346 343 340 339 338 337 335 334 333 333 334 334 334 334 335 337 338 339 341 342 344 346 347 348 348 348 347 347 348 347 346 343 341 341 341 341
341 343 344 346 349 351 352 352 352 352 353 352 352 352 352 352 352 351 350 350 349 349 349 349 350 350 350 348 347 345 344 344 343 341 338 335 333 333 334 334 334 335 336 337 340 343 344 345 345 346 346 347 348 348 348 348 349 348 345 341 340 340 340
340 341 343 344 347 349 350 350 351 351 352 352 352 352 352 352 352 353 354 354 354 353 353 353 352 352 352 351 350 348 346 345 344 344 343 342 338 335 334 334 333 333 334 337 342 347 349 348 346 345 344 345 346 346 347 347 347 347 346 343 340 339 338
339 341 342 343 344 345 346 346 346 347 349 351 352 352 352 352 351 352 353 353 354 354 355 356 355 354 354 353 352 351 349 347 346 345 345 347 347 343 338 335 336 335 332 333 340 347 351 350 348 347 345 344 344 344 345 345 344 344 344 343 341 340 339
336 337 338 339 339 341 342 343 343 343 345 348 350 352 351 352 352 351 352 351 351 351 352 353 353 354 355 354 353 352 352 350 351 350 349 348 351 350 345 342 344 344 338 332 333 339 347 351 350 349 348 347 345 345 344 343 342 342 343 344 343 342 341
334 334 335 335 337 340 341 342 342 342 343 345 347 350 351 351 351 351 351 351 351 351 350 350 351 351 352 352 352 353 353 352 353 354 352 351 352 354 351 348 349 351 347 339 332 332 339 347 351 351 350 349 348 348 347 345 343 342 342 344 345 345 345
332 333 333 333 335 337 339 340 341 341 341 342 343 346 348 347 347 347 349 349 351 351 351 351 351 351 351 351 351 351 352 353 353 354 354 354 354 355 354 352 352 353 353 348 341 334 334 340 347 350 350 349 349 348 348 348 347 346 344 344 345 346 346
332 332 333 333 334 334 337 339 340 339 340 340 340 340 342 342 342 343 344 346 347 348 350 350 350 351 352 352 351 350 350 351 351 352 352 353 353 353 353 353 353 353 354 354 349 345 341 342 346 349 350 349 349 348 348 347 347 347 347 346 345 346 346
331 331 332 333 334 333 334 336 339 340 339 338 336 335 333 333 334 338 341 342 343 344 346 347 347 348 350 351 352 351 351 351 351 351 351 351 351 351 351 351 352 351 352 353 353 351 349 348 348 349 349 349 348 348 347 347 346 347 347 347 346 345 346
330 329 330 331 332 333 333 333 335 338 339 339 337 335 332 327 326 329 333 335 337 339 341 343 344 345 346 347 349 350 351 352 351 351 352 351 351 352 351 351 351 350 350 350 351 351 351 351 350 349 347 347 347 347 346 346 346 346 348 348 347 346 346
329 328 327 328 330 331 332 331 330 332 333 333 332 331 329 326 323 323 324 326 329 333 336 338 340 340 341 342 344 346 348 349 349 349 349 351 351 352 351 352 352 351 351 350 351 351 351 351 351 349 348 347 346 346 346 346 346 346 346 346 347 347 347
328 328 327 326 326 328 329 329 328 328 327 327 325 323 323 322 320 320 320 321 322 324 329 333 336 337 337 337 339 340 342 344 346 346 347 348 348 348 349 350 351 352 352 352 352 352 351 352 352 351 350 348 347 347 347 346 347 347 346 345 345 347 347
327 327 326 326 325 325 325 325 325 325 325 324 324 323 323 321 317 315 316 318 319 320 321 324 327 330 330 331 333 335 338 340 341 343 344 345 345 345 346 347 348 349 351 351 352 352 351 352 352 352 351 350 350 349 349 348 348 347 347 347 346 347 347
325 325 324 324 324 323 323 323 322 322 321 321 320 321 321 320 316 313 313 315 317 318 319 319 320 321 322 324 326 330 335 338 340 341 341 342 343 343 343 344 345 347 348 349 350 351 351 351 352 352 353 353 352 352 351 350 349 349 349 348 347 347 348
323 323 323 323 322 321 321 320 320 319 319 318 317 318 318 317 314 311 311 312 314 315 316 317 318 319 320 321 321 322 325 330 335 337 337 339 339 337 336 338 341 343 344 346 347 349 350 350 350 350 351 352 353 353 352 352 351 352 351 350 349 348 349
321 321 321 321 320 319 319 319 319 318 316 315 314 314 314 313 311 311 311 311 312 312 313 313 315 316 317 319 320 320 318 319 323 326 328 329 330 329 329 333 336 339 341 343 345 346 347 348 348 348 348 349 350 351 352 352 352 352 352 352 351 350 349
320 320 319 319 319 318 318 318 317 315 313 312 312 312 312 311 310 310 311 311 312 313 312 312 313 314 314 314 316 319 320 319 317 318 320 321 320 323 326 330 335 338 340 342 344 345 346 346 346 347 347 348 349 349 350 350 351 351 352 352 353 352 351
320 319 319 319 319 318 317 316 315 313 311 310 310 310 311 310 310 310 310 310 311 312 312 312 314 314 312 310 310 313 317 319 317 316 317 316 317 321 324 326 331 334 337 340 342 343 344 344 344 344 345 346 347 348 348 349 349 349 350 351 352 352 352
320 319 319 320 319 318 318 316 313 312 311 310 310 309 309 310 310 310 310 309 309 310 310 311 311 312 311 310 310 310 313 315 315 314 315 317 319 322 325 325 327 328 329 333 336 336 336 336 335 337 338 339 342 345 345 347 348 349 349 350 351 351 352
320 320 320 319 318 318 316 314 312 310 310 310 310 309 309 309 309 309 309 310 310 309 309 309 309 309 309 310 310 311 312 313 313 313 315 318 321 326 328 327 327 326 324 324 324 322 321 321 322 324 326 328 333 337 339 341 343 344 346 347 349 351 351
320 320 319 318 317 316 314 312 311 310 310 311 311 311 310 309 309 310 310 310 310 309 308 308 308 308 308 308 309 310 311 312 313 314 315 318 321 326 329 328 328 328 326 322 318 315 315 315 316 317 319 321 325 330 334 335 336 337 339 341 343 346 349
319 319 318 317 316 314 313 311 310 310 310 311 311 311 311 310 310 310 310 310 309 308 308 307 307 307 307 307 308 308 309 310 311 312 316 320 321 324 327 328 328 329 328 324 320 316 314 314 315 316 316 318 321 325 331 333 331 331 332 333 334 337 342
318 318 317 316 315 314 312 311 311 311 311 310 311 311 311 311 311 310 310 309 309 308 308 307 307 307 307 306 307 307 308 308 310 311 315 319 321 323 324 326 326 327 327 324 320 315 314 315 316 317 317 317 318 320 325 329 330 329 329 329 329 329 332
318 317 316 315 314 314 313 312 311 312 311 311 311 312 311 311 310 309 309 308 308 307 307 306 307 307 306 306 306 306 307 307 309 311 314 317 319 321 322 323 323 323 322 320 318 316 315 315 317 319 319 319 317 317 319 322 326 327 328 328 328 328 327
317 317 316 315 314 314 313 313 312 312 312 311 312 312 311 310 309 308 307 306 306 306 305 305 306 306 306 306 306 306 307 307 308 311 314 317 318 319 321 323 323 321 320 320 319 318 317 316 316 318 319 319 318 317 317 319 321 325 327 328 328 328 327
317 316 315 315 314 314 313 313 313 312 311 312 312 312 311 311 310 308 306 305 305 305 304 305 305 305 305 307 307 307 308 308 308 310 312 314 316 317 319 321 322 321 321 322 322 320 319 317 317 317 318 318 318 317 318 318 321 326 328 329 329 328 328
316 316 316 315 314 314 313 313 313 312 312 312 312 312 312 311 309 307 305 306 306 306 306 306 305 306 306 306 307 309 309 310 310 311 312 313 313 315 318 320 321 321 321 322 322 321 320 318 318 318 319 319 317 317 317 319 324 328 330 329 328 328 327
316 315 315 314 314 314 314 313 313 313 312 312 311 311 311 311 308 306 305 307 308 307 308 308 308 308 308 308 309 310 311 312 313 313 313 314 314 316 318 320 320 320 319 319 321 322 321 320 319 319 319 319 318 317 317 319 322 325 327 326 326 326 326

ECMWFFLT1_850_thetae_123.txt.gz
Theta_e
348 347 345 344 343 342 343 342 342 342 341 342 342 343 343 344 344 344 345 346 345 345 345 343 340 338 337 337 338 341 345 348 349 349 349 349 348 348 347 345 344 344 344 344 344 344 345 345 345 345 345 344 343 342 343 342 342 342 342 343 343 344 346
350 350 346 343 342 342 342 341 341 341 340 341 342 343 343 343 343 344 344 345 345 344 344 342 341 339 337 337 336 338 342 346 349 349 349 349 348 349 349 348 347 346 346 345 345 345 345 345 345 345 344 345 344 343 342 342 342 342 342 342 343 344 346
350 351 349 344 342 341 341 340 340 340 340 341 342 342 342 342 343 343 344 344 345 344 344 343 342 341 339 337 336 336 338 343 348 349 348 348 348 349 350 351 350 349 349 347 346 345 345 344 344 344 344 344 345 344 343 342 342 342 343 343 343 343 345
349 350 351 348 343 340 340 339 339 340 340 341 341 340 340 340 342 343 343 344 344 344 344 344 343 343 341 338 336 335 335 338 343 347 348 348 348 349 350 351 351 351 350 348 346 346 345 344 343 343 343 344 345 345 344 343 343 343 343 343 344 344 345
349 349 351 352 348 341 338 338 339 339 340 341 341 340 340 340 341 342 343 344 344 344 344 344 344 343 342 340 337 335 334 334 337 342 346 347 347 348 349 350 351 351 350 350 347 346 345 344 343 343 342 343 343 344 344 344 344 344 344 344 344 345 346
349 349 349 351 351 347 340 337 338 338 339 339 339 340 340 340 341 342 343 343 344 344 344 345 345 343 342 341 338 335 334 333 334 337 342 345 345 345 346 348 350 350 350 350 349 348 347 346 345 344 343 342 342 342 344 344 344 345 345 345 345 345 346
349 349 348 348 351 351 346 340 338 337 338 338 338 339 339 340 340 342 343 343 343 344 344 344 345 344 342 341 340 337 334 333 333 334 337 341 343 342 343 344 347 348 348 348 348 348 348 347 347 346 345 344 343 342 342 343 345 346 346 346 346 345 345
349 348 348 348 348 350 350 347 342 339 338 338 338 338 338 339 340 341 342 342 343 343 344 344 344 344 342 341 341 339 337 335 333 333 335 337 339 340 340 340 342 344 346 346 346 346 347 346 347 347 348 348 348 345 343 342 345 347 347 347 346 345 344
350 350 349 349 348 348 349 350 347 342 339 339 340 339 339 339 340 341 342 342 343 343 343 344 345 344 343 343 342 341 339 337 335 334 334 335 336 337 337 337 337 339 342 344 344 344 344 345 345 346 347 347 348 347 346 345 346 349 349 348 346 345 344
351 351 350 350 350 348 347 349 349 346 342 340 341 341 341 341 341 342 342 342 343 343 343 344 345 345 345 345 345 344 342 339 336 334 333 333 335 335 336 336 335 335 338 341 343 343 343 343 343 344 345 345 346 347 347 347 349 350 350 349 347 345 344
351 351 350 351 351 350 349 349 349 348 345 342 341 342 341 342 343 343 343 343 342 343 343 344 345 345 346 346 346 346 346 343 340 336 334 334 334 334 335 335 334 333 334 336 339 340 342 342 342 343 343 344 345 346 346 348 349 349 349 348 348 347 345
349 350 350 351 351 351 350 349 349 349 348 345 343 343 342 343 343 344 344 343 343 343 343 344 345 345 346 346 346 346 347 347 345 340 337 336 335 334 333 334 333 333 333 333 334 337 339 340 341 342 343 344 345 345 345 346 347 348 348 348 348 348 349
345 348 349 350 351 351 351 350 350 350 348 347 345 344 344 343 344 344 344 344 343 343 344 344 344 345 345 346 346 346 347 348 348 344 339 336 336 336 335 333 333 333 333 333 333 334 335 336 338 339 340 342 343 344 345 344 344 345 345 347 348 349 349
343 345 346 347 349 350 350 350 351 350 350 349 348 346 346 345 345 345 344 344 344 344 344 344 344 345 345 346 346 347 347 347 348 347 344 338 335 335 336 335 335 334 333 333 333 333 333 333 334 336 337 338 339 341 344 345 344 343 343 344 346 346 347
341 342 344 345 347 349 349 350 351 350 351 351 349 349 348 347 346 345 345 345 345 345 345 345 346 346 347 347 347 347 347 348 348 348 348 344 339 336 336 335 335 335 334 334 333 333 333 332 332 333 334 335 336 339 343 346 346 345 344 344 345 346 346
340 341 342 342 343 346 348 349 349 349 350 351 350 350 350 349 348 347 347 347 346 347 347 346 347 347 347 348 349 348 348 348 348 348 349 349 347 344 342 340 339 338 337 336 335 334 333 333 332 332 332 333 334 336 341 345 347 347 347 347 346 347 348
340 339 339 340 340 342 344 347 348 348 349 350 350 350 350 351 351 350 349 349 349 349 348 347 348 348 347 346 346 347 349 349 350 350 350 350 350 349 349 348 347 346 344 343 342 341 339 336 334 334 334 334 334 336 338 342 345 347 348 348 348 348 349
338 338 338 339 339 339 341 345 346 347 348 347 348 348 348 349 350 350 350 350 351 351 350 350 351 350 349 348 347 347 350 352 352 352 352 352 352 351 351 351 351 351 349 349 349 349 347 344 340 338 338 338 337 337 338 339 342 344 346 347 347 348 348
337 337 336 337 338 338 339 341 342 343 344 344 345 345 345 346 348 348 348 348 350 351 352 352 351 350 351 351 351 350 351 352 352 352 353 353 353 352 352 351 351 351 352 352 352 352 353 350 347 344 343 342 341 339 339 339 339 340 342 343 344 346 346
336 336 334 334 334 334 334 335 337 338 339 340 342 342 343 344 344 345 345 346 347 348 349 349 349 349 349 350 350 350 350 350 350 350 351 351 351 351 351 351 352 352 353 353 353 353 354 353 352 350 348 348 347 345 345 343 340 339 340 342 343 344 345
335 335 333 332 331 328 327 328 329 332 334 334 335 336 338 339 340 341 342 343 344 345 345 346 346 347 347 347 347 348 348 348 349 349 349 350 350 350 350 350 351 351 351 351 352 352 352 353 353 352 351 351 350 350 350 349 345 343 343 344 345 346 346
336 335 334 331 327 324 323 321 321 322 324 326 327 328 331 333 335 336 338 340 341 341 342 342 342 342 342 342 343 344 345 345 346 346 347 347 348 348 349 349 349 350 350 350 350 350 351 351 351 351 351 351 351 351 351 350 348 347 347 346 347 348 348
337 336 334 330 326 325 325 323 322 320 319 319 320 321 322 324 325 328 332 334 334 335 336 336 337 337 337 338 340 341 342 342 342 342 343 343 344 346 346 346 346 347 348 349 349 350 351 351 350 351 351 351 351 350 350 350 349 349 349 349 349 349 349
336 335 333 330 328 328 328 327 326 324 322 320 320 321 321 320 319 320 323 325 325 326 327 327 329 331 332 334 336 337 337 338 338 338 339 339 340 341 341 342 342 343 344 345 346 347 348 348 349 349 350 350 350 350 350 350 350 350 350 350 350 349 350
332 331 329 328 328 327 326 326 325 324 322 320 320 322 323 322 320 319 320 320 320 320 322 322 324 325 325 328 331 332 333 332 330 329 330 330 331 333 335 336 337 339 340 342 343 344 344 345 346 346 347 347 347 347 348 349 350 350 350 351 350 350 350
329 328 327 326 325 323 322 320 319 318 317 315 316 318 318 317 317 318 319 321 320 321 322 322 322 323 323 323 324 325 327 328 325 323 322 323 325 328 331 333 335 337 340 342 342 342 343 344 344 344 345 345 345 346 346 347 347 348 349 349 350 350 351
328 327 325 323 320 318 317 316 314 312 312 311 311 312 312 311 312 312 315 317 318 319 320 320 322 324 325 325 323 322 322 324 325 325 325 326 329 333 335 336 336 337 339 340 340 339 340 340 341 341 341 341 342 343 343 344 345 346 346 347 348 348 349
326 324 322 320 319 318 316 314 313 311 310 309 309 309 309 309 310 309 310 311 312 313 314 315 318 320 321 322 323 322 321 321 322 325 327 330 332 335 336 336 336 337 337 337 336 335 333 333 333 333 333 334 336 337 337 339 339 340 342 343 344 346 347
324 322 320 320 319 318 316 314 312 311 310 309 308 308 308 308 308 309 308 308 309 309 309 310 312 313 313 313 315 317 320 321 320 321 325 329 331 332 333 333 333 333 332 330 328 326 323 322 323 324 325 328 330 331 332 332 332 333 334 335 337 340 342
324 322 321 320 319 318 316 314 312 311 310 309 308 308 308 307 307 308 307 307 308 308 308 308 308 308 309 309 310 311 314 318 319 319 321 324 327 329 330 330 329 329 327 326 324 321 318 316 317 318 321 324 326 328 329 329 330 330 331 331 332 335 337
324 322 321 320 319 318 315 313 312 311 310 309 308 308 308 307 307 307 307 307 307 307 307 307 307 307 307 307 308 308 309 312 314 316 317 319 322 325 327 327 326 326 325 324 323 322 320 318 316 316 317 319 321 323 324 325 327 328 329 330 331 332 333
323 322 320 319 319 317 315 313 312 311 310 309 308 308 308 307 307 307 307 306 307 307 306 306 306 307 307 306 306 307 307 308 308 310 312 314 315 318 320 321 322 322 321 320 320 320 320 318 317 315 315 315 316 317 318 319 320 322 325 327 329 330 330
323 321 320 319 319 317 315 313 312 311 310 309 308 308 308 307 307 307 306 306 306 306 306 306 306 306 306 306 306 306 306 306 306 307 308 311 313 315 317 317 318 319 320 319 318 317 317 316 316 315 314 314 315 315 315 316 316 316 318 321 323 325 326
322 321 320 319 318 316 314 313 312 311 310 309 309 308 308 308 308 307 306 306 306 305 305 305 306 306 306 306 306 306 306 306 306 306 306 308 312 316 318 318 318 317 318 318 318 317 317 316 316 315 315 314 314 314 315 315 315 315 315 315 316 317 318
321 320 319 319 318 316 314 313 312 312 311 310 309 309 309 309 309 308 307 306 305 304 304 304 304 304 304 304 305 305 305 305 305 305 305 306 307 310 313 316 317 318 318 317 317 317 316 315 315 316 316 316 316 315 315 315 315 315 315 314 314 314 314
321 320 319 319 318 316 314 314 313 312 312 311 310 310 310 310 309 309 308 306 305 304 304 304 304 304 304 304 304 304 304 305 305 305 305 306 307 307 309 312 315 317 319 320 319 318 317 315 315 316 317 317 317 317 317 317 317 316 316 315 315 315 314
320 319 319 319 317 316 314 313 313 313 312 311 311 311 311 310 310 309 308 307 305 304 303 304 304 305 305 305 305 305 305 306 306 306 306 307 307 308 310 314 317 319 319 320 321 320 319 318 317 316 316 317 317 317 317 318 318 317 317 317 316 316 316
320 320 320 319 317 316 314 314 314 313 312 312 312 312 312 311 311 311 310 309 307 304 303 304 304 305 305 305 305 306 306 306 306 307 307 308 309 310 311 314 317 319 320 320 321 321 320 320 319 319 317 316 316 317 317 317 317 317 317 316 316 316 316

ECMWFFLT1_850_thetae_129.txt.gz
Theta_e
346 347 346 346 345 345 345 345 347 348 349 350 352 353 352 351 352 352 353 354 353 348 345 345 347 346 345 346 346 347 348 348 348 349 352 355 356 354 353 353 353 354 354 353 352 354 353 352 353 352 349 344 345 347 346 345 344 345 344 342 347 349 351
348 347 346 346 346 345 344 345 347 348 349 350 352 352 351 351 352 353 353 354 353 349 345 346 345 344 345 348 347 346 348 350 350 349 353 354 354 355 355 356 355 353 355 355 354 353 352 350 350 350 348 346 347 346 345 346 344 346 348 343 344 347 345
351 349 346 345 346 345 344 344 347 349 350 350 351 351 350 351 352 353 354 353 353 351 349 348 346 344 346 348 348 345 346 351 353 351 354 353 351 355 356 355 354 353 355 355 354 353 352 350 348 347 347 349 350 348 346 347 344 346 349 344 345 349 344
352 351 349 347 345 345 345 345 347 348 349 349 350 350 350 351 352 353 355 354 352 352 353 351 349 348 349 348 349 348 345 350 354 354 355 354 352 355 356 355 354 355 356 355 355 355 355 353 348 346 347 348 350 348 346 348 346 345 346 344 347 351 347
353 352 353 351 347 345 345 344 346 348 348 349 350 350 349 350 352 353 353 353 351 350 352 353 352 352 351 349 351 352 348 348 353 355 356 355 355 355 356 355 355 357 357 356 356 355 354 354 352 347 346 347 349 349 347 346 346 345 344 343 347 350 351
353 353 354 354 350 347 346 345 345 348 347 349 350 350 350 349 351 352 352 352 352 350 350 351 351 352 352 351 352 353 353 350 350 353 356 357 356 355 356 356 355 356 357 356 356 355 352 354 354 352 351 350 351 353 352 349 349 348 346 344 346 350 353
353 353 353 355 353 349 347 346 346 347 349 349 347 347 349 350 352 352 351 350 351 350 350 349 350 351 351 352 352 352 354 352 350 352 356 357 356 355 356 357 356 356 356 356 357 356 353 354 355 354 354 354 354 356 356 354 353 354 350 345 345 346 350
354 355 355 356 354 350 349 347 347 347 349 349 347 347 350 352 353 353 351 351 350 350 351 349 349 350 351 351 351 352 352 352 352 353 355 356 356 356 355 356 356 356 356 356 356 357 355 354 355 355 354 356 355 356 357 353 350 354 354 350 346 345 349
356 358 357 356 354 352 350 348 347 348 349 349 347 349 352 353 353 352 351 351 351 351 352 352 350 350 351 351 351 351 351 350 352 352 353 355 356 355 355 355 356 356 356 357 355 356 356 355 356 356 354 356 355 354 356 351 345 351 356 353 348 346 350
357 357 357 355 353 352 352 351 350 351 352 351 349 352 354 354 354 353 351 351 352 353 353 352 352 351 351 352 351 351 351 350 351 351 351 352 352 354 354 353 354 355 355 356 355 355 356 355 358 356 351 353 355 350 350 350 348 351 356 354 350 349 351
356 355 356 353 350 349 353 355 353 353 355 354 353 355 356 356 356 354 352 352 353 355 355 354 353 352 352 353 352 350 351 350 349 349 349 350 350 351 352 352 353 354 354 354 354 354 355 355 358 357 350 351 355 351 348 350 350 352 355 357 356 353 354
354 354 355 353 349 347 350 352 353 354 356 356 356 357 358 359 358 356 354 355 355 357 358 357 356 355 352 353 352 350 350 350 349 348 348 348 348 349 350 349 350 352 352 352 352 353 355 354 355 357 354 353 357 355 350 348 351 352 352 356 359 356 356
352 352 353 352 350 347 347 348 349 351 353 356 357 357 357 359 359 357 356 357 358 358 360 360 359 355 351 350 351 350 350 350 349 348 347 348 347 346 347 347 348 348 349 350 350 351 354 355 355 356 356 355 357 358 354 348 350 350 348 352 358 358 358
351 351 351 353 352 349 348 347 346 347 349 352 355 355 356 357 358 357 357 359 360 359 361 360 356 351 348 348 350 349 348 350 351 350 348 347 347 346 346 346 346 346 347 347 348 349 349 351 353 354 356 356 355 358 357 353 350 349 346 348 353 357 358
350 351 352 353 352 351 350 348 346 345 344 346 348 352 355 355 355 355 355 358 359 358 360 360 354 349 348 348 349 348 346 348 352 353 353 351 350 349 347 346 346 346 346 346 346 346 346 346 348 350 353 355 355 355 356 355 354 352 350 349 351 353 356
350 350 351 352 352 352 353 352 350 348 346 345 344 347 351 353 353 354 353 356 357 357 360 360 354 349 349 348 349 349 347 348 351 352 353 353 353 351 350 349 349 348 348 348 347 347 346 345 345 346 348 350 352 352 353 353 353 352 352 352 352 353 356
349 349 348 349 350 351 352 353 353 352 351 350 348 347 348 349 351 352 352 354 357 358 359 356 352 352 353 351 349 348 346 346 347 348 349 350 350 350 348 349 352 352 351 350 349 349 348 348 347 346 345 346 347 349 350 349 348 348 349 348 347 348 352
347 345 346 346 347 349 349 350 352 353 353 353 352 351 349 349 349 348 348 351 353 355 356 354 353 354 356 356 354 353 350 347 347 347 347 348 348 348 347 345 348 351 353 353 352 351 349 349 349 349 347 345 345 347 347 346 345 345 345 346 345 343 344
344 343 343 343 343 344 346 348 350 351 351 350 351 351 351 350 349 347 346 346 347 350 352 353 353 353 355 358 358 356 353 352 353 351 349 350 350 349 349 346 345 348 353 354 353 352 352 351 349 349 349 346 345 345 346 346 346 345 345 346 346 344 342
342 342 341 340 341 342 343 345 346 347 347 348 349 350 351 351 349 348 346 344 345 348 348 350 353 353 354 356 354 353 352 354 357 355 354 354 351 350 352 351 349 351 353 354 354 354 357 356 353 351 351 350 348 347 347 347 347 346 345 345 345 345 342
341 341 340 339 340 340 342 343 344 345 346 346 347 348 349 349 347 347 346 345 345 344 344 347 351 351 351 351 350 350 350 350 351 351 352 352 351 353 355 353 353 354 353 354 355 354 355 355 353 351 351 352 350 349 351 351 350 348 347 347 346 346 344
340 340 339 338 338 338 340 341 342 343 343 343 344 346 347 347 346 347 347 346 346 345 344 346 348 347 347 348 348 348 348 347 346 346 348 349 350 352 353 351 353 354 353 354 355 353 352 354 354 352 352 353 352 351 351 352 352 351 350 348 348 347 347
339 338 338 337 337 337 338 338 339 340 340 340 341 342 342 342 343 346 347 346 345 346 346 347 347 346 347 348 347 347 347 346 346 345 346 347 348 349 349 350 351 350 351 353 352 352 353 353 353 353 353 353 353 352 352 352 352 351 350 349 348 348 349
337 336 335 335 335 335 334 335 336 335 334 334 335 337 339 339 340 342 342 342 342 344 345 345 346 346 346 345 344 344 344 343 345 346 346 347 347 347 348 349 348 347 349 352 352 352 352 351 350 350 352 353 353 352 352 353 352 351 350 349 349 348 350
332 332 331 331 331 330 329 330 331 331 329 327 327 329 333 336 338 339 339 339 340 340 342 343 343 343 342 342 340 340 340 340 342 343 342 343 344 344 345 345 345 346 347 347 346 346 345 346 346 346 348 350 351 351 351 352 352 351 351 350 350 350 350
329 329 330 330 329 328 327 327 328 329 327 325 325 324 324 327 331 333 335 336 337 338 338 338 338 337 336 335 335 335 335 336 338 339 338 339 340 341 342 342 342 343 343 342 342 342 341 343 344 345 346 346 346 347 348 348 349 348 348 348 349 349 350
329 329 328 328 328 329 329 329 329 327 323 323 326 325 322 321 322 324 325 327 329 331 332 332 331 329 328 328 328 329 329 331 333 334 334 335 336 336 337 337 337 337 337 337 337 337 338 339 340 340 342 344 344 344 344 345 344 344 344 345 345 346 347
329 328 328 328 329 329 327 327 327 326 323 324 325 323 319 316 316 318 320 319 319 321 323 323 323 322 321 321 321 322 323 325 327 328 328 328 328 328 328 328 328 328 328 328 329 329 330 331 330 330 332 334 336 337 337 336 335 336 336 337 339 340 340
330 329 329 329 328 327 326 325 325 326 325 326 325 322 317 312 310 313 316 317 316 316 317 318 318 318 319 319 319 319 319 320 321 320 320 320 322 322 322 322 322 322 322 323 324 323 324 324 323 323 324 324 325 327 327 326 327 328 329 329 331 332 332
329 328 328 327 325 325 325 325 325 325 322 320 319 317 314 309 308 309 310 311 312 313 314 315 316 317 317 317 317 317 318 322 325 324 321 321 322 324 324 324 324 323 321 322 324 324 326 326 325 326 327 327 326 324 323 323 325 326 326 327 328 329 329
328 327 327 325 324 325 325 323 321 318 315 312 311 311 310 308 307 308 308 308 309 310 310 311 312 314 313 312 315 317 320 325 328 329 328 328 328 329 330 329 328 327 324 323 323 324 326 327 327 330 332 332 332 330 327 325 325 324 324 324 324 323 324
328 327 326 325 324 323 321 318 314 310 309 309 308 308 308 307 307 308 307 306 306 307 308 309 308 308 309 310 314 318 323 327 327 328 329 329 329 330 330 330 330 327 326 327 326 323 322 322 323 327 329 328 330 332 330 328 327 327 327 325 324 325 324
328 327 326 323 320 318 318 318 316 313 312 311 310 309 308 307 307 307 307 310 311 308 305 307 307 307 307 308 310 317 325 328 326 324 322 323 326 327 327 329 330 326 325 329 330 327 326 326 326 327 327 325 325 328 330 330 329 330 328 325 325 326 325
329 328 325 320 317 319 321 321 318 314 312 311 311 310 308 307 307 306 309 316 317 311 307 309 310 308 307 308 310 315 319 319 319 320 318 318 324 328 327 327 328 326 326 329 329 327 329 329 327 327 327 328 327 329 331 330 328 329 327 322 319 319 320
326 326 322 317 317 320 321 319 315 313 311 310 310 310 309 309 308 307 307 311 311 308 308 310 311 311 312 314 314 312 311 312 319 326 325 322 322 326 327 327 327 327 327 327 326 327 328 328 327 327 327 328 327 328 329 329 327 327 325 320 315 315 316
327 328 323 318 319 320 318 315 313 313 312 311 310 310 309 309 309 308 307 306 305 306 306 308 313 318 320 322 321 318 317 320 322 323 325 325 325 323 322 322 324 327 326 320 318 320 321 322 324 324 323 324 325 323 324 327 328 325 321 316 315 315 315
330 329 324 319 320 320 317 315 314 314 313 312 311 311 310 310 309 309 308 307 306 305 304 309 319 324 324 324 324 321 322 325 324 319 318 322 325 325 323 320 319 321 320 315 313 314 315 315 317 317 316 319 322 319 316 319 320 319 316 315 314 314 314
331 329 323 319 320 319 316 315 314 314 313 312 312 312 312 311 311 311 309 308 307 305 303 310 320 325 323 320 316 312 314 320 321 319 318 317 317 319 322 324 323 321 319 318 317 317 315 313 313 313 312 314 317 316 314 314 313 313 313 314 314 314 314

ECMWFFLT1_850_thetae_132.txt.gz
Theta_e
348 346 345 346 346 345 347 348 348 349 349 350 351 351 350 352 353 355 355 353 350 347 346 346 345 346 347 348 349 348 349 348 346 348 347 345 349 348 344 347 351 349 348 346 347 351 351 352 353 350 345 344 344 346 346 344 345 345 347 347 347 348 348
348 348 346 345 346 346 347 349 348 349 349 350 352 351 350 351 353 355 354 349 346 346 347 347 346 346 346 347 349 349 348 348 348 348 349 348 350 349 346 350 351 350 351 350 349 352 351 351 352 349 346 344 343 346 345 344 344 344 344 342 342 345 347
348 347 347 346 346 346 348 349 348 349 350 350 352 352 351 352 352 354 355 350 344 343 347 347 345 345 345 345 348 348 347 350 349 348 351 350 348 349 349 352 351 348 351 351 350 351 350 350 349 348 347 344 343 346 345 345 344 344 344 342 341 344 344
349 347 346 346 345 346 347 347 348 349 349 350 353 352 351 352 352 353 355 353 346 342 344 346 345 345 345 345 345 345 346 349 348 349 353 351 349 352 353 353 353 351 352 353 351 350 351 350 348 346 347 346 345 347 345 345 345 343 344 344 343 344 345
349 347 347 346 346 346 345 346 347 348 349 350 351 352 352 351 352 353 355 355 351 345 344 347 350 347 346 346 346 345 345 347 350 352 354 351 350 354 355 354 353 353 354 354 352 351 351 352 350 347 346 346 347 347 345 346 346 343 343 344 344 345 348
349 349 348 347 346 346 346 345 347 348 349 350 350 351 351 350 351 352 353 355 354 352 351 352 353 350 346 346 348 348 346 345 350 354 354 351 351 353 354 353 353 354 355 356 354 353 351 353 354 350 346 346 347 349 348 346 346 345 343 343 344 346 351
351 350 349 347 347 347 346 344 346 349 349 350 350 350 350 349 351 351 352 352 352 352 353 354 354 352 350 348 351 353 351 346 348 353 355 353 351 353 355 355 354 354 355 355 355 355 352 352 355 353 350 349 350 353 354 351 349 349 347 344 343 345 349
353 350 350 351 348 346 347 345 346 348 349 349 349 349 349 350 349 350 350 350 350 350 352 352 353 353 353 352 353 354 354 352 350 350 355 356 354 354 355 355 355 354 354 353 354 356 354 353 354 354 353 354 353 354 356 355 353 354 353 348 344 344 346
350 348 350 353 351 347 346 346 345 346 348 348 348 350 350 349 349 350 350 350 350 349 350 351 351 352 353 353 353 353 354 355 353 349 352 356 356 355 354 355 356 355 354 355 354 354 354 354 354 354 354 354 355 354 355 355 353 353 354 353 349 345 347
346 346 350 353 353 351 347 346 346 346 348 348 349 349 350 349 349 350 350 349 350 350 350 350 350 351 351 351 352 353 352 354 354 351 351 353 354 354 353 354 355 354 354 355 355 354 355 355 355 355 354 353 355 355 354 355 351 347 351 356 354 349 347
350 350 353 352 353 353 349 347 347 347 349 350 349 348 348 349 350 350 349 349 349 351 351 350 349 350 351 350 351 352 352 353 353 353 352 352 353 353 353 353 353 353 354 354 354 354 355 355 355 356 354 351 354 355 352 351 350 346 350 356 356 353 351
353 355 355 353 354 354 350 348 347 347 348 349 349 348 347 348 349 349 348 349 351 351 351 351 350 350 351 351 352 352 352 351 351 351 351 351 351 351 351 352 352 353 353 353 354 354 354 354 354 356 355 350 352 355 350 347 347 347 349 354 357 357 354
353 354 355 355 355 354 352 350 349 349 349 349 349 348 348 348 348 348 348 350 351 351 352 352 351 351 352 351 352 351 351 352 351 350 350 350 349 349 349 350 350 351 352 352 352 352 352 354 354 354 355 353 353 356 354 349 349 349 349 350 355 356 353
350 352 354 354 354 353 353 353 352 352 353 352 349 349 351 350 346 348 351 351 352 353 354 353 353 354 352 352 352 352 350 351 351 350 348 348 348 348 348 348 348 349 350 350 350 351 351 353 353 354 355 354 353 355 356 353 352 352 351 348 351 353 353
349 350 351 352 351 351 351 352 354 355 355 355 353 351 352 351 348 352 354 354 354 355 355 355 355 356 354 353 354 353 351 348 349 351 348 347 347 347 346 347 347 347 347 347 348 349 349 349 349 351 353 353 353 355 355 355 355 354 352 350 350 351 354
350 350 351 351 351 350 348 349 350 351 353 355 355 354 355 355 354 356 357 356 356 355 355 356 357 357 355 353 353 353 353 350 349 350 349 348 348 348 347 346 345 346 346 346 347 347 347 347 347 347 348 349 351 352 353 354 355 354 353 352 351 350 350
350 350 350 351 351 351 349 348 346 345 347 350 351 352 354 356 356 356 356 357 355 353 352 354 355 352 350 352 353 352 351 352 353 352 352 353 353 351 350 349 348 348 347 346 346 346 346 346 346 346 346 346 346 348 350 352 351 351 351 350 349 348 346
350 349 349 349 350 350 352 351 348 347 348 347 347 347 348 353 355 355 355 356 355 352 349 350 349 345 345 350 351 350 349 351 353 354 355 355 353 352 352 350 349 350 349 348 348 347 347 348 349 348 347 347 345 344 347 348 348 349 349 347 346 345 345
347 347 347 348 349 350 352 353 353 352 352 352 352 349 346 348 350 352 353 353 353 350 349 351 349 345 345 349 348 350 353 350 347 350 355 355 352 351 350 347 347 349 349 349 349 349 349 350 350 349 348 348 347 346 345 345 346 347 347 346 346 346 347
344 344 344 345 346 349 350 351 352 353 354 354 354 352 349 348 348 349 350 350 350 350 350 352 352 348 349 349 347 350 353 350 345 345 350 351 350 350 348 346 346 346 346 347 348 349 350 351 350 349 347 348 348 347 346 345 344 345 345 346 345 345 346
343 343 342 342 344 346 347 348 350 351 352 353 353 352 352 351 350 350 349 349 349 350 351 351 350 350 350 350 349 350 351 351 350 348 347 349 349 349 348 348 347 346 346 346 346 347 349 349 349 349 349 350 349 348 347 346 345 345 346 346 346 345 345
342 341 340 341 342 343 344 346 347 348 350 350 351 351 352 352 351 350 350 348 348 350 350 351 350 351 352 352 352 352 351 351 350 347 347 348 348 349 350 351 350 349 349 349 347 348 349 348 347 347 348 350 351 349 349 348 347 347 347 348 348 346 346
340 340 340 339 339 341 343 344 344 345 346 347 348 348 350 350 350 350 349 349 349 348 349 349 349 350 351 352 351 350 349 348 347 345 347 347 348 349 349 350 349 349 350 349 349 349 349 349 349 348 348 351 352 351 351 350 349 349 349 350 351 350 348
339 339 339 338 338 339 339 340 341 342 342 343 343 344 345 346 347 348 348 347 348 347 346 347 347 347 347 348 347 347 347 347 346 346 346 345 345 346 346 346 346 348 349 350 350 350 350 350 351 351 351 351 352 351 350 350 351 351 351 352 353 352 351
339 338 338 337 337 336 336 337 337 337 339 340 340 340 341 341 343 344 345 345 345 345 345 345 345 345 346 346 345 346 346 346 346 347 346 345 346 346 347 346 346 347 349 349 349 349 349 349 349 349 349 349 350 350 350 350 351 351 352 353 352 352 352
337 336 336 336 335 334 333 334 334 333 334 336 337 338 339 339 340 341 342 343 343 343 343 342 342 343 343 343 343 343 343 343 343 344 344 345 345 345 345 346 345 346 347 346 345 345 344 343 342 342 344 345 346 347 347 347 348 349 350 351 351 350 349
333 332 332 333 333 332 331 331 331 331 331 332 333 335 336 338 339 339 339 340 340 340 339 339 339 339 339 339 339 339 339 339 340 341 341 341 342 342 342 341 341 342 342 341 341 341 340 340 341 342 343 344 343 343 343 345 345 346 346 347 347 347 347
330 331 331 332 331 329 328 328 328 328 329 330 330 330 331 334 336 337 337 337 336 335 333 332 332 332 333 334 335 336 336 336 337 338 338 337 338 338 337 335 334 334 335 335 335 334 333 334 336 337 336 337 337 336 336 337 337 337 338 339 338 340 341
329 330 330 328 327 327 326 327 327 326 327 327 324 323 322 324 326 329 330 331 330 327 324 324 324 324 325 327 330 331 332 332 331 331 330 331 331 330 329 328 326 325 327 328 327 328 327 326 327 327 326 327 328 327 327 326 326 327 329 328 329 330 331
329 328 327 326 326 327 327 328 328 327 325 320 315 313 315 316 317 319 320 322 322 321 320 320 319 320 320 321 323 323 323 325 324 321 321 323 323 321 321 322 323 322 322 322 323 325 325 323 324 325 324 323 324 324 323 321 321 323 324 323 323 324 325
328 327 326 326 327 328 327 326 324 322 319 314 309 308 310 310 312 313 313 314 315 316 316 317 316 316 316 317 319 320 321 323 325 324 325 325 324 323 322 323 325 324 323 322 323 325 324 325 327 329 328 328 328 326 323 322 324 325 324 322 320 320 321
326 326 326 326 326 325 321 317 314 312 312 311 309 308 308 308 309 309 308 308 310 311 313 313 312 311 311 313 318 321 324 327 328 328 329 329 329 328 329 330 330 328 327 328 329 326 323 324 326 328 329 330 331 328 324 327 329 328 325 324 322 319 318
326 326 326 325 324 320 316 313 312 311 311 311 310 309 308 307 307 307 308 310 309 308 309 309 308 308 309 312 317 323 327 330 329 324 322 325 328 329 329 331 330 326 327 332 332 328 326 326 327 327 328 328 328 326 328 332 332 329 327 327 325 322 319
327 326 323 321 321 319 316 315 315 313 312 312 311 309 308 307 310 314 320 322 316 308 307 308 307 308 310 315 320 323 324 325 324 320 318 323 328 329 329 330 329 326 326 330 329 328 329 329 328 327 329 329 329 329 331 332 331 330 330 329 328 326 321
326 322 318 318 320 320 317 316 314 313 312 311 310 309 308 308 310 313 318 320 314 307 308 309 308 310 312 315 317 316 312 315 323 326 324 322 323 327 328 329 328 326 327 327 327 327 329 328 325 324 325 325 328 331 332 331 330 330 329 328 328 326 319
324 319 316 318 320 319 317 315 315 314 313 312 311 310 309 308 308 308 308 309 307 307 307 307 308 314 318 319 318 316 314 318 324 329 328 324 323 325 326 327 327 327 327 327 327 326 327 327 325 323 321 320 321 323 324 326 328 328 327 327 327 323 315
324 321 318 318 319 318 316 316 315 314 314 313 312 311 310 309 309 309 307 307 307 306 305 308 315 321 324 326 325 323 324 325 325 324 327 328 327 324 322 322 324 324 324 325 325 322 320 320 320 319 317 316 315 314 313 316 319 320 321 321 319 315 311
328 326 322 321 322 320 316 315 315 314 314 314 312 312 311 311 310 309 308 307 307 306 309 317 324 326 325 325 324 322 324 326 324 321 323 326 326 322 318 318 320 320 318 320 321 318 314 313 313 312 312 311 311 310 309 311 312 312 312 313 311 310 309

ECMWFFLT1_850_thetae_135.txt.gz
Theta_e
348 347 347 347 346 347 348 349 350 350 349 349 350 351 351 352 352 349 347 347 346 345 345 345 347 347 347 346 347 346 347 348 347 347 346 345 344 343 343 344 343 343 344 343 343 345 346 347 348 347 346 346 347 348 346 344 345 347 350 352 348 345 345
349 347 346 346 346 346 348 349 349 350 350 349 351 352 352 352 353 350 347 347 347 345 344 345 346 347 348 347 347 347 346 347 346 346 345 343 343 342 341 343 344 343 343 343 343 345 348 350 352 350 347 345 344 345 345 343 343 344 345 346 345 345 347
350 348 346 346 346 345 347 349 349 349 350 350 350 351 352 352 353 352 348 347 348 346 344 344 345 346 348 348 347 347 347 346 346 346 346 344 344 344 341 342 345 345 345 345 344 346 348 351 353 350 346 344 343 344 345 343 343 342 342 341 341 344 346
351 349 347 346 346 345 347 348 349 350 349 349 350 350 352 352 353 353 351 348 347 347 345 344 345 345 347 347 347 347 347 346 346 346 346 345 346 346 344 345 347 346 347 347 345 347 349 349 349 349 345 343 342 343 345 344 343 343 342 341 340 342 343
351 349 348 346 345 345 347 348 349 350 349 349 350 350 351 352 353 353 353 350 346 346 345 344 345 345 346 346 347 347 347 347 346 346 347 347 347 348 347 349 350 348 348 351 349 349 350 348 346 346 345 344 344 344 345 345 344 343 343 343 341 342 343
351 350 348 346 346 346 347 348 348 349 350 350 350 351 350 351 353 353 353 352 346 343 346 346 344 345 345 345 346 347 346 347 346 346 347 348 348 349 350 351 351 349 349 351 351 350 350 348 347 345 345 346 345 345 345 345 345 344 342 343 343 342 344
351 350 348 346 346 346 347 348 348 348 349 350 351 351 351 351 352 352 353 353 349 343 344 345 345 344 344 344 345 346 345 346 347 346 348 350 349 349 352 352 351 350 351 351 352 352 351 350 348 346 346 346 345 345 347 346 345 345 343 343 343 343 344
349 349 347 347 346 346 347 347 348 348 348 349 351 352 351 351 351 353 354 354 352 347 344 344 345 344 344 345 348 348 345 345 349 350 350 351 350 350 352 353 352 352 353 354 353 354 354 352 351 350 349 347 346 347 349 349 348 347 345 344 344 344 344
348 348 348 348 348 346 346 347 346 347 348 349 351 351 351 352 351 353 354 354 354 351 348 348 348 346 343 344 348 351 349 346 348 351 352 353 352 351 353 354 353 353 354 355 354 354 355 354 353 353 352 351 351 352 352 353 354 351 349 348 347 346 345
349 350 350 351 351 347 346 346 345 346 348 348 350 351 351 351 351 352 353 354 354 353 350 351 352 351 347 345 348 354 355 351 349 350 353 355 355 353 354 354 353 354 354 354 354 354 355 354 353 353 354 354 354 355 354 354 355 355 352 351 351 351 348
350 352 351 350 351 349 346 346 346 346 348 349 350 351 351 350 350 351 351 351 353 353 351 351 353 354 352 348 349 354 355 354 354 352 352 355 356 355 356 354 353 354 354 354 355 355 355 354 354 354 355 355 354 355 355 354 355 355 354 352 354 354 352
350 352 352 349 349 350 349 349 347 347 348 349 350 350 350 350 349 350 350 349 350 352 351 351 352 353 352 350 350 353 353 353 355 354 352 353 353 353 354 354 353 354 354 354 355 355 354 354 353 353 354 355 354 353 354 355 355 354 353 353 355 355 354
350 351 351 349 348 349 351 351 349 349 348 347 348 348 349 350 349 349 350 349 349 350 350 350 350 351 351 350 351 352 353 352 353 353 353 352 352 352 352 352 352 352 353 354 354 354 354 353 352 353 354 355 355 353 354 355 355 353 351 353 355 355 356
352 353 352 351 349 347 348 349 349 350 350 347 347 349 348 348 348 348 350 349 348 350 350 348 349 351 351 350 351 352 352 351 351 351 351 351 351 351 350 349 349 350 351 352 352 352 352 351 352 353 354 355 356 355 354 355 356 354 352 353 354 354 355
353 354 353 352 352 348 347 349 350 350 350 349 348 349 348 347 347 348 350 350 348 350 350 347 348 352 352 350 351 351 351 351 351 350 350 349 349 349 348 348 347 348 349 349 349 350 350 350 350 351 351 352 353 354 354 355 355 355 354 353 353 353 353
352 354 353 353 353 353 351 352 352 351 350 350 349 348 348 347 348 349 349 350 349 348 349 348 348 351 352 351 351 350 350 351 351 350 349 348 348 347 347 347 347 347 347 347 347 347 348 348 349 350 349 348 349 352 354 354 354 353 353 353 353 353 352
350 352 353 352 353 353 352 352 352 352 351 351 350 349 349 348 349 349 347 348 349 347 348 348 348 350 352 352 351 349 349 350 350 350 350 348 348 347 347 346 346 346 346 346 346 346 346 347 348 349 349 347 349 351 351 352 352 352 352 352 353 353 351
348 349 349 350 350 350 350 351 353 354 354 352 351 350 350 350 351 349 348 348 349 348 348 350 352 354 353 352 351 350 349 348 348 348 348 348 348 347 347 346 346 345 346 345 346 346 345 346 347 347 347 347 348 348 347 348 348 349 349 349 350 349 347
349 348 348 349 347 347 348 350 352 353 353 353 352 351 351 351 350 349 349 350 350 349 349 350 352 354 355 354 352 350 349 348 347 346 347 348 349 348 347 347 346 345 345 345 346 346 345 346 346 347 347 347 347 347 346 345 346 346 347 348 348 348 346
347 348 348 347 346 347 349 350 351 350 350 351 351 351 350 349 349 349 350 350 348 346 346 347 351 354 356 355 353 351 349 348 346 345 343 342 344 346 346 347 347 347 346 346 347 347 347 347 347 347 347 347 347 348 347 346 346 346 345 346 346 346 346
345 345 346 346 347 349 350 351 351 350 350 349 349 348 348 347 347 349 349 347 346 344 345 349 352 354 354 352 351 351 351 349 348 347 343 339 340 342 344 345 345 346 346 345 345 346 346 346 348 349 349 349 348 348 347 346 347 346 345 344 344 344 345
343 343 344 345 346 348 350 351 351 351 351 350 350 349 348 347 346 345 345 345 347 349 351 353 354 352 351 350 351 352 352 352 351 350 348 345 343 343 344 345 345 344 345 344 344 344 344 344 346 349 350 350 350 349 348 347 347 346 346 346 345 344 344
341 340 341 342 344 346 347 349 350 350 350 350 351 351 351 349 348 348 347 347 349 351 351 353 355 354 351 351 352 353 353 353 352 352 351 349 347 346 346 346 346 346 345 346 346 346 346 345 346 348 349 350 350 350 349 349 348 348 348 348 348 346 346
340 340 340 340 342 343 344 345 346 347 348 349 349 350 350 350 350 350 350 350 350 350 350 351 352 353 352 352 353 352 352 352 352 351 350 349 348 348 347 347 347 347 348 348 349 349 348 348 348 348 348 348 349 349 349 349 349 350 350 350 350 349 349
339 339 338 339 340 341 342 343 343 344 345 346 346 347 348 349 349 349 350 350 350 350 350 350 348 348 350 351 351 350 349 349 349 347 346 347 347 346 347 347 347 347 347 347 347 347 348 349 349 349 348 348 349 349 349 349 350 350 350 350 350 351 351
337 337 337 337 336 338 339 340 340 341 342 343 343 343 344 345 346 347 348 348 348 348 347 347 346 345 346 347 348 347 345 344 344 344 345 346 346 345 346 346 346 346 345 345 345 346 347 348 348 346 346 347 348 347 347 348 348 348 348 349 349 350 350
336 335 334 334 334 334 335 336 337 338 339 339 339 340 341 342 343 344 344 344 345 345 345 344 344 344 344 344 345 345 345 344 344 345 346 346 346 346 346 346 346 346 346 345 345 345 345 345 344 343 343 344 345 345 344 344 345 345 346 346 347 348 348
334 333 332 332 332 332 332 332 334 335 336 336 337 338 338 339 341 341 342 342 342 342 341 341 341 342 342 342 341 342 342 342 343 343 344 344 344 345 344 344 344 344 344 343 343 342 342 342 341 341 341 341 341 341 339 339 340 340 341 341 341 341 342
332 330 329 328 328 329 329 330 331 332 333 333 335 338 338 338 338 337 337 338 337 337 338 338 338 339 339 339 339 339 340 340 340 341 341 341 340 340 339 339 338 338 339 339 338 336 336 335 334 333 332 333 333 332 331 331 331 332 332 332 331 331 332
329 328 327 327 327 327 326 327 328 328 327 327 331 335 335 336 336 334 332 331 330 331 333 334 334 335 336 335 335 334 333 333 333 333 333 332 331 331 331 331 329 329 330 331 331 330 328 328 327 326 325 326 326 325 325 324 323 323 324 324 324 324 324
325 326 327 327 328 327 325 322 320 319 319 318 320 323 324 326 328 327 325 324 323 325 327 328 329 329 329 329 329 327 326 326 326 327 326 324 323 323 324 323 322 322 322 323 325 326 324 322 323 322 322 323 324 326 327 326 324 323 322 322 321 320 320
326 327 328 328 328 327 323 319 314 312 312 311 312 313 314 315 318 318 318 318 320 320 320 321 323 322 323 324 325 326 326 326 326 328 328 328 327 327 326 326 325 325 325 323 324 325 325 325 325 326 326 326 326 329 331 330 328 326 326 325 323 321 319
327 327 327 326 324 320 316 312 311 310 309 308 309 309 309 310 311 311 311 314 316 316 314 314 315 317 320 323 326 329 328 326 326 329 330 330 331 331 331 330 327 326 328 327 325 325 326 327 327 328 328 327 327 329 331 330 329 329 329 329 327 324 322
326 326 323 319 315 312 311 310 311 311 310 309 308 308 307 308 308 308 308 309 310 310 310 309 309 312 316 320 323 327 326 322 322 326 326 327 329 330 330 330 325 325 329 331 328 326 326 325 325 325 327 326 326 329 330 330 330 331 329 329 329 327 325
325 322 318 313 312 313 313 313 312 312 311 310 309 308 308 308 309 312 313 310 308 307 308 307 307 309 312 314 315 319 323 322 322 323 322 323 326 328 329 329 326 327 330 331 329 328 328 328 327 325 326 327 328 330 331 331 331 331 330 329 329 328 327
323 322 321 318 317 316 314 314 313 313 312 311 310 309 309 308 310 313 313 310 308 307 307 307 307 308 310 310 309 314 322 326 327 326 324 322 324 326 328 328 327 327 327 328 328 327 328 328 328 326 325 325 326 328 329 330 329 328 328 328 327 326 324
322 323 324 323 319 316 315 315 315 313 313 312 311 309 309 310 309 309 309 308 307 307 307 310 314 317 319 317 313 316 321 325 327 328 327 323 322 324 326 327 327 327 326 326 327 326 326 327 326 325 323 322 320 320 321 321 319 317 317 318 318 317 315
320 320 321 320 318 317 317 316 316 315 315 314 313 311 311 311 310 309 308 307 306 308 313 319 324 326 326 323 319 321 324 324 324 327 328 326 323 322 320 319 320 322 323 322 321 320 320 319 318 317 316 315 314 313 312 310 309 308 308 309 309 309 308

ECMWFFLT1_850_thetae_138.txt.gz
Theta_e
346 344 344 344 348 349 350 351 350 351 352 352 353 353 352 350 350 349 345 344 346 345 345 345 344 343 343 342 342 344 344 343 345 348 346 345 346 346 346 346 344 343 343 341 340 342 342 342 343 343 343 344 345 346 347 347 348 349 348 348 347 343 342
347 345 345 344 347 349 350 350 351 351 351 352 352 352 352 351 351 351 346 343 344 345 345 345 344 344 343 341 341 344 346 346 346 348 347 346 347 347 347 346 344 342 342 342 340 342 343 343 343 344 344 344 345 346 346 346 347 349 349 350 348 345 344
348 346 345 345 347 348 350 350 351 351 351 352 351 351 351 351 350 351 348 345 344 344 345 345 344 345 344 342 342 344 346 347 348 347 346 346 347 347 347 345 344 342 342 343 341 342 344 344 344 346 347 346 344 345 346 345 345 346 348 350 348 346 347
349 348 346 346 347 347 349 350 351 351 351 351 350 350 350 350 350 351 349 346 344 344 344 344 345 346 346 344 344 346 346 346 347 346 345 345 344 345 345 343 343 343 343 342 342 343 345 345 346 348 350 349 346 343 345 345 344 343 345 346 344 344 347
350 349 346 346 347 347 348 350 351 351 350 350 350 349 350 350 350 351 349 346 345 344 344 343 345 346 346 346 346 346 346 345 346 345 345 345 343 342 342 341 342 344 344 344 343 343 344 346 348 349 350 349 346 343 343 345 344 342 342 343 341 341 344
351 349 347 345 347 348 348 348 350 351 350 350 350 349 350 350 350 351 350 347 345 345 344 343 344 345 346 346 347 346 347 346 345 345 346 345 344 344 343 341 343 345 345 346 345 345 346 347 349 348 348 347 345 343 343 344 343 342 342 342 342 341 343
351 348 347 345 346 348 349 348 349 350 349 349 350 350 350 350 350 351 351 349 346 345 344 343 343 344 345 346 346 346 347 347 346 346 346 346 346 346 345 344 345 347 347 348 349 349 349 350 350 349 348 347 346 344 344 344 344 343 343 342 342 342 343
350 349 347 345 346 347 348 348 348 350 349 350 350 350 350 350 350 351 352 351 348 346 345 344 343 344 345 345 345 346 346 347 347 346 346 348 348 347 347 348 348 349 349 349 351 352 351 350 350 351 350 348 346 345 345 345 345 344 344 343 342 342 342
349 349 348 346 347 346 347 347 347 349 350 349 350 350 350 351 350 350 351 352 351 347 344 344 343 343 345 345 345 346 347 346 347 347 346 349 350 349 349 351 351 350 350 351 352 353 353 352 351 351 351 349 347 346 346 348 348 347 346 345 344 343 343
349 349 349 347 347 346 346 346 347 348 349 349 350 351 350 350 350 350 350 351 352 349 345 344 344 344 344 344 344 345 346 346 346 348 348 350 352 350 350 352 353 351 351 353 353 353 353 354 353 352 351 351 349 348 349 351 352 351 350 349 347 347 346
349 348 349 347 346 346 346 346 346 348 349 349 350 351 351 350 350 350 351 351 352 351 347 343 343 344 344 344 345 345 347 347 347 348 350 352 353 352 351 353 353 353 353 354 354 354 354 355 354 353 352 352 352 350 351 353 353 353 354 352 349 349 350
347 347 348 347 347 347 347 346 346 346 348 350 350 351 351 351 351 351 351 352 353 353 349 343 343 343 343 345 346 347 350 352 351 349 350 352 353 353 353 353 354 355 354 353 353 353 354 353 354 354 354 354 353 353 353 354 353 353 354 352 349 349 352
348 347 346 347 349 349 347 346 346 346 346 348 350 351 351 351 351 352 352 353 354 354 350 347 345 346 347 349 349 348 351 355 353 351 351 350 351 352 354 354 355 354 353 353 352 353 353 352 352 353 354 354 353 354 354 354 354 354 354 352 350 349 351
350 349 347 347 349 351 349 346 346 347 348 349 349 350 351 352 351 352 353 354 354 355 354 351 349 349 351 353 351 349 351 353 353 352 352 351 350 351 352 354 355 354 352 352 353 353 353 352 351 351 352 353 353 353 354 352 354 355 354 353 352 351 352
351 351 350 348 348 350 350 347 345 347 351 351 349 350 350 351 351 351 353 354 353 354 355 353 351 351 353 353 352 350 350 352 352 352 352 353 352 351 352 352 354 353 351 351 351 352 352 352 351 351 352 353 353 354 353 350 351 353 353 353 352 352 353
352 352 351 350 349 349 348 348 348 347 349 350 350 350 350 349 350 349 350 351 350 351 352 352 351 351 352 352 352 351 350 351 352 352 351 352 352 351 351 351 352 352 351 350 349 350 351 351 350 351 351 352 352 353 352 350 352 353 353 353 353 352 352
353 352 352 350 350 349 348 349 349 347 346 347 348 348 348 348 348 348 349 350 349 348 349 350 350 350 351 352 352 352 351 350 351 352 351 350 350 350 350 350 349 348 349 350 349 348 348 348 349 349 349 350 350 350 350 352 353 353 353 353 353 353 353
352 352 352 351 350 351 351 350 349 346 346 347 347 347 347 347 347 348 348 349 348 348 349 349 350 349 348 350 352 352 352 350 350 351 351 350 350 349 349 348 347 346 346 347 347 346 345 346 347 347 347 348 349 349 350 351 352 352 352 353 353 353 353
350 349 350 351 351 352 353 351 350 349 348 348 347 347 346 346 347 347 347 347 348 348 348 348 349 347 345 348 351 352 351 351 351 351 351 351 350 349 348 347 347 347 346 345 345 345 345 345 346 346 346 346 347 348 348 349 349 348 348 349 350 350 351
348 347 346 348 349 351 352 352 351 351 350 349 348 348 348 347 346 346 347 347 348 348 347 347 347 346 345 347 351 352 351 350 351 351 351 351 350 349 348 348 347 347 346 346 345 345 345 345 345 346 346 346 346 346 346 347 346 345 344 345 346 348 348
348 348 346 346 347 347 349 351 352 351 351 351 351 350 349 348 347 346 347 348 348 348 348 347 347 346 346 346 349 352 352 350 349 350 351 352 350 349 349 348 348 347 347 347 347 347 346 346 346 346 346 346 346 346 346 347 346 346 345 345 345 345 346
346 347 346 346 346 346 347 349 351 352 352 352 352 353 352 351 350 351 350 349 349 349 349 349 348 348 348 348 350 352 352 348 346 348 351 352 351 350 350 350 349 348 347 347 348 348 348 347 347 347 347 347 347 347 347 347 347 347 347 346 346 346 345
343 344 345 346 347 347 347 347 348 350 351 351 351 351 352 352 352 351 350 349 348 346 346 347 348 349 349 350 352 352 351 348 347 351 352 351 350 349 349 350 350 349 349 348 348 349 348 348 348 348 348 348 348 349 349 349 349 348 348 348 347 347 346
340 341 343 344 346 346 346 347 347 347 348 350 349 349 348 348 348 348 348 348 346 344 343 345 347 349 349 349 350 349 349 349 350 352 353 352 350 349 348 348 348 348 347 347 347 348 347 347 347 346 346 346 347 348 349 349 349 348 348 348 348 348 348
339 340 341 342 344 344 345 346 346 346 347 348 348 349 348 347 346 346 346 347 347 346 347 349 350 351 349 347 347 347 349 350 351 352 353 352 351 350 348 347 347 347 347 348 348 348 348 348 348 348 348 347 347 347 348 348 348 348 348 348 348 349 349
339 340 340 341 341 342 343 344 344 344 345 346 347 349 349 348 348 348 348 349 349 349 351 352 352 352 350 349 350 350 351 351 350 351 351 352 352 350 349 349 348 348 348 348 348 348 348 348 348 348 348 348 348 348 348 348 348 348 348 348 348 348 349
337 339 339 340 340 340 341 342 343 343 344 344 345 347 347 348 348 348 349 349 349 349 350 350 350 350 349 349 350 350 349 347 347 348 348 348 347 346 347 346 345 345 347 347 346 346 346 346 346 346 346 345 345 346 346 346 346 346 346 346 346 346 347
334 335 336 337 337 338 339 340 340 341 341 342 343 343 344 345 346 346 347 346 345 346 347 346 346 346 346 346 346 345 345 345 345 345 345 344 343 344 345 345 343 344 346 345 345 345 345 345 345 344 343 343 342 342 342 342 341 341 341 342 342 344 345
332 332 333 333 334 336 338 338 338 339 339 340 341 341 341 343 344 344 344 343 342 343 342 342 343 343 343 343 344 344 344 344 344 344 344 344 344 344 345 345 344 344 343 342 343 343 341 341 341 340 340 338 335 334 334 335 334 334 334 334 334 336 337
331 330 330 331 332 334 335 334 335 337 339 339 340 340 340 341 342 342 341 340 340 340 340 340 340 340 340 341 342 343 343 342 342 342 341 341 341 341 341 341 340 339 338 337 337 336 333 332 332 331 331 329 327 326 326 327 327 327 327 327 327 327 328
327 328 327 328 329 329 328 328 330 334 336 337 337 337 338 339 340 340 340 338 338 338 338 338 337 336 335 335 335 335 335 334 333 332 331 331 332 332 333 332 332 331 331 329 329 328 327 326 326 326 326 326 325 325 323 323 324 324 323 322 322 322 322
326 327 326 326 326 324 320 320 322 324 326 328 330 331 332 333 334 336 337 336 335 336 336 335 333 330 328 327 327 327 327 326 326 327 327 326 325 325 324 324 325 326 326 326 326 325 325 325 325 325 327 327 327 325 322 322 324 324 323 323 323 323 323
327 327 327 327 326 320 315 313 314 315 316 317 319 321 322 323 323 325 327 328 329 330 330 330 330 328 326 326 325 325 325 325 325 326 326 326 325 324 323 323 324 324 325 327 328 326 325 326 326 326 328 329 329 327 325 325 327 327 327 327 327 327 326
328 327 327 327 324 318 311 309 310 310 311 311 312 312 314 314 314 316 318 319 320 321 320 322 324 324 324 325 325 324 325 325 325 325 326 326 327 327 326 325 326 326 326 326 325 324 324 324 325 325 326 327 328 328 328 328 329 330 329 328 328 328 327
327 327 325 321 317 313 311 310 309 308 308 309 309 309 309 309 309 310 312 314 316 315 313 315 317 317 317 320 324 326 326 327 328 328 327 328 329 328 327 325 326 328 328 327 326 326 325 325 325 326 326 326 326 327 328 329 330 329 329 328 328 327 327
326 323 318 314 313 313 312 312 311 310 309 308 308 308 308 309 309 308 309 310 311 310 310 310 311 313 315 319 324 326 324 324 327 327 325 326 328 326 325 326 327 328 329 329 328 328 327 326 327 327 326 325 325 325 326 326 327 328 327 326 324 320 318
323 317 314 314 315 315 314 313 313 312 310 309 309 308 309 310 311 310 309 308 307 308 308 307 308 311 314 319 324 324 321 319 323 323 321 321 324 324 325 327 327 326 327 327 327 327 327 327 327 327 325 324 324 323 322 321 320 320 319 316 313 310 308
321 315 315 317 316 316 316 316 315 314 313 311 310 310 309 310 310 310 308 308 307 307 307 307 308 309 310 314 319 321 318 316 319 321 320 319 319 321 323 325 325 325 325 325 325 325 325 323 323 323 321 319 318 317 315 313 312 311 309 308 307 307 306

ECMWFFLT1_850_thetae_141.txt.gz
Theta_e
346 341 341 344 347 348 347 346 346 346 347 347 347 349 350 349 345 342 342 344 344 344 344 344 345 345 346 346 345 345 345 344 343 344 344 341 338 338 337 338 338 337 338 339 340 341 340 339 338 338 339 339 340 342 342 344 344 345 345 344 344 343 342
347 343 342 344 346 347 347 346 346 347 346 347 348 349 350 349 346 342 342 344 344 344 344 344 344 345 346 346 345 345 346 345 343 343 343 342 340 341 340 340 340 339 339 339 340 341 341 340 339 339 340 340 341 342 344 344 344 345 347 347 348 347 343
347 344 342 345 346 346 347 347 346 347 346 347 349 350 350 349 348 344 342 343 344 344 344 344 344 344 344 345 344 345 345 345 344 342 342 341 341 343 343 343 343 342 341 341 341 341 340 341 340 340 341 341 342 344 345 346 346 346 348 348 350 349 345
347 345 343 346 347 345 346 347 347 347 347 348 350 350 350 350 348 346 343 343 343 344 345 344 344 343 342 343 343 343 343 343 343 342 342 343 342 343 343 343 344 344 343 343 342 341 340 341 341 340 341 342 342 343 345 347 347 346 346 347 349 348 345
346 347 345 346 348 347 346 347 347 347 348 349 350 350 350 349 349 348 346 346 343 342 344 344 344 343 342 342 342 341 341 342 343 343 344 346 344 344 344 344 343 344 343 343 343 342 342 343 342 341 342 343 343 343 344 345 345 345 344 344 346 346 344
347 347 346 346 349 349 348 349 348 348 349 349 350 350 350 349 349 349 349 349 346 343 343 344 344 344 343 342 342 341 341 342 344 345 346 346 346 345 345 344 342 342 342 343 343 342 342 343 343 343 343 345 344 344 345 344 344 344 343 342 343 343 342
348 348 347 347 349 349 350 350 350 350 350 349 350 350 350 349 349 349 350 350 349 345 343 343 344 344 343 343 343 341 341 344 345 346 347 346 346 346 345 344 342 341 341 343 343 343 344 344 345 345 345 346 346 346 346 344 343 344 344 342 342 342 341
348 348 347 346 349 350 350 351 350 351 351 351 351 351 350 350 349 349 350 350 350 347 343 343 343 343 344 344 344 343 343 345 346 346 347 347 346 345 345 344 343 341 341 345 348 349 349 348 349 349 349 348 347 346 346 345 343 344 344 343 343 343 342
348 347 347 345 347 350 350 351 350 350 351 351 352 351 350 350 349 349 350 350 350 348 344 343 343 343 344 345 345 345 345 346 346 346 346 346 346 345 345 345 345 347 347 349 350 350 349 348 347 348 350 351 350 347 345 345 345 345 345 344 344 343 343
347 346 347 346 346 348 350 350 350 350 351 350 352 353 352 351 348 349 350 350 349 347 345 344 343 342 343 344 345 345 346 346 346 347 346 345 346 346 345 346 349 350 349 348 347 346 346 346 344 344 347 350 352 349 345 344 346 346 346 345 345 344 343
347 346 346 346 346 346 348 349 349 350 350 350 351 353 353 354 352 350 349 350 351 348 346 345 344 342 342 343 345 345 346 346 346 347 346 345 345 346 347 349 350 350 348 347 347 346 346 346 345 345 346 348 352 352 348 346 347 349 350 349 349 348 347
347 346 346 346 346 345 346 347 348 348 350 350 350 351 351 352 353 353 351 349 350 351 348 345 344 344 342 342 344 344 345 345 346 346 346 345 345 346 348 350 350 349 349 349 349 348 349 348 347 347 348 349 352 352 351 350 350 352 352 352 353 352 351
346 345 345 346 346 346 346 347 347 348 349 349 350 351 351 349 350 353 354 352 350 350 350 348 345 344 343 343 343 343 344 344 345 345 346 346 345 347 350 351 351 350 350 350 349 349 350 350 349 348 349 350 351 351 351 353 353 353 353 353 354 353 352
347 346 346 346 346 346 346 346 346 347 347 347 348 349 351 349 347 350 353 354 353 352 351 350 347 344 343 343 343 343 343 343 344 344 344 345 346 348 351 351 351 351 351 351 351 351 350 350 351 350 349 351 352 351 352 352 352 353 353 352 352 353 352
349 348 348 348 347 346 346 346 345 346 346 347 347 348 350 350 348 348 350 351 352 353 353 351 349 345 343 343 343 343 343 343 343 343 346 348 348 349 352 352 351 351 352 352 352 352 351 351 351 351 351 351 351 352 352 352 352 352 352 352 351 351 350
349 348 348 348 347 347 346 346 346 346 346 346 347 348 349 349 348 350 350 348 348 352 353 352 349 344 342 343 344 345 345 345 345 346 349 350 350 351 352 351 351 352 352 352 352 351 351 351 352 352 351 351 351 352 352 352 352 352 350 350 350 349 349
350 349 348 348 348 348 347 346 346 345 346 347 347 347 347 347 349 350 350 349 347 349 352 353 350 346 345 345 347 350 351 349 349 349 351 351 351 352 352 351 351 352 352 352 352 351 351 351 352 352 351 351 352 352 352 352 352 351 350 350 350 350 350
351 350 349 348 348 350 349 347 346 345 345 346 346 346 345 345 348 349 349 350 350 350 353 354 353 350 349 347 348 351 351 351 352 351 351 351 351 352 352 352 351 352 352 352 351 351 350 349 349 351 351 351 350 351 351 351 351 351 351 351 352 352 352
351 351 350 349 348 349 349 348 347 345 345 345 345 345 345 345 347 349 350 351 352 352 354 355 355 354 352 350 350 349 349 350 351 351 351 351 351 351 352 351 351 350 350 350 349 349 349 348 347 348 349 349 348 348 348 348 348 349 350 351 351 352 352
350 351 350 348 348 348 348 349 348 346 345 346 347 348 348 348 348 349 351 352 352 351 351 352 353 354 354 352 351 350 348 350 351 351 351 351 351 351 351 350 350 349 348 348 347 346 347 347 346 345 346 347 347 347 347 347 347 347 347 347 347 347 348
350 350 348 348 349 349 349 349 349 348 346 347 349 349 348 348 348 349 350 350 349 348 347 347 350 352 352 352 351 349 349 351 352 352 352 351 351 351 351 350 349 349 348 347 347 346 345 345 345 344 345 345 346 345 346 346 346 345 345 345 345 344 344
349 348 347 347 348 349 349 349 349 349 347 347 347 346 344 345 346 348 348 347 347 347 346 345 347 349 350 351 350 348 347 350 353 352 351 351 351 351 350 350 349 348 347 347 347 346 345 345 345 344 344 345 345 345 346 345 346 346 346 345 345 345 344
348 347 347 347 347 347 347 348 349 349 348 347 347 345 345 346 346 347 346 346 346 346 345 344 346 347 348 350 349 347 345 347 351 353 352 350 349 349 349 348 347 345 346 347 347 346 346 346 345 345 345 346 346 346 346 346 346 347 347 347 347 346 346
345 346 347 346 347 347 346 346 349 350 349 348 348 347 347 347 346 346 346 346 345 345 346 346 345 346 347 347 348 347 345 346 350 353 352 350 349 349 349 349 347 345 346 347 347 347 348 348 347 347 348 348 348 348 348 348 348 348 348 348 348 348 348
341 343 344 344 345 347 347 346 347 349 349 349 348 349 349 348 347 346 347 347 346 346 348 347 346 347 348 348 348 347 346 348 351 353 352 351 350 349 350 350 349 348 347 347 347 348 349 349 349 349 349 349 349 349 348 348 348 348 348 348 349 349 349
338 340 342 343 344 345 346 346 346 347 348 349 350 351 350 350 350 349 350 350 349 349 350 350 348 348 349 350 350 351 350 351 352 353 352 352 351 351 351 350 349 349 349 348 349 350 350 349 349 349 349 349 348 348 348 348 348 347 347 347 348 349 349
338 338 340 342 342 344 345 345 346 346 347 348 349 349 349 349 349 350 350 350 350 351 351 351 350 348 349 351 352 352 352 352 352 352 352 352 352 352 351 351 350 350 350 349 349 349 349 349 349 349 349 349 348 349 348 348 348 347 347 347 347 347 347
338 338 338 339 340 342 343 344 345 345 345 346 347 347 348 348 347 348 348 347 348 350 350 350 349 349 350 351 350 350 350 350 349 349 350 350 349 349 350 350 350 349 349 349 349 348 348 348 348 348 348 347 347 347 346 346 346 345 345 345 345 345 345
336 336 337 338 338 339 341 342 343 343 343 344 345 345 345 346 346 347 348 347 347 346 346 347 348 348 348 349 348 348 347 346 346 346 346 346 346 346 347 348 347 346 346 346 346 345 346 346 345 345 345 345 344 344 342 342 341 341 340 340 340 341 342
333 334 335 336 336 336 338 340 340 341 341 341 342 342 343 343 344 345 345 345 344 342 342 343 344 344 344 345 345 345 344 343 344 344 344 344 343 344 344 344 344 344 344 343 343 343 343 343 342 342 341 340 339 338 337 336 334 334 334 334 333 334 334
331 332 332 332 331 333 336 339 339 339 339 339 339 340 341 342 343 343 343 342 341 340 340 340 341 342 343 343 343 343 344 343 343 343 343 342 341 342 342 342 342 342 342 341 341 341 340 339 337 336 334 332 330 329 329 328 327 327 327 327 326 326 326
328 328 328 327 326 328 334 337 337 337 337 337 337 339 339 340 341 341 340 339 339 338 339 339 339 340 341 341 341 340 340 340 340 339 338 336 336 337 337 338 338 337 336 335 334 334 334 332 331 329 327 325 324 324 324 324 323 323 322 322 322 322 322
327 326 327 326 323 322 325 328 329 331 332 332 333 333 334 336 338 338 338 337 336 335 335 335 336 337 338 338 337 336 335 336 336 334 331 329 329 329 330 330 330 330 329 328 328 327 327 327 327 327 326 325 325 325 325 326 326 325 324 325 326 326 326
327 327 327 325 320 316 316 317 318 321 323 324 325 325 325 329 333 334 334 334 333 332 331 331 331 331 330 331 331 330 330 330 329 329 327 324 324 325 326 326 326 326 326 326 326 326 326 327 328 327 326 326 326 326 326 327 328 328 328 328 327 325 324
328 327 322 317 314 311 311 310 311 312 314 315 317 317 317 320 325 327 328 328 328 328 328 328 328 327 327 327 326 325 327 328 328 327 326 326 326 327 327 327 327 327 326 326 327 327 327 328 328 327 327 327 327 327 327 328 328 327 326 324 322 320 319
327 323 316 312 312 312 310 309 309 309 309 309 310 311 311 312 315 318 319 320 321 321 320 322 324 325 324 322 320 320 321 324 327 329 328 328 328 328 326 327 328 328 326 326 327 327 327 328 328 327 327 327 326 325 325 325 324 322 320 319 317 316 314
324 317 313 313 314 313 312 312 311 309 309 308 308 308 309 309 310 311 312 314 315 315 315 317 319 319 318 318 319 320 317 315 321 328 328 328 330 328 325 325 328 329 328 328 328 328 328 327 327 327 327 326 326 325 323 322 320 318 315 313 312 310 309
320 315 315 317 316 315 315 314 313 312 311 310 309 309 309 310 310 309 309 310 310 310 311 313 314 315 319 322 325 325 319 315 319 325 325 324 326 327 326 326 327 328 328 328 327 327 327 326 326 325 325 324 323 321 319 317 315 313 311 310 309 309 308